<?xml version="1.0" encoding="UTF-8" standalone="no" ?>
<gpx xmlns="http://www.topografix.com/GPX/1/1" xmlns:xsi="http://www.w3.org/2001/XMLSchema-instance" xsi:schemaLocation="http://www.topografix.com/GPX/1/1 http://www.topografix.com/GPX/1/1/gpx.xsd" version="1.1" creator="VisuGPX - https://www.visugpx.com">
  <metadata>
    <name>2017-08-13 08:04:34 Jour</name>
    <desc><![CDATA[Dernier jour en bikepacking sur la French Divide 2017]]></desc>
  </metadata>
  <trk>
    <name><![CDATA[2017-08-13 08:04:34 Jour]]></name>
    <trkseg>
      <trkpt lat="45.7084" lon="2.8609">
        <ele>786.5</ele>
        <time>2017-08-13T06:04:34Z</time>
      </trkpt>
      <trkpt lat="45.7084" lon="2.86091">
        <ele>786.5</ele>
        <time>2017-08-13T06:04:35Z</time>
      </trkpt>
      <trkpt lat="45.70843" lon="2.86088">
        <ele>787.94</ele>
        <time>2017-08-13T06:04:58Z</time>
      </trkpt>
      <trkpt lat="45.70846" lon="2.86095">
        <ele>791.78</ele>
        <time>2017-08-13T06:05:04Z</time>
      </trkpt>
      <trkpt lat="45.70846" lon="2.86097">
        <ele>794.19</ele>
        <time>2017-08-13T06:05:08Z</time>
      </trkpt>
      <trkpt lat="45.70845" lon="2.86097">
        <ele>798.03</ele>
        <time>2017-08-13T06:05:13Z</time>
      </trkpt>
      <trkpt lat="45.70848" lon="2.861">
        <ele>800.92</ele>
        <time>2017-08-13T06:05:18Z</time>
      </trkpt>
      <trkpt lat="45.70848" lon="2.86099">
        <ele>804.28</ele>
        <time>2017-08-13T06:05:25Z</time>
      </trkpt>
      <trkpt lat="45.70848" lon="2.86098">
        <ele>807.16</ele>
        <time>2017-08-13T06:05:34Z</time>
      </trkpt>
      <trkpt lat="45.70848" lon="2.861">
        <ele>810.53</ele>
        <time>2017-08-13T06:05:46Z</time>
      </trkpt>
      <trkpt lat="45.70847" lon="2.86099">
        <ele>813.89</ele>
        <time>2017-08-13T06:05:58Z</time>
      </trkpt>
      <trkpt lat="45.70847" lon="2.86093">
        <ele>815.82</ele>
        <time>2017-08-13T06:06:19Z</time>
      </trkpt>
      <trkpt lat="45.70845" lon="2.8609">
        <ele>816.78</ele>
        <time>2017-08-13T06:06:32Z</time>
      </trkpt>
      <trkpt lat="45.70841" lon="2.86082">
        <ele>817.26</ele>
        <time>2017-08-13T06:06:37Z</time>
      </trkpt>
      <trkpt lat="45.7084" lon="2.8608">
        <ele>817.26</ele>
        <time>2017-08-13T06:06:38Z</time>
      </trkpt>
      <trkpt lat="45.70838" lon="2.86078">
        <ele>817.26</ele>
        <time>2017-08-13T06:06:39Z</time>
      </trkpt>
      <trkpt lat="45.70836" lon="2.86075">
        <ele>817.26</ele>
        <time>2017-08-13T06:06:40Z</time>
      </trkpt>
      <trkpt lat="45.70834" lon="2.86074">
        <ele>817.26</ele>
        <time>2017-08-13T06:06:41Z</time>
      </trkpt>
      <trkpt lat="45.70831" lon="2.86072">
        <ele>817.74</ele>
        <time>2017-08-13T06:06:42Z</time>
      </trkpt>
      <trkpt lat="45.70827" lon="2.8607">
        <ele>817.74</ele>
        <time>2017-08-13T06:06:43Z</time>
      </trkpt>
      <trkpt lat="45.7082" lon="2.86068">
        <ele>816.3</ele>
        <time>2017-08-13T06:06:45Z</time>
      </trkpt>
      <trkpt lat="45.70815" lon="2.86067">
        <ele>816.3</ele>
        <time>2017-08-13T06:06:46Z</time>
      </trkpt>
      <trkpt lat="45.70806" lon="2.86065">
        <ele>815.34</ele>
        <time>2017-08-13T06:06:48Z</time>
      </trkpt>
      <trkpt lat="45.70796" lon="2.86059">
        <ele>815.34</ele>
        <time>2017-08-13T06:06:50Z</time>
      </trkpt>
      <trkpt lat="45.70793" lon="2.86056">
        <ele>815.34</ele>
        <time>2017-08-13T06:06:51Z</time>
      </trkpt>
      <trkpt lat="45.70791" lon="2.86052">
        <ele>815.34</ele>
        <time>2017-08-13T06:06:52Z</time>
      </trkpt>
      <trkpt lat="45.70789" lon="2.86048">
        <ele>815.82</ele>
        <time>2017-08-13T06:06:53Z</time>
      </trkpt>
      <trkpt lat="45.70787" lon="2.86044">
        <ele>816.3</ele>
        <time>2017-08-13T06:06:54Z</time>
      </trkpt>
      <trkpt lat="45.70765" lon="2.86">
        <ele>817.74</ele>
        <time>2017-08-13T06:07:07Z</time>
      </trkpt>
      <trkpt lat="45.70736" lon="2.85992">
        <ele>818.7</ele>
        <time>2017-08-13T06:07:19Z</time>
      </trkpt>
      <trkpt lat="45.70711" lon="2.85987">
        <ele>820.14</ele>
        <time>2017-08-13T06:07:33Z</time>
      </trkpt>
      <trkpt lat="45.70692" lon="2.85973">
        <ele>822.06</ele>
        <time>2017-08-13T06:07:47Z</time>
      </trkpt>
      <trkpt lat="45.70679" lon="2.85953">
        <ele>824.47</ele>
        <time>2017-08-13T06:08:02Z</time>
      </trkpt>
      <trkpt lat="45.70679" lon="2.85951">
        <ele>824.47</ele>
        <time>2017-08-13T06:08:03Z</time>
      </trkpt>
      <trkpt lat="45.70679" lon="2.8595">
        <ele>824.47</ele>
        <time>2017-08-13T06:08:04Z</time>
      </trkpt>
      <trkpt lat="45.7068" lon="2.85948">
        <ele>824.95</ele>
        <time>2017-08-13T06:08:05Z</time>
      </trkpt>
      <trkpt lat="45.7068" lon="2.85947">
        <ele>824.95</ele>
        <time>2017-08-13T06:08:06Z</time>
      </trkpt>
      <trkpt lat="45.7068" lon="2.85945">
        <ele>825.91</ele>
        <time>2017-08-13T06:08:07Z</time>
      </trkpt>
      <trkpt lat="45.70679" lon="2.85944">
        <ele>825.91</ele>
        <time>2017-08-13T06:08:08Z</time>
      </trkpt>
      <trkpt lat="45.70678" lon="2.85943">
        <ele>825.91</ele>
        <time>2017-08-13T06:08:09Z</time>
      </trkpt>
      <trkpt lat="45.70677" lon="2.85942">
        <ele>825.91</ele>
        <time>2017-08-13T06:08:10Z</time>
      </trkpt>
      <trkpt lat="45.70676" lon="2.85941">
        <ele>825.91</ele>
        <time>2017-08-13T06:08:11Z</time>
      </trkpt>
      <trkpt lat="45.70675" lon="2.8594">
        <ele>826.39</ele>
        <time>2017-08-13T06:08:12Z</time>
      </trkpt>
      <trkpt lat="45.70674" lon="2.85938">
        <ele>826.39</ele>
        <time>2017-08-13T06:08:13Z</time>
      </trkpt>
      <trkpt lat="45.70673" lon="2.85937">
        <ele>826.39</ele>
        <time>2017-08-13T06:08:14Z</time>
      </trkpt>
      <trkpt lat="45.7067" lon="2.85934">
        <ele>826.87</ele>
        <time>2017-08-13T06:08:17Z</time>
      </trkpt>
      <trkpt lat="45.70662" lon="2.85936">
        <ele>826.87</ele>
        <time>2017-08-13T06:08:29Z</time>
      </trkpt>
      <trkpt lat="45.70661" lon="2.85937">
        <ele>826.87</ele>
        <time>2017-08-13T06:09:06Z</time>
      </trkpt>
      <trkpt lat="45.70658" lon="2.85932">
        <ele>826.87</ele>
        <time>2017-08-13T06:09:44Z</time>
      </trkpt>
      <trkpt lat="45.7066" lon="2.85934">
        <ele>826.87</ele>
        <time>2017-08-13T06:10:25Z</time>
      </trkpt>
      <trkpt lat="45.70659" lon="2.85937">
        <ele>826.87</ele>
        <time>2017-08-13T06:10:47Z</time>
      </trkpt>
      <trkpt lat="45.7066" lon="2.85939">
        <ele>826.87</ele>
        <time>2017-08-13T06:11:18Z</time>
      </trkpt>
      <trkpt lat="45.70659" lon="2.8594">
        <ele>826.87</ele>
        <time>2017-08-13T06:11:42Z</time>
      </trkpt>
      <trkpt lat="45.70658" lon="2.85936">
        <ele>826.39</ele>
        <time>2017-08-13T06:12:09Z</time>
      </trkpt>
      <trkpt lat="45.70658" lon="2.85933">
        <ele>826.39</ele>
        <time>2017-08-13T06:12:46Z</time>
      </trkpt>
      <trkpt lat="45.7066" lon="2.85936">
        <ele>826.39</ele>
        <time>2017-08-13T06:13:21Z</time>
      </trkpt>
      <trkpt lat="45.7066" lon="2.85939">
        <ele>826.39</ele>
        <time>2017-08-13T06:13:44Z</time>
      </trkpt>
      <trkpt lat="45.70659" lon="2.85939">
        <ele>826.39</ele>
        <time>2017-08-13T06:14:13Z</time>
      </trkpt>
      <trkpt lat="45.7066" lon="2.85938">
        <ele>826.39</ele>
        <time>2017-08-13T06:14:46Z</time>
      </trkpt>
      <trkpt lat="45.70661" lon="2.85935">
        <ele>826.39</ele>
        <time>2017-08-13T06:15:06Z</time>
      </trkpt>
      <trkpt lat="45.70664" lon="2.85931">
        <ele>826.39</ele>
        <time>2017-08-13T06:15:16Z</time>
      </trkpt>
      <trkpt lat="45.70665" lon="2.8593">
        <ele>826.39</ele>
        <time>2017-08-13T06:15:17Z</time>
      </trkpt>
      <trkpt lat="45.70666" lon="2.85928">
        <ele>826.39</ele>
        <time>2017-08-13T06:15:18Z</time>
      </trkpt>
      <trkpt lat="45.70666" lon="2.85926">
        <ele>826.39</ele>
        <time>2017-08-13T06:15:19Z</time>
      </trkpt>
      <trkpt lat="45.70667" lon="2.85924">
        <ele>827.35</ele>
        <time>2017-08-13T06:15:20Z</time>
      </trkpt>
      <trkpt lat="45.70667" lon="2.85922">
        <ele>827.35</ele>
        <time>2017-08-13T06:15:21Z</time>
      </trkpt>
      <trkpt lat="45.70666" lon="2.85899">
        <ele>829.27</ele>
        <time>2017-08-13T06:15:32Z</time>
      </trkpt>
      <trkpt lat="45.70667" lon="2.85899">
        <ele>829.76</ele>
        <time>2017-08-13T06:15:33Z</time>
      </trkpt>
      <trkpt lat="45.70669" lon="2.85898">
        <ele>829.76</ele>
        <time>2017-08-13T06:15:34Z</time>
      </trkpt>
      <trkpt lat="45.7067" lon="2.85896">
        <ele>829.76</ele>
        <time>2017-08-13T06:15:35Z</time>
      </trkpt>
      <trkpt lat="45.70671" lon="2.85894">
        <ele>830.24</ele>
        <time>2017-08-13T06:15:36Z</time>
      </trkpt>
      <trkpt lat="45.70687" lon="2.85875">
        <ele>832.16</ele>
        <time>2017-08-13T06:15:50Z</time>
      </trkpt>
      <trkpt lat="45.70688" lon="2.85874">
        <ele>832.16</ele>
        <time>2017-08-13T06:15:51Z</time>
      </trkpt>
      <trkpt lat="45.70689" lon="2.85873">
        <ele>832.64</ele>
        <time>2017-08-13T06:15:52Z</time>
      </trkpt>
      <trkpt lat="45.70691" lon="2.8587">
        <ele>832.64</ele>
        <time>2017-08-13T06:15:54Z</time>
      </trkpt>
      <trkpt lat="45.70692" lon="2.85869">
        <ele>832.64</ele>
        <time>2017-08-13T06:15:55Z</time>
      </trkpt>
      <trkpt lat="45.70705" lon="2.85848">
        <ele>834.56</ele>
        <time>2017-08-13T06:16:10Z</time>
      </trkpt>
      <trkpt lat="45.70705" lon="2.85846">
        <ele>835.04</ele>
        <time>2017-08-13T06:16:24Z</time>
      </trkpt>
      <trkpt lat="45.70706" lon="2.85846">
        <ele>835.04</ele>
        <time>2017-08-13T06:16:57Z</time>
      </trkpt>
      <trkpt lat="45.70707" lon="2.85847">
        <ele>835.04</ele>
        <time>2017-08-13T06:17:24Z</time>
      </trkpt>
      <trkpt lat="45.70708" lon="2.85848">
        <ele>835.04</ele>
        <time>2017-08-13T06:18:00Z</time>
      </trkpt>
      <trkpt lat="45.70711" lon="2.85847">
        <ele>835.04</ele>
        <time>2017-08-13T06:18:04Z</time>
      </trkpt>
      <trkpt lat="45.70712" lon="2.85848">
        <ele>835.04</ele>
        <time>2017-08-13T06:18:05Z</time>
      </trkpt>
      <trkpt lat="45.70714" lon="2.85847">
        <ele>835.04</ele>
        <time>2017-08-13T06:18:06Z</time>
      </trkpt>
      <trkpt lat="45.70715" lon="2.85847">
        <ele>835.04</ele>
        <time>2017-08-13T06:18:07Z</time>
      </trkpt>
      <trkpt lat="45.70717" lon="2.85845">
        <ele>835.04</ele>
        <time>2017-08-13T06:18:08Z</time>
      </trkpt>
      <trkpt lat="45.70717" lon="2.85844">
        <ele>835.52</ele>
        <time>2017-08-13T06:18:09Z</time>
      </trkpt>
      <trkpt lat="45.70719" lon="2.85842">
        <ele>835.52</ele>
        <time>2017-08-13T06:18:10Z</time>
      </trkpt>
      <trkpt lat="45.70743" lon="2.85813">
        <ele>838.41</ele>
        <time>2017-08-13T06:18:29Z</time>
      </trkpt>
      <trkpt lat="45.7076" lon="2.85791">
        <ele>839.85</ele>
        <time>2017-08-13T06:18:44Z</time>
      </trkpt>
      <trkpt lat="45.70782" lon="2.8577">
        <ele>842.25</ele>
        <time>2017-08-13T06:19:01Z</time>
      </trkpt>
      <trkpt lat="45.7081" lon="2.85772">
        <ele>843.69</ele>
        <time>2017-08-13T06:19:16Z</time>
      </trkpt>
      <trkpt lat="45.70846" lon="2.85784">
        <ele>844.66</ele>
        <time>2017-08-13T06:19:32Z</time>
      </trkpt>
      <trkpt lat="45.70884" lon="2.8579">
        <ele>846.1</ele>
        <time>2017-08-13T06:19:49Z</time>
      </trkpt>
      <trkpt lat="45.70927" lon="2.85793">
        <ele>847.06</ele>
        <time>2017-08-13T06:20:08Z</time>
      </trkpt>
      <trkpt lat="45.70961" lon="2.8579">
        <ele>848.5</ele>
        <time>2017-08-13T06:20:23Z</time>
      </trkpt>
      <trkpt lat="45.70987" lon="2.85784">
        <ele>849.94</ele>
        <time>2017-08-13T06:20:38Z</time>
      </trkpt>
      <trkpt lat="45.71001" lon="2.85762">
        <ele>851.87</ele>
        <time>2017-08-13T06:20:52Z</time>
      </trkpt>
      <trkpt lat="45.70983" lon="2.85753">
        <ele>852.83</ele>
        <time>2017-08-13T06:21:04Z</time>
      </trkpt>
      <trkpt lat="45.70955" lon="2.85745">
        <ele>855.23</ele>
        <time>2017-08-13T06:21:21Z</time>
      </trkpt>
      <trkpt lat="45.70929" lon="2.85733">
        <ele>857.15</ele>
        <time>2017-08-13T06:21:37Z</time>
      </trkpt>
      <trkpt lat="45.70904" lon="2.85712">
        <ele>860.04</ele>
        <time>2017-08-13T06:21:55Z</time>
      </trkpt>
      <trkpt lat="45.70882" lon="2.85684">
        <ele>862.44</ele>
        <time>2017-08-13T06:22:15Z</time>
      </trkpt>
      <trkpt lat="45.70863" lon="2.85651">
        <ele>864.36</ele>
        <time>2017-08-13T06:22:34Z</time>
      </trkpt>
      <trkpt lat="45.70848" lon="2.85609">
        <ele>866.29</ele>
        <time>2017-08-13T06:22:53Z</time>
      </trkpt>
      <trkpt lat="45.70837" lon="2.85568">
        <ele>868.21</ele>
        <time>2017-08-13T06:23:11Z</time>
      </trkpt>
      <trkpt lat="45.70831" lon="2.85561">
        <ele>868.69</ele>
        <time>2017-08-13T06:23:15Z</time>
      </trkpt>
      <trkpt lat="45.70829" lon="2.85561">
        <ele>868.69</ele>
        <time>2017-08-13T06:23:16Z</time>
      </trkpt>
      <trkpt lat="45.70829" lon="2.85562">
        <ele>868.69</ele>
        <time>2017-08-13T06:23:17Z</time>
      </trkpt>
      <trkpt lat="45.70828" lon="2.85563">
        <ele>869.17</ele>
        <time>2017-08-13T06:23:18Z</time>
      </trkpt>
      <trkpt lat="45.70826" lon="2.85564">
        <ele>869.17</ele>
        <time>2017-08-13T06:23:19Z</time>
      </trkpt>
      <trkpt lat="45.70825" lon="2.85564">
        <ele>869.17</ele>
        <time>2017-08-13T06:23:20Z</time>
      </trkpt>
      <trkpt lat="45.70824" lon="2.85564">
        <ele>869.65</ele>
        <time>2017-08-13T06:23:21Z</time>
      </trkpt>
      <trkpt lat="45.70822" lon="2.85564">
        <ele>869.65</ele>
        <time>2017-08-13T06:23:22Z</time>
      </trkpt>
      <trkpt lat="45.70821" lon="2.85566">
        <ele>870.13</ele>
        <time>2017-08-13T06:23:23Z</time>
      </trkpt>
      <trkpt lat="45.7082" lon="2.85567">
        <ele>870.61</ele>
        <time>2017-08-13T06:23:24Z</time>
      </trkpt>
      <trkpt lat="45.70819" lon="2.85568">
        <ele>870.61</ele>
        <time>2017-08-13T06:23:25Z</time>
      </trkpt>
      <trkpt lat="45.70818" lon="2.8557">
        <ele>870.61</ele>
        <time>2017-08-13T06:23:26Z</time>
      </trkpt>
      <trkpt lat="45.70814" lon="2.85572">
        <ele>871.09</ele>
        <time>2017-08-13T06:23:29Z</time>
      </trkpt>
      <trkpt lat="45.70813" lon="2.85574">
        <ele>871.09</ele>
        <time>2017-08-13T06:23:30Z</time>
      </trkpt>
      <trkpt lat="45.70812" lon="2.85575">
        <ele>871.57</ele>
        <time>2017-08-13T06:23:31Z</time>
      </trkpt>
      <trkpt lat="45.70792" lon="2.85593">
        <ele>874.46</ele>
        <time>2017-08-13T06:23:48Z</time>
      </trkpt>
      <trkpt lat="45.70774" lon="2.8561">
        <ele>876.38</ele>
        <time>2017-08-13T06:24:04Z</time>
      </trkpt>
      <trkpt lat="45.70771" lon="2.85613">
        <ele>876.86</ele>
        <time>2017-08-13T06:24:16Z</time>
      </trkpt>
      <trkpt lat="45.70773" lon="2.85615">
        <ele>876.86</ele>
        <time>2017-08-13T06:24:45Z</time>
      </trkpt>
      <trkpt lat="45.70768" lon="2.85615">
        <ele>876.86</ele>
        <time>2017-08-13T06:24:55Z</time>
      </trkpt>
      <trkpt lat="45.70767" lon="2.85616">
        <ele>877.34</ele>
        <time>2017-08-13T06:24:56Z</time>
      </trkpt>
      <trkpt lat="45.70766" lon="2.85616">
        <ele>877.34</ele>
        <time>2017-08-13T06:24:57Z</time>
      </trkpt>
      <trkpt lat="45.70764" lon="2.85617">
        <ele>877.34</ele>
        <time>2017-08-13T06:24:58Z</time>
      </trkpt>
      <trkpt lat="45.70763" lon="2.85618">
        <ele>877.34</ele>
        <time>2017-08-13T06:24:59Z</time>
      </trkpt>
      <trkpt lat="45.70753" lon="2.85623">
        <ele>879.26</ele>
        <time>2017-08-13T06:25:07Z</time>
      </trkpt>
      <trkpt lat="45.70751" lon="2.85624">
        <ele>879.26</ele>
        <time>2017-08-13T06:25:08Z</time>
      </trkpt>
      <trkpt lat="45.70744" lon="2.85628">
        <ele>880.22</ele>
        <time>2017-08-13T06:25:14Z</time>
      </trkpt>
      <trkpt lat="45.70743" lon="2.85628">
        <ele>880.22</ele>
        <time>2017-08-13T06:25:15Z</time>
      </trkpt>
      <trkpt lat="45.70741" lon="2.85629">
        <ele>880.22</ele>
        <time>2017-08-13T06:25:16Z</time>
      </trkpt>
      <trkpt lat="45.7074" lon="2.85629">
        <ele>880.71</ele>
        <time>2017-08-13T06:25:17Z</time>
      </trkpt>
      <trkpt lat="45.70739" lon="2.8563">
        <ele>880.71</ele>
        <time>2017-08-13T06:25:18Z</time>
      </trkpt>
      <trkpt lat="45.70738" lon="2.8563">
        <ele>880.71</ele>
        <time>2017-08-13T06:25:19Z</time>
      </trkpt>
      <trkpt lat="45.70736" lon="2.85631">
        <ele>880.71</ele>
        <time>2017-08-13T06:25:20Z</time>
      </trkpt>
      <trkpt lat="45.70735" lon="2.85631">
        <ele>881.19</ele>
        <time>2017-08-13T06:25:21Z</time>
      </trkpt>
      <trkpt lat="45.70734" lon="2.85632">
        <ele>881.19</ele>
        <time>2017-08-13T06:25:22Z</time>
      </trkpt>
      <trkpt lat="45.70732" lon="2.85632">
        <ele>881.19</ele>
        <time>2017-08-13T06:25:23Z</time>
      </trkpt>
      <trkpt lat="45.70731" lon="2.85633">
        <ele>881.19</ele>
        <time>2017-08-13T06:25:24Z</time>
      </trkpt>
      <trkpt lat="45.70719" lon="2.85636">
        <ele>883.59</ele>
        <time>2017-08-13T06:25:35Z</time>
      </trkpt>
      <trkpt lat="45.70711" lon="2.85639">
        <ele>884.55</ele>
        <time>2017-08-13T06:25:42Z</time>
      </trkpt>
      <trkpt lat="45.7071" lon="2.85639">
        <ele>884.55</ele>
        <time>2017-08-13T06:25:43Z</time>
      </trkpt>
      <trkpt lat="45.70709" lon="2.8564">
        <ele>885.03</ele>
        <time>2017-08-13T06:25:44Z</time>
      </trkpt>
      <trkpt lat="45.70705" lon="2.85642">
        <ele>885.03</ele>
        <time>2017-08-13T06:25:47Z</time>
      </trkpt>
      <trkpt lat="45.70704" lon="2.85643">
        <ele>885.51</ele>
        <time>2017-08-13T06:25:48Z</time>
      </trkpt>
      <trkpt lat="45.70686" lon="2.8565">
        <ele>887.91</ele>
        <time>2017-08-13T06:26:03Z</time>
      </trkpt>
      <trkpt lat="45.7067" lon="2.85653">
        <ele>888.88</ele>
        <time>2017-08-13T06:26:13Z</time>
      </trkpt>
      <trkpt lat="45.70646" lon="2.85654">
        <ele>891.28</ele>
        <time>2017-08-13T06:26:28Z</time>
      </trkpt>
      <trkpt lat="45.70625" lon="2.85652">
        <ele>892.72</ele>
        <time>2017-08-13T06:26:42Z</time>
      </trkpt>
      <trkpt lat="45.70603" lon="2.85648">
        <ele>894.64</ele>
        <time>2017-08-13T06:26:56Z</time>
      </trkpt>
      <trkpt lat="45.70602" lon="2.85647">
        <ele>894.64</ele>
        <time>2017-08-13T06:26:57Z</time>
      </trkpt>
      <trkpt lat="45.706" lon="2.85647">
        <ele>894.64</ele>
        <time>2017-08-13T06:26:58Z</time>
      </trkpt>
      <trkpt lat="45.70599" lon="2.85647">
        <ele>894.64</ele>
        <time>2017-08-13T06:26:59Z</time>
      </trkpt>
      <trkpt lat="45.70597" lon="2.85646">
        <ele>895.12</ele>
        <time>2017-08-13T06:27:00Z</time>
      </trkpt>
      <trkpt lat="45.70573" lon="2.85636">
        <ele>897.05</ele>
        <time>2017-08-13T06:27:16Z</time>
      </trkpt>
      <trkpt lat="45.70554" lon="2.85623">
        <ele>898.01</ele>
        <time>2017-08-13T06:27:30Z</time>
      </trkpt>
      <trkpt lat="45.70539" lon="2.85607">
        <ele>900.41</ele>
        <time>2017-08-13T06:27:44Z</time>
      </trkpt>
      <trkpt lat="45.70522" lon="2.85577">
        <ele>902.33</ele>
        <time>2017-08-13T06:28:01Z</time>
      </trkpt>
      <trkpt lat="45.70507" lon="2.85548">
        <ele>903.78</ele>
        <time>2017-08-13T06:28:17Z</time>
      </trkpt>
      <trkpt lat="45.70496" lon="2.85521">
        <ele>906.18</ele>
        <time>2017-08-13T06:28:32Z</time>
      </trkpt>
      <trkpt lat="45.70494" lon="2.85512">
        <ele>907.14</ele>
        <time>2017-08-13T06:28:37Z</time>
      </trkpt>
      <trkpt lat="45.70494" lon="2.85509">
        <ele>907.14</ele>
        <time>2017-08-13T06:28:38Z</time>
      </trkpt>
      <trkpt lat="45.70493" lon="2.85507">
        <ele>907.14</ele>
        <time>2017-08-13T06:28:39Z</time>
      </trkpt>
      <trkpt lat="45.70492" lon="2.85505">
        <ele>907.14</ele>
        <time>2017-08-13T06:28:40Z</time>
      </trkpt>
      <trkpt lat="45.70492" lon="2.85503">
        <ele>907.14</ele>
        <time>2017-08-13T06:28:41Z</time>
      </trkpt>
      <trkpt lat="45.70483" lon="2.8548">
        <ele>908.58</ele>
        <time>2017-08-13T06:28:53Z</time>
      </trkpt>
      <trkpt lat="45.70482" lon="2.85479">
        <ele>908.58</ele>
        <time>2017-08-13T06:28:54Z</time>
      </trkpt>
      <trkpt lat="45.7048" lon="2.85478">
        <ele>908.58</ele>
        <time>2017-08-13T06:28:55Z</time>
      </trkpt>
      <trkpt lat="45.70467" lon="2.85464">
        <ele>909.54</ele>
        <time>2017-08-13T06:29:05Z</time>
      </trkpt>
      <trkpt lat="45.70466" lon="2.85463">
        <ele>909.54</ele>
        <time>2017-08-13T06:29:06Z</time>
      </trkpt>
      <trkpt lat="45.70465" lon="2.85462">
        <ele>910.03</ele>
        <time>2017-08-13T06:29:07Z</time>
      </trkpt>
      <trkpt lat="45.7045" lon="2.85443">
        <ele>911.47</ele>
        <time>2017-08-13T06:29:20Z</time>
      </trkpt>
      <trkpt lat="45.70431" lon="2.85422">
        <ele>913.39</ele>
        <time>2017-08-13T06:29:36Z</time>
      </trkpt>
      <trkpt lat="45.70416" lon="2.85405">
        <ele>915.79</ele>
        <time>2017-08-13T06:29:50Z</time>
      </trkpt>
      <trkpt lat="45.70396" lon="2.85384">
        <ele>918.2</ele>
        <time>2017-08-13T06:30:07Z</time>
      </trkpt>
      <trkpt lat="45.70389" lon="2.85377">
        <ele>919.16</ele>
        <time>2017-08-13T06:30:13Z</time>
      </trkpt>
      <trkpt lat="45.70388" lon="2.85375">
        <ele>919.16</ele>
        <time>2017-08-13T06:30:14Z</time>
      </trkpt>
      <trkpt lat="45.70388" lon="2.85374">
        <ele>919.16</ele>
        <time>2017-08-13T06:30:15Z</time>
      </trkpt>
      <trkpt lat="45.70386" lon="2.85373">
        <ele>919.16</ele>
        <time>2017-08-13T06:30:16Z</time>
      </trkpt>
      <trkpt lat="45.70385" lon="2.85372">
        <ele>919.64</ele>
        <time>2017-08-13T06:30:17Z</time>
      </trkpt>
      <trkpt lat="45.70367" lon="2.85362">
        <ele>921.56</ele>
        <time>2017-08-13T06:30:30Z</time>
      </trkpt>
      <trkpt lat="45.70366" lon="2.85362">
        <ele>921.56</ele>
        <time>2017-08-13T06:30:31Z</time>
      </trkpt>
      <trkpt lat="45.70365" lon="2.85361">
        <ele>921.56</ele>
        <time>2017-08-13T06:30:32Z</time>
      </trkpt>
      <trkpt lat="45.70363" lon="2.85361">
        <ele>922.04</ele>
        <time>2017-08-13T06:30:33Z</time>
      </trkpt>
      <trkpt lat="45.70362" lon="2.85361">
        <ele>922.04</ele>
        <time>2017-08-13T06:30:34Z</time>
      </trkpt>
      <trkpt lat="45.7036" lon="2.8536">
        <ele>922.04</ele>
        <time>2017-08-13T06:30:35Z</time>
      </trkpt>
      <trkpt lat="45.70334" lon="2.85352">
        <ele>923.96</ele>
        <time>2017-08-13T06:30:52Z</time>
      </trkpt>
      <trkpt lat="45.70304" lon="2.85342">
        <ele>925.89</ele>
        <time>2017-08-13T06:31:11Z</time>
      </trkpt>
      <trkpt lat="45.70278" lon="2.85328">
        <ele>927.33</ele>
        <time>2017-08-13T06:31:27Z</time>
      </trkpt>
      <trkpt lat="45.70257" lon="2.85316">
        <ele>928.77</ele>
        <time>2017-08-13T06:31:41Z</time>
      </trkpt>
      <trkpt lat="45.70258" lon="2.85314">
        <ele>928.77</ele>
        <time>2017-08-13T06:32:04Z</time>
      </trkpt>
      <trkpt lat="45.70248" lon="2.8531">
        <ele>929.25</ele>
        <time>2017-08-13T06:32:19Z</time>
      </trkpt>
      <trkpt lat="45.70214" lon="2.85297">
        <ele>930.69</ele>
        <time>2017-08-13T06:32:37Z</time>
      </trkpt>
      <trkpt lat="45.70182" lon="2.85287">
        <ele>931.65</ele>
        <time>2017-08-13T06:32:51Z</time>
      </trkpt>
      <trkpt lat="45.70147" lon="2.85273">
        <ele>932.62</ele>
        <time>2017-08-13T06:33:06Z</time>
      </trkpt>
      <trkpt lat="45.70105" lon="2.85258">
        <ele>934.06</ele>
        <time>2017-08-13T06:33:23Z</time>
      </trkpt>
      <trkpt lat="45.70073" lon="2.85244">
        <ele>935.02</ele>
        <time>2017-08-13T06:33:38Z</time>
      </trkpt>
      <trkpt lat="45.70038" lon="2.85231">
        <ele>936.46</ele>
        <time>2017-08-13T06:33:54Z</time>
      </trkpt>
      <trkpt lat="45.70004" lon="2.85218">
        <ele>937.42</ele>
        <time>2017-08-13T06:34:09Z</time>
      </trkpt>
      <trkpt lat="45.69967" lon="2.85204">
        <ele>938.86</ele>
        <time>2017-08-13T06:34:25Z</time>
      </trkpt>
      <trkpt lat="45.69929" lon="2.85188">
        <ele>940.79</ele>
        <time>2017-08-13T06:34:42Z</time>
      </trkpt>
      <trkpt lat="45.69889" lon="2.85173">
        <ele>941.75</ele>
        <time>2017-08-13T06:34:59Z</time>
      </trkpt>
      <trkpt lat="45.69865" lon="2.85162">
        <ele>942.23</ele>
        <time>2017-08-13T06:35:10Z</time>
      </trkpt>
      <trkpt lat="45.69829" lon="2.85149">
        <ele>944.15</ele>
        <time>2017-08-13T06:35:27Z</time>
      </trkpt>
      <trkpt lat="45.69795" lon="2.85136">
        <ele>945.59</ele>
        <time>2017-08-13T06:35:42Z</time>
      </trkpt>
      <trkpt lat="45.69765" lon="2.85125">
        <ele>946.56</ele>
        <time>2017-08-13T06:35:55Z</time>
      </trkpt>
      <trkpt lat="45.69763" lon="2.85124">
        <ele>946.56</ele>
        <time>2017-08-13T06:35:56Z</time>
      </trkpt>
      <trkpt lat="45.69716" lon="2.85106">
        <ele>948</ele>
        <time>2017-08-13T06:36:16Z</time>
      </trkpt>
      <trkpt lat="45.69674" lon="2.85088">
        <ele>948.96</ele>
        <time>2017-08-13T06:36:34Z</time>
      </trkpt>
      <trkpt lat="45.69643" lon="2.85072">
        <ele>950.4</ele>
        <time>2017-08-13T06:36:47Z</time>
      </trkpt>
      <trkpt lat="45.69615" lon="2.85056">
        <ele>951.84</ele>
        <time>2017-08-13T06:37:00Z</time>
      </trkpt>
      <trkpt lat="45.69592" lon="2.85041">
        <ele>952.32</ele>
        <time>2017-08-13T06:37:10Z</time>
      </trkpt>
      <trkpt lat="45.69565" lon="2.85017">
        <ele>952.32</ele>
        <time>2017-08-13T06:37:20Z</time>
      </trkpt>
      <trkpt lat="45.69526" lon="2.84988">
        <ele>952.32</ele>
        <time>2017-08-13T06:37:32Z</time>
      </trkpt>
      <trkpt lat="45.69464" lon="2.84965">
        <ele>952.8</ele>
        <time>2017-08-13T06:37:50Z</time>
      </trkpt>
      <trkpt lat="45.69403" lon="2.8494">
        <ele>954.25</ele>
        <time>2017-08-13T06:38:10Z</time>
      </trkpt>
      <trkpt lat="45.69353" lon="2.84911">
        <ele>954.73</ele>
        <time>2017-08-13T06:38:26Z</time>
      </trkpt>
      <trkpt lat="45.69325" lon="2.84891">
        <ele>955.21</ele>
        <time>2017-08-13T06:38:34Z</time>
      </trkpt>
      <trkpt lat="45.693" lon="2.84873">
        <ele>955.21</ele>
        <time>2017-08-13T06:38:41Z</time>
      </trkpt>
      <trkpt lat="45.69276" lon="2.84852">
        <ele>952.32</ele>
        <time>2017-08-13T06:38:46Z</time>
      </trkpt>
      <trkpt lat="45.69202" lon="2.848">
        <ele>949.92</ele>
        <time>2017-08-13T06:38:59Z</time>
      </trkpt>
      <trkpt lat="45.69186" lon="2.84779">
        <ele>949.92</ele>
        <time>2017-08-13T06:39:03Z</time>
      </trkpt>
      <trkpt lat="45.69177" lon="2.84768">
        <ele>949.44</ele>
        <time>2017-08-13T06:39:05Z</time>
      </trkpt>
      <trkpt lat="45.69165" lon="2.84752">
        <ele>949.44</ele>
        <time>2017-08-13T06:39:08Z</time>
      </trkpt>
      <trkpt lat="45.69158" lon="2.84742">
        <ele>949.44</ele>
        <time>2017-08-13T06:39:10Z</time>
      </trkpt>
      <trkpt lat="45.69146" lon="2.84728">
        <ele>949.44</ele>
        <time>2017-08-13T06:39:13Z</time>
      </trkpt>
      <trkpt lat="45.69105" lon="2.84706">
        <ele>951.36</ele>
        <time>2017-08-13T06:39:25Z</time>
      </trkpt>
      <trkpt lat="45.6907" lon="2.84695">
        <ele>952.32</ele>
        <time>2017-08-13T06:39:40Z</time>
      </trkpt>
      <trkpt lat="45.69067" lon="2.84698">
        <ele>952.8</ele>
        <time>2017-08-13T06:39:42Z</time>
      </trkpt>
      <trkpt lat="45.69049" lon="2.84718">
        <ele>954.25</ele>
        <time>2017-08-13T06:39:56Z</time>
      </trkpt>
      <trkpt lat="45.69024" lon="2.84733">
        <ele>957.13</ele>
        <time>2017-08-13T06:40:13Z</time>
      </trkpt>
      <trkpt lat="45.69022" lon="2.84736">
        <ele>957.13</ele>
        <time>2017-08-13T06:40:15Z</time>
      </trkpt>
      <trkpt lat="45.69004" lon="2.84751">
        <ele>960.01</ele>
        <time>2017-08-13T06:40:29Z</time>
      </trkpt>
      <trkpt lat="45.69003" lon="2.84752">
        <ele>960.01</ele>
        <time>2017-08-13T06:40:38Z</time>
      </trkpt>
      <trkpt lat="45.69003" lon="2.84753">
        <ele>960.49</ele>
        <time>2017-08-13T06:40:51Z</time>
      </trkpt>
      <trkpt lat="45.69003" lon="2.84752">
        <ele>960.49</ele>
        <time>2017-08-13T06:41:13Z</time>
      </trkpt>
      <trkpt lat="45.69004" lon="2.84754">
        <ele>960.49</ele>
        <time>2017-08-13T06:42:01Z</time>
      </trkpt>
      <trkpt lat="45.69004" lon="2.84755">
        <ele>960.01</ele>
        <time>2017-08-13T06:42:40Z</time>
      </trkpt>
      <trkpt lat="45.69004" lon="2.84754">
        <ele>960.01</ele>
        <time>2017-08-13T06:43:23Z</time>
      </trkpt>
      <trkpt lat="45.69005" lon="2.84754">
        <ele>960.01</ele>
        <time>2017-08-13T06:44:00Z</time>
      </trkpt>
      <trkpt lat="45.69003" lon="2.84755">
        <ele>960.01</ele>
        <time>2017-08-13T06:44:33Z</time>
      </trkpt>
      <trkpt lat="45.69003" lon="2.84753">
        <ele>959.53</ele>
        <time>2017-08-13T06:45:12Z</time>
      </trkpt>
      <trkpt lat="45.69002" lon="2.84753">
        <ele>959.53</ele>
        <time>2017-08-13T06:45:55Z</time>
      </trkpt>
      <trkpt lat="45.69003" lon="2.84753">
        <ele>959.53</ele>
        <time>2017-08-13T06:46:36Z</time>
      </trkpt>
      <trkpt lat="45.69004" lon="2.84754">
        <ele>959.53</ele>
        <time>2017-08-13T06:47:10Z</time>
      </trkpt>
      <trkpt lat="45.69001" lon="2.84754">
        <ele>959.53</ele>
        <time>2017-08-13T06:47:17Z</time>
      </trkpt>
      <trkpt lat="45.6899" lon="2.8477">
        <ele>960.98</ele>
        <time>2017-08-13T06:47:33Z</time>
      </trkpt>
      <trkpt lat="45.68978" lon="2.84787">
        <ele>961.94</ele>
        <time>2017-08-13T06:47:50Z</time>
      </trkpt>
      <trkpt lat="45.68964" lon="2.84802">
        <ele>962.42</ele>
        <time>2017-08-13T06:48:01Z</time>
      </trkpt>
      <trkpt lat="45.68931" lon="2.84827">
        <ele>962.42</ele>
        <time>2017-08-13T06:48:13Z</time>
      </trkpt>
      <trkpt lat="45.6889" lon="2.84844">
        <ele>963.86</ele>
        <time>2017-08-13T06:48:31Z</time>
      </trkpt>
      <trkpt lat="45.68861" lon="2.84846">
        <ele>965.3</ele>
        <time>2017-08-13T06:48:48Z</time>
      </trkpt>
      <trkpt lat="45.68838" lon="2.84846">
        <ele>967.22</ele>
        <time>2017-08-13T06:49:03Z</time>
      </trkpt>
      <trkpt lat="45.68818" lon="2.84846">
        <ele>968.67</ele>
        <time>2017-08-13T06:49:18Z</time>
      </trkpt>
      <trkpt lat="45.68806" lon="2.84842">
        <ele>970.59</ele>
        <time>2017-08-13T06:49:34Z</time>
      </trkpt>
      <trkpt lat="45.688" lon="2.84825">
        <ele>973.47</ele>
        <time>2017-08-13T06:49:52Z</time>
      </trkpt>
      <trkpt lat="45.68796" lon="2.84804">
        <ele>975.88</ele>
        <time>2017-08-13T06:50:08Z</time>
      </trkpt>
      <trkpt lat="45.68794" lon="2.84798">
        <ele>976.36</ele>
        <time>2017-08-13T06:50:13Z</time>
      </trkpt>
      <trkpt lat="45.68793" lon="2.84796">
        <ele>976.84</ele>
        <time>2017-08-13T06:50:14Z</time>
      </trkpt>
      <trkpt lat="45.68785" lon="2.84778">
        <ele>978.28</ele>
        <time>2017-08-13T06:50:28Z</time>
      </trkpt>
      <trkpt lat="45.68779" lon="2.84768">
        <ele>978.76</ele>
        <time>2017-08-13T06:50:37Z</time>
      </trkpt>
      <trkpt lat="45.68769" lon="2.84755">
        <ele>980.68</ele>
        <time>2017-08-13T06:50:52Z</time>
      </trkpt>
      <trkpt lat="45.68761" lon="2.8474">
        <ele>981.64</ele>
        <time>2017-08-13T06:51:06Z</time>
      </trkpt>
      <trkpt lat="45.68757" lon="2.84731">
        <ele>982.6</ele>
        <time>2017-08-13T06:51:13Z</time>
      </trkpt>
      <trkpt lat="45.68748" lon="2.8472">
        <ele>983.57</ele>
        <time>2017-08-13T06:51:22Z</time>
      </trkpt>
      <trkpt lat="45.68746" lon="2.84719">
        <ele>983.57</ele>
        <time>2017-08-13T06:51:23Z</time>
      </trkpt>
      <trkpt lat="45.68744" lon="2.84719">
        <ele>984.05</ele>
        <time>2017-08-13T06:51:24Z</time>
      </trkpt>
      <trkpt lat="45.68727" lon="2.84704">
        <ele>986.45</ele>
        <time>2017-08-13T06:51:39Z</time>
      </trkpt>
      <trkpt lat="45.68722" lon="2.84702">
        <ele>987.41</ele>
        <time>2017-08-13T06:51:43Z</time>
      </trkpt>
      <trkpt lat="45.6872" lon="2.84701">
        <ele>987.41</ele>
        <time>2017-08-13T06:51:44Z</time>
      </trkpt>
      <trkpt lat="45.68719" lon="2.84701">
        <ele>987.89</ele>
        <time>2017-08-13T06:51:45Z</time>
      </trkpt>
      <trkpt lat="45.68717" lon="2.847">
        <ele>987.89</ele>
        <time>2017-08-13T06:51:46Z</time>
      </trkpt>
      <trkpt lat="45.68716" lon="2.847">
        <ele>987.89</ele>
        <time>2017-08-13T06:51:47Z</time>
      </trkpt>
      <trkpt lat="45.68715" lon="2.847">
        <ele>988.37</ele>
        <time>2017-08-13T06:51:48Z</time>
      </trkpt>
      <trkpt lat="45.68696" lon="2.84694">
        <ele>990.3</ele>
        <time>2017-08-13T06:52:02Z</time>
      </trkpt>
      <trkpt lat="45.6869" lon="2.84694">
        <ele>990.78</ele>
        <time>2017-08-13T06:52:07Z</time>
      </trkpt>
      <trkpt lat="45.68675" lon="2.84696">
        <ele>992.22</ele>
        <time>2017-08-13T06:52:18Z</time>
      </trkpt>
      <trkpt lat="45.68673" lon="2.84697">
        <ele>992.22</ele>
        <time>2017-08-13T06:52:19Z</time>
      </trkpt>
      <trkpt lat="45.68672" lon="2.84697">
        <ele>992.22</ele>
        <time>2017-08-13T06:52:20Z</time>
      </trkpt>
      <trkpt lat="45.6867" lon="2.84698">
        <ele>992.7</ele>
        <time>2017-08-13T06:52:21Z</time>
      </trkpt>
      <trkpt lat="45.68669" lon="2.84699">
        <ele>992.7</ele>
        <time>2017-08-13T06:52:22Z</time>
      </trkpt>
      <trkpt lat="45.68667" lon="2.84699">
        <ele>992.7</ele>
        <time>2017-08-13T06:52:23Z</time>
      </trkpt>
      <trkpt lat="45.68665" lon="2.847">
        <ele>992.7</ele>
        <time>2017-08-13T06:52:24Z</time>
      </trkpt>
      <trkpt lat="45.68664" lon="2.847">
        <ele>993.18</ele>
        <time>2017-08-13T06:52:25Z</time>
      </trkpt>
      <trkpt lat="45.68662" lon="2.84701">
        <ele>993.18</ele>
        <time>2017-08-13T06:52:26Z</time>
      </trkpt>
      <trkpt lat="45.6866" lon="2.84701">
        <ele>993.18</ele>
        <time>2017-08-13T06:52:27Z</time>
      </trkpt>
      <trkpt lat="45.68659" lon="2.84702">
        <ele>993.66</ele>
        <time>2017-08-13T06:52:28Z</time>
      </trkpt>
      <trkpt lat="45.68657" lon="2.84703">
        <ele>993.66</ele>
        <time>2017-08-13T06:52:29Z</time>
      </trkpt>
      <trkpt lat="45.68655" lon="2.84703">
        <ele>993.66</ele>
        <time>2017-08-13T06:52:30Z</time>
      </trkpt>
      <trkpt lat="45.68654" lon="2.84702">
        <ele>993.66</ele>
        <time>2017-08-13T06:52:31Z</time>
      </trkpt>
      <trkpt lat="45.6865" lon="2.84703">
        <ele>994.62</ele>
        <time>2017-08-13T06:52:34Z</time>
      </trkpt>
      <trkpt lat="45.68649" lon="2.84703">
        <ele>994.62</ele>
        <time>2017-08-13T06:52:35Z</time>
      </trkpt>
      <trkpt lat="45.68636" lon="2.84709">
        <ele>996.06</ele>
        <time>2017-08-13T06:52:47Z</time>
      </trkpt>
      <trkpt lat="45.68621" lon="2.84725">
        <ele>997.51</ele>
        <time>2017-08-13T06:53:01Z</time>
      </trkpt>
      <trkpt lat="45.68611" lon="2.84729">
        <ele>998.47</ele>
        <time>2017-08-13T06:53:14Z</time>
      </trkpt>
      <trkpt lat="45.68596" lon="2.84738">
        <ele>1000.39</ele>
        <time>2017-08-13T06:53:29Z</time>
      </trkpt>
      <trkpt lat="45.68582" lon="2.84743">
        <ele>1002.79</ele>
        <time>2017-08-13T06:53:45Z</time>
      </trkpt>
      <trkpt lat="45.6857" lon="2.84744">
        <ele>1004.23</ele>
        <time>2017-08-13T06:53:58Z</time>
      </trkpt>
      <trkpt lat="45.68554" lon="2.8475">
        <ele>1006.16</ele>
        <time>2017-08-13T06:54:13Z</time>
      </trkpt>
      <trkpt lat="45.68548" lon="2.84753">
        <ele>1006.64</ele>
        <time>2017-08-13T06:54:26Z</time>
      </trkpt>
      <trkpt lat="45.68547" lon="2.84749">
        <ele>1006.64</ele>
        <time>2017-08-13T06:54:55Z</time>
      </trkpt>
      <trkpt lat="45.68544" lon="2.84745">
        <ele>1007.12</ele>
        <time>2017-08-13T06:55:21Z</time>
      </trkpt>
      <trkpt lat="45.6854" lon="2.84746">
        <ele>1007.12</ele>
        <time>2017-08-13T06:55:27Z</time>
      </trkpt>
      <trkpt lat="45.68539" lon="2.84748">
        <ele>1007.12</ele>
        <time>2017-08-13T06:55:28Z</time>
      </trkpt>
      <trkpt lat="45.68538" lon="2.84749">
        <ele>1007.6</ele>
        <time>2017-08-13T06:55:29Z</time>
      </trkpt>
      <trkpt lat="45.68514" lon="2.84769">
        <ele>1008.08</ele>
        <time>2017-08-13T06:55:43Z</time>
      </trkpt>
      <trkpt lat="45.685" lon="2.8478">
        <ele>1009.52</ele>
        <time>2017-08-13T06:55:53Z</time>
      </trkpt>
      <trkpt lat="45.68489" lon="2.84791">
        <ele>1010.96</ele>
        <time>2017-08-13T06:56:03Z</time>
      </trkpt>
      <trkpt lat="45.68473" lon="2.84809">
        <ele>1012.89</ele>
        <time>2017-08-13T06:56:15Z</time>
      </trkpt>
      <trkpt lat="45.68467" lon="2.84818">
        <ele>1013.85</ele>
        <time>2017-08-13T06:56:20Z</time>
      </trkpt>
      <trkpt lat="45.68466" lon="2.8482">
        <ele>1013.85</ele>
        <time>2017-08-13T06:56:21Z</time>
      </trkpt>
      <trkpt lat="45.68465" lon="2.84822">
        <ele>1013.85</ele>
        <time>2017-08-13T06:56:22Z</time>
      </trkpt>
      <trkpt lat="45.68464" lon="2.84824">
        <ele>1014.81</ele>
        <time>2017-08-13T06:56:23Z</time>
      </trkpt>
      <trkpt lat="45.68463" lon="2.84825">
        <ele>1015.29</ele>
        <time>2017-08-13T06:56:24Z</time>
      </trkpt>
      <trkpt lat="45.68458" lon="2.84832">
        <ele>1015.77</ele>
        <time>2017-08-13T06:56:35Z</time>
      </trkpt>
      <trkpt lat="45.68448" lon="2.84842">
        <ele>1018.17</ele>
        <time>2017-08-13T06:56:50Z</time>
      </trkpt>
      <trkpt lat="45.6844" lon="2.84851">
        <ele>1019.62</ele>
        <time>2017-08-13T06:57:01Z</time>
      </trkpt>
      <trkpt lat="45.68431" lon="2.84865">
        <ele>1021.54</ele>
        <time>2017-08-13T06:57:15Z</time>
      </trkpt>
      <trkpt lat="45.68424" lon="2.84876">
        <ele>1023.46</ele>
        <time>2017-08-13T06:57:28Z</time>
      </trkpt>
      <trkpt lat="45.68414" lon="2.84891">
        <ele>1025.38</ele>
        <time>2017-08-13T06:57:43Z</time>
      </trkpt>
      <trkpt lat="45.68404" lon="2.84905">
        <ele>1027.31</ele>
        <time>2017-08-13T06:57:57Z</time>
      </trkpt>
      <trkpt lat="45.68395" lon="2.84927">
        <ele>1029.71</ele>
        <time>2017-08-13T06:58:15Z</time>
      </trkpt>
      <trkpt lat="45.68391" lon="2.84941">
        <ele>1031.63</ele>
        <time>2017-08-13T06:58:29Z</time>
      </trkpt>
      <trkpt lat="45.68387" lon="2.84955">
        <ele>1033.07</ele>
        <time>2017-08-13T06:58:45Z</time>
      </trkpt>
      <trkpt lat="45.68383" lon="2.84972">
        <ele>1035</ele>
        <time>2017-08-13T06:58:59Z</time>
      </trkpt>
      <trkpt lat="45.68379" lon="2.84989">
        <ele>1036.92</ele>
        <time>2017-08-13T06:59:13Z</time>
      </trkpt>
      <trkpt lat="45.68377" lon="2.85002">
        <ele>1038.36</ele>
        <time>2017-08-13T06:59:23Z</time>
      </trkpt>
      <trkpt lat="45.68373" lon="2.85022">
        <ele>1040.76</ele>
        <time>2017-08-13T06:59:38Z</time>
      </trkpt>
      <trkpt lat="45.6837" lon="2.85034">
        <ele>1041.25</ele>
        <time>2017-08-13T06:59:52Z</time>
      </trkpt>
      <trkpt lat="45.68369" lon="2.85039">
        <ele>1041.25</ele>
        <time>2017-08-13T07:00:12Z</time>
      </trkpt>
      <trkpt lat="45.68349" lon="2.85063">
        <ele>1041.73</ele>
        <time>2017-08-13T07:00:26Z</time>
      </trkpt>
      <trkpt lat="45.68317" lon="2.85073">
        <ele>1042.21</ele>
        <time>2017-08-13T07:00:37Z</time>
      </trkpt>
      <trkpt lat="45.68281" lon="2.85072">
        <ele>1042.69</ele>
        <time>2017-08-13T07:00:50Z</time>
      </trkpt>
      <trkpt lat="45.68249" lon="2.85065">
        <ele>1043.17</ele>
        <time>2017-08-13T07:01:02Z</time>
      </trkpt>
      <trkpt lat="45.6821" lon="2.85058">
        <ele>1044.13</ele>
        <time>2017-08-13T07:01:15Z</time>
      </trkpt>
      <trkpt lat="45.68168" lon="2.85042">
        <ele>1045.09</ele>
        <time>2017-08-13T07:01:31Z</time>
      </trkpt>
      <trkpt lat="45.68127" lon="2.85027">
        <ele>1046.53</ele>
        <time>2017-08-13T07:01:48Z</time>
      </trkpt>
      <trkpt lat="45.68092" lon="2.85018">
        <ele>1047.97</ele>
        <time>2017-08-13T07:02:04Z</time>
      </trkpt>
      <trkpt lat="45.68061" lon="2.85011">
        <ele>1049.9</ele>
        <time>2017-08-13T07:02:20Z</time>
      </trkpt>
      <trkpt lat="45.68034" lon="2.85015">
        <ele>1050.86</ele>
        <time>2017-08-13T07:02:34Z</time>
      </trkpt>
      <trkpt lat="45.68012" lon="2.85016">
        <ele>1052.78</ele>
        <time>2017-08-13T07:02:47Z</time>
      </trkpt>
      <trkpt lat="45.6799" lon="2.85015">
        <ele>1053.26</ele>
        <time>2017-08-13T07:02:59Z</time>
      </trkpt>
      <trkpt lat="45.67988" lon="2.85015">
        <ele>1053.26</ele>
        <time>2017-08-13T07:03:00Z</time>
      </trkpt>
      <trkpt lat="45.67987" lon="2.85014">
        <ele>1053.74</ele>
        <time>2017-08-13T07:03:01Z</time>
      </trkpt>
      <trkpt lat="45.67985" lon="2.85014">
        <ele>1053.74</ele>
        <time>2017-08-13T07:03:02Z</time>
      </trkpt>
      <trkpt lat="45.67983" lon="2.85014">
        <ele>1053.74</ele>
        <time>2017-08-13T07:03:03Z</time>
      </trkpt>
      <trkpt lat="45.67959" lon="2.8501">
        <ele>1055.18</ele>
        <time>2017-08-13T07:03:16Z</time>
      </trkpt>
      <trkpt lat="45.67937" lon="2.85012">
        <ele>1056.63</ele>
        <time>2017-08-13T07:03:28Z</time>
      </trkpt>
      <trkpt lat="45.67917" lon="2.8502">
        <ele>1058.07</ele>
        <time>2017-08-13T07:03:41Z</time>
      </trkpt>
      <trkpt lat="45.67893" lon="2.8503">
        <ele>1059.51</ele>
        <time>2017-08-13T07:03:54Z</time>
      </trkpt>
      <trkpt lat="45.67865" lon="2.85041">
        <ele>1059.99</ele>
        <time>2017-08-13T07:04:06Z</time>
      </trkpt>
      <trkpt lat="45.67829" lon="2.85057">
        <ele>1060.95</ele>
        <time>2017-08-13T07:04:19Z</time>
      </trkpt>
      <trkpt lat="45.67796" lon="2.8507">
        <ele>1062.39</ele>
        <time>2017-08-13T07:04:33Z</time>
      </trkpt>
      <trkpt lat="45.67764" lon="2.85079">
        <ele>1063.36</ele>
        <time>2017-08-13T07:04:47Z</time>
      </trkpt>
      <trkpt lat="45.67733" lon="2.8508">
        <ele>1064.8</ele>
        <time>2017-08-13T07:04:59Z</time>
      </trkpt>
      <trkpt lat="45.67694" lon="2.85089">
        <ele>1066.24</ele>
        <time>2017-08-13T07:05:14Z</time>
      </trkpt>
      <trkpt lat="45.67666" lon="2.85088">
        <ele>1066.72</ele>
        <time>2017-08-13T07:05:25Z</time>
      </trkpt>
      <trkpt lat="45.67611" lon="2.85066">
        <ele>1066.72</ele>
        <time>2017-08-13T07:05:41Z</time>
      </trkpt>
      <trkpt lat="45.67607" lon="2.85065">
        <ele>1066.72</ele>
        <time>2017-08-13T07:05:42Z</time>
      </trkpt>
      <trkpt lat="45.67596" lon="2.85065">
        <ele>1064.8</ele>
        <time>2017-08-13T07:05:44Z</time>
      </trkpt>
      <trkpt lat="45.67592" lon="2.85066">
        <ele>1064.32</ele>
        <time>2017-08-13T07:05:45Z</time>
      </trkpt>
      <trkpt lat="45.67588" lon="2.85069">
        <ele>1063.84</ele>
        <time>2017-08-13T07:05:46Z</time>
      </trkpt>
      <trkpt lat="45.67585" lon="2.85072">
        <ele>1062.87</ele>
        <time>2017-08-13T07:05:47Z</time>
      </trkpt>
      <trkpt lat="45.67581" lon="2.85078">
        <ele>1061.91</ele>
        <time>2017-08-13T07:05:48Z</time>
      </trkpt>
      <trkpt lat="45.67577" lon="2.85084">
        <ele>1061.43</ele>
        <time>2017-08-13T07:05:49Z</time>
      </trkpt>
      <trkpt lat="45.67574" lon="2.85089">
        <ele>1060.47</ele>
        <time>2017-08-13T07:05:50Z</time>
      </trkpt>
      <trkpt lat="45.6757" lon="2.85093">
        <ele>1059.51</ele>
        <time>2017-08-13T07:05:51Z</time>
      </trkpt>
      <trkpt lat="45.67566" lon="2.85096">
        <ele>1058.55</ele>
        <time>2017-08-13T07:05:52Z</time>
      </trkpt>
      <trkpt lat="45.67555" lon="2.85102">
        <ele>1057.11</ele>
        <time>2017-08-13T07:05:54Z</time>
      </trkpt>
      <trkpt lat="45.67549" lon="2.85103">
        <ele>1056.63</ele>
        <time>2017-08-13T07:05:55Z</time>
      </trkpt>
      <trkpt lat="45.67543" lon="2.85104">
        <ele>1055.67</ele>
        <time>2017-08-13T07:05:56Z</time>
      </trkpt>
      <trkpt lat="45.67528" lon="2.85104">
        <ele>1054.22</ele>
        <time>2017-08-13T07:05:58Z</time>
      </trkpt>
      <trkpt lat="45.67493" lon="2.85103">
        <ele>1051.34</ele>
        <time>2017-08-13T07:06:02Z</time>
      </trkpt>
      <trkpt lat="45.67476" lon="2.85103">
        <ele>1050.38</ele>
        <time>2017-08-13T07:06:04Z</time>
      </trkpt>
      <trkpt lat="45.67431" lon="2.85096">
        <ele>1047.01</ele>
        <time>2017-08-13T07:06:09Z</time>
      </trkpt>
      <trkpt lat="45.67396" lon="2.8509">
        <ele>1045.09</ele>
        <time>2017-08-13T07:06:13Z</time>
      </trkpt>
      <trkpt lat="45.67368" lon="2.85088">
        <ele>1043.17</ele>
        <time>2017-08-13T07:06:17Z</time>
      </trkpt>
      <trkpt lat="45.67362" lon="2.85088">
        <ele>1042.69</ele>
        <time>2017-08-13T07:06:18Z</time>
      </trkpt>
      <trkpt lat="45.67355" lon="2.8509">
        <ele>1042.21</ele>
        <time>2017-08-13T07:06:19Z</time>
      </trkpt>
      <trkpt lat="45.67263" lon="2.85121">
        <ele>1038.84</ele>
        <time>2017-08-13T07:06:33Z</time>
      </trkpt>
      <trkpt lat="45.67208" lon="2.85123">
        <ele>1038.36</ele>
        <time>2017-08-13T07:06:42Z</time>
      </trkpt>
      <trkpt lat="45.67204" lon="2.85122">
        <ele>1037.88</ele>
        <time>2017-08-13T07:06:43Z</time>
      </trkpt>
      <trkpt lat="45.67201" lon="2.85122">
        <ele>1037.88</ele>
        <time>2017-08-13T07:06:44Z</time>
      </trkpt>
      <trkpt lat="45.67198" lon="2.85122">
        <ele>1037.88</ele>
        <time>2017-08-13T07:06:45Z</time>
      </trkpt>
      <trkpt lat="45.67195" lon="2.85123">
        <ele>1037.88</ele>
        <time>2017-08-13T07:06:46Z</time>
      </trkpt>
      <trkpt lat="45.67191" lon="2.85123">
        <ele>1037.88</ele>
        <time>2017-08-13T07:06:47Z</time>
      </trkpt>
      <trkpt lat="45.67188" lon="2.85123">
        <ele>1037.88</ele>
        <time>2017-08-13T07:06:48Z</time>
      </trkpt>
      <trkpt lat="45.67185" lon="2.85123">
        <ele>1037.88</ele>
        <time>2017-08-13T07:06:49Z</time>
      </trkpt>
      <trkpt lat="45.67182" lon="2.85122">
        <ele>1037.88</ele>
        <time>2017-08-13T07:06:50Z</time>
      </trkpt>
      <trkpt lat="45.67132" lon="2.85106">
        <ele>1037.88</ele>
        <time>2017-08-13T07:07:06Z</time>
      </trkpt>
      <trkpt lat="45.67086" lon="2.85092">
        <ele>1040.28</ele>
        <time>2017-08-13T07:07:22Z</time>
      </trkpt>
      <trkpt lat="45.6705" lon="2.85079">
        <ele>1041.25</ele>
        <time>2017-08-13T07:07:38Z</time>
      </trkpt>
      <trkpt lat="45.67013" lon="2.85066">
        <ele>1043.17</ele>
        <time>2017-08-13T07:07:57Z</time>
      </trkpt>
      <trkpt lat="45.66988" lon="2.85057">
        <ele>1045.09</ele>
        <time>2017-08-13T07:08:13Z</time>
      </trkpt>
      <trkpt lat="45.66965" lon="2.85047">
        <ele>1046.53</ele>
        <time>2017-08-13T07:08:29Z</time>
      </trkpt>
      <trkpt lat="45.66959" lon="2.85046">
        <ele>1047.01</ele>
        <time>2017-08-13T07:08:33Z</time>
      </trkpt>
      <trkpt lat="45.66958" lon="2.85045">
        <ele>1047.01</ele>
        <time>2017-08-13T07:08:34Z</time>
      </trkpt>
      <trkpt lat="45.66933" lon="2.85033">
        <ele>1048.94</ele>
        <time>2017-08-13T07:08:51Z</time>
      </trkpt>
      <trkpt lat="45.66901" lon="2.85016">
        <ele>1051.34</ele>
        <time>2017-08-13T07:09:11Z</time>
      </trkpt>
      <trkpt lat="45.6689" lon="2.8501">
        <ele>1052.78</ele>
        <time>2017-08-13T07:09:19Z</time>
      </trkpt>
      <trkpt lat="45.66889" lon="2.8501">
        <ele>1052.78</ele>
        <time>2017-08-13T07:09:20Z</time>
      </trkpt>
      <trkpt lat="45.66887" lon="2.8501">
        <ele>1053.26</ele>
        <time>2017-08-13T07:09:21Z</time>
      </trkpt>
      <trkpt lat="45.66886" lon="2.8501">
        <ele>1053.26</ele>
        <time>2017-08-13T07:09:22Z</time>
      </trkpt>
      <trkpt lat="45.66885" lon="2.85009">
        <ele>1053.26</ele>
        <time>2017-08-13T07:09:23Z</time>
      </trkpt>
      <trkpt lat="45.66884" lon="2.85008">
        <ele>1053.26</ele>
        <time>2017-08-13T07:09:24Z</time>
      </trkpt>
      <trkpt lat="45.66883" lon="2.85006">
        <ele>1053.74</ele>
        <time>2017-08-13T07:09:25Z</time>
      </trkpt>
      <trkpt lat="45.66882" lon="2.85005">
        <ele>1053.74</ele>
        <time>2017-08-13T07:09:26Z</time>
      </trkpt>
      <trkpt lat="45.6688" lon="2.85005">
        <ele>1053.74</ele>
        <time>2017-08-13T07:09:27Z</time>
      </trkpt>
      <trkpt lat="45.66879" lon="2.85005">
        <ele>1054.22</ele>
        <time>2017-08-13T07:09:28Z</time>
      </trkpt>
      <trkpt lat="45.66878" lon="2.85004">
        <ele>1054.22</ele>
        <time>2017-08-13T07:09:29Z</time>
      </trkpt>
      <trkpt lat="45.66876" lon="2.85003">
        <ele>1054.22</ele>
        <time>2017-08-13T07:09:30Z</time>
      </trkpt>
      <trkpt lat="45.66875" lon="2.85002">
        <ele>1054.7</ele>
        <time>2017-08-13T07:09:31Z</time>
      </trkpt>
      <trkpt lat="45.66855" lon="2.84994">
        <ele>1057.59</ele>
        <time>2017-08-13T07:09:46Z</time>
      </trkpt>
      <trkpt lat="45.66834" lon="2.84984">
        <ele>1059.03</ele>
        <time>2017-08-13T07:10:01Z</time>
      </trkpt>
      <trkpt lat="45.66832" lon="2.84984">
        <ele>1059.03</ele>
        <time>2017-08-13T07:10:02Z</time>
      </trkpt>
      <trkpt lat="45.66831" lon="2.84983">
        <ele>1059.51</ele>
        <time>2017-08-13T07:10:03Z</time>
      </trkpt>
      <trkpt lat="45.6683" lon="2.84983">
        <ele>1059.51</ele>
        <time>2017-08-13T07:10:04Z</time>
      </trkpt>
      <trkpt lat="45.66828" lon="2.84982">
        <ele>1059.51</ele>
        <time>2017-08-13T07:10:05Z</time>
      </trkpt>
      <trkpt lat="45.66827" lon="2.84981">
        <ele>1059.51</ele>
        <time>2017-08-13T07:10:06Z</time>
      </trkpt>
      <trkpt lat="45.66802" lon="2.84972">
        <ele>1061.43</ele>
        <time>2017-08-13T07:10:23Z</time>
      </trkpt>
      <trkpt lat="45.66777" lon="2.84964">
        <ele>1063.36</ele>
        <time>2017-08-13T07:10:39Z</time>
      </trkpt>
      <trkpt lat="45.66776" lon="2.84963">
        <ele>1063.36</ele>
        <time>2017-08-13T07:10:40Z</time>
      </trkpt>
      <trkpt lat="45.66768" lon="2.84961">
        <ele>1064.32</ele>
        <time>2017-08-13T07:10:46Z</time>
      </trkpt>
      <trkpt lat="45.66767" lon="2.8496">
        <ele>1064.8</ele>
        <time>2017-08-13T07:10:47Z</time>
      </trkpt>
      <trkpt lat="45.66766" lon="2.84959">
        <ele>1064.8</ele>
        <time>2017-08-13T07:10:48Z</time>
      </trkpt>
      <trkpt lat="45.66765" lon="2.84959">
        <ele>1064.8</ele>
        <time>2017-08-13T07:10:49Z</time>
      </trkpt>
      <trkpt lat="45.66764" lon="2.84958">
        <ele>1065.28</ele>
        <time>2017-08-13T07:10:50Z</time>
      </trkpt>
      <trkpt lat="45.66763" lon="2.84958">
        <ele>1065.28</ele>
        <time>2017-08-13T07:10:51Z</time>
      </trkpt>
      <trkpt lat="45.66761" lon="2.84957">
        <ele>1065.28</ele>
        <time>2017-08-13T07:10:52Z</time>
      </trkpt>
      <trkpt lat="45.6676" lon="2.84956">
        <ele>1065.76</ele>
        <time>2017-08-13T07:10:53Z</time>
      </trkpt>
      <trkpt lat="45.66735" lon="2.84948">
        <ele>1067.68</ele>
        <time>2017-08-13T07:11:10Z</time>
      </trkpt>
      <trkpt lat="45.6671" lon="2.84939">
        <ele>1070.08</ele>
        <time>2017-08-13T07:11:27Z</time>
      </trkpt>
      <trkpt lat="45.66698" lon="2.84937">
        <ele>1071.53</ele>
        <time>2017-08-13T07:11:35Z</time>
      </trkpt>
      <trkpt lat="45.66697" lon="2.84937">
        <ele>1071.53</ele>
        <time>2017-08-13T07:11:36Z</time>
      </trkpt>
      <trkpt lat="45.66696" lon="2.84936">
        <ele>1071.53</ele>
        <time>2017-08-13T07:11:37Z</time>
      </trkpt>
      <trkpt lat="45.66679" lon="2.84927">
        <ele>1072.97</ele>
        <time>2017-08-13T07:11:49Z</time>
      </trkpt>
      <trkpt lat="45.66665" lon="2.84921">
        <ele>1073.93</ele>
        <time>2017-08-13T07:11:59Z</time>
      </trkpt>
      <trkpt lat="45.66663" lon="2.8492">
        <ele>1074.41</ele>
        <time>2017-08-13T07:12:00Z</time>
      </trkpt>
      <trkpt lat="45.66662" lon="2.8492">
        <ele>1074.89</ele>
        <time>2017-08-13T07:12:01Z</time>
      </trkpt>
      <trkpt lat="45.6666" lon="2.84919">
        <ele>1074.89</ele>
        <time>2017-08-13T07:12:02Z</time>
      </trkpt>
      <trkpt lat="45.66659" lon="2.84919">
        <ele>1074.89</ele>
        <time>2017-08-13T07:12:03Z</time>
      </trkpt>
      <trkpt lat="45.66657" lon="2.84918">
        <ele>1074.89</ele>
        <time>2017-08-13T07:12:04Z</time>
      </trkpt>
      <trkpt lat="45.66634" lon="2.84913">
        <ele>1076.33</ele>
        <time>2017-08-13T07:12:19Z</time>
      </trkpt>
      <trkpt lat="45.66603" lon="2.84905">
        <ele>1078.26</ele>
        <time>2017-08-13T07:12:37Z</time>
      </trkpt>
      <trkpt lat="45.66575" lon="2.84891">
        <ele>1079.22</ele>
        <time>2017-08-13T07:12:53Z</time>
      </trkpt>
      <trkpt lat="45.66548" lon="2.84877">
        <ele>1081.14</ele>
        <time>2017-08-13T07:13:08Z</time>
      </trkpt>
      <trkpt lat="45.66522" lon="2.84862">
        <ele>1082.1</ele>
        <time>2017-08-13T07:13:24Z</time>
      </trkpt>
      <trkpt lat="45.66493" lon="2.84847">
        <ele>1084.5</ele>
        <time>2017-08-13T07:13:41Z</time>
      </trkpt>
      <trkpt lat="45.66472" lon="2.84833">
        <ele>1085.47</ele>
        <time>2017-08-13T07:13:56Z</time>
      </trkpt>
      <trkpt lat="45.66451" lon="2.84818">
        <ele>1086.91</ele>
        <time>2017-08-13T07:14:11Z</time>
      </trkpt>
      <trkpt lat="45.6643" lon="2.84801">
        <ele>1088.35</ele>
        <time>2017-08-13T07:14:24Z</time>
      </trkpt>
      <trkpt lat="45.66428" lon="2.848">
        <ele>1088.83</ele>
        <time>2017-08-13T07:14:25Z</time>
      </trkpt>
      <trkpt lat="45.66426" lon="2.84798">
        <ele>1088.83</ele>
        <time>2017-08-13T07:14:26Z</time>
      </trkpt>
      <trkpt lat="45.66409" lon="2.84787">
        <ele>1089.79</ele>
        <time>2017-08-13T07:14:37Z</time>
      </trkpt>
      <trkpt lat="45.66408" lon="2.8479">
        <ele>1089.79</ele>
        <time>2017-08-13T07:14:55Z</time>
      </trkpt>
      <trkpt lat="45.66408" lon="2.8479">
        <ele>1089.79</ele>
        <time>2017-08-13T07:15:31Z</time>
      </trkpt>
      <trkpt lat="45.66408" lon="2.8479">
        <ele>1089.79</ele>
        <time>2017-08-13T07:16:03Z</time>
      </trkpt>
      <trkpt lat="45.66407" lon="2.84789">
        <ele>1089.79</ele>
        <time>2017-08-13T07:16:38Z</time>
      </trkpt>
      <trkpt lat="45.66407" lon="2.84789">
        <ele>1089.79</ele>
        <time>2017-08-13T07:17:09Z</time>
      </trkpt>
      <trkpt lat="45.66407" lon="2.84789">
        <ele>1089.79</ele>
        <time>2017-08-13T07:17:16Z</time>
      </trkpt>
      <trkpt lat="45.66409" lon="2.84787">
        <ele>1089.79</ele>
        <time>2017-08-13T07:17:30Z</time>
      </trkpt>
      <trkpt lat="45.66408" lon="2.84788">
        <ele>1089.79</ele>
        <time>2017-08-13T07:17:51Z</time>
      </trkpt>
      <trkpt lat="45.66407" lon="2.84786">
        <ele>1089.79</ele>
        <time>2017-08-13T07:18:16Z</time>
      </trkpt>
      <trkpt lat="45.66406" lon="2.84785">
        <ele>1090.27</ele>
        <time>2017-08-13T07:18:29Z</time>
      </trkpt>
      <trkpt lat="45.66405" lon="2.84784">
        <ele>1090.27</ele>
        <time>2017-08-13T07:18:56Z</time>
      </trkpt>
      <trkpt lat="45.6639" lon="2.84776">
        <ele>1090.27</ele>
        <time>2017-08-13T07:19:06Z</time>
      </trkpt>
      <trkpt lat="45.66363" lon="2.8476">
        <ele>1091.71</ele>
        <time>2017-08-13T07:19:21Z</time>
      </trkpt>
      <trkpt lat="45.66328" lon="2.84732">
        <ele>1090.27</ele>
        <time>2017-08-13T07:19:34Z</time>
      </trkpt>
      <trkpt lat="45.6632" lon="2.84724">
        <ele>1089.31</ele>
        <time>2017-08-13T07:19:36Z</time>
      </trkpt>
      <trkpt lat="45.66315" lon="2.84723">
        <ele>1088.83</ele>
        <time>2017-08-13T07:19:37Z</time>
      </trkpt>
      <trkpt lat="45.6631" lon="2.84723">
        <ele>1088.35</ele>
        <time>2017-08-13T07:19:38Z</time>
      </trkpt>
      <trkpt lat="45.66306" lon="2.84724">
        <ele>1088.35</ele>
        <time>2017-08-13T07:19:39Z</time>
      </trkpt>
      <trkpt lat="45.66303" lon="2.84727">
        <ele>1088.35</ele>
        <time>2017-08-13T07:19:40Z</time>
      </trkpt>
      <trkpt lat="45.663" lon="2.84729">
        <ele>1088.35</ele>
        <time>2017-08-13T07:19:41Z</time>
      </trkpt>
      <trkpt lat="45.66298" lon="2.84731">
        <ele>1088.83</ele>
        <time>2017-08-13T07:19:42Z</time>
      </trkpt>
      <trkpt lat="45.66287" lon="2.84741">
        <ele>1089.79</ele>
        <time>2017-08-13T07:19:48Z</time>
      </trkpt>
      <trkpt lat="45.66256" lon="2.84764">
        <ele>1091.71</ele>
        <time>2017-08-13T07:20:04Z</time>
      </trkpt>
      <trkpt lat="45.66227" lon="2.8477">
        <ele>1092.68</ele>
        <time>2017-08-13T07:20:18Z</time>
      </trkpt>
      <trkpt lat="45.66205" lon="2.84783">
        <ele>1094.12</ele>
        <time>2017-08-13T07:20:31Z</time>
      </trkpt>
      <trkpt lat="45.66202" lon="2.84811">
        <ele>1096.04</ele>
        <time>2017-08-13T07:20:43Z</time>
      </trkpt>
      <trkpt lat="45.662" lon="2.84864">
        <ele>1096.52</ele>
        <time>2017-08-13T07:20:59Z</time>
      </trkpt>
      <trkpt lat="45.66183" lon="2.84894">
        <ele>1097</ele>
        <time>2017-08-13T07:21:11Z</time>
      </trkpt>
      <trkpt lat="45.66159" lon="2.84915">
        <ele>1098.44</ele>
        <time>2017-08-13T07:21:27Z</time>
      </trkpt>
      <trkpt lat="45.66156" lon="2.84916">
        <ele>1098.92</ele>
        <time>2017-08-13T07:21:29Z</time>
      </trkpt>
      <trkpt lat="45.66155" lon="2.84917">
        <ele>1098.92</ele>
        <time>2017-08-13T07:21:30Z</time>
      </trkpt>
      <trkpt lat="45.66153" lon="2.84917">
        <ele>1098.92</ele>
        <time>2017-08-13T07:21:31Z</time>
      </trkpt>
      <trkpt lat="45.66151" lon="2.84917">
        <ele>1098.92</ele>
        <time>2017-08-13T07:21:32Z</time>
      </trkpt>
      <trkpt lat="45.6615" lon="2.84918">
        <ele>1098.92</ele>
        <time>2017-08-13T07:21:33Z</time>
      </trkpt>
      <trkpt lat="45.66148" lon="2.84918">
        <ele>1098.92</ele>
        <time>2017-08-13T07:21:34Z</time>
      </trkpt>
      <trkpt lat="45.66147" lon="2.84918">
        <ele>1099.4</ele>
        <time>2017-08-13T07:21:35Z</time>
      </trkpt>
      <trkpt lat="45.66133" lon="2.84925">
        <ele>1099.89</ele>
        <time>2017-08-13T07:21:42Z</time>
      </trkpt>
      <trkpt lat="45.66132" lon="2.84926">
        <ele>1099.89</ele>
        <time>2017-08-13T07:21:43Z</time>
      </trkpt>
      <trkpt lat="45.6613" lon="2.84927">
        <ele>1099.89</ele>
        <time>2017-08-13T07:21:44Z</time>
      </trkpt>
      <trkpt lat="45.66099" lon="2.8494">
        <ele>1101.33</ele>
        <time>2017-08-13T07:21:59Z</time>
      </trkpt>
      <trkpt lat="45.66074" lon="2.84951">
        <ele>1103.25</ele>
        <time>2017-08-13T07:22:12Z</time>
      </trkpt>
      <trkpt lat="45.66073" lon="2.84953">
        <ele>1103.25</ele>
        <time>2017-08-13T07:22:13Z</time>
      </trkpt>
      <trkpt lat="45.6607" lon="2.84955">
        <ele>1103.73</ele>
        <time>2017-08-13T07:22:16Z</time>
      </trkpt>
      <trkpt lat="45.66068" lon="2.84956">
        <ele>1103.73</ele>
        <time>2017-08-13T07:22:17Z</time>
      </trkpt>
      <trkpt lat="45.66045" lon="2.84959">
        <ele>1105.17</ele>
        <time>2017-08-13T07:22:31Z</time>
      </trkpt>
      <trkpt lat="45.66037" lon="2.84961">
        <ele>1106.61</ele>
        <time>2017-08-13T07:22:37Z</time>
      </trkpt>
      <trkpt lat="45.66035" lon="2.84962">
        <ele>1107.1</ele>
        <time>2017-08-13T07:22:38Z</time>
      </trkpt>
      <trkpt lat="45.66034" lon="2.84962">
        <ele>1107.1</ele>
        <time>2017-08-13T07:22:39Z</time>
      </trkpt>
      <trkpt lat="45.66032" lon="2.84963">
        <ele>1107.1</ele>
        <time>2017-08-13T07:22:40Z</time>
      </trkpt>
      <trkpt lat="45.6603" lon="2.84964">
        <ele>1107.1</ele>
        <time>2017-08-13T07:22:41Z</time>
      </trkpt>
      <trkpt lat="45.66028" lon="2.84965">
        <ele>1107.1</ele>
        <time>2017-08-13T07:22:42Z</time>
      </trkpt>
      <trkpt lat="45.66026" lon="2.84966">
        <ele>1107.1</ele>
        <time>2017-08-13T07:22:43Z</time>
      </trkpt>
      <trkpt lat="45.66025" lon="2.84966">
        <ele>1107.1</ele>
        <time>2017-08-13T07:22:44Z</time>
      </trkpt>
      <trkpt lat="45.66005" lon="2.84976">
        <ele>1108.54</ele>
        <time>2017-08-13T07:22:57Z</time>
      </trkpt>
      <trkpt lat="45.65982" lon="2.84986">
        <ele>1110.46</ele>
        <time>2017-08-13T07:23:11Z</time>
      </trkpt>
      <trkpt lat="45.65962" lon="2.84989">
        <ele>1111.9</ele>
        <time>2017-08-13T07:23:22Z</time>
      </trkpt>
      <trkpt lat="45.65945" lon="2.84992">
        <ele>1112.86</ele>
        <time>2017-08-13T07:23:32Z</time>
      </trkpt>
      <trkpt lat="45.65941" lon="2.84991">
        <ele>1113.82</ele>
        <time>2017-08-13T07:23:34Z</time>
      </trkpt>
      <trkpt lat="45.6592" lon="2.84995">
        <ele>1114.79</ele>
        <time>2017-08-13T07:23:45Z</time>
      </trkpt>
      <trkpt lat="45.65918" lon="2.84995">
        <ele>1114.79</ele>
        <time>2017-08-13T07:23:46Z</time>
      </trkpt>
      <trkpt lat="45.65916" lon="2.84995">
        <ele>1115.75</ele>
        <time>2017-08-13T07:23:47Z</time>
      </trkpt>
      <trkpt lat="45.65914" lon="2.84995">
        <ele>1115.75</ele>
        <time>2017-08-13T07:23:48Z</time>
      </trkpt>
      <trkpt lat="45.65912" lon="2.84996">
        <ele>1115.75</ele>
        <time>2017-08-13T07:23:49Z</time>
      </trkpt>
      <trkpt lat="45.6591" lon="2.84997">
        <ele>1116.23</ele>
        <time>2017-08-13T07:23:50Z</time>
      </trkpt>
      <trkpt lat="45.65894" lon="2.85009">
        <ele>1117.67</ele>
        <time>2017-08-13T07:24:02Z</time>
      </trkpt>
      <trkpt lat="45.65893" lon="2.85009">
        <ele>1117.67</ele>
        <time>2017-08-13T07:24:03Z</time>
      </trkpt>
      <trkpt lat="45.65892" lon="2.85008">
        <ele>1117.67</ele>
        <time>2017-08-13T07:24:04Z</time>
      </trkpt>
      <trkpt lat="45.6589" lon="2.85008">
        <ele>1117.67</ele>
        <time>2017-08-13T07:24:05Z</time>
      </trkpt>
      <trkpt lat="45.65888" lon="2.85009">
        <ele>1118.15</ele>
        <time>2017-08-13T07:24:06Z</time>
      </trkpt>
      <trkpt lat="45.65887" lon="2.85009">
        <ele>1118.63</ele>
        <time>2017-08-13T07:24:07Z</time>
      </trkpt>
      <trkpt lat="45.65886" lon="2.8501">
        <ele>1118.63</ele>
        <time>2017-08-13T07:24:08Z</time>
      </trkpt>
      <trkpt lat="45.65872" lon="2.85017">
        <ele>1119.59</ele>
        <time>2017-08-13T07:24:18Z</time>
      </trkpt>
      <trkpt lat="45.65871" lon="2.85018">
        <ele>1119.59</ele>
        <time>2017-08-13T07:24:19Z</time>
      </trkpt>
      <trkpt lat="45.65869" lon="2.85018">
        <ele>1119.59</ele>
        <time>2017-08-13T07:24:20Z</time>
      </trkpt>
      <trkpt lat="45.65851" lon="2.85027">
        <ele>1121.52</ele>
        <time>2017-08-13T07:24:33Z</time>
      </trkpt>
      <trkpt lat="45.6583" lon="2.85038">
        <ele>1123.44</ele>
        <time>2017-08-13T07:24:48Z</time>
      </trkpt>
      <trkpt lat="45.65823" lon="2.85046">
        <ele>1124.4</ele>
        <time>2017-08-13T07:24:54Z</time>
      </trkpt>
      <trkpt lat="45.65821" lon="2.85047">
        <ele>1124.4</ele>
        <time>2017-08-13T07:24:55Z</time>
      </trkpt>
      <trkpt lat="45.65819" lon="2.85049">
        <ele>1124.4</ele>
        <time>2017-08-13T07:24:56Z</time>
      </trkpt>
      <trkpt lat="45.65818" lon="2.8505">
        <ele>1124.4</ele>
        <time>2017-08-13T07:24:57Z</time>
      </trkpt>
      <trkpt lat="45.65816" lon="2.85051">
        <ele>1124.88</ele>
        <time>2017-08-13T07:24:58Z</time>
      </trkpt>
      <trkpt lat="45.65814" lon="2.85052">
        <ele>1124.88</ele>
        <time>2017-08-13T07:24:59Z</time>
      </trkpt>
      <trkpt lat="45.65813" lon="2.85053">
        <ele>1124.88</ele>
        <time>2017-08-13T07:25:00Z</time>
      </trkpt>
      <trkpt lat="45.65811" lon="2.85054">
        <ele>1125.36</ele>
        <time>2017-08-13T07:25:01Z</time>
      </trkpt>
      <trkpt lat="45.6581" lon="2.85055">
        <ele>1125.36</ele>
        <time>2017-08-13T07:25:02Z</time>
      </trkpt>
      <trkpt lat="45.65808" lon="2.85056">
        <ele>1125.36</ele>
        <time>2017-08-13T07:25:03Z</time>
      </trkpt>
      <trkpt lat="45.65806" lon="2.85057">
        <ele>1125.84</ele>
        <time>2017-08-13T07:25:04Z</time>
      </trkpt>
      <trkpt lat="45.65784" lon="2.85072">
        <ele>1127.28</ele>
        <time>2017-08-13T07:25:19Z</time>
      </trkpt>
      <trkpt lat="45.65776" lon="2.85075">
        <ele>1127.76</ele>
        <time>2017-08-13T07:25:32Z</time>
      </trkpt>
      <trkpt lat="45.65775" lon="2.85075">
        <ele>1128.24</ele>
        <time>2017-08-13T07:25:33Z</time>
      </trkpt>
      <trkpt lat="45.65766" lon="2.85079">
        <ele>1129.69</ele>
        <time>2017-08-13T07:25:45Z</time>
      </trkpt>
      <trkpt lat="45.65753" lon="2.85088">
        <ele>1131.13</ele>
        <time>2017-08-13T07:25:59Z</time>
      </trkpt>
      <trkpt lat="45.65734" lon="2.85097">
        <ele>1133.53</ele>
        <time>2017-08-13T07:26:15Z</time>
      </trkpt>
      <trkpt lat="45.65722" lon="2.85111">
        <ele>1134.49</ele>
        <time>2017-08-13T07:26:29Z</time>
      </trkpt>
      <trkpt lat="45.65718" lon="2.85118">
        <ele>1134.97</ele>
        <time>2017-08-13T07:26:36Z</time>
      </trkpt>
      <trkpt lat="45.65714" lon="2.85123">
        <ele>1135.45</ele>
        <time>2017-08-13T07:26:40Z</time>
      </trkpt>
      <trkpt lat="45.65705" lon="2.8513">
        <ele>1136.42</ele>
        <time>2017-08-13T07:26:51Z</time>
      </trkpt>
      <trkpt lat="45.65689" lon="2.85148">
        <ele>1136.9</ele>
        <time>2017-08-13T07:27:07Z</time>
      </trkpt>
      <trkpt lat="45.65679" lon="2.85162">
        <ele>1138.34</ele>
        <time>2017-08-13T07:27:21Z</time>
      </trkpt>
      <trkpt lat="45.6567" lon="2.85178">
        <ele>1139.3</ele>
        <time>2017-08-13T07:27:36Z</time>
      </trkpt>
      <trkpt lat="45.6567" lon="2.85181">
        <ele>1139.78</ele>
        <time>2017-08-13T07:27:58Z</time>
      </trkpt>
      <trkpt lat="45.65666" lon="2.85194">
        <ele>1139.78</ele>
        <time>2017-08-13T07:28:12Z</time>
      </trkpt>
      <trkpt lat="45.65659" lon="2.85213">
        <ele>1140.74</ele>
        <time>2017-08-13T07:28:25Z</time>
      </trkpt>
      <trkpt lat="45.65655" lon="2.85214">
        <ele>1141.22</ele>
        <time>2017-08-13T07:28:48Z</time>
      </trkpt>
      <trkpt lat="45.65656" lon="2.85219">
        <ele>1141.22</ele>
        <time>2017-08-13T07:29:17Z</time>
      </trkpt>
      <trkpt lat="45.65654" lon="2.85221">
        <ele>1141.22</ele>
        <time>2017-08-13T07:29:35Z</time>
      </trkpt>
      <trkpt lat="45.65654" lon="2.85219">
        <ele>1141.7</ele>
        <time>2017-08-13T07:29:47Z</time>
      </trkpt>
      <trkpt lat="45.65649" lon="2.85224">
        <ele>1141.7</ele>
        <time>2017-08-13T07:29:58Z</time>
      </trkpt>
      <trkpt lat="45.65639" lon="2.85234">
        <ele>1143.14</ele>
        <time>2017-08-13T07:30:12Z</time>
      </trkpt>
      <trkpt lat="45.6563" lon="2.85246">
        <ele>1143.63</ele>
        <time>2017-08-13T07:30:25Z</time>
      </trkpt>
      <trkpt lat="45.65625" lon="2.8526">
        <ele>1144.11</ele>
        <time>2017-08-13T07:30:37Z</time>
      </trkpt>
      <trkpt lat="45.65623" lon="2.85263">
        <ele>1144.11</ele>
        <time>2017-08-13T07:30:48Z</time>
      </trkpt>
      <trkpt lat="45.65622" lon="2.85265">
        <ele>1144.59</ele>
        <time>2017-08-13T07:30:50Z</time>
      </trkpt>
      <trkpt lat="45.65619" lon="2.85268">
        <ele>1144.59</ele>
        <time>2017-08-13T07:30:53Z</time>
      </trkpt>
      <trkpt lat="45.65611" lon="2.85276">
        <ele>1145.55</ele>
        <time>2017-08-13T07:31:07Z</time>
      </trkpt>
      <trkpt lat="45.65603" lon="2.85282">
        <ele>1146.03</ele>
        <time>2017-08-13T07:31:18Z</time>
      </trkpt>
      <trkpt lat="45.65589" lon="2.85298">
        <ele>1147.47</ele>
        <time>2017-08-13T07:31:33Z</time>
      </trkpt>
      <trkpt lat="45.65584" lon="2.85304">
        <ele>1148.91</ele>
        <time>2017-08-13T07:31:48Z</time>
      </trkpt>
      <trkpt lat="45.65583" lon="2.85303">
        <ele>1148.91</ele>
        <time>2017-08-13T07:32:05Z</time>
      </trkpt>
      <trkpt lat="45.65583" lon="2.85305">
        <ele>1148.91</ele>
        <time>2017-08-13T07:32:29Z</time>
      </trkpt>
      <trkpt lat="45.65581" lon="2.85308">
        <ele>1148.91</ele>
        <time>2017-08-13T07:32:39Z</time>
      </trkpt>
      <trkpt lat="45.65581" lon="2.85307">
        <ele>1149.39</ele>
        <time>2017-08-13T07:32:56Z</time>
      </trkpt>
      <trkpt lat="45.6558" lon="2.85305">
        <ele>1149.39</ele>
        <time>2017-08-13T07:33:08Z</time>
      </trkpt>
      <trkpt lat="45.6558" lon="2.85304">
        <ele>1149.87</ele>
        <time>2017-08-13T07:33:24Z</time>
      </trkpt>
      <trkpt lat="45.65572" lon="2.85312">
        <ele>1150.35</ele>
        <time>2017-08-13T07:33:34Z</time>
      </trkpt>
      <trkpt lat="45.65565" lon="2.85322">
        <ele>1151.8</ele>
        <time>2017-08-13T07:33:44Z</time>
      </trkpt>
      <trkpt lat="45.65558" lon="2.85337">
        <ele>1152.76</ele>
        <time>2017-08-13T07:33:58Z</time>
      </trkpt>
      <trkpt lat="45.65554" lon="2.85345">
        <ele>1154.2</ele>
        <time>2017-08-13T07:34:10Z</time>
      </trkpt>
      <trkpt lat="45.65549" lon="2.85345">
        <ele>1154.2</ele>
        <time>2017-08-13T07:34:15Z</time>
      </trkpt>
      <trkpt lat="45.65536" lon="2.85347">
        <ele>1156.12</ele>
        <time>2017-08-13T07:34:28Z</time>
      </trkpt>
      <trkpt lat="45.65535" lon="2.85347">
        <ele>1156.12</ele>
        <time>2017-08-13T07:34:29Z</time>
      </trkpt>
      <trkpt lat="45.65527" lon="2.85351">
        <ele>1157.56</ele>
        <time>2017-08-13T07:34:41Z</time>
      </trkpt>
      <trkpt lat="45.65518" lon="2.8536">
        <ele>1159.97</ele>
        <time>2017-08-13T07:34:55Z</time>
      </trkpt>
      <trkpt lat="45.65511" lon="2.85368">
        <ele>1161.41</ele>
        <time>2017-08-13T07:35:08Z</time>
      </trkpt>
      <trkpt lat="45.65507" lon="2.85373">
        <ele>1162.37</ele>
        <time>2017-08-13T07:35:13Z</time>
      </trkpt>
      <trkpt lat="45.65493" lon="2.85383">
        <ele>1163.33</ele>
        <time>2017-08-13T07:35:29Z</time>
      </trkpt>
      <trkpt lat="45.65474" lon="2.85392">
        <ele>1164.77</ele>
        <time>2017-08-13T07:35:44Z</time>
      </trkpt>
      <trkpt lat="45.65471" lon="2.85391">
        <ele>1165.74</ele>
        <time>2017-08-13T07:35:58Z</time>
      </trkpt>
      <trkpt lat="45.65476" lon="2.85392">
        <ele>1165.74</ele>
        <time>2017-08-13T07:36:11Z</time>
      </trkpt>
      <trkpt lat="45.65473" lon="2.85397">
        <ele>1165.74</ele>
        <time>2017-08-13T07:36:24Z</time>
      </trkpt>
      <trkpt lat="45.65463" lon="2.854">
        <ele>1166.7</ele>
        <time>2017-08-13T07:36:39Z</time>
      </trkpt>
      <trkpt lat="45.65455" lon="2.85406">
        <ele>1167.18</ele>
        <time>2017-08-13T07:36:53Z</time>
      </trkpt>
      <trkpt lat="45.65446" lon="2.85412">
        <ele>1167.66</ele>
        <time>2017-08-13T07:37:04Z</time>
      </trkpt>
      <trkpt lat="45.65442" lon="2.85413">
        <ele>1167.66</ele>
        <time>2017-08-13T07:37:07Z</time>
      </trkpt>
      <trkpt lat="45.65435" lon="2.85411">
        <ele>1168.62</ele>
        <time>2017-08-13T07:37:15Z</time>
      </trkpt>
      <trkpt lat="45.65427" lon="2.85402">
        <ele>1169.58</ele>
        <time>2017-08-13T07:37:27Z</time>
      </trkpt>
      <trkpt lat="45.65425" lon="2.85399">
        <ele>1169.58</ele>
        <time>2017-08-13T07:37:30Z</time>
      </trkpt>
      <trkpt lat="45.65424" lon="2.85398">
        <ele>1170.06</ele>
        <time>2017-08-13T07:37:31Z</time>
      </trkpt>
      <trkpt lat="45.65419" lon="2.85395">
        <ele>1171.02</ele>
        <time>2017-08-13T07:37:43Z</time>
      </trkpt>
      <trkpt lat="45.65415" lon="2.85396">
        <ele>1170.54</ele>
        <time>2017-08-13T07:38:04Z</time>
      </trkpt>
      <trkpt lat="45.65414" lon="2.85396">
        <ele>1170.54</ele>
        <time>2017-08-13T07:38:05Z</time>
      </trkpt>
      <trkpt lat="45.65414" lon="2.85395">
        <ele>1170.54</ele>
        <time>2017-08-13T07:38:06Z</time>
      </trkpt>
      <trkpt lat="45.65412" lon="2.85396">
        <ele>1170.54</ele>
        <time>2017-08-13T07:38:07Z</time>
      </trkpt>
      <trkpt lat="45.65394" lon="2.85397">
        <ele>1172.47</ele>
        <time>2017-08-13T07:38:24Z</time>
      </trkpt>
      <trkpt lat="45.65389" lon="2.85396">
        <ele>1172.95</ele>
        <time>2017-08-13T07:38:33Z</time>
      </trkpt>
      <trkpt lat="45.65388" lon="2.85396">
        <ele>1172.95</ele>
        <time>2017-08-13T07:38:34Z</time>
      </trkpt>
      <trkpt lat="45.65386" lon="2.85396">
        <ele>1172.95</ele>
        <time>2017-08-13T07:38:35Z</time>
      </trkpt>
      <trkpt lat="45.65385" lon="2.85396">
        <ele>1172.95</ele>
        <time>2017-08-13T07:38:36Z</time>
      </trkpt>
      <trkpt lat="45.65384" lon="2.85395">
        <ele>1173.43</ele>
        <time>2017-08-13T07:38:37Z</time>
      </trkpt>
      <trkpt lat="45.65362" lon="2.85395">
        <ele>1175.35</ele>
        <time>2017-08-13T07:38:51Z</time>
      </trkpt>
      <trkpt lat="45.65342" lon="2.85392">
        <ele>1176.79</ele>
        <time>2017-08-13T07:39:04Z</time>
      </trkpt>
      <trkpt lat="45.65329" lon="2.85391">
        <ele>1177.75</ele>
        <time>2017-08-13T07:39:13Z</time>
      </trkpt>
      <trkpt lat="45.65327" lon="2.8539">
        <ele>1177.75</ele>
        <time>2017-08-13T07:39:14Z</time>
      </trkpt>
      <trkpt lat="45.65326" lon="2.8539">
        <ele>1178.23</ele>
        <time>2017-08-13T07:39:15Z</time>
      </trkpt>
      <trkpt lat="45.65324" lon="2.8539">
        <ele>1178.71</ele>
        <time>2017-08-13T07:39:16Z</time>
      </trkpt>
      <trkpt lat="45.65323" lon="2.85391">
        <ele>1178.71</ele>
        <time>2017-08-13T07:39:17Z</time>
      </trkpt>
      <trkpt lat="45.65321" lon="2.85393">
        <ele>1178.71</ele>
        <time>2017-08-13T07:39:18Z</time>
      </trkpt>
      <trkpt lat="45.6532" lon="2.85395">
        <ele>1179.19</ele>
        <time>2017-08-13T07:39:19Z</time>
      </trkpt>
      <trkpt lat="45.65318" lon="2.85397">
        <ele>1179.19</ele>
        <time>2017-08-13T07:39:20Z</time>
      </trkpt>
      <trkpt lat="45.65317" lon="2.854">
        <ele>1179.19</ele>
        <time>2017-08-13T07:39:21Z</time>
      </trkpt>
      <trkpt lat="45.65321" lon="2.85432">
        <ele>1179.19</ele>
        <time>2017-08-13T07:39:31Z</time>
      </trkpt>
      <trkpt lat="45.6532" lon="2.85434">
        <ele>1179.19</ele>
        <time>2017-08-13T07:39:32Z</time>
      </trkpt>
      <trkpt lat="45.65318" lon="2.85435">
        <ele>1179.19</ele>
        <time>2017-08-13T07:39:33Z</time>
      </trkpt>
      <trkpt lat="45.65317" lon="2.85436">
        <ele>1179.19</ele>
        <time>2017-08-13T07:39:34Z</time>
      </trkpt>
      <trkpt lat="45.65315" lon="2.85436">
        <ele>1179.19</ele>
        <time>2017-08-13T07:39:35Z</time>
      </trkpt>
      <trkpt lat="45.65314" lon="2.85437">
        <ele>1179.19</ele>
        <time>2017-08-13T07:39:36Z</time>
      </trkpt>
      <trkpt lat="45.65312" lon="2.85436">
        <ele>1179.19</ele>
        <time>2017-08-13T07:39:37Z</time>
      </trkpt>
      <trkpt lat="45.6531" lon="2.85435">
        <ele>1179.19</ele>
        <time>2017-08-13T07:39:38Z</time>
      </trkpt>
      <trkpt lat="45.65308" lon="2.85435">
        <ele>1179.19</ele>
        <time>2017-08-13T07:39:39Z</time>
      </trkpt>
      <trkpt lat="45.65307" lon="2.85434">
        <ele>1179.19</ele>
        <time>2017-08-13T07:39:40Z</time>
      </trkpt>
      <trkpt lat="45.65306" lon="2.85433">
        <ele>1179.67</ele>
        <time>2017-08-13T07:39:41Z</time>
      </trkpt>
      <trkpt lat="45.65305" lon="2.85432">
        <ele>1179.67</ele>
        <time>2017-08-13T07:39:42Z</time>
      </trkpt>
      <trkpt lat="45.65304" lon="2.85431">
        <ele>1179.67</ele>
        <time>2017-08-13T07:39:43Z</time>
      </trkpt>
      <trkpt lat="45.65302" lon="2.85429">
        <ele>1180.16</ele>
        <time>2017-08-13T07:39:44Z</time>
      </trkpt>
      <trkpt lat="45.65301" lon="2.85427">
        <ele>1180.16</ele>
        <time>2017-08-13T07:39:45Z</time>
      </trkpt>
      <trkpt lat="45.653" lon="2.85426">
        <ele>1180.16</ele>
        <time>2017-08-13T07:39:46Z</time>
      </trkpt>
      <trkpt lat="45.65299" lon="2.85425">
        <ele>1180.64</ele>
        <time>2017-08-13T07:39:47Z</time>
      </trkpt>
      <trkpt lat="45.65297" lon="2.85425">
        <ele>1180.64</ele>
        <time>2017-08-13T07:39:48Z</time>
      </trkpt>
      <trkpt lat="45.65295" lon="2.85425">
        <ele>1181.12</ele>
        <time>2017-08-13T07:39:49Z</time>
      </trkpt>
      <trkpt lat="45.65281" lon="2.85429">
        <ele>1182.56</ele>
        <time>2017-08-13T07:40:00Z</time>
      </trkpt>
      <trkpt lat="45.65277" lon="2.85431">
        <ele>1183.04</ele>
        <time>2017-08-13T07:40:03Z</time>
      </trkpt>
      <trkpt lat="45.65276" lon="2.85432">
        <ele>1183.52</ele>
        <time>2017-08-13T07:40:04Z</time>
      </trkpt>
      <trkpt lat="45.65275" lon="2.85433">
        <ele>1183.52</ele>
        <time>2017-08-13T07:40:05Z</time>
      </trkpt>
      <trkpt lat="45.65263" lon="2.85439">
        <ele>1184.48</ele>
        <time>2017-08-13T07:40:15Z</time>
      </trkpt>
      <trkpt lat="45.65254" lon="2.85445">
        <ele>1185.92</ele>
        <time>2017-08-13T07:40:24Z</time>
      </trkpt>
      <trkpt lat="45.6524" lon="2.8545">
        <ele>1187.37</ele>
        <time>2017-08-13T07:40:34Z</time>
      </trkpt>
      <trkpt lat="45.65228" lon="2.85456">
        <ele>1188.33</ele>
        <time>2017-08-13T07:40:42Z</time>
      </trkpt>
      <trkpt lat="45.65227" lon="2.85457">
        <ele>1188.33</ele>
        <time>2017-08-13T07:40:43Z</time>
      </trkpt>
      <trkpt lat="45.65217" lon="2.8546">
        <ele>1189.29</ele>
        <time>2017-08-13T07:40:50Z</time>
      </trkpt>
      <trkpt lat="45.65215" lon="2.85458">
        <ele>1189.29</ele>
        <time>2017-08-13T07:40:52Z</time>
      </trkpt>
      <trkpt lat="45.65213" lon="2.85456">
        <ele>1189.29</ele>
        <time>2017-08-13T07:40:53Z</time>
      </trkpt>
      <trkpt lat="45.65205" lon="2.85453">
        <ele>1190.25</ele>
        <time>2017-08-13T07:40:58Z</time>
      </trkpt>
      <trkpt lat="45.65203" lon="2.85452">
        <ele>1190.25</ele>
        <time>2017-08-13T07:40:59Z</time>
      </trkpt>
      <trkpt lat="45.65201" lon="2.85452">
        <ele>1190.25</ele>
        <time>2017-08-13T07:41:00Z</time>
      </trkpt>
      <trkpt lat="45.652" lon="2.85451">
        <ele>1190.25</ele>
        <time>2017-08-13T07:41:01Z</time>
      </trkpt>
      <trkpt lat="45.65198" lon="2.8545">
        <ele>1190.73</ele>
        <time>2017-08-13T07:41:02Z</time>
      </trkpt>
      <trkpt lat="45.65185" lon="2.85447">
        <ele>1191.69</ele>
        <time>2017-08-13T07:41:10Z</time>
      </trkpt>
      <trkpt lat="45.65184" lon="2.85446">
        <ele>1191.69</ele>
        <time>2017-08-13T07:41:11Z</time>
      </trkpt>
      <trkpt lat="45.65183" lon="2.85446">
        <ele>1191.69</ele>
        <time>2017-08-13T07:41:12Z</time>
      </trkpt>
      <trkpt lat="45.65172" lon="2.85446">
        <ele>1192.65</ele>
        <time>2017-08-13T07:41:18Z</time>
      </trkpt>
      <trkpt lat="45.65171" lon="2.85446">
        <ele>1192.65</ele>
        <time>2017-08-13T07:41:19Z</time>
      </trkpt>
      <trkpt lat="45.65163" lon="2.85444">
        <ele>1193.61</ele>
        <time>2017-08-13T07:41:24Z</time>
      </trkpt>
      <trkpt lat="45.65161" lon="2.85443">
        <ele>1193.61</ele>
        <time>2017-08-13T07:41:25Z</time>
      </trkpt>
      <trkpt lat="45.6516" lon="2.85442">
        <ele>1193.61</ele>
        <time>2017-08-13T07:41:26Z</time>
      </trkpt>
      <trkpt lat="45.65158" lon="2.85442">
        <ele>1193.61</ele>
        <time>2017-08-13T07:41:27Z</time>
      </trkpt>
      <trkpt lat="45.65157" lon="2.85441">
        <ele>1193.61</ele>
        <time>2017-08-13T07:41:28Z</time>
      </trkpt>
      <trkpt lat="45.65155" lon="2.85441">
        <ele>1193.61</ele>
        <time>2017-08-13T07:41:29Z</time>
      </trkpt>
      <trkpt lat="45.65154" lon="2.8544">
        <ele>1194.09</ele>
        <time>2017-08-13T07:41:30Z</time>
      </trkpt>
      <trkpt lat="45.65139" lon="2.85443">
        <ele>1194.58</ele>
        <time>2017-08-13T07:41:40Z</time>
      </trkpt>
      <trkpt lat="45.65132" lon="2.85442">
        <ele>1195.06</ele>
        <time>2017-08-13T07:41:53Z</time>
      </trkpt>
      <trkpt lat="45.65132" lon="2.85444">
        <ele>1195.54</ele>
        <time>2017-08-13T07:42:18Z</time>
      </trkpt>
      <trkpt lat="45.65128" lon="2.85442">
        <ele>1195.54</ele>
        <time>2017-08-13T07:42:43Z</time>
      </trkpt>
      <trkpt lat="45.65127" lon="2.85443">
        <ele>1195.54</ele>
        <time>2017-08-13T07:42:44Z</time>
      </trkpt>
      <trkpt lat="45.65126" lon="2.85444">
        <ele>1195.54</ele>
        <time>2017-08-13T07:42:45Z</time>
      </trkpt>
      <trkpt lat="45.65126" lon="2.85446">
        <ele>1196.02</ele>
        <time>2017-08-13T07:42:46Z</time>
      </trkpt>
      <trkpt lat="45.65125" lon="2.85447">
        <ele>1196.02</ele>
        <time>2017-08-13T07:42:47Z</time>
      </trkpt>
      <trkpt lat="45.65124" lon="2.85448">
        <ele>1196.02</ele>
        <time>2017-08-13T07:42:48Z</time>
      </trkpt>
      <trkpt lat="45.65124" lon="2.85449">
        <ele>1196.02</ele>
        <time>2017-08-13T07:42:49Z</time>
      </trkpt>
      <trkpt lat="45.65117" lon="2.8546">
        <ele>1198.42</ele>
        <time>2017-08-13T07:43:02Z</time>
      </trkpt>
      <trkpt lat="45.65114" lon="2.85465">
        <ele>1199.38</ele>
        <time>2017-08-13T07:43:15Z</time>
      </trkpt>
      <trkpt lat="45.65109" lon="2.85476">
        <ele>1201.3</ele>
        <time>2017-08-13T07:43:29Z</time>
      </trkpt>
      <trkpt lat="45.65104" lon="2.85487">
        <ele>1202.75</ele>
        <time>2017-08-13T07:43:43Z</time>
      </trkpt>
      <trkpt lat="45.65103" lon="2.85488">
        <ele>1202.75</ele>
        <time>2017-08-13T07:44:03Z</time>
      </trkpt>
      <trkpt lat="45.65102" lon="2.8549">
        <ele>1202.27</ele>
        <time>2017-08-13T07:44:06Z</time>
      </trkpt>
      <trkpt lat="45.65102" lon="2.85492">
        <ele>1202.27</ele>
        <time>2017-08-13T07:44:07Z</time>
      </trkpt>
      <trkpt lat="45.65091" lon="2.85515">
        <ele>1204.19</ele>
        <time>2017-08-13T07:44:20Z</time>
      </trkpt>
      <trkpt lat="45.65079" lon="2.85536">
        <ele>1205.63</ele>
        <time>2017-08-13T07:44:32Z</time>
      </trkpt>
      <trkpt lat="45.65079" lon="2.85537">
        <ele>1205.63</ele>
        <time>2017-08-13T07:44:33Z</time>
      </trkpt>
      <trkpt lat="45.65078" lon="2.85539">
        <ele>1205.63</ele>
        <time>2017-08-13T07:44:34Z</time>
      </trkpt>
      <trkpt lat="45.65076" lon="2.8554">
        <ele>1205.63</ele>
        <time>2017-08-13T07:44:35Z</time>
      </trkpt>
      <trkpt lat="45.65075" lon="2.85542">
        <ele>1206.11</ele>
        <time>2017-08-13T07:44:36Z</time>
      </trkpt>
      <trkpt lat="45.65074" lon="2.85544">
        <ele>1206.11</ele>
        <time>2017-08-13T07:44:37Z</time>
      </trkpt>
      <trkpt lat="45.65073" lon="2.85546">
        <ele>1206.11</ele>
        <time>2017-08-13T07:44:38Z</time>
      </trkpt>
      <trkpt lat="45.65072" lon="2.85547">
        <ele>1206.11</ele>
        <time>2017-08-13T07:44:39Z</time>
      </trkpt>
      <trkpt lat="45.65071" lon="2.85549">
        <ele>1206.11</ele>
        <time>2017-08-13T07:44:40Z</time>
      </trkpt>
      <trkpt lat="45.65056" lon="2.85577">
        <ele>1207.07</ele>
        <time>2017-08-13T07:44:53Z</time>
      </trkpt>
      <trkpt lat="45.65041" lon="2.85608">
        <ele>1208.51</ele>
        <time>2017-08-13T07:45:07Z</time>
      </trkpt>
      <trkpt lat="45.65024" lon="2.85644">
        <ele>1210.44</ele>
        <time>2017-08-13T07:45:23Z</time>
      </trkpt>
      <trkpt lat="45.65014" lon="2.85661">
        <ele>1211.88</ele>
        <time>2017-08-13T07:45:31Z</time>
      </trkpt>
      <trkpt lat="45.65013" lon="2.85662">
        <ele>1211.88</ele>
        <time>2017-08-13T07:45:32Z</time>
      </trkpt>
      <trkpt lat="45.65012" lon="2.85664">
        <ele>1211.88</ele>
        <time>2017-08-13T07:45:33Z</time>
      </trkpt>
      <trkpt lat="45.6501" lon="2.85666">
        <ele>1211.88</ele>
        <time>2017-08-13T07:45:34Z</time>
      </trkpt>
      <trkpt lat="45.65009" lon="2.85668">
        <ele>1212.36</ele>
        <time>2017-08-13T07:45:35Z</time>
      </trkpt>
      <trkpt lat="45.65008" lon="2.8567">
        <ele>1212.36</ele>
        <time>2017-08-13T07:45:36Z</time>
      </trkpt>
      <trkpt lat="45.65007" lon="2.85673">
        <ele>1212.84</ele>
        <time>2017-08-13T07:45:37Z</time>
      </trkpt>
      <trkpt lat="45.65006" lon="2.85675">
        <ele>1212.84</ele>
        <time>2017-08-13T07:45:38Z</time>
      </trkpt>
      <trkpt lat="45.65005" lon="2.85677">
        <ele>1212.84</ele>
        <time>2017-08-13T07:45:39Z</time>
      </trkpt>
      <trkpt lat="45.65004" lon="2.85679">
        <ele>1212.84</ele>
        <time>2017-08-13T07:45:40Z</time>
      </trkpt>
      <trkpt lat="45.65003" lon="2.85682">
        <ele>1213.32</ele>
        <time>2017-08-13T07:45:41Z</time>
      </trkpt>
      <trkpt lat="45.65002" lon="2.85684">
        <ele>1213.32</ele>
        <time>2017-08-13T07:45:42Z</time>
      </trkpt>
      <trkpt lat="45.65001" lon="2.85686">
        <ele>1213.32</ele>
        <time>2017-08-13T07:45:43Z</time>
      </trkpt>
      <trkpt lat="45.64997" lon="2.85692">
        <ele>1213.8</ele>
        <time>2017-08-13T07:45:46Z</time>
      </trkpt>
      <trkpt lat="45.64996" lon="2.85694">
        <ele>1213.8</ele>
        <time>2017-08-13T07:45:47Z</time>
      </trkpt>
      <trkpt lat="45.64994" lon="2.85697">
        <ele>1213.8</ele>
        <time>2017-08-13T07:45:48Z</time>
      </trkpt>
      <trkpt lat="45.64993" lon="2.85699">
        <ele>1213.8</ele>
        <time>2017-08-13T07:45:49Z</time>
      </trkpt>
      <trkpt lat="45.64992" lon="2.857">
        <ele>1214.28</ele>
        <time>2017-08-13T07:45:50Z</time>
      </trkpt>
      <trkpt lat="45.64991" lon="2.85703">
        <ele>1214.28</ele>
        <time>2017-08-13T07:45:51Z</time>
      </trkpt>
      <trkpt lat="45.64979" lon="2.85727">
        <ele>1215.24</ele>
        <time>2017-08-13T07:46:03Z</time>
      </trkpt>
      <trkpt lat="45.64966" lon="2.85751">
        <ele>1216.69</ele>
        <time>2017-08-13T07:46:14Z</time>
      </trkpt>
      <trkpt lat="45.64961" lon="2.85761">
        <ele>1217.65</ele>
        <time>2017-08-13T07:46:19Z</time>
      </trkpt>
      <trkpt lat="45.6496" lon="2.85763">
        <ele>1217.65</ele>
        <time>2017-08-13T07:46:20Z</time>
      </trkpt>
      <trkpt lat="45.64948" lon="2.85788">
        <ele>1219.57</ele>
        <time>2017-08-13T07:46:33Z</time>
      </trkpt>
      <trkpt lat="45.64932" lon="2.85819">
        <ele>1221.49</ele>
        <time>2017-08-13T07:46:48Z</time>
      </trkpt>
      <trkpt lat="45.64931" lon="2.85822">
        <ele>1221.01</ele>
        <time>2017-08-13T07:46:49Z</time>
      </trkpt>
      <trkpt lat="45.64916" lon="2.85847">
        <ele>1221.97</ele>
        <time>2017-08-13T07:47:01Z</time>
      </trkpt>
      <trkpt lat="45.64913" lon="2.85847">
        <ele>1221.97</ele>
        <time>2017-08-13T07:47:02Z</time>
      </trkpt>
      <trkpt lat="45.64912" lon="2.85846">
        <ele>1222.45</ele>
        <time>2017-08-13T07:47:03Z</time>
      </trkpt>
      <trkpt lat="45.6491" lon="2.85845">
        <ele>1222.45</ele>
        <time>2017-08-13T07:47:04Z</time>
      </trkpt>
      <trkpt lat="45.64909" lon="2.85843">
        <ele>1222.45</ele>
        <time>2017-08-13T07:47:05Z</time>
      </trkpt>
      <trkpt lat="45.64907" lon="2.85841">
        <ele>1222.45</ele>
        <time>2017-08-13T07:47:06Z</time>
      </trkpt>
      <trkpt lat="45.64905" lon="2.85839">
        <ele>1222.45</ele>
        <time>2017-08-13T07:47:07Z</time>
      </trkpt>
      <trkpt lat="45.64903" lon="2.85837">
        <ele>1222.45</ele>
        <time>2017-08-13T07:47:08Z</time>
      </trkpt>
      <trkpt lat="45.64884" lon="2.85814">
        <ele>1221.01</ele>
        <time>2017-08-13T07:47:17Z</time>
      </trkpt>
      <trkpt lat="45.64874" lon="2.85804">
        <ele>1220.53</ele>
        <time>2017-08-13T07:47:20Z</time>
      </trkpt>
      <trkpt lat="45.64872" lon="2.85801">
        <ele>1220.05</ele>
        <time>2017-08-13T07:47:21Z</time>
      </trkpt>
      <trkpt lat="45.64868" lon="2.85797">
        <ele>1220.05</ele>
        <time>2017-08-13T07:47:22Z</time>
      </trkpt>
      <trkpt lat="45.64849" lon="2.85777">
        <ele>1218.13</ele>
        <time>2017-08-13T07:47:27Z</time>
      </trkpt>
      <trkpt lat="45.64845" lon="2.85773">
        <ele>1217.65</ele>
        <time>2017-08-13T07:47:28Z</time>
      </trkpt>
      <trkpt lat="45.64841" lon="2.85769">
        <ele>1216.69</ele>
        <time>2017-08-13T07:47:29Z</time>
      </trkpt>
      <trkpt lat="45.6482" lon="2.85742">
        <ele>1213.8</ele>
        <time>2017-08-13T07:47:36Z</time>
      </trkpt>
      <trkpt lat="45.64789" lon="2.85711">
        <ele>1209.96</ele>
        <time>2017-08-13T07:47:46Z</time>
      </trkpt>
      <trkpt lat="45.64782" lon="2.857">
        <ele>1209.96</ele>
        <time>2017-08-13T07:47:49Z</time>
      </trkpt>
      <trkpt lat="45.6477" lon="2.85662">
        <ele>1209.48</ele>
        <time>2017-08-13T07:48:00Z</time>
      </trkpt>
      <trkpt lat="45.64759" lon="2.85614">
        <ele>1209.48</ele>
        <time>2017-08-13T07:48:13Z</time>
      </trkpt>
      <trkpt lat="45.64755" lon="2.85598">
        <ele>1209.48</ele>
        <time>2017-08-13T07:48:17Z</time>
      </trkpt>
      <trkpt lat="45.64754" lon="2.85594">
        <ele>1209.48</ele>
        <time>2017-08-13T07:48:18Z</time>
      </trkpt>
      <trkpt lat="45.64752" lon="2.85589">
        <ele>1209.48</ele>
        <time>2017-08-13T07:48:19Z</time>
      </trkpt>
      <trkpt lat="45.64751" lon="2.85585">
        <ele>1209.48</ele>
        <time>2017-08-13T07:48:20Z</time>
      </trkpt>
      <trkpt lat="45.6475" lon="2.85581">
        <ele>1209.48</ele>
        <time>2017-08-13T07:48:21Z</time>
      </trkpt>
      <trkpt lat="45.6475" lon="2.85578">
        <ele>1209.48</ele>
        <time>2017-08-13T07:48:22Z</time>
      </trkpt>
      <trkpt lat="45.64746" lon="2.85533">
        <ele>1209.48</ele>
        <time>2017-08-13T07:48:33Z</time>
      </trkpt>
      <trkpt lat="45.64744" lon="2.85531">
        <ele>1209.48</ele>
        <time>2017-08-13T07:48:34Z</time>
      </trkpt>
      <trkpt lat="45.64743" lon="2.8553">
        <ele>1209.48</ele>
        <time>2017-08-13T07:48:35Z</time>
      </trkpt>
      <trkpt lat="45.64741" lon="2.85532">
        <ele>1209.48</ele>
        <time>2017-08-13T07:48:36Z</time>
      </trkpt>
      <trkpt lat="45.6474" lon="2.85534">
        <ele>1209.48</ele>
        <time>2017-08-13T07:48:37Z</time>
      </trkpt>
      <trkpt lat="45.6474" lon="2.85537">
        <ele>1209.48</ele>
        <time>2017-08-13T07:48:38Z</time>
      </trkpt>
      <trkpt lat="45.64739" lon="2.85541">
        <ele>1209.48</ele>
        <time>2017-08-13T07:48:39Z</time>
      </trkpt>
      <trkpt lat="45.64738" lon="2.85546">
        <ele>1209.48</ele>
        <time>2017-08-13T07:48:40Z</time>
      </trkpt>
      <trkpt lat="45.64737" lon="2.8555">
        <ele>1209.48</ele>
        <time>2017-08-13T07:48:41Z</time>
      </trkpt>
      <trkpt lat="45.64736" lon="2.85554">
        <ele>1209.48</ele>
        <time>2017-08-13T07:48:42Z</time>
      </trkpt>
      <trkpt lat="45.64736" lon="2.8556">
        <ele>1208.51</ele>
        <time>2017-08-13T07:48:43Z</time>
      </trkpt>
      <trkpt lat="45.64736" lon="2.85563">
        <ele>1208.51</ele>
        <time>2017-08-13T07:48:44Z</time>
      </trkpt>
      <trkpt lat="45.64735" lon="2.85568">
        <ele>1208.51</ele>
        <time>2017-08-13T07:48:45Z</time>
      </trkpt>
      <trkpt lat="45.64715" lon="2.85595">
        <ele>1207.55</ele>
        <time>2017-08-13T07:48:54Z</time>
      </trkpt>
      <trkpt lat="45.64709" lon="2.856">
        <ele>1207.55</ele>
        <time>2017-08-13T07:49:02Z</time>
      </trkpt>
      <trkpt lat="45.64707" lon="2.85599">
        <ele>1207.55</ele>
        <time>2017-08-13T07:49:16Z</time>
      </trkpt>
      <trkpt lat="45.64708" lon="2.85597">
        <ele>1207.55</ele>
        <time>2017-08-13T07:49:19Z</time>
      </trkpt>
      <trkpt lat="45.64708" lon="2.85596">
        <ele>1207.55</ele>
        <time>2017-08-13T07:49:20Z</time>
      </trkpt>
      <trkpt lat="45.64708" lon="2.85595">
        <ele>1207.55</ele>
        <time>2017-08-13T07:49:21Z</time>
      </trkpt>
      <trkpt lat="45.64699" lon="2.85579">
        <ele>1207.55</ele>
        <time>2017-08-13T07:49:33Z</time>
      </trkpt>
      <trkpt lat="45.64696" lon="2.85571">
        <ele>1207.55</ele>
        <time>2017-08-13T07:49:43Z</time>
      </trkpt>
      <trkpt lat="45.6467" lon="2.8555">
        <ele>1207.55</ele>
        <time>2017-08-13T07:49:55Z</time>
      </trkpt>
      <trkpt lat="45.64669" lon="2.85549">
        <ele>1208.51</ele>
        <time>2017-08-13T07:49:56Z</time>
      </trkpt>
      <trkpt lat="45.64668" lon="2.85547">
        <ele>1208.51</ele>
        <time>2017-08-13T07:49:57Z</time>
      </trkpt>
      <trkpt lat="45.64643" lon="2.85521">
        <ele>1209.96</ele>
        <time>2017-08-13T07:50:09Z</time>
      </trkpt>
      <trkpt lat="45.64635" lon="2.85511">
        <ele>1210.44</ele>
        <time>2017-08-13T07:50:15Z</time>
      </trkpt>
      <trkpt lat="45.64634" lon="2.85509">
        <ele>1210.44</ele>
        <time>2017-08-13T07:50:16Z</time>
      </trkpt>
      <trkpt lat="45.64632" lon="2.85507">
        <ele>1210.44</ele>
        <time>2017-08-13T07:50:17Z</time>
      </trkpt>
      <trkpt lat="45.64631" lon="2.85506">
        <ele>1210.92</ele>
        <time>2017-08-13T07:50:18Z</time>
      </trkpt>
      <trkpt lat="45.64629" lon="2.85505">
        <ele>1210.92</ele>
        <time>2017-08-13T07:50:19Z</time>
      </trkpt>
      <trkpt lat="45.64628" lon="2.85503">
        <ele>1210.92</ele>
        <time>2017-08-13T07:50:20Z</time>
      </trkpt>
      <trkpt lat="45.64626" lon="2.85502">
        <ele>1210.92</ele>
        <time>2017-08-13T07:50:21Z</time>
      </trkpt>
      <trkpt lat="45.64624" lon="2.85501">
        <ele>1210.92</ele>
        <time>2017-08-13T07:50:22Z</time>
      </trkpt>
      <trkpt lat="45.64612" lon="2.85491">
        <ele>1211.88</ele>
        <time>2017-08-13T07:50:28Z</time>
      </trkpt>
      <trkpt lat="45.6461" lon="2.85489">
        <ele>1212.36</ele>
        <time>2017-08-13T07:50:29Z</time>
      </trkpt>
      <trkpt lat="45.6459" lon="2.85473">
        <ele>1212.84</ele>
        <time>2017-08-13T07:50:39Z</time>
      </trkpt>
      <trkpt lat="45.64567" lon="2.85456">
        <ele>1213.8</ele>
        <time>2017-08-13T07:50:50Z</time>
      </trkpt>
      <trkpt lat="45.64546" lon="2.85442">
        <ele>1215.24</ele>
        <time>2017-08-13T07:51:02Z</time>
      </trkpt>
      <trkpt lat="45.6452" lon="2.85422">
        <ele>1216.21</ele>
        <time>2017-08-13T07:51:13Z</time>
      </trkpt>
      <trkpt lat="45.64493" lon="2.85402">
        <ele>1217.65</ele>
        <time>2017-08-13T07:51:25Z</time>
      </trkpt>
      <trkpt lat="45.64474" lon="2.85389">
        <ele>1219.09</ele>
        <time>2017-08-13T07:51:37Z</time>
      </trkpt>
      <trkpt lat="45.64465" lon="2.85383">
        <ele>1219.57</ele>
        <time>2017-08-13T07:51:42Z</time>
      </trkpt>
      <trkpt lat="45.64463" lon="2.85381">
        <ele>1220.05</ele>
        <time>2017-08-13T07:51:43Z</time>
      </trkpt>
      <trkpt lat="45.6444" lon="2.8535">
        <ele>1222.45</ele>
        <time>2017-08-13T07:52:01Z</time>
      </trkpt>
      <trkpt lat="45.64426" lon="2.85326">
        <ele>1223.9</ele>
        <time>2017-08-13T07:52:14Z</time>
      </trkpt>
      <trkpt lat="45.64422" lon="2.85318">
        <ele>1223.9</ele>
        <time>2017-08-13T07:52:18Z</time>
      </trkpt>
      <trkpt lat="45.64421" lon="2.85316">
        <ele>1224.38</ele>
        <time>2017-08-13T07:52:19Z</time>
      </trkpt>
      <trkpt lat="45.64403" lon="2.85292">
        <ele>1226.3</ele>
        <time>2017-08-13T07:52:32Z</time>
      </trkpt>
      <trkpt lat="45.64394" lon="2.85277">
        <ele>1227.26</ele>
        <time>2017-08-13T07:52:39Z</time>
      </trkpt>
      <trkpt lat="45.64393" lon="2.85275">
        <ele>1227.26</ele>
        <time>2017-08-13T07:52:40Z</time>
      </trkpt>
      <trkpt lat="45.64391" lon="2.85273">
        <ele>1227.26</ele>
        <time>2017-08-13T07:52:41Z</time>
      </trkpt>
      <trkpt lat="45.6439" lon="2.85271">
        <ele>1227.26</ele>
        <time>2017-08-13T07:52:42Z</time>
      </trkpt>
      <trkpt lat="45.64388" lon="2.85269">
        <ele>1227.26</ele>
        <time>2017-08-13T07:52:43Z</time>
      </trkpt>
      <trkpt lat="45.64386" lon="2.85267">
        <ele>1227.26</ele>
        <time>2017-08-13T07:52:44Z</time>
      </trkpt>
      <trkpt lat="45.64385" lon="2.85266">
        <ele>1227.26</ele>
        <time>2017-08-13T07:52:45Z</time>
      </trkpt>
      <trkpt lat="45.64383" lon="2.85264">
        <ele>1227.26</ele>
        <time>2017-08-13T07:52:46Z</time>
      </trkpt>
      <trkpt lat="45.64373" lon="2.85256">
        <ele>1227.74</ele>
        <time>2017-08-13T07:52:52Z</time>
      </trkpt>
      <trkpt lat="45.6436" lon="2.85244">
        <ele>1228.22</ele>
        <time>2017-08-13T07:52:59Z</time>
      </trkpt>
      <trkpt lat="45.64327" lon="2.85222">
        <ele>1229.18</ele>
        <time>2017-08-13T07:53:11Z</time>
      </trkpt>
      <trkpt lat="45.64302" lon="2.85206">
        <ele>1229.66</ele>
        <time>2017-08-13T07:53:20Z</time>
      </trkpt>
      <trkpt lat="45.64275" lon="2.85198">
        <ele>1230.62</ele>
        <time>2017-08-13T07:53:31Z</time>
      </trkpt>
      <trkpt lat="45.6424" lon="2.8519">
        <ele>1230.62</ele>
        <time>2017-08-13T07:53:43Z</time>
      </trkpt>
      <trkpt lat="45.64226" lon="2.85182">
        <ele>1230.62</ele>
        <time>2017-08-13T07:53:47Z</time>
      </trkpt>
      <trkpt lat="45.64212" lon="2.85171">
        <ele>1229.18</ele>
        <time>2017-08-13T07:53:51Z</time>
      </trkpt>
      <trkpt lat="45.64208" lon="2.85167">
        <ele>1229.18</ele>
        <time>2017-08-13T07:53:52Z</time>
      </trkpt>
      <trkpt lat="45.64169" lon="2.85128">
        <ele>1228.7</ele>
        <time>2017-08-13T07:54:05Z</time>
      </trkpt>
      <trkpt lat="45.64144" lon="2.85098">
        <ele>1228.7</ele>
        <time>2017-08-13T07:54:17Z</time>
      </trkpt>
      <trkpt lat="45.64136" lon="2.85086">
        <ele>1230.14</ele>
        <time>2017-08-13T07:54:22Z</time>
      </trkpt>
      <trkpt lat="45.64134" lon="2.85084">
        <ele>1230.14</ele>
        <time>2017-08-13T07:54:23Z</time>
      </trkpt>
      <trkpt lat="45.64133" lon="2.85082">
        <ele>1230.62</ele>
        <time>2017-08-13T07:54:24Z</time>
      </trkpt>
      <trkpt lat="45.64131" lon="2.85079">
        <ele>1230.62</ele>
        <time>2017-08-13T07:54:25Z</time>
      </trkpt>
      <trkpt lat="45.64129" lon="2.85076">
        <ele>1230.62</ele>
        <time>2017-08-13T07:54:26Z</time>
      </trkpt>
      <trkpt lat="45.64127" lon="2.85074">
        <ele>1230.62</ele>
        <time>2017-08-13T07:54:27Z</time>
      </trkpt>
      <trkpt lat="45.64126" lon="2.85071">
        <ele>1230.62</ele>
        <time>2017-08-13T07:54:28Z</time>
      </trkpt>
      <trkpt lat="45.64124" lon="2.85069">
        <ele>1231.11</ele>
        <time>2017-08-13T07:54:29Z</time>
      </trkpt>
      <trkpt lat="45.64108" lon="2.85037">
        <ele>1231.59</ele>
        <time>2017-08-13T07:54:40Z</time>
      </trkpt>
      <trkpt lat="45.64093" lon="2.85001">
        <ele>1233.03</ele>
        <time>2017-08-13T07:54:55Z</time>
      </trkpt>
      <trkpt lat="45.64077" lon="2.84977">
        <ele>1234.47</ele>
        <time>2017-08-13T07:55:08Z</time>
      </trkpt>
      <trkpt lat="45.64063" lon="2.84958">
        <ele>1235.43</ele>
        <time>2017-08-13T07:55:21Z</time>
      </trkpt>
      <trkpt lat="45.64063" lon="2.84957">
        <ele>1235.43</ele>
        <time>2017-08-13T07:55:46Z</time>
      </trkpt>
      <trkpt lat="45.64063" lon="2.84957">
        <ele>1235.43</ele>
        <time>2017-08-13T07:56:06Z</time>
      </trkpt>
      <trkpt lat="45.64063" lon="2.84958">
        <ele>1235.43</ele>
        <time>2017-08-13T07:56:30Z</time>
      </trkpt>
      <trkpt lat="45.64064" lon="2.84958">
        <ele>1235.43</ele>
        <time>2017-08-13T07:56:47Z</time>
      </trkpt>
      <trkpt lat="45.64062" lon="2.84952">
        <ele>1235.43</ele>
        <time>2017-08-13T07:56:58Z</time>
      </trkpt>
      <trkpt lat="45.6406" lon="2.84951">
        <ele>1235.43</ele>
        <time>2017-08-13T07:56:59Z</time>
      </trkpt>
      <trkpt lat="45.64059" lon="2.84949">
        <ele>1235.43</ele>
        <time>2017-08-13T07:57:00Z</time>
      </trkpt>
      <trkpt lat="45.64057" lon="2.84947">
        <ele>1235.43</ele>
        <time>2017-08-13T07:57:01Z</time>
      </trkpt>
      <trkpt lat="45.64055" lon="2.84945">
        <ele>1235.43</ele>
        <time>2017-08-13T07:57:02Z</time>
      </trkpt>
      <trkpt lat="45.64053" lon="2.84942">
        <ele>1235.43</ele>
        <time>2017-08-13T07:57:03Z</time>
      </trkpt>
      <trkpt lat="45.64051" lon="2.84938">
        <ele>1235.43</ele>
        <time>2017-08-13T07:57:04Z</time>
      </trkpt>
      <trkpt lat="45.64033" lon="2.84922">
        <ele>1235.43</ele>
        <time>2017-08-13T07:57:13Z</time>
      </trkpt>
      <trkpt lat="45.63984" lon="2.84906">
        <ele>1233.03</ele>
        <time>2017-08-13T07:57:26Z</time>
      </trkpt>
      <trkpt lat="45.63955" lon="2.84905">
        <ele>1232.55</ele>
        <time>2017-08-13T07:57:32Z</time>
      </trkpt>
      <trkpt lat="45.6395" lon="2.84905">
        <ele>1232.55</ele>
        <time>2017-08-13T07:57:33Z</time>
      </trkpt>
      <trkpt lat="45.63945" lon="2.84905">
        <ele>1232.55</ele>
        <time>2017-08-13T07:57:34Z</time>
      </trkpt>
      <trkpt lat="45.63932" lon="2.84906">
        <ele>1232.07</ele>
        <time>2017-08-13T07:57:37Z</time>
      </trkpt>
      <trkpt lat="45.63917" lon="2.84907">
        <ele>1232.07</ele>
        <time>2017-08-13T07:57:41Z</time>
      </trkpt>
      <trkpt lat="45.63895" lon="2.84903">
        <ele>1232.07</ele>
        <time>2017-08-13T07:57:46Z</time>
      </trkpt>
      <trkpt lat="45.63891" lon="2.84903">
        <ele>1232.07</ele>
        <time>2017-08-13T07:57:47Z</time>
      </trkpt>
      <trkpt lat="45.63887" lon="2.84902">
        <ele>1232.07</ele>
        <time>2017-08-13T07:57:48Z</time>
      </trkpt>
      <trkpt lat="45.63853" lon="2.84891">
        <ele>1232.07</ele>
        <time>2017-08-13T07:57:58Z</time>
      </trkpt>
      <trkpt lat="45.6384" lon="2.84882">
        <ele>1232.07</ele>
        <time>2017-08-13T07:58:07Z</time>
      </trkpt>
      <trkpt lat="45.63833" lon="2.84882">
        <ele>1231.59</ele>
        <time>2017-08-13T07:58:35Z</time>
      </trkpt>
      <trkpt lat="45.63822" lon="2.84875">
        <ele>1233.03</ele>
        <time>2017-08-13T07:58:46Z</time>
      </trkpt>
      <trkpt lat="45.63795" lon="2.84865">
        <ele>1234.95</ele>
        <time>2017-08-13T07:58:59Z</time>
      </trkpt>
      <trkpt lat="45.63762" lon="2.84855">
        <ele>1235.43</ele>
        <time>2017-08-13T07:59:11Z</time>
      </trkpt>
      <trkpt lat="45.63715" lon="2.84848">
        <ele>1235.43</ele>
        <time>2017-08-13T07:59:23Z</time>
      </trkpt>
      <trkpt lat="45.63677" lon="2.84852">
        <ele>1236.39</ele>
        <time>2017-08-13T07:59:36Z</time>
      </trkpt>
      <trkpt lat="45.63642" lon="2.8486">
        <ele>1236.87</ele>
        <time>2017-08-13T07:59:49Z</time>
      </trkpt>
      <trkpt lat="45.6361" lon="2.84859">
        <ele>1237.35</ele>
        <time>2017-08-13T08:00:01Z</time>
      </trkpt>
      <trkpt lat="45.63571" lon="2.84844">
        <ele>1238.32</ele>
        <time>2017-08-13T08:00:12Z</time>
      </trkpt>
      <trkpt lat="45.63534" lon="2.84825">
        <ele>1239.28</ele>
        <time>2017-08-13T08:00:24Z</time>
      </trkpt>
      <trkpt lat="45.63506" lon="2.84798">
        <ele>1240.72</ele>
        <time>2017-08-13T08:00:37Z</time>
      </trkpt>
      <trkpt lat="45.63491" lon="2.84774">
        <ele>1242.64</ele>
        <time>2017-08-13T08:00:50Z</time>
      </trkpt>
      <trkpt lat="45.63489" lon="2.8477">
        <ele>1242.64</ele>
        <time>2017-08-13T08:00:52Z</time>
      </trkpt>
      <trkpt lat="45.63488" lon="2.84768">
        <ele>1243.12</ele>
        <time>2017-08-13T08:00:53Z</time>
      </trkpt>
      <trkpt lat="45.63487" lon="2.84766">
        <ele>1243.12</ele>
        <time>2017-08-13T08:00:54Z</time>
      </trkpt>
      <trkpt lat="45.6347" lon="2.84739">
        <ele>1244.08</ele>
        <time>2017-08-13T08:01:08Z</time>
      </trkpt>
      <trkpt lat="45.63454" lon="2.84717">
        <ele>1245.53</ele>
        <time>2017-08-13T08:01:20Z</time>
      </trkpt>
      <trkpt lat="45.63435" lon="2.84693">
        <ele>1247.45</ele>
        <time>2017-08-13T08:01:36Z</time>
      </trkpt>
      <trkpt lat="45.63418" lon="2.84672">
        <ele>1249.85</ele>
        <time>2017-08-13T08:01:51Z</time>
      </trkpt>
      <trkpt lat="45.63407" lon="2.84659">
        <ele>1250.81</ele>
        <time>2017-08-13T08:02:01Z</time>
      </trkpt>
      <trkpt lat="45.63389" lon="2.84645">
        <ele>1252.25</ele>
        <time>2017-08-13T08:02:15Z</time>
      </trkpt>
      <trkpt lat="45.6337" lon="2.84634">
        <ele>1253.7</ele>
        <time>2017-08-13T08:02:28Z</time>
      </trkpt>
      <trkpt lat="45.63347" lon="2.84632">
        <ele>1256.1</ele>
        <time>2017-08-13T08:02:43Z</time>
      </trkpt>
      <trkpt lat="45.63328" lon="2.84639">
        <ele>1257.54</ele>
        <time>2017-08-13T08:02:56Z</time>
      </trkpt>
      <trkpt lat="45.63309" lon="2.84654">
        <ele>1258.98</ele>
        <time>2017-08-13T08:03:11Z</time>
      </trkpt>
      <trkpt lat="45.63296" lon="2.84691">
        <ele>1260.43</ele>
        <time>2017-08-13T08:03:27Z</time>
      </trkpt>
      <trkpt lat="45.63283" lon="2.84729">
        <ele>1260.43</ele>
        <time>2017-08-13T08:03:37Z</time>
      </trkpt>
      <trkpt lat="45.63252" lon="2.84729">
        <ele>1261.39</ele>
        <time>2017-08-13T08:03:48Z</time>
      </trkpt>
      <trkpt lat="45.63218" lon="2.84751">
        <ele>1261.39</ele>
        <time>2017-08-13T08:03:59Z</time>
      </trkpt>
      <trkpt lat="45.63174" lon="2.84769">
        <ele>1257.54</ele>
        <time>2017-08-13T08:04:07Z</time>
      </trkpt>
      <trkpt lat="45.63139" lon="2.84781">
        <ele>1255.14</ele>
        <time>2017-08-13T08:04:12Z</time>
      </trkpt>
      <trkpt lat="45.63126" lon="2.84783">
        <ele>1253.22</ele>
        <time>2017-08-13T08:04:14Z</time>
      </trkpt>
      <trkpt lat="45.63119" lon="2.84782">
        <ele>1253.22</ele>
        <time>2017-08-13T08:04:15Z</time>
      </trkpt>
      <trkpt lat="45.63114" lon="2.84778">
        <ele>1253.22</ele>
        <time>2017-08-13T08:04:16Z</time>
      </trkpt>
      <trkpt lat="45.63109" lon="2.84772">
        <ele>1252.74</ele>
        <time>2017-08-13T08:04:17Z</time>
      </trkpt>
      <trkpt lat="45.63106" lon="2.84765">
        <ele>1252.25</ele>
        <time>2017-08-13T08:04:18Z</time>
      </trkpt>
      <trkpt lat="45.63105" lon="2.84756">
        <ele>1252.25</ele>
        <time>2017-08-13T08:04:19Z</time>
      </trkpt>
      <trkpt lat="45.63106" lon="2.84749">
        <ele>1252.25</ele>
        <time>2017-08-13T08:04:20Z</time>
      </trkpt>
      <trkpt lat="45.63107" lon="2.84742">
        <ele>1252.25</ele>
        <time>2017-08-13T08:04:21Z</time>
      </trkpt>
      <trkpt lat="45.6311" lon="2.84735">
        <ele>1252.25</ele>
        <time>2017-08-13T08:04:22Z</time>
      </trkpt>
      <trkpt lat="45.63111" lon="2.84731">
        <ele>1252.25</ele>
        <time>2017-08-13T08:04:23Z</time>
      </trkpt>
      <trkpt lat="45.63115" lon="2.84724">
        <ele>1252.74</ele>
        <time>2017-08-13T08:04:24Z</time>
      </trkpt>
      <trkpt lat="45.63119" lon="2.84715">
        <ele>1252.74</ele>
        <time>2017-08-13T08:04:26Z</time>
      </trkpt>
      <trkpt lat="45.63126" lon="2.84703">
        <ele>1253.7</ele>
        <time>2017-08-13T08:04:28Z</time>
      </trkpt>
      <trkpt lat="45.6313" lon="2.84697">
        <ele>1253.7</ele>
        <time>2017-08-13T08:04:29Z</time>
      </trkpt>
      <trkpt lat="45.63138" lon="2.84678">
        <ele>1253.7</ele>
        <time>2017-08-13T08:04:32Z</time>
      </trkpt>
      <trkpt lat="45.6314" lon="2.84672">
        <ele>1253.7</ele>
        <time>2017-08-13T08:04:33Z</time>
      </trkpt>
      <trkpt lat="45.63143" lon="2.84665">
        <ele>1253.7</ele>
        <time>2017-08-13T08:04:34Z</time>
      </trkpt>
      <trkpt lat="45.63151" lon="2.84647">
        <ele>1253.7</ele>
        <time>2017-08-13T08:04:37Z</time>
      </trkpt>
      <trkpt lat="45.63153" lon="2.84639">
        <ele>1253.7</ele>
        <time>2017-08-13T08:04:38Z</time>
      </trkpt>
      <trkpt lat="45.63161" lon="2.84609">
        <ele>1253.7</ele>
        <time>2017-08-13T08:04:42Z</time>
      </trkpt>
      <trkpt lat="45.63161" lon="2.84601">
        <ele>1252.74</ele>
        <time>2017-08-13T08:04:43Z</time>
      </trkpt>
      <trkpt lat="45.6316" lon="2.84594">
        <ele>1252.74</ele>
        <time>2017-08-13T08:04:44Z</time>
      </trkpt>
      <trkpt lat="45.63158" lon="2.84587">
        <ele>1252.74</ele>
        <time>2017-08-13T08:04:45Z</time>
      </trkpt>
      <trkpt lat="45.63156" lon="2.84582">
        <ele>1252.74</ele>
        <time>2017-08-13T08:04:46Z</time>
      </trkpt>
      <trkpt lat="45.63153" lon="2.84577">
        <ele>1252.74</ele>
        <time>2017-08-13T08:04:47Z</time>
      </trkpt>
      <trkpt lat="45.63151" lon="2.84573">
        <ele>1252.74</ele>
        <time>2017-08-13T08:04:48Z</time>
      </trkpt>
      <trkpt lat="45.63138" lon="2.84557">
        <ele>1254.18</ele>
        <time>2017-08-13T08:04:53Z</time>
      </trkpt>
      <trkpt lat="45.63125" lon="2.84526">
        <ele>1255.14</ele>
        <time>2017-08-13T08:05:05Z</time>
      </trkpt>
      <trkpt lat="45.63124" lon="2.84523">
        <ele>1255.14</ele>
        <time>2017-08-13T08:05:06Z</time>
      </trkpt>
      <trkpt lat="45.63124" lon="2.8452">
        <ele>1255.14</ele>
        <time>2017-08-13T08:05:07Z</time>
      </trkpt>
      <trkpt lat="45.63124" lon="2.84517">
        <ele>1255.62</ele>
        <time>2017-08-13T08:05:08Z</time>
      </trkpt>
      <trkpt lat="45.63124" lon="2.84513">
        <ele>1255.62</ele>
        <time>2017-08-13T08:05:09Z</time>
      </trkpt>
      <trkpt lat="45.63124" lon="2.84509">
        <ele>1255.62</ele>
        <time>2017-08-13T08:05:10Z</time>
      </trkpt>
      <trkpt lat="45.63125" lon="2.84506">
        <ele>1255.62</ele>
        <time>2017-08-13T08:05:11Z</time>
      </trkpt>
      <trkpt lat="45.63125" lon="2.84502">
        <ele>1255.62</ele>
        <time>2017-08-13T08:05:12Z</time>
      </trkpt>
      <trkpt lat="45.63144" lon="2.84459">
        <ele>1255.62</ele>
        <time>2017-08-13T08:05:25Z</time>
      </trkpt>
      <trkpt lat="45.63158" lon="2.84415">
        <ele>1256.58</ele>
        <time>2017-08-13T08:05:37Z</time>
      </trkpt>
      <trkpt lat="45.63154" lon="2.84378">
        <ele>1258.02</ele>
        <time>2017-08-13T08:05:51Z</time>
      </trkpt>
      <trkpt lat="45.63149" lon="2.84368">
        <ele>1258.98</ele>
        <time>2017-08-13T08:05:57Z</time>
      </trkpt>
      <trkpt lat="45.63147" lon="2.84366">
        <ele>1258.98</ele>
        <time>2017-08-13T08:05:58Z</time>
      </trkpt>
      <trkpt lat="45.63134" lon="2.84348">
        <ele>1260.43</ele>
        <time>2017-08-13T08:06:11Z</time>
      </trkpt>
      <trkpt lat="45.63132" lon="2.84347">
        <ele>1260.43</ele>
        <time>2017-08-13T08:06:12Z</time>
      </trkpt>
      <trkpt lat="45.63131" lon="2.84346">
        <ele>1260.91</ele>
        <time>2017-08-13T08:06:13Z</time>
      </trkpt>
      <trkpt lat="45.6313" lon="2.84344">
        <ele>1260.91</ele>
        <time>2017-08-13T08:06:14Z</time>
      </trkpt>
      <trkpt lat="45.63129" lon="2.84343">
        <ele>1261.39</ele>
        <time>2017-08-13T08:06:15Z</time>
      </trkpt>
      <trkpt lat="45.63128" lon="2.84341">
        <ele>1261.39</ele>
        <time>2017-08-13T08:06:16Z</time>
      </trkpt>
      <trkpt lat="45.63113" lon="2.84322">
        <ele>1263.31</ele>
        <time>2017-08-13T08:06:30Z</time>
      </trkpt>
      <trkpt lat="45.63097" lon="2.84309">
        <ele>1264.75</ele>
        <time>2017-08-13T08:06:43Z</time>
      </trkpt>
      <trkpt lat="45.63087" lon="2.84304">
        <ele>1265.71</ele>
        <time>2017-08-13T08:06:50Z</time>
      </trkpt>
      <trkpt lat="45.63085" lon="2.84304">
        <ele>1266.19</ele>
        <time>2017-08-13T08:06:51Z</time>
      </trkpt>
      <trkpt lat="45.63084" lon="2.84303">
        <ele>1266.19</ele>
        <time>2017-08-13T08:06:52Z</time>
      </trkpt>
      <trkpt lat="45.63083" lon="2.84302">
        <ele>1266.19</ele>
        <time>2017-08-13T08:06:53Z</time>
      </trkpt>
      <trkpt lat="45.63081" lon="2.84302">
        <ele>1266.19</ele>
        <time>2017-08-13T08:06:54Z</time>
      </trkpt>
      <trkpt lat="45.6308" lon="2.84301">
        <ele>1266.19</ele>
        <time>2017-08-13T08:06:55Z</time>
      </trkpt>
      <trkpt lat="45.63078" lon="2.84301">
        <ele>1266.67</ele>
        <time>2017-08-13T08:06:56Z</time>
      </trkpt>
      <trkpt lat="45.63077" lon="2.843">
        <ele>1266.67</ele>
        <time>2017-08-13T08:06:57Z</time>
      </trkpt>
      <trkpt lat="45.63076" lon="2.84299">
        <ele>1266.67</ele>
        <time>2017-08-13T08:06:58Z</time>
      </trkpt>
      <trkpt lat="45.63075" lon="2.84298">
        <ele>1266.67</ele>
        <time>2017-08-13T08:06:59Z</time>
      </trkpt>
      <trkpt lat="45.63074" lon="2.84297">
        <ele>1267.16</ele>
        <time>2017-08-13T08:07:00Z</time>
      </trkpt>
      <trkpt lat="45.63053" lon="2.84288">
        <ele>1268.6</ele>
        <time>2017-08-13T08:07:14Z</time>
      </trkpt>
      <trkpt lat="45.63052" lon="2.84288">
        <ele>1268.6</ele>
        <time>2017-08-13T08:07:15Z</time>
      </trkpt>
      <trkpt lat="45.6305" lon="2.84287">
        <ele>1269.08</ele>
        <time>2017-08-13T08:07:16Z</time>
      </trkpt>
      <trkpt lat="45.63049" lon="2.84286">
        <ele>1269.08</ele>
        <time>2017-08-13T08:07:17Z</time>
      </trkpt>
      <trkpt lat="45.6303" lon="2.84274">
        <ele>1271</ele>
        <time>2017-08-13T08:07:31Z</time>
      </trkpt>
      <trkpt lat="45.63011" lon="2.84263">
        <ele>1271.96</ele>
        <time>2017-08-13T08:07:44Z</time>
      </trkpt>
      <trkpt lat="45.6301" lon="2.84262">
        <ele>1272.44</ele>
        <time>2017-08-13T08:07:45Z</time>
      </trkpt>
      <trkpt lat="45.63008" lon="2.84261">
        <ele>1272.44</ele>
        <time>2017-08-13T08:07:46Z</time>
      </trkpt>
      <trkpt lat="45.63007" lon="2.8426">
        <ele>1272.44</ele>
        <time>2017-08-13T08:07:47Z</time>
      </trkpt>
      <trkpt lat="45.63006" lon="2.84259">
        <ele>1272.44</ele>
        <time>2017-08-13T08:07:48Z</time>
      </trkpt>
      <trkpt lat="45.63004" lon="2.84258">
        <ele>1272.44</ele>
        <time>2017-08-13T08:07:49Z</time>
      </trkpt>
      <trkpt lat="45.62987" lon="2.84243">
        <ele>1273.88</ele>
        <time>2017-08-13T08:08:02Z</time>
      </trkpt>
      <trkpt lat="45.62965" lon="2.84218">
        <ele>1275.33</ele>
        <time>2017-08-13T08:08:19Z</time>
      </trkpt>
      <trkpt lat="45.62946" lon="2.84184">
        <ele>1276.29</ele>
        <time>2017-08-13T08:08:33Z</time>
      </trkpt>
      <trkpt lat="45.62932" lon="2.84146">
        <ele>1276.29</ele>
        <time>2017-08-13T08:08:44Z</time>
      </trkpt>
      <trkpt lat="45.62937" lon="2.84095">
        <ele>1276.29</ele>
        <time>2017-08-13T08:08:56Z</time>
      </trkpt>
      <trkpt lat="45.62958" lon="2.8408">
        <ele>1278.21</ele>
        <time>2017-08-13T08:09:10Z</time>
      </trkpt>
      <trkpt lat="45.6298" lon="2.84087">
        <ele>1279.65</ele>
        <time>2017-08-13T08:09:22Z</time>
      </trkpt>
      <trkpt lat="45.62998" lon="2.8409">
        <ele>1280.61</ele>
        <time>2017-08-13T08:09:34Z</time>
      </trkpt>
      <trkpt lat="45.6302" lon="2.84087">
        <ele>1282.06</ele>
        <time>2017-08-13T08:09:46Z</time>
      </trkpt>
      <trkpt lat="45.63039" lon="2.84085">
        <ele>1283.02</ele>
        <time>2017-08-13T08:09:58Z</time>
      </trkpt>
      <trkpt lat="45.63072" lon="2.84093">
        <ele>1284.94</ele>
        <time>2017-08-13T08:10:15Z</time>
      </trkpt>
      <trkpt lat="45.63101" lon="2.84103">
        <ele>1285.42</ele>
        <time>2017-08-13T08:10:26Z</time>
      </trkpt>
      <trkpt lat="45.63149" lon="2.84121">
        <ele>1285.9</ele>
        <time>2017-08-13T08:10:39Z</time>
      </trkpt>
      <trkpt lat="45.63203" lon="2.84138">
        <ele>1286.38</ele>
        <time>2017-08-13T08:10:53Z</time>
      </trkpt>
      <trkpt lat="45.63276" lon="2.8416">
        <ele>1284.94</ele>
        <time>2017-08-13T08:11:09Z</time>
      </trkpt>
      <trkpt lat="45.63324" lon="2.84156">
        <ele>1284.46</ele>
        <time>2017-08-13T08:11:18Z</time>
      </trkpt>
      <trkpt lat="45.63329" lon="2.84154">
        <ele>1284.46</ele>
        <time>2017-08-13T08:11:19Z</time>
      </trkpt>
      <trkpt lat="45.63337" lon="2.84153">
        <ele>1284.46</ele>
        <time>2017-08-13T08:11:21Z</time>
      </trkpt>
      <trkpt lat="45.63341" lon="2.84152">
        <ele>1284.46</ele>
        <time>2017-08-13T08:11:22Z</time>
      </trkpt>
      <trkpt lat="45.63345" lon="2.84152">
        <ele>1284.46</ele>
        <time>2017-08-13T08:11:23Z</time>
      </trkpt>
      <trkpt lat="45.6335" lon="2.84152">
        <ele>1284.46</ele>
        <time>2017-08-13T08:11:24Z</time>
      </trkpt>
      <trkpt lat="45.63354" lon="2.84153">
        <ele>1284.46</ele>
        <time>2017-08-13T08:11:25Z</time>
      </trkpt>
      <trkpt lat="45.63421" lon="2.84169">
        <ele>1283.02</ele>
        <time>2017-08-13T08:11:39Z</time>
      </trkpt>
      <trkpt lat="45.63489" lon="2.84187">
        <ele>1283.02</ele>
        <time>2017-08-13T08:11:53Z</time>
      </trkpt>
      <trkpt lat="45.63535" lon="2.84194">
        <ele>1284.46</ele>
        <time>2017-08-13T08:12:07Z</time>
      </trkpt>
      <trkpt lat="45.63577" lon="2.84167">
        <ele>1285.42</ele>
        <time>2017-08-13T08:12:22Z</time>
      </trkpt>
      <trkpt lat="45.63628" lon="2.84173">
        <ele>1285.9</ele>
        <time>2017-08-13T08:12:37Z</time>
      </trkpt>
      <trkpt lat="45.63648" lon="2.84177">
        <ele>1285.9</ele>
        <time>2017-08-13T08:12:41Z</time>
      </trkpt>
      <trkpt lat="45.63658" lon="2.84179">
        <ele>1285.9</ele>
        <time>2017-08-13T08:12:43Z</time>
      </trkpt>
      <trkpt lat="45.63667" lon="2.84183">
        <ele>1285.9</ele>
        <time>2017-08-13T08:12:45Z</time>
      </trkpt>
      <trkpt lat="45.63703" lon="2.84202">
        <ele>1284.46</ele>
        <time>2017-08-13T08:12:52Z</time>
      </trkpt>
      <trkpt lat="45.63709" lon="2.84204">
        <ele>1283.98</ele>
        <time>2017-08-13T08:12:53Z</time>
      </trkpt>
      <trkpt lat="45.63714" lon="2.84205">
        <ele>1283.98</ele>
        <time>2017-08-13T08:12:54Z</time>
      </trkpt>
      <trkpt lat="45.6372" lon="2.84205">
        <ele>1283.98</ele>
        <time>2017-08-13T08:12:55Z</time>
      </trkpt>
      <trkpt lat="45.63726" lon="2.84204">
        <ele>1283.98</ele>
        <time>2017-08-13T08:12:56Z</time>
      </trkpt>
      <trkpt lat="45.63731" lon="2.84203">
        <ele>1283.98</ele>
        <time>2017-08-13T08:12:57Z</time>
      </trkpt>
      <trkpt lat="45.63738" lon="2.842">
        <ele>1283.98</ele>
        <time>2017-08-13T08:12:58Z</time>
      </trkpt>
      <trkpt lat="45.63742" lon="2.84198">
        <ele>1283.5</ele>
        <time>2017-08-13T08:12:59Z</time>
      </trkpt>
      <trkpt lat="45.63748" lon="2.84193">
        <ele>1283.5</ele>
        <time>2017-08-13T08:13:00Z</time>
      </trkpt>
      <trkpt lat="45.63757" lon="2.84184">
        <ele>1283.02</ele>
        <time>2017-08-13T08:13:02Z</time>
      </trkpt>
      <trkpt lat="45.63766" lon="2.84173">
        <ele>1283.02</ele>
        <time>2017-08-13T08:13:04Z</time>
      </trkpt>
      <trkpt lat="45.63774" lon="2.84159">
        <ele>1282.54</ele>
        <time>2017-08-13T08:13:06Z</time>
      </trkpt>
      <trkpt lat="45.63777" lon="2.84151">
        <ele>1282.54</ele>
        <time>2017-08-13T08:13:07Z</time>
      </trkpt>
      <trkpt lat="45.63779" lon="2.84143">
        <ele>1282.54</ele>
        <time>2017-08-13T08:13:08Z</time>
      </trkpt>
      <trkpt lat="45.6378" lon="2.84135">
        <ele>1282.06</ele>
        <time>2017-08-13T08:13:09Z</time>
      </trkpt>
      <trkpt lat="45.63783" lon="2.84128">
        <ele>1282.06</ele>
        <time>2017-08-13T08:13:10Z</time>
      </trkpt>
      <trkpt lat="45.63787" lon="2.84122">
        <ele>1282.06</ele>
        <time>2017-08-13T08:13:11Z</time>
      </trkpt>
      <trkpt lat="45.63792" lon="2.84118">
        <ele>1281.57</ele>
        <time>2017-08-13T08:13:12Z</time>
      </trkpt>
      <trkpt lat="45.63797" lon="2.84114">
        <ele>1281.57</ele>
        <time>2017-08-13T08:13:13Z</time>
      </trkpt>
      <trkpt lat="45.63803" lon="2.84111">
        <ele>1281.57</ele>
        <time>2017-08-13T08:13:14Z</time>
      </trkpt>
      <trkpt lat="45.63808" lon="2.84106">
        <ele>1281.09</ele>
        <time>2017-08-13T08:13:15Z</time>
      </trkpt>
      <trkpt lat="45.63813" lon="2.84101">
        <ele>1281.09</ele>
        <time>2017-08-13T08:13:16Z</time>
      </trkpt>
      <trkpt lat="45.63817" lon="2.84095">
        <ele>1280.61</ele>
        <time>2017-08-13T08:13:17Z</time>
      </trkpt>
      <trkpt lat="45.63821" lon="2.84089">
        <ele>1280.61</ele>
        <time>2017-08-13T08:13:18Z</time>
      </trkpt>
      <trkpt lat="45.63823" lon="2.84084">
        <ele>1280.61</ele>
        <time>2017-08-13T08:13:19Z</time>
      </trkpt>
      <trkpt lat="45.63823" lon="2.84077">
        <ele>1280.13</ele>
        <time>2017-08-13T08:13:20Z</time>
      </trkpt>
      <trkpt lat="45.63822" lon="2.84074">
        <ele>1280.13</ele>
        <time>2017-08-13T08:13:21Z</time>
      </trkpt>
      <trkpt lat="45.63821" lon="2.84073">
        <ele>1280.13</ele>
        <time>2017-08-13T08:13:22Z</time>
      </trkpt>
      <trkpt lat="45.6382" lon="2.84071">
        <ele>1280.13</ele>
        <time>2017-08-13T08:13:23Z</time>
      </trkpt>
      <trkpt lat="45.63818" lon="2.84071">
        <ele>1280.13</ele>
        <time>2017-08-13T08:13:24Z</time>
      </trkpt>
      <trkpt lat="45.63817" lon="2.8407">
        <ele>1280.13</ele>
        <time>2017-08-13T08:13:25Z</time>
      </trkpt>
      <trkpt lat="45.63816" lon="2.84068">
        <ele>1280.13</ele>
        <time>2017-08-13T08:13:26Z</time>
      </trkpt>
      <trkpt lat="45.63816" lon="2.84067">
        <ele>1281.09</ele>
        <time>2017-08-13T08:13:27Z</time>
      </trkpt>
      <trkpt lat="45.63815" lon="2.84065">
        <ele>1281.09</ele>
        <time>2017-08-13T08:13:28Z</time>
      </trkpt>
      <trkpt lat="45.63815" lon="2.84063">
        <ele>1281.09</ele>
        <time>2017-08-13T08:13:29Z</time>
      </trkpt>
      <trkpt lat="45.63815" lon="2.8406">
        <ele>1281.09</ele>
        <time>2017-08-13T08:13:30Z</time>
      </trkpt>
      <trkpt lat="45.6381" lon="2.84025">
        <ele>1283.98</ele>
        <time>2017-08-13T08:13:46Z</time>
      </trkpt>
      <trkpt lat="45.63804" lon="2.83994">
        <ele>1286.38</ele>
        <time>2017-08-13T08:14:01Z</time>
      </trkpt>
      <trkpt lat="45.63799" lon="2.8397">
        <ele>1287.82</ele>
        <time>2017-08-13T08:14:13Z</time>
      </trkpt>
      <trkpt lat="45.63794" lon="2.83939">
        <ele>1289.75</ele>
        <time>2017-08-13T08:14:28Z</time>
      </trkpt>
      <trkpt lat="45.63787" lon="2.83915">
        <ele>1292.15</ele>
        <time>2017-08-13T08:14:40Z</time>
      </trkpt>
      <trkpt lat="45.63785" lon="2.83914">
        <ele>1292.15</ele>
        <time>2017-08-13T08:14:41Z</time>
      </trkpt>
      <trkpt lat="45.63784" lon="2.83915">
        <ele>1292.63</ele>
        <time>2017-08-13T08:14:42Z</time>
      </trkpt>
      <trkpt lat="45.63782" lon="2.83916">
        <ele>1292.63</ele>
        <time>2017-08-13T08:14:43Z</time>
      </trkpt>
      <trkpt lat="45.63781" lon="2.83917">
        <ele>1292.63</ele>
        <time>2017-08-13T08:14:44Z</time>
      </trkpt>
      <trkpt lat="45.6378" lon="2.83919">
        <ele>1293.11</ele>
        <time>2017-08-13T08:14:45Z</time>
      </trkpt>
      <trkpt lat="45.63779" lon="2.8392">
        <ele>1293.11</ele>
        <time>2017-08-13T08:14:46Z</time>
      </trkpt>
      <trkpt lat="45.63778" lon="2.83922">
        <ele>1293.11</ele>
        <time>2017-08-13T08:14:47Z</time>
      </trkpt>
      <trkpt lat="45.63777" lon="2.83924">
        <ele>1293.59</ele>
        <time>2017-08-13T08:14:48Z</time>
      </trkpt>
      <trkpt lat="45.63775" lon="2.83927">
        <ele>1293.59</ele>
        <time>2017-08-13T08:14:50Z</time>
      </trkpt>
      <trkpt lat="45.63775" lon="2.83928">
        <ele>1293.59</ele>
        <time>2017-08-13T08:14:51Z</time>
      </trkpt>
      <trkpt lat="45.63774" lon="2.8393">
        <ele>1293.59</ele>
        <time>2017-08-13T08:14:52Z</time>
      </trkpt>
      <trkpt lat="45.63773" lon="2.83927">
        <ele>1293.59</ele>
        <time>2017-08-13T08:15:03Z</time>
      </trkpt>
      <trkpt lat="45.63775" lon="2.83925">
        <ele>1293.59</ele>
        <time>2017-08-13T08:15:23Z</time>
      </trkpt>
      <trkpt lat="45.63775" lon="2.83926">
        <ele>1293.59</ele>
        <time>2017-08-13T08:15:45Z</time>
      </trkpt>
      <trkpt lat="45.63773" lon="2.83933">
        <ele>1293.59</ele>
        <time>2017-08-13T08:15:52Z</time>
      </trkpt>
      <trkpt lat="45.63772" lon="2.83934">
        <ele>1293.59</ele>
        <time>2017-08-13T08:15:53Z</time>
      </trkpt>
      <trkpt lat="45.63771" lon="2.83936">
        <ele>1293.59</ele>
        <time>2017-08-13T08:15:54Z</time>
      </trkpt>
      <trkpt lat="45.63771" lon="2.83938">
        <ele>1293.59</ele>
        <time>2017-08-13T08:15:55Z</time>
      </trkpt>
      <trkpt lat="45.63769" lon="2.83939">
        <ele>1294.55</ele>
        <time>2017-08-13T08:15:56Z</time>
      </trkpt>
      <trkpt lat="45.63769" lon="2.83941">
        <ele>1294.55</ele>
        <time>2017-08-13T08:15:57Z</time>
      </trkpt>
      <trkpt lat="45.63768" lon="2.83942">
        <ele>1294.55</ele>
        <time>2017-08-13T08:15:58Z</time>
      </trkpt>
      <trkpt lat="45.63767" lon="2.83943">
        <ele>1294.55</ele>
        <time>2017-08-13T08:15:59Z</time>
      </trkpt>
      <trkpt lat="45.63763" lon="2.83948">
        <ele>1295.03</ele>
        <time>2017-08-13T08:16:03Z</time>
      </trkpt>
      <trkpt lat="45.63762" lon="2.83949">
        <ele>1295.03</ele>
        <time>2017-08-13T08:16:04Z</time>
      </trkpt>
      <trkpt lat="45.63758" lon="2.83954">
        <ele>1295.51</ele>
        <time>2017-08-13T08:16:08Z</time>
      </trkpt>
      <trkpt lat="45.63743" lon="2.83968">
        <ele>1296.96</ele>
        <time>2017-08-13T08:16:19Z</time>
      </trkpt>
      <trkpt lat="45.63726" lon="2.83989">
        <ele>1298.4</ele>
        <time>2017-08-13T08:16:32Z</time>
      </trkpt>
      <trkpt lat="45.63707" lon="2.84008">
        <ele>1300.32</ele>
        <time>2017-08-13T08:16:48Z</time>
      </trkpt>
      <trkpt lat="45.63694" lon="2.84011">
        <ele>1301.28</ele>
        <time>2017-08-13T08:16:57Z</time>
      </trkpt>
      <trkpt lat="45.63692" lon="2.84011">
        <ele>1301.28</ele>
        <time>2017-08-13T08:16:58Z</time>
      </trkpt>
      <trkpt lat="45.63691" lon="2.8401">
        <ele>1301.28</ele>
        <time>2017-08-13T08:16:59Z</time>
      </trkpt>
      <trkpt lat="45.63666" lon="2.84008">
        <ele>1304.65</ele>
        <time>2017-08-13T08:17:15Z</time>
      </trkpt>
      <trkpt lat="45.63645" lon="2.84004">
        <ele>1306.09</ele>
        <time>2017-08-13T08:17:29Z</time>
      </trkpt>
      <trkpt lat="45.63637" lon="2.84002">
        <ele>1307.05</ele>
        <time>2017-08-13T08:17:34Z</time>
      </trkpt>
      <trkpt lat="45.63636" lon="2.84002">
        <ele>1307.05</ele>
        <time>2017-08-13T08:17:35Z</time>
      </trkpt>
      <trkpt lat="45.63616" lon="2.84004">
        <ele>1308.97</ele>
        <time>2017-08-13T08:17:48Z</time>
      </trkpt>
      <trkpt lat="45.63613" lon="2.84007">
        <ele>1309.45</ele>
        <time>2017-08-13T08:17:51Z</time>
      </trkpt>
      <trkpt lat="45.63612" lon="2.84008">
        <ele>1309.45</ele>
        <time>2017-08-13T08:17:52Z</time>
      </trkpt>
      <trkpt lat="45.6361" lon="2.84009">
        <ele>1309.45</ele>
        <time>2017-08-13T08:17:53Z</time>
      </trkpt>
      <trkpt lat="45.63609" lon="2.8401">
        <ele>1309.93</ele>
        <time>2017-08-13T08:17:54Z</time>
      </trkpt>
      <trkpt lat="45.63608" lon="2.84011">
        <ele>1309.93</ele>
        <time>2017-08-13T08:17:55Z</time>
      </trkpt>
      <trkpt lat="45.63607" lon="2.84008">
        <ele>1309.93</ele>
        <time>2017-08-13T08:17:59Z</time>
      </trkpt>
      <trkpt lat="45.63621" lon="2.83986">
        <ele>1309.93</ele>
        <time>2017-08-13T08:18:09Z</time>
      </trkpt>
      <trkpt lat="45.63622" lon="2.8398">
        <ele>1309.93</ele>
        <time>2017-08-13T08:18:12Z</time>
      </trkpt>
      <trkpt lat="45.63623" lon="2.83978">
        <ele>1310.41</ele>
        <time>2017-08-13T08:18:13Z</time>
      </trkpt>
      <trkpt lat="45.63624" lon="2.83977">
        <ele>1310.41</ele>
        <time>2017-08-13T08:18:14Z</time>
      </trkpt>
      <trkpt lat="45.63624" lon="2.83975">
        <ele>1310.41</ele>
        <time>2017-08-13T08:18:15Z</time>
      </trkpt>
      <trkpt lat="45.63625" lon="2.83972">
        <ele>1310.41</ele>
        <time>2017-08-13T08:18:16Z</time>
      </trkpt>
      <trkpt lat="45.63625" lon="2.8397">
        <ele>1310.9</ele>
        <time>2017-08-13T08:18:17Z</time>
      </trkpt>
      <trkpt lat="45.63626" lon="2.83968">
        <ele>1310.9</ele>
        <time>2017-08-13T08:18:18Z</time>
      </trkpt>
      <trkpt lat="45.63627" lon="2.83966">
        <ele>1310.9</ele>
        <time>2017-08-13T08:18:19Z</time>
      </trkpt>
      <trkpt lat="45.63627" lon="2.83963">
        <ele>1310.9</ele>
        <time>2017-08-13T08:18:20Z</time>
      </trkpt>
      <trkpt lat="45.63627" lon="2.83961">
        <ele>1310.9</ele>
        <time>2017-08-13T08:18:21Z</time>
      </trkpt>
      <trkpt lat="45.63628" lon="2.83959">
        <ele>1311.38</ele>
        <time>2017-08-13T08:18:22Z</time>
      </trkpt>
      <trkpt lat="45.63628" lon="2.83957">
        <ele>1311.38</ele>
        <time>2017-08-13T08:18:23Z</time>
      </trkpt>
      <trkpt lat="45.63629" lon="2.83955">
        <ele>1311.38</ele>
        <time>2017-08-13T08:18:24Z</time>
      </trkpt>
      <trkpt lat="45.63629" lon="2.83953">
        <ele>1311.86</ele>
        <time>2017-08-13T08:18:25Z</time>
      </trkpt>
      <trkpt lat="45.63629" lon="2.8395">
        <ele>1311.86</ele>
        <time>2017-08-13T08:18:26Z</time>
      </trkpt>
      <trkpt lat="45.63629" lon="2.8392">
        <ele>1313.78</ele>
        <time>2017-08-13T08:18:40Z</time>
      </trkpt>
      <trkpt lat="45.63627" lon="2.83881">
        <ele>1315.7</ele>
        <time>2017-08-13T08:18:57Z</time>
      </trkpt>
      <trkpt lat="45.63629" lon="2.83846">
        <ele>1318.1</ele>
        <time>2017-08-13T08:19:13Z</time>
      </trkpt>
      <trkpt lat="45.63629" lon="2.83844">
        <ele>1318.1</ele>
        <time>2017-08-13T08:19:25Z</time>
      </trkpt>
      <trkpt lat="45.6363" lon="2.83842">
        <ele>1318.1</ele>
        <time>2017-08-13T08:19:37Z</time>
      </trkpt>
      <trkpt lat="45.63631" lon="2.83841">
        <ele>1318.1</ele>
        <time>2017-08-13T08:19:56Z</time>
      </trkpt>
      <trkpt lat="45.63631" lon="2.83839">
        <ele>1318.59</ele>
        <time>2017-08-13T08:20:15Z</time>
      </trkpt>
      <trkpt lat="45.63628" lon="2.8384">
        <ele>1318.59</ele>
        <time>2017-08-13T08:20:32Z</time>
      </trkpt>
      <trkpt lat="45.63628" lon="2.83837">
        <ele>1318.59</ele>
        <time>2017-08-13T08:20:54Z</time>
      </trkpt>
      <trkpt lat="45.63629" lon="2.83814">
        <ele>1319.55</ele>
        <time>2017-08-13T08:21:05Z</time>
      </trkpt>
      <trkpt lat="45.63629" lon="2.83778">
        <ele>1320.99</ele>
        <time>2017-08-13T08:21:21Z</time>
      </trkpt>
      <trkpt lat="45.63627" lon="2.83741">
        <ele>1323.39</ele>
        <time>2017-08-13T08:21:37Z</time>
      </trkpt>
      <trkpt lat="45.63624" lon="2.83708">
        <ele>1325.31</ele>
        <time>2017-08-13T08:21:52Z</time>
      </trkpt>
      <trkpt lat="45.63615" lon="2.83676">
        <ele>1326.76</ele>
        <time>2017-08-13T08:22:07Z</time>
      </trkpt>
      <trkpt lat="45.636" lon="2.83648">
        <ele>1328.68</ele>
        <time>2017-08-13T08:22:23Z</time>
      </trkpt>
      <trkpt lat="45.63584" lon="2.83631">
        <ele>1330.12</ele>
        <time>2017-08-13T08:22:36Z</time>
      </trkpt>
      <trkpt lat="45.63574" lon="2.83617">
        <ele>1331.56</ele>
        <time>2017-08-13T08:22:45Z</time>
      </trkpt>
      <trkpt lat="45.63568" lon="2.8359">
        <ele>1333.01</ele>
        <time>2017-08-13T08:22:58Z</time>
      </trkpt>
      <trkpt lat="45.63554" lon="2.83596">
        <ele>1334.93</ele>
        <time>2017-08-13T08:23:09Z</time>
      </trkpt>
      <trkpt lat="45.63537" lon="2.83623">
        <ele>1337.33</ele>
        <time>2017-08-13T08:23:24Z</time>
      </trkpt>
      <trkpt lat="45.63524" lon="2.8364">
        <ele>1338.29</ele>
        <time>2017-08-13T08:23:35Z</time>
      </trkpt>
      <trkpt lat="45.63509" lon="2.83659">
        <ele>1339.73</ele>
        <time>2017-08-13T08:23:47Z</time>
      </trkpt>
      <trkpt lat="45.6349" lon="2.83676">
        <ele>1342.14</ele>
        <time>2017-08-13T08:24:01Z</time>
      </trkpt>
      <trkpt lat="45.63467" lon="2.83689">
        <ele>1344.06</ele>
        <time>2017-08-13T08:24:16Z</time>
      </trkpt>
      <trkpt lat="45.63444" lon="2.83699">
        <ele>1345.5</ele>
        <time>2017-08-13T08:24:31Z</time>
      </trkpt>
      <trkpt lat="45.63419" lon="2.83703">
        <ele>1347.43</ele>
        <time>2017-08-13T08:24:47Z</time>
      </trkpt>
      <trkpt lat="45.63411" lon="2.8369">
        <ele>1348.87</ele>
        <time>2017-08-13T08:24:55Z</time>
      </trkpt>
      <trkpt lat="45.63411" lon="2.83688">
        <ele>1349.35</ele>
        <time>2017-08-13T08:24:56Z</time>
      </trkpt>
      <trkpt lat="45.63417" lon="2.83667">
        <ele>1350.79</ele>
        <time>2017-08-13T08:25:07Z</time>
      </trkpt>
      <trkpt lat="45.63418" lon="2.83664">
        <ele>1350.79</ele>
        <time>2017-08-13T08:25:08Z</time>
      </trkpt>
      <trkpt lat="45.63421" lon="2.83654">
        <ele>1351.27</ele>
        <time>2017-08-13T08:25:13Z</time>
      </trkpt>
      <trkpt lat="45.63425" lon="2.83645">
        <ele>1351.75</ele>
        <time>2017-08-13T08:25:19Z</time>
      </trkpt>
      <trkpt lat="45.63428" lon="2.83638">
        <ele>1352.23</ele>
        <time>2017-08-13T08:25:23Z</time>
      </trkpt>
      <trkpt lat="45.6343" lon="2.83631">
        <ele>1352.71</ele>
        <time>2017-08-13T08:25:26Z</time>
      </trkpt>
      <trkpt lat="45.63426" lon="2.83612">
        <ele>1353.19</ele>
        <time>2017-08-13T08:25:35Z</time>
      </trkpt>
      <trkpt lat="45.63417" lon="2.836">
        <ele>1353.67</ele>
        <time>2017-08-13T08:25:41Z</time>
      </trkpt>
      <trkpt lat="45.634" lon="2.83577">
        <ele>1353.67</ele>
        <time>2017-08-13T08:25:54Z</time>
      </trkpt>
      <trkpt lat="45.63399" lon="2.83575">
        <ele>1354.15</ele>
        <time>2017-08-13T08:26:06Z</time>
      </trkpt>
      <trkpt lat="45.63393" lon="2.83563">
        <ele>1354.15</ele>
        <time>2017-08-13T08:26:31Z</time>
      </trkpt>
      <trkpt lat="45.63374" lon="2.83536">
        <ele>1354.15</ele>
        <time>2017-08-13T08:26:42Z</time>
      </trkpt>
      <trkpt lat="45.63355" lon="2.83519">
        <ele>1354.15</ele>
        <time>2017-08-13T08:26:52Z</time>
      </trkpt>
      <trkpt lat="45.6334" lon="2.83515">
        <ele>1355.12</ele>
        <time>2017-08-13T08:27:01Z</time>
      </trkpt>
      <trkpt lat="45.63335" lon="2.83526">
        <ele>1357.52</ele>
        <time>2017-08-13T08:27:09Z</time>
      </trkpt>
      <trkpt lat="45.63326" lon="2.83547">
        <ele>1359.44</ele>
        <time>2017-08-13T08:27:22Z</time>
      </trkpt>
      <trkpt lat="45.63317" lon="2.83565">
        <ele>1361.36</ele>
        <time>2017-08-13T08:27:35Z</time>
      </trkpt>
      <trkpt lat="45.63311" lon="2.83581">
        <ele>1361.84</ele>
        <time>2017-08-13T08:27:44Z</time>
      </trkpt>
      <trkpt lat="45.63306" lon="2.83592">
        <ele>1362.81</ele>
        <time>2017-08-13T08:27:50Z</time>
      </trkpt>
      <trkpt lat="45.63301" lon="2.83606">
        <ele>1363.77</ele>
        <time>2017-08-13T08:27:57Z</time>
      </trkpt>
      <trkpt lat="45.63294" lon="2.8362">
        <ele>1363.77</ele>
        <time>2017-08-13T08:28:04Z</time>
      </trkpt>
      <trkpt lat="45.6328" lon="2.83626">
        <ele>1365.21</ele>
        <time>2017-08-13T08:28:14Z</time>
      </trkpt>
      <trkpt lat="45.63257" lon="2.83624">
        <ele>1367.61</ele>
        <time>2017-08-13T08:28:28Z</time>
      </trkpt>
      <trkpt lat="45.63247" lon="2.83622">
        <ele>1368.09</ele>
        <time>2017-08-13T08:28:38Z</time>
      </trkpt>
      <trkpt lat="45.63242" lon="2.83621">
        <ele>1368.09</ele>
        <time>2017-08-13T08:29:02Z</time>
      </trkpt>
      <trkpt lat="45.63219" lon="2.83601">
        <ele>1369.54</ele>
        <time>2017-08-13T08:29:17Z</time>
      </trkpt>
      <trkpt lat="45.63194" lon="2.83585">
        <ele>1370.98</ele>
        <time>2017-08-13T08:29:32Z</time>
      </trkpt>
      <trkpt lat="45.63169" lon="2.83584">
        <ele>1371.94</ele>
        <time>2017-08-13T08:29:45Z</time>
      </trkpt>
      <trkpt lat="45.63144" lon="2.83585">
        <ele>1373.38</ele>
        <time>2017-08-13T08:29:58Z</time>
      </trkpt>
      <trkpt lat="45.63115" lon="2.83585">
        <ele>1374.82</ele>
        <time>2017-08-13T08:30:13Z</time>
      </trkpt>
      <trkpt lat="45.63093" lon="2.83582">
        <ele>1376.75</ele>
        <time>2017-08-13T08:30:26Z</time>
      </trkpt>
      <trkpt lat="45.63091" lon="2.83581">
        <ele>1376.75</ele>
        <time>2017-08-13T08:30:27Z</time>
      </trkpt>
      <trkpt lat="45.6309" lon="2.83581">
        <ele>1376.75</ele>
        <time>2017-08-13T08:30:28Z</time>
      </trkpt>
      <trkpt lat="45.63088" lon="2.8358">
        <ele>1377.23</ele>
        <time>2017-08-13T08:30:29Z</time>
      </trkpt>
      <trkpt lat="45.63086" lon="2.8358">
        <ele>1377.23</ele>
        <time>2017-08-13T08:30:30Z</time>
      </trkpt>
      <trkpt lat="45.63084" lon="2.8358">
        <ele>1377.23</ele>
        <time>2017-08-13T08:30:31Z</time>
      </trkpt>
      <trkpt lat="45.63082" lon="2.8358">
        <ele>1377.23</ele>
        <time>2017-08-13T08:30:32Z</time>
      </trkpt>
      <trkpt lat="45.6308" lon="2.8358">
        <ele>1377.71</ele>
        <time>2017-08-13T08:30:33Z</time>
      </trkpt>
      <trkpt lat="45.63079" lon="2.83579">
        <ele>1377.71</ele>
        <time>2017-08-13T08:30:34Z</time>
      </trkpt>
      <trkpt lat="45.63077" lon="2.83579">
        <ele>1377.71</ele>
        <time>2017-08-13T08:30:35Z</time>
      </trkpt>
      <trkpt lat="45.63075" lon="2.83579">
        <ele>1378.19</ele>
        <time>2017-08-13T08:30:36Z</time>
      </trkpt>
      <trkpt lat="45.63073" lon="2.83578">
        <ele>1378.19</ele>
        <time>2017-08-13T08:30:37Z</time>
      </trkpt>
      <trkpt lat="45.63044" lon="2.83569">
        <ele>1379.15</ele>
        <time>2017-08-13T08:30:52Z</time>
      </trkpt>
      <trkpt lat="45.63014" lon="2.83554">
        <ele>1380.11</ele>
        <time>2017-08-13T08:31:07Z</time>
      </trkpt>
      <trkpt lat="45.62988" lon="2.83533">
        <ele>1381.55</ele>
        <time>2017-08-13T08:31:21Z</time>
      </trkpt>
      <trkpt lat="45.62955" lon="2.83528">
        <ele>1382.99</ele>
        <time>2017-08-13T08:31:36Z</time>
      </trkpt>
      <trkpt lat="45.62943" lon="2.83523">
        <ele>1383.96</ele>
        <time>2017-08-13T08:31:44Z</time>
      </trkpt>
      <trkpt lat="45.62941" lon="2.83523">
        <ele>1383.96</ele>
        <time>2017-08-13T08:31:45Z</time>
      </trkpt>
      <trkpt lat="45.6294" lon="2.83522">
        <ele>1383.96</ele>
        <time>2017-08-13T08:31:46Z</time>
      </trkpt>
      <trkpt lat="45.62938" lon="2.83521">
        <ele>1383.96</ele>
        <time>2017-08-13T08:31:47Z</time>
      </trkpt>
      <trkpt lat="45.62937" lon="2.8352">
        <ele>1383.96</ele>
        <time>2017-08-13T08:31:48Z</time>
      </trkpt>
      <trkpt lat="45.62934" lon="2.83519">
        <ele>1384.44</ele>
        <time>2017-08-13T08:31:59Z</time>
      </trkpt>
      <trkpt lat="45.62932" lon="2.83518">
        <ele>1384.44</ele>
        <time>2017-08-13T08:32:13Z</time>
      </trkpt>
      <trkpt lat="45.6293" lon="2.83517">
        <ele>1384.92</ele>
        <time>2017-08-13T08:32:15Z</time>
      </trkpt>
      <trkpt lat="45.62914" lon="2.83508">
        <ele>1386.84</ele>
        <time>2017-08-13T08:32:27Z</time>
      </trkpt>
      <trkpt lat="45.62905" lon="2.83504">
        <ele>1387.8</ele>
        <time>2017-08-13T08:32:37Z</time>
      </trkpt>
      <trkpt lat="45.62888" lon="2.83496">
        <ele>1389.24</ele>
        <time>2017-08-13T08:32:54Z</time>
      </trkpt>
      <trkpt lat="45.62873" lon="2.83487">
        <ele>1391.65</ele>
        <time>2017-08-13T08:33:11Z</time>
      </trkpt>
      <trkpt lat="45.62858" lon="2.83482">
        <ele>1394.05</ele>
        <time>2017-08-13T08:33:28Z</time>
      </trkpt>
      <trkpt lat="45.62839" lon="2.83476">
        <ele>1396.93</ele>
        <time>2017-08-13T08:33:49Z</time>
      </trkpt>
      <trkpt lat="45.62824" lon="2.83469">
        <ele>1399.82</ele>
        <time>2017-08-13T08:34:08Z</time>
      </trkpt>
      <trkpt lat="45.6281" lon="2.83462">
        <ele>1402.22</ele>
        <time>2017-08-13T08:34:25Z</time>
      </trkpt>
      <trkpt lat="45.62795" lon="2.83451">
        <ele>1404.62</ele>
        <time>2017-08-13T08:34:45Z</time>
      </trkpt>
      <trkpt lat="45.62783" lon="2.8344">
        <ele>1407.51</ele>
        <time>2017-08-13T08:35:03Z</time>
      </trkpt>
      <trkpt lat="45.62774" lon="2.83433">
        <ele>1409.43</ele>
        <time>2017-08-13T08:35:19Z</time>
      </trkpt>
      <trkpt lat="45.62763" lon="2.83425">
        <ele>1411.83</ele>
        <time>2017-08-13T08:35:35Z</time>
      </trkpt>
      <trkpt lat="45.6275" lon="2.83415">
        <ele>1414.24</ele>
        <time>2017-08-13T08:35:52Z</time>
      </trkpt>
      <trkpt lat="45.62737" lon="2.83406">
        <ele>1417.6</ele>
        <time>2017-08-13T08:36:10Z</time>
      </trkpt>
      <trkpt lat="45.62726" lon="2.83399">
        <ele>1419.52</ele>
        <time>2017-08-13T08:36:26Z</time>
      </trkpt>
      <trkpt lat="45.62715" lon="2.83392">
        <ele>1421.93</ele>
        <time>2017-08-13T08:36:43Z</time>
      </trkpt>
      <trkpt lat="45.62714" lon="2.8339">
        <ele>1422.89</ele>
        <time>2017-08-13T08:37:03Z</time>
      </trkpt>
      <trkpt lat="45.62707" lon="2.83385">
        <ele>1424.81</ele>
        <time>2017-08-13T08:37:18Z</time>
      </trkpt>
      <trkpt lat="45.62697" lon="2.83378">
        <ele>1426.73</ele>
        <time>2017-08-13T08:37:35Z</time>
      </trkpt>
      <trkpt lat="45.62688" lon="2.83372">
        <ele>1428.66</ele>
        <time>2017-08-13T08:37:48Z</time>
      </trkpt>
      <trkpt lat="45.62681" lon="2.83366">
        <ele>1430.1</ele>
        <time>2017-08-13T08:38:08Z</time>
      </trkpt>
      <trkpt lat="45.62671" lon="2.83359">
        <ele>1432.5</ele>
        <time>2017-08-13T08:38:26Z</time>
      </trkpt>
      <trkpt lat="45.6267" lon="2.83359">
        <ele>1432.5</ele>
        <time>2017-08-13T08:38:45Z</time>
      </trkpt>
      <trkpt lat="45.62662" lon="2.83353">
        <ele>1432.98</ele>
        <time>2017-08-13T08:39:01Z</time>
      </trkpt>
      <trkpt lat="45.62659" lon="2.83352">
        <ele>1433.46</ele>
        <time>2017-08-13T08:39:15Z</time>
      </trkpt>
      <trkpt lat="45.62659" lon="2.83352">
        <ele>1433.46</ele>
        <time>2017-08-13T08:39:47Z</time>
      </trkpt>
      <trkpt lat="45.62659" lon="2.83351">
        <ele>1433.46</ele>
        <time>2017-08-13T08:40:15Z</time>
      </trkpt>
      <trkpt lat="45.62658" lon="2.83351">
        <ele>1433.46</ele>
        <time>2017-08-13T08:40:36Z</time>
      </trkpt>
      <trkpt lat="45.62657" lon="2.8335">
        <ele>1433.46</ele>
        <time>2017-08-13T08:40:37Z</time>
      </trkpt>
      <trkpt lat="45.62655" lon="2.83349">
        <ele>1433.46</ele>
        <time>2017-08-13T08:40:38Z</time>
      </trkpt>
      <trkpt lat="45.62653" lon="2.83347">
        <ele>1433.46</ele>
        <time>2017-08-13T08:40:39Z</time>
      </trkpt>
      <trkpt lat="45.62651" lon="2.83346">
        <ele>1432.5</ele>
        <time>2017-08-13T08:40:40Z</time>
      </trkpt>
      <trkpt lat="45.62649" lon="2.83344">
        <ele>1432.5</ele>
        <time>2017-08-13T08:40:41Z</time>
      </trkpt>
      <trkpt lat="45.62641" lon="2.83339">
        <ele>1431.06</ele>
        <time>2017-08-13T08:40:44Z</time>
      </trkpt>
      <trkpt lat="45.62626" lon="2.83324">
        <ele>1427.7</ele>
        <time>2017-08-13T08:40:50Z</time>
      </trkpt>
      <trkpt lat="45.62604" lon="2.83297">
        <ele>1423.85</ele>
        <time>2017-08-13T08:41:00Z</time>
      </trkpt>
      <trkpt lat="45.62582" lon="2.83273">
        <ele>1420</ele>
        <time>2017-08-13T08:41:07Z</time>
      </trkpt>
      <trkpt lat="45.62552" lon="2.8325">
        <ele>1416.64</ele>
        <time>2017-08-13T08:41:16Z</time>
      </trkpt>
      <trkpt lat="45.62525" lon="2.83246">
        <ele>1413.28</ele>
        <time>2017-08-13T08:41:21Z</time>
      </trkpt>
      <trkpt lat="45.62496" lon="2.83243">
        <ele>1409.91</ele>
        <time>2017-08-13T08:41:25Z</time>
      </trkpt>
      <trkpt lat="45.62481" lon="2.83241">
        <ele>1408.47</ele>
        <time>2017-08-13T08:41:27Z</time>
      </trkpt>
      <trkpt lat="45.62473" lon="2.83238">
        <ele>1407.51</ele>
        <time>2017-08-13T08:41:28Z</time>
      </trkpt>
      <trkpt lat="45.62457" lon="2.8323">
        <ele>1406.55</ele>
        <time>2017-08-13T08:41:30Z</time>
      </trkpt>
      <trkpt lat="45.62453" lon="2.83227">
        <ele>1406.55</ele>
        <time>2017-08-13T08:41:31Z</time>
      </trkpt>
      <trkpt lat="45.62418" lon="2.83184">
        <ele>1405.1</ele>
        <time>2017-08-13T08:41:39Z</time>
      </trkpt>
      <trkpt lat="45.6242" lon="2.83185">
        <ele>1405.58</ele>
        <time>2017-08-13T08:42:04Z</time>
      </trkpt>
      <trkpt lat="45.6242" lon="2.83186">
        <ele>1405.58</ele>
        <time>2017-08-13T08:42:41Z</time>
      </trkpt>
      <trkpt lat="45.62417" lon="2.83181">
        <ele>1405.58</ele>
        <time>2017-08-13T08:42:52Z</time>
      </trkpt>
      <trkpt lat="45.62417" lon="2.83179">
        <ele>1405.58</ele>
        <time>2017-08-13T08:42:53Z</time>
      </trkpt>
      <trkpt lat="45.62416" lon="2.83177">
        <ele>1405.58</ele>
        <time>2017-08-13T08:42:54Z</time>
      </trkpt>
      <trkpt lat="45.62415" lon="2.83175">
        <ele>1405.58</ele>
        <time>2017-08-13T08:42:55Z</time>
      </trkpt>
      <trkpt lat="45.62414" lon="2.83173">
        <ele>1405.58</ele>
        <time>2017-08-13T08:42:56Z</time>
      </trkpt>
      <trkpt lat="45.62414" lon="2.83171">
        <ele>1405.58</ele>
        <time>2017-08-13T08:42:57Z</time>
      </trkpt>
      <trkpt lat="45.62401" lon="2.83149">
        <ele>1408.95</ele>
        <time>2017-08-13T08:43:09Z</time>
      </trkpt>
      <trkpt lat="45.62382" lon="2.83138">
        <ele>1411.35</ele>
        <time>2017-08-13T08:43:21Z</time>
      </trkpt>
      <trkpt lat="45.62382" lon="2.83137">
        <ele>1411.35</ele>
        <time>2017-08-13T08:43:45Z</time>
      </trkpt>
      <trkpt lat="45.62382" lon="2.83138">
        <ele>1411.35</ele>
        <time>2017-08-13T08:44:28Z</time>
      </trkpt>
      <trkpt lat="45.62381" lon="2.83138">
        <ele>1411.35</ele>
        <time>2017-08-13T08:44:36Z</time>
      </trkpt>
      <trkpt lat="45.62377" lon="2.83138">
        <ele>1411.35</ele>
        <time>2017-08-13T08:44:38Z</time>
      </trkpt>
      <trkpt lat="45.62374" lon="2.83136">
        <ele>1411.35</ele>
        <time>2017-08-13T08:44:39Z</time>
      </trkpt>
      <trkpt lat="45.62372" lon="2.83135">
        <ele>1411.35</ele>
        <time>2017-08-13T08:44:40Z</time>
      </trkpt>
      <trkpt lat="45.62369" lon="2.83133">
        <ele>1409.91</ele>
        <time>2017-08-13T08:44:41Z</time>
      </trkpt>
      <trkpt lat="45.62365" lon="2.83129">
        <ele>1409.43</ele>
        <time>2017-08-13T08:44:42Z</time>
      </trkpt>
      <trkpt lat="45.62361" lon="2.83123">
        <ele>1408.47</ele>
        <time>2017-08-13T08:44:43Z</time>
      </trkpt>
      <trkpt lat="45.62357" lon="2.83117">
        <ele>1407.99</ele>
        <time>2017-08-13T08:44:44Z</time>
      </trkpt>
      <trkpt lat="45.62353" lon="2.8311">
        <ele>1407.03</ele>
        <time>2017-08-13T08:44:45Z</time>
      </trkpt>
      <trkpt lat="45.62335" lon="2.83087">
        <ele>1406.07</ele>
        <time>2017-08-13T08:44:49Z</time>
      </trkpt>
      <trkpt lat="45.62331" lon="2.83084">
        <ele>1406.07</ele>
        <time>2017-08-13T08:44:50Z</time>
      </trkpt>
      <trkpt lat="45.62327" lon="2.83081">
        <ele>1406.07</ele>
        <time>2017-08-13T08:44:51Z</time>
      </trkpt>
      <trkpt lat="45.62322" lon="2.83078">
        <ele>1404.62</ele>
        <time>2017-08-13T08:44:52Z</time>
      </trkpt>
      <trkpt lat="45.62317" lon="2.83075">
        <ele>1404.62</ele>
        <time>2017-08-13T08:44:53Z</time>
      </trkpt>
      <trkpt lat="45.62312" lon="2.83074">
        <ele>1404.62</ele>
        <time>2017-08-13T08:44:54Z</time>
      </trkpt>
      <trkpt lat="45.62308" lon="2.83073">
        <ele>1404.62</ele>
        <time>2017-08-13T08:44:55Z</time>
      </trkpt>
      <trkpt lat="45.62289" lon="2.8307">
        <ele>1404.62</ele>
        <time>2017-08-13T08:45:04Z</time>
      </trkpt>
      <trkpt lat="45.62244" lon="2.83084">
        <ele>1403.18</ele>
        <time>2017-08-13T08:45:16Z</time>
      </trkpt>
      <trkpt lat="45.62227" lon="2.83092">
        <ele>1402.7</ele>
        <time>2017-08-13T08:45:20Z</time>
      </trkpt>
      <trkpt lat="45.62205" lon="2.83107">
        <ele>1401.26</ele>
        <time>2017-08-13T08:45:29Z</time>
      </trkpt>
      <trkpt lat="45.622" lon="2.8311">
        <ele>1400.3</ele>
        <time>2017-08-13T08:45:37Z</time>
      </trkpt>
      <trkpt lat="45.622" lon="2.83111">
        <ele>1400.3</ele>
        <time>2017-08-13T08:45:57Z</time>
      </trkpt>
      <trkpt lat="45.62199" lon="2.83112">
        <ele>1400.3</ele>
        <time>2017-08-13T08:45:58Z</time>
      </trkpt>
      <trkpt lat="45.62185" lon="2.83123">
        <ele>1399.34</ele>
        <time>2017-08-13T08:46:03Z</time>
      </trkpt>
      <trkpt lat="45.62158" lon="2.83143">
        <ele>1396.93</ele>
        <time>2017-08-13T08:46:10Z</time>
      </trkpt>
      <trkpt lat="45.62155" lon="2.83145">
        <ele>1396.45</ele>
        <time>2017-08-13T08:46:11Z</time>
      </trkpt>
      <trkpt lat="45.62144" lon="2.8315">
        <ele>1395.49</ele>
        <time>2017-08-13T08:46:14Z</time>
      </trkpt>
      <trkpt lat="45.62143" lon="2.83148">
        <ele>1395.49</ele>
        <time>2017-08-13T08:46:15Z</time>
      </trkpt>
      <trkpt lat="45.62141" lon="2.83145">
        <ele>1395.01</ele>
        <time>2017-08-13T08:46:16Z</time>
      </trkpt>
      <trkpt lat="45.6214" lon="2.83141">
        <ele>1394.05</ele>
        <time>2017-08-13T08:46:17Z</time>
      </trkpt>
      <trkpt lat="45.62138" lon="2.83136">
        <ele>1393.57</ele>
        <time>2017-08-13T08:46:18Z</time>
      </trkpt>
      <trkpt lat="45.62136" lon="2.8313">
        <ele>1392.61</ele>
        <time>2017-08-13T08:46:19Z</time>
      </trkpt>
      <trkpt lat="45.62126" lon="2.83107">
        <ele>1388.76</ele>
        <time>2017-08-13T08:46:23Z</time>
      </trkpt>
      <trkpt lat="45.62124" lon="2.83102">
        <ele>1387.8</ele>
        <time>2017-08-13T08:46:24Z</time>
      </trkpt>
      <trkpt lat="45.6212" lon="2.83095">
        <ele>1386.36</ele>
        <time>2017-08-13T08:46:25Z</time>
      </trkpt>
      <trkpt lat="45.62118" lon="2.83091">
        <ele>1385.4</ele>
        <time>2017-08-13T08:46:26Z</time>
      </trkpt>
      <trkpt lat="45.62111" lon="2.83074">
        <ele>1382.03</ele>
        <time>2017-08-13T08:46:31Z</time>
      </trkpt>
      <trkpt lat="45.6211" lon="2.83066">
        <ele>1380.59</ele>
        <time>2017-08-13T08:46:41Z</time>
      </trkpt>
      <trkpt lat="45.62109" lon="2.83065">
        <ele>1379.63</ele>
        <time>2017-08-13T08:46:42Z</time>
      </trkpt>
      <trkpt lat="45.62101" lon="2.83054">
        <ele>1378.19</ele>
        <time>2017-08-13T08:46:53Z</time>
      </trkpt>
      <trkpt lat="45.621" lon="2.83051">
        <ele>1377.71</ele>
        <time>2017-08-13T08:46:56Z</time>
      </trkpt>
      <trkpt lat="45.62093" lon="2.83032">
        <ele>1376.26</ele>
        <time>2017-08-13T08:47:09Z</time>
      </trkpt>
      <trkpt lat="45.62087" lon="2.83015">
        <ele>1374.82</ele>
        <time>2017-08-13T08:47:22Z</time>
      </trkpt>
      <trkpt lat="45.62084" lon="2.83009">
        <ele>1373.86</ele>
        <time>2017-08-13T08:47:31Z</time>
      </trkpt>
      <trkpt lat="45.62084" lon="2.83008">
        <ele>1373.86</ele>
        <time>2017-08-13T08:47:32Z</time>
      </trkpt>
      <trkpt lat="45.62083" lon="2.83006">
        <ele>1373.86</ele>
        <time>2017-08-13T08:47:33Z</time>
      </trkpt>
      <trkpt lat="45.62083" lon="2.83004">
        <ele>1373.86</ele>
        <time>2017-08-13T08:47:34Z</time>
      </trkpt>
      <trkpt lat="45.62083" lon="2.83003">
        <ele>1373.86</ele>
        <time>2017-08-13T08:47:35Z</time>
      </trkpt>
      <trkpt lat="45.6208" lon="2.82997">
        <ele>1373.38</ele>
        <time>2017-08-13T08:47:40Z</time>
      </trkpt>
      <trkpt lat="45.62077" lon="2.82995">
        <ele>1373.38</ele>
        <time>2017-08-13T08:47:55Z</time>
      </trkpt>
      <trkpt lat="45.62077" lon="2.82994">
        <ele>1372.9</ele>
        <time>2017-08-13T08:48:04Z</time>
      </trkpt>
      <trkpt lat="45.62077" lon="2.82992">
        <ele>1372.9</ele>
        <time>2017-08-13T08:48:05Z</time>
      </trkpt>
      <trkpt lat="45.62068" lon="2.82975">
        <ele>1371.46</ele>
        <time>2017-08-13T08:48:14Z</time>
      </trkpt>
      <trkpt lat="45.62059" lon="2.82956">
        <ele>1367.61</ele>
        <time>2017-08-13T08:48:19Z</time>
      </trkpt>
      <trkpt lat="45.62057" lon="2.82951">
        <ele>1366.65</ele>
        <time>2017-08-13T08:48:21Z</time>
      </trkpt>
      <trkpt lat="45.62056" lon="2.82944">
        <ele>1365.21</ele>
        <time>2017-08-13T08:48:31Z</time>
      </trkpt>
      <trkpt lat="45.6205" lon="2.82931">
        <ele>1362.33</ele>
        <time>2017-08-13T08:48:43Z</time>
      </trkpt>
      <trkpt lat="45.62045" lon="2.82919">
        <ele>1359.92</ele>
        <time>2017-08-13T08:48:54Z</time>
      </trkpt>
      <trkpt lat="45.62041" lon="2.82908">
        <ele>1356.56</ele>
        <time>2017-08-13T08:49:04Z</time>
      </trkpt>
      <trkpt lat="45.62039" lon="2.82903">
        <ele>1355.6</ele>
        <time>2017-08-13T08:49:08Z</time>
      </trkpt>
      <trkpt lat="45.62039" lon="2.82902">
        <ele>1355.6</ele>
        <time>2017-08-13T08:49:25Z</time>
      </trkpt>
      <trkpt lat="45.62037" lon="2.82903">
        <ele>1355.6</ele>
        <time>2017-08-13T08:49:49Z</time>
      </trkpt>
      <trkpt lat="45.62036" lon="2.82904">
        <ele>1355.12</ele>
        <time>2017-08-13T08:49:50Z</time>
      </trkpt>
      <trkpt lat="45.62035" lon="2.82905">
        <ele>1355.12</ele>
        <time>2017-08-13T08:49:51Z</time>
      </trkpt>
      <trkpt lat="45.62034" lon="2.82906">
        <ele>1354.63</ele>
        <time>2017-08-13T08:49:52Z</time>
      </trkpt>
      <trkpt lat="45.62033" lon="2.82908">
        <ele>1354.63</ele>
        <time>2017-08-13T08:49:53Z</time>
      </trkpt>
      <trkpt lat="45.6202" lon="2.82914">
        <ele>1353.67</ele>
        <time>2017-08-13T08:50:04Z</time>
      </trkpt>
      <trkpt lat="45.62018" lon="2.82911">
        <ele>1353.67</ele>
        <time>2017-08-13T08:50:08Z</time>
      </trkpt>
      <trkpt lat="45.62017" lon="2.82909">
        <ele>1353.67</ele>
        <time>2017-08-13T08:50:09Z</time>
      </trkpt>
      <trkpt lat="45.62011" lon="2.82897">
        <ele>1350.79</ele>
        <time>2017-08-13T08:50:22Z</time>
      </trkpt>
      <trkpt lat="45.62007" lon="2.82887">
        <ele>1348.39</ele>
        <time>2017-08-13T08:50:34Z</time>
      </trkpt>
      <trkpt lat="45.62007" lon="2.82882">
        <ele>1347.43</ele>
        <time>2017-08-13T08:50:38Z</time>
      </trkpt>
      <trkpt lat="45.62007" lon="2.8287">
        <ele>1345.98</ele>
        <time>2017-08-13T08:50:52Z</time>
      </trkpt>
      <trkpt lat="45.62008" lon="2.82869">
        <ele>1345.98</ele>
        <time>2017-08-13T08:50:53Z</time>
      </trkpt>
      <trkpt lat="45.62008" lon="2.82863">
        <ele>1345.98</ele>
        <time>2017-08-13T08:50:57Z</time>
      </trkpt>
      <trkpt lat="45.62007" lon="2.82862">
        <ele>1345.98</ele>
        <time>2017-08-13T08:50:58Z</time>
      </trkpt>
      <trkpt lat="45.62007" lon="2.8286">
        <ele>1345.98</ele>
        <time>2017-08-13T08:50:59Z</time>
      </trkpt>
      <trkpt lat="45.62006" lon="2.82858">
        <ele>1345.98</ele>
        <time>2017-08-13T08:51:00Z</time>
      </trkpt>
      <trkpt lat="45.62006" lon="2.82857">
        <ele>1345.98</ele>
        <time>2017-08-13T08:51:01Z</time>
      </trkpt>
      <trkpt lat="45.62004" lon="2.82854">
        <ele>1345.98</ele>
        <time>2017-08-13T08:51:18Z</time>
      </trkpt>
      <trkpt lat="45.62002" lon="2.82854">
        <ele>1345.98</ele>
        <time>2017-08-13T08:51:47Z</time>
      </trkpt>
      <trkpt lat="45.62004" lon="2.82855">
        <ele>1346.46</ele>
        <time>2017-08-13T08:52:18Z</time>
      </trkpt>
      <trkpt lat="45.62004" lon="2.82857">
        <ele>1346.46</ele>
        <time>2017-08-13T08:53:01Z</time>
      </trkpt>
      <trkpt lat="45.62" lon="2.82842">
        <ele>1346.46</ele>
        <time>2017-08-13T08:53:15Z</time>
      </trkpt>
      <trkpt lat="45.62" lon="2.82839">
        <ele>1346.46</ele>
        <time>2017-08-13T08:53:23Z</time>
      </trkpt>
      <trkpt lat="45.62" lon="2.82837">
        <ele>1346.46</ele>
        <time>2017-08-13T08:53:24Z</time>
      </trkpt>
      <trkpt lat="45.61998" lon="2.82802">
        <ele>1346.46</ele>
        <time>2017-08-13T08:53:34Z</time>
      </trkpt>
      <trkpt lat="45.62014" lon="2.82742">
        <ele>1344.54</ele>
        <time>2017-08-13T08:53:46Z</time>
      </trkpt>
      <trkpt lat="45.62022" lon="2.82726">
        <ele>1343.1</ele>
        <time>2017-08-13T08:53:48Z</time>
      </trkpt>
      <trkpt lat="45.62027" lon="2.8272">
        <ele>1342.14</ele>
        <time>2017-08-13T08:53:49Z</time>
      </trkpt>
      <trkpt lat="45.62033" lon="2.82712">
        <ele>1340.22</ele>
        <time>2017-08-13T08:53:50Z</time>
      </trkpt>
      <trkpt lat="45.62039" lon="2.82704">
        <ele>1340.22</ele>
        <time>2017-08-13T08:53:51Z</time>
      </trkpt>
      <trkpt lat="45.62045" lon="2.82696">
        <ele>1338.29</ele>
        <time>2017-08-13T08:53:52Z</time>
      </trkpt>
      <trkpt lat="45.62069" lon="2.82659">
        <ele>1333.49</ele>
        <time>2017-08-13T08:53:56Z</time>
      </trkpt>
      <trkpt lat="45.62072" lon="2.82652">
        <ele>1333.01</ele>
        <time>2017-08-13T08:53:57Z</time>
      </trkpt>
      <trkpt lat="45.62078" lon="2.82637">
        <ele>1331.08</ele>
        <time>2017-08-13T08:53:59Z</time>
      </trkpt>
      <trkpt lat="45.62079" lon="2.82629">
        <ele>1330.12</ele>
        <time>2017-08-13T08:54:00Z</time>
      </trkpt>
      <trkpt lat="45.62083" lon="2.82592">
        <ele>1326.28</ele>
        <time>2017-08-13T08:54:04Z</time>
      </trkpt>
      <trkpt lat="45.6209" lon="2.82557">
        <ele>1322.43</ele>
        <time>2017-08-13T08:54:07Z</time>
      </trkpt>
      <trkpt lat="45.62097" lon="2.82531">
        <ele>1319.55</ele>
        <time>2017-08-13T08:54:09Z</time>
      </trkpt>
      <trkpt lat="45.62104" lon="2.82505">
        <ele>1316.66</ele>
        <time>2017-08-13T08:54:11Z</time>
      </trkpt>
      <trkpt lat="45.62113" lon="2.82462">
        <ele>1312.82</ele>
        <time>2017-08-13T08:54:14Z</time>
      </trkpt>
      <trkpt lat="45.62123" lon="2.82421">
        <ele>1308.97</ele>
        <time>2017-08-13T08:54:17Z</time>
      </trkpt>
      <trkpt lat="45.62139" lon="2.82379">
        <ele>1304.65</ele>
        <time>2017-08-13T08:54:21Z</time>
      </trkpt>
      <trkpt lat="45.62153" lon="2.82349">
        <ele>1301.28</ele>
        <time>2017-08-13T08:54:24Z</time>
      </trkpt>
      <trkpt lat="45.62163" lon="2.82321">
        <ele>1298.4</ele>
        <time>2017-08-13T08:54:27Z</time>
      </trkpt>
      <trkpt lat="45.62165" lon="2.82312">
        <ele>1297.44</ele>
        <time>2017-08-13T08:54:28Z</time>
      </trkpt>
      <trkpt lat="45.6217" lon="2.82272">
        <ele>1293.11</ele>
        <time>2017-08-13T08:54:32Z</time>
      </trkpt>
      <trkpt lat="45.62173" lon="2.82238">
        <ele>1290.23</ele>
        <time>2017-08-13T08:54:36Z</time>
      </trkpt>
      <trkpt lat="45.62172" lon="2.8223">
        <ele>1289.75</ele>
        <time>2017-08-13T08:54:37Z</time>
      </trkpt>
      <trkpt lat="45.62171" lon="2.82221">
        <ele>1288.3</ele>
        <time>2017-08-13T08:54:38Z</time>
      </trkpt>
      <trkpt lat="45.62169" lon="2.82214">
        <ele>1287.82</ele>
        <time>2017-08-13T08:54:39Z</time>
      </trkpt>
      <trkpt lat="45.62167" lon="2.82207">
        <ele>1286.86</ele>
        <time>2017-08-13T08:54:40Z</time>
      </trkpt>
      <trkpt lat="45.62164" lon="2.82201">
        <ele>1285.9</ele>
        <time>2017-08-13T08:54:41Z</time>
      </trkpt>
      <trkpt lat="45.62161" lon="2.82196">
        <ele>1285.9</ele>
        <time>2017-08-13T08:54:42Z</time>
      </trkpt>
      <trkpt lat="45.62159" lon="2.82191">
        <ele>1284.94</ele>
        <time>2017-08-13T08:54:43Z</time>
      </trkpt>
      <trkpt lat="45.62156" lon="2.82186">
        <ele>1284.94</ele>
        <time>2017-08-13T08:54:44Z</time>
      </trkpt>
      <trkpt lat="45.62155" lon="2.82183">
        <ele>1283.98</ele>
        <time>2017-08-13T08:54:45Z</time>
      </trkpt>
      <trkpt lat="45.62153" lon="2.8218">
        <ele>1283.5</ele>
        <time>2017-08-13T08:54:47Z</time>
      </trkpt>
      <trkpt lat="45.62151" lon="2.82179">
        <ele>1283.5</ele>
        <time>2017-08-13T08:54:48Z</time>
      </trkpt>
      <trkpt lat="45.62149" lon="2.82179">
        <ele>1283.5</ele>
        <time>2017-08-13T08:54:49Z</time>
      </trkpt>
      <trkpt lat="45.62147" lon="2.82178">
        <ele>1283.5</ele>
        <time>2017-08-13T08:54:50Z</time>
      </trkpt>
      <trkpt lat="45.62146" lon="2.82174">
        <ele>1283.5</ele>
        <time>2017-08-13T08:55:01Z</time>
      </trkpt>
      <trkpt lat="45.62147" lon="2.82172">
        <ele>1283.02</ele>
        <time>2017-08-13T08:55:18Z</time>
      </trkpt>
      <trkpt lat="45.62146" lon="2.8217">
        <ele>1283.02</ele>
        <time>2017-08-13T08:55:19Z</time>
      </trkpt>
      <trkpt lat="45.62146" lon="2.82167">
        <ele>1283.02</ele>
        <time>2017-08-13T08:55:20Z</time>
      </trkpt>
      <trkpt lat="45.62141" lon="2.82159">
        <ele>1281.09</ele>
        <time>2017-08-13T08:55:24Z</time>
      </trkpt>
      <trkpt lat="45.62132" lon="2.82144">
        <ele>1277.25</ele>
        <time>2017-08-13T08:55:29Z</time>
      </trkpt>
      <trkpt lat="45.62124" lon="2.82131">
        <ele>1275.33</ele>
        <time>2017-08-13T08:55:32Z</time>
      </trkpt>
      <trkpt lat="45.62121" lon="2.82126">
        <ele>1274.85</ele>
        <time>2017-08-13T08:55:33Z</time>
      </trkpt>
      <trkpt lat="45.62119" lon="2.82121">
        <ele>1274.36</ele>
        <time>2017-08-13T08:55:34Z</time>
      </trkpt>
      <trkpt lat="45.62117" lon="2.82115">
        <ele>1274.36</ele>
        <time>2017-08-13T08:55:35Z</time>
      </trkpt>
      <trkpt lat="45.62107" lon="2.82078">
        <ele>1272.92</ele>
        <time>2017-08-13T08:55:44Z</time>
      </trkpt>
      <trkpt lat="45.62105" lon="2.82075">
        <ele>1272.44</ele>
        <time>2017-08-13T08:55:53Z</time>
      </trkpt>
      <trkpt lat="45.62104" lon="2.82073">
        <ele>1272.44</ele>
        <time>2017-08-13T08:55:54Z</time>
      </trkpt>
      <trkpt lat="45.62103" lon="2.82069">
        <ele>1272.44</ele>
        <time>2017-08-13T08:55:55Z</time>
      </trkpt>
      <trkpt lat="45.621" lon="2.82066">
        <ele>1272.44</ele>
        <time>2017-08-13T08:55:56Z</time>
      </trkpt>
      <trkpt lat="45.62098" lon="2.82065">
        <ele>1272.44</ele>
        <time>2017-08-13T08:55:57Z</time>
      </trkpt>
      <trkpt lat="45.62096" lon="2.82063">
        <ele>1272.44</ele>
        <time>2017-08-13T08:55:58Z</time>
      </trkpt>
      <trkpt lat="45.62093" lon="2.8206">
        <ele>1272.44</ele>
        <time>2017-08-13T08:55:59Z</time>
      </trkpt>
      <trkpt lat="45.62091" lon="2.82057">
        <ele>1271.48</ele>
        <time>2017-08-13T08:56:00Z</time>
      </trkpt>
      <trkpt lat="45.62088" lon="2.82052">
        <ele>1271.48</ele>
        <time>2017-08-13T08:56:01Z</time>
      </trkpt>
      <trkpt lat="45.62085" lon="2.82049">
        <ele>1271.48</ele>
        <time>2017-08-13T08:56:02Z</time>
      </trkpt>
      <trkpt lat="45.62082" lon="2.82048">
        <ele>1271.48</ele>
        <time>2017-08-13T08:56:03Z</time>
      </trkpt>
      <trkpt lat="45.62079" lon="2.82047">
        <ele>1271.48</ele>
        <time>2017-08-13T08:56:04Z</time>
      </trkpt>
      <trkpt lat="45.62077" lon="2.82046">
        <ele>1271.96</ele>
        <time>2017-08-13T08:56:05Z</time>
      </trkpt>
      <trkpt lat="45.62076" lon="2.82045">
        <ele>1271.48</ele>
        <time>2017-08-13T08:56:06Z</time>
      </trkpt>
      <trkpt lat="45.62075" lon="2.82044">
        <ele>1271.48</ele>
        <time>2017-08-13T08:56:07Z</time>
      </trkpt>
      <trkpt lat="45.62071" lon="2.82043">
        <ele>1271.48</ele>
        <time>2017-08-13T08:56:09Z</time>
      </trkpt>
      <trkpt lat="45.6207" lon="2.82041">
        <ele>1271.96</ele>
        <time>2017-08-13T08:56:10Z</time>
      </trkpt>
      <trkpt lat="45.62069" lon="2.8204">
        <ele>1271.96</ele>
        <time>2017-08-13T08:56:11Z</time>
      </trkpt>
      <trkpt lat="45.62068" lon="2.82038">
        <ele>1271.96</ele>
        <time>2017-08-13T08:56:12Z</time>
      </trkpt>
      <trkpt lat="45.62066" lon="2.82036">
        <ele>1271.96</ele>
        <time>2017-08-13T08:56:13Z</time>
      </trkpt>
      <trkpt lat="45.62065" lon="2.82035">
        <ele>1271.96</ele>
        <time>2017-08-13T08:56:14Z</time>
      </trkpt>
      <trkpt lat="45.6206" lon="2.82033">
        <ele>1272.92</ele>
        <time>2017-08-13T08:56:17Z</time>
      </trkpt>
      <trkpt lat="45.62057" lon="2.82034">
        <ele>1272.92</ele>
        <time>2017-08-13T08:56:27Z</time>
      </trkpt>
      <trkpt lat="45.62057" lon="2.82034">
        <ele>1273.4</ele>
        <time>2017-08-13T08:57:06Z</time>
      </trkpt>
      <trkpt lat="45.62057" lon="2.82036">
        <ele>1273.4</ele>
        <time>2017-08-13T08:57:35Z</time>
      </trkpt>
      <trkpt lat="45.62057" lon="2.82033">
        <ele>1273.4</ele>
        <time>2017-08-13T08:57:59Z</time>
      </trkpt>
      <trkpt lat="45.62058" lon="2.82032">
        <ele>1273.4</ele>
        <time>2017-08-13T08:58:24Z</time>
      </trkpt>
      <trkpt lat="45.62055" lon="2.82032">
        <ele>1273.4</ele>
        <time>2017-08-13T08:58:49Z</time>
      </trkpt>
      <trkpt lat="45.62056" lon="2.82034">
        <ele>1273.88</ele>
        <time>2017-08-13T08:59:14Z</time>
      </trkpt>
      <trkpt lat="45.62054" lon="2.82033">
        <ele>1273.88</ele>
        <time>2017-08-13T08:59:41Z</time>
      </trkpt>
      <trkpt lat="45.62055" lon="2.82034">
        <ele>1274.36</ele>
        <time>2017-08-13T09:00:13Z</time>
      </trkpt>
      <trkpt lat="45.62059" lon="2.82033">
        <ele>1274.36</ele>
        <time>2017-08-13T09:00:43Z</time>
      </trkpt>
      <trkpt lat="45.62058" lon="2.82032">
        <ele>1274.36</ele>
        <time>2017-08-13T09:01:09Z</time>
      </trkpt>
      <trkpt lat="45.62057" lon="2.82034">
        <ele>1274.85</ele>
        <time>2017-08-13T09:01:37Z</time>
      </trkpt>
      <trkpt lat="45.62059" lon="2.82031">
        <ele>1274.85</ele>
        <time>2017-08-13T09:02:10Z</time>
      </trkpt>
      <trkpt lat="45.62058" lon="2.8203">
        <ele>1274.36</ele>
        <time>2017-08-13T09:02:39Z</time>
      </trkpt>
      <trkpt lat="45.6206" lon="2.82032">
        <ele>1274.36</ele>
        <time>2017-08-13T09:03:12Z</time>
      </trkpt>
      <trkpt lat="45.62058" lon="2.82031">
        <ele>1274.36</ele>
        <time>2017-08-13T09:03:44Z</time>
      </trkpt>
      <trkpt lat="45.62059" lon="2.82031">
        <ele>1274.36</ele>
        <time>2017-08-13T09:04:09Z</time>
      </trkpt>
      <trkpt lat="45.62059" lon="2.82031">
        <ele>1274.36</ele>
        <time>2017-08-13T09:04:42Z</time>
      </trkpt>
      <trkpt lat="45.62057" lon="2.82032">
        <ele>1274.36</ele>
        <time>2017-08-13T09:05:15Z</time>
      </trkpt>
      <trkpt lat="45.62057" lon="2.82031">
        <ele>1274.36</ele>
        <time>2017-08-13T09:05:52Z</time>
      </trkpt>
      <trkpt lat="45.62058" lon="2.82035">
        <ele>1273.88</ele>
        <time>2017-08-13T09:06:19Z</time>
      </trkpt>
      <trkpt lat="45.62058" lon="2.82031">
        <ele>1273.88</ele>
        <time>2017-08-13T09:06:51Z</time>
      </trkpt>
      <trkpt lat="45.6206" lon="2.82032">
        <ele>1273.88</ele>
        <time>2017-08-13T09:07:22Z</time>
      </trkpt>
      <trkpt lat="45.62057" lon="2.82031">
        <ele>1273.88</ele>
        <time>2017-08-13T09:07:51Z</time>
      </trkpt>
      <trkpt lat="45.62059" lon="2.82037">
        <ele>1273.88</ele>
        <time>2017-08-13T09:08:21Z</time>
      </trkpt>
      <trkpt lat="45.6206" lon="2.82033">
        <ele>1273.88</ele>
        <time>2017-08-13T09:08:56Z</time>
      </trkpt>
      <trkpt lat="45.6206" lon="2.82035">
        <ele>1273.88</ele>
        <time>2017-08-13T09:09:34Z</time>
      </trkpt>
      <trkpt lat="45.62061" lon="2.82035">
        <ele>1273.88</ele>
        <time>2017-08-13T09:10:04Z</time>
      </trkpt>
      <trkpt lat="45.6206" lon="2.82036">
        <ele>1273.88</ele>
        <time>2017-08-13T09:10:38Z</time>
      </trkpt>
      <trkpt lat="45.62057" lon="2.82031">
        <ele>1273.88</ele>
        <time>2017-08-13T09:11:07Z</time>
      </trkpt>
      <trkpt lat="45.62057" lon="2.82032">
        <ele>1273.88</ele>
        <time>2017-08-13T09:11:32Z</time>
      </trkpt>
      <trkpt lat="45.62057" lon="2.82033">
        <ele>1273.88</ele>
        <time>2017-08-13T09:11:57Z</time>
      </trkpt>
      <trkpt lat="45.62056" lon="2.8203">
        <ele>1273.88</ele>
        <time>2017-08-13T09:12:33Z</time>
      </trkpt>
      <trkpt lat="45.62058" lon="2.82029">
        <ele>1273.88</ele>
        <time>2017-08-13T09:13:05Z</time>
      </trkpt>
      <trkpt lat="45.62057" lon="2.82029">
        <ele>1273.88</ele>
        <time>2017-08-13T09:13:40Z</time>
      </trkpt>
      <trkpt lat="45.62055" lon="2.82032">
        <ele>1273.88</ele>
        <time>2017-08-13T09:14:08Z</time>
      </trkpt>
      <trkpt lat="45.62057" lon="2.82032">
        <ele>1273.88</ele>
        <time>2017-08-13T09:14:42Z</time>
      </trkpt>
      <trkpt lat="45.62057" lon="2.82032">
        <ele>1273.88</ele>
        <time>2017-08-13T09:15:12Z</time>
      </trkpt>
      <trkpt lat="45.62055" lon="2.82031">
        <ele>1273.88</ele>
        <time>2017-08-13T09:15:36Z</time>
      </trkpt>
      <trkpt lat="45.62057" lon="2.82031">
        <ele>1273.88</ele>
        <time>2017-08-13T09:16:05Z</time>
      </trkpt>
      <trkpt lat="45.62057" lon="2.82031">
        <ele>1273.88</ele>
        <time>2017-08-13T09:16:32Z</time>
      </trkpt>
      <trkpt lat="45.62057" lon="2.82032">
        <ele>1273.88</ele>
        <time>2017-08-13T09:17:06Z</time>
      </trkpt>
      <trkpt lat="45.62057" lon="2.8203">
        <ele>1273.88</ele>
        <time>2017-08-13T09:17:40Z</time>
      </trkpt>
      <trkpt lat="45.62057" lon="2.82033">
        <ele>1273.88</ele>
        <time>2017-08-13T09:18:21Z</time>
      </trkpt>
      <trkpt lat="45.62057" lon="2.82032">
        <ele>1273.88</ele>
        <time>2017-08-13T09:18:55Z</time>
      </trkpt>
      <trkpt lat="45.62058" lon="2.82032">
        <ele>1273.88</ele>
        <time>2017-08-13T09:19:30Z</time>
      </trkpt>
      <trkpt lat="45.6206" lon="2.82034">
        <ele>1273.88</ele>
        <time>2017-08-13T09:19:52Z</time>
      </trkpt>
      <trkpt lat="45.62061" lon="2.82036">
        <ele>1273.88</ele>
        <time>2017-08-13T09:19:53Z</time>
      </trkpt>
      <trkpt lat="45.62063" lon="2.82039">
        <ele>1273.88</ele>
        <time>2017-08-13T09:19:54Z</time>
      </trkpt>
      <trkpt lat="45.62065" lon="2.82042">
        <ele>1273.88</ele>
        <time>2017-08-13T09:19:55Z</time>
      </trkpt>
      <trkpt lat="45.62067" lon="2.82046">
        <ele>1272.44</ele>
        <time>2017-08-13T09:19:56Z</time>
      </trkpt>
      <trkpt lat="45.62068" lon="2.82051">
        <ele>1272.44</ele>
        <time>2017-08-13T09:19:57Z</time>
      </trkpt>
      <trkpt lat="45.62068" lon="2.82053">
        <ele>1272.44</ele>
        <time>2017-08-13T09:19:58Z</time>
      </trkpt>
      <trkpt lat="45.62068" lon="2.82055">
        <ele>1271.96</ele>
        <time>2017-08-13T09:19:59Z</time>
      </trkpt>
      <trkpt lat="45.62068" lon="2.82057">
        <ele>1271.96</ele>
        <time>2017-08-13T09:20:00Z</time>
      </trkpt>
      <trkpt lat="45.62067" lon="2.82059">
        <ele>1271.48</ele>
        <time>2017-08-13T09:20:01Z</time>
      </trkpt>
      <trkpt lat="45.62067" lon="2.82061">
        <ele>1271.48</ele>
        <time>2017-08-13T09:20:02Z</time>
      </trkpt>
      <trkpt lat="45.62066" lon="2.82062">
        <ele>1271.48</ele>
        <time>2017-08-13T09:20:03Z</time>
      </trkpt>
      <trkpt lat="45.62066" lon="2.82065">
        <ele>1271.48</ele>
        <time>2017-08-13T09:20:04Z</time>
      </trkpt>
      <trkpt lat="45.62066" lon="2.82066">
        <ele>1271.48</ele>
        <time>2017-08-13T09:20:05Z</time>
      </trkpt>
      <trkpt lat="45.62065" lon="2.82069">
        <ele>1271.48</ele>
        <time>2017-08-13T09:20:07Z</time>
      </trkpt>
      <trkpt lat="45.62063" lon="2.82072">
        <ele>1271</ele>
        <time>2017-08-13T09:20:08Z</time>
      </trkpt>
      <trkpt lat="45.62062" lon="2.82073">
        <ele>1271.48</ele>
        <time>2017-08-13T09:20:09Z</time>
      </trkpt>
      <trkpt lat="45.62062" lon="2.82071">
        <ele>1271.48</ele>
        <time>2017-08-13T09:20:20Z</time>
      </trkpt>
      <trkpt lat="45.62061" lon="2.82067">
        <ele>1271</ele>
        <time>2017-08-13T09:20:22Z</time>
      </trkpt>
      <trkpt lat="45.62061" lon="2.82065">
        <ele>1271.48</ele>
        <time>2017-08-13T09:20:23Z</time>
      </trkpt>
      <trkpt lat="45.62061" lon="2.82064">
        <ele>1271.48</ele>
        <time>2017-08-13T09:20:24Z</time>
      </trkpt>
      <trkpt lat="45.62061" lon="2.82062">
        <ele>1271.48</ele>
        <time>2017-08-13T09:20:25Z</time>
      </trkpt>
      <trkpt lat="45.62059" lon="2.8206">
        <ele>1271.48</ele>
        <time>2017-08-13T09:20:26Z</time>
      </trkpt>
      <trkpt lat="45.62058" lon="2.82058">
        <ele>1271.48</ele>
        <time>2017-08-13T09:20:27Z</time>
      </trkpt>
      <trkpt lat="45.62056" lon="2.82057">
        <ele>1271.48</ele>
        <time>2017-08-13T09:20:28Z</time>
      </trkpt>
      <trkpt lat="45.62053" lon="2.82055">
        <ele>1271.48</ele>
        <time>2017-08-13T09:20:29Z</time>
      </trkpt>
      <trkpt lat="45.62045" lon="2.82051">
        <ele>1271.48</ele>
        <time>2017-08-13T09:20:32Z</time>
      </trkpt>
      <trkpt lat="45.62042" lon="2.82048">
        <ele>1271.48</ele>
        <time>2017-08-13T09:20:33Z</time>
      </trkpt>
      <trkpt lat="45.61998" lon="2.82022">
        <ele>1272.92</ele>
        <time>2017-08-13T09:20:50Z</time>
      </trkpt>
      <trkpt lat="45.61974" lon="2.82007">
        <ele>1273.88</ele>
        <time>2017-08-13T09:21:02Z</time>
      </trkpt>
      <trkpt lat="45.61948" lon="2.81979">
        <ele>1276.29</ele>
        <time>2017-08-13T09:21:16Z</time>
      </trkpt>
      <trkpt lat="45.6194" lon="2.81936">
        <ele>1277.73</ele>
        <time>2017-08-13T09:21:30Z</time>
      </trkpt>
      <trkpt lat="45.61946" lon="2.81883">
        <ele>1279.17</ele>
        <time>2017-08-13T09:21:45Z</time>
      </trkpt>
      <trkpt lat="45.61956" lon="2.81837">
        <ele>1280.61</ele>
        <time>2017-08-13T09:21:59Z</time>
      </trkpt>
      <trkpt lat="45.61966" lon="2.81796">
        <ele>1282.54</ele>
        <time>2017-08-13T09:22:13Z</time>
      </trkpt>
      <trkpt lat="45.61975" lon="2.81752">
        <ele>1285.42</ele>
        <time>2017-08-13T09:22:29Z</time>
      </trkpt>
      <trkpt lat="45.61968" lon="2.81714">
        <ele>1287.34</ele>
        <time>2017-08-13T09:22:44Z</time>
      </trkpt>
      <trkpt lat="45.61959" lon="2.81698">
        <ele>1288.78</ele>
        <time>2017-08-13T09:22:59Z</time>
      </trkpt>
      <trkpt lat="45.61958" lon="2.81698">
        <ele>1288.78</ele>
        <time>2017-08-13T09:23:14Z</time>
      </trkpt>
      <trkpt lat="45.61958" lon="2.817">
        <ele>1288.78</ele>
        <time>2017-08-13T09:23:15Z</time>
      </trkpt>
      <trkpt lat="45.61959" lon="2.81702">
        <ele>1288.78</ele>
        <time>2017-08-13T09:23:16Z</time>
      </trkpt>
      <trkpt lat="45.6196" lon="2.81705">
        <ele>1288.78</ele>
        <time>2017-08-13T09:23:17Z</time>
      </trkpt>
      <trkpt lat="45.61963" lon="2.81708">
        <ele>1288.78</ele>
        <time>2017-08-13T09:23:18Z</time>
      </trkpt>
      <trkpt lat="45.61965" lon="2.81711">
        <ele>1288.78</ele>
        <time>2017-08-13T09:23:19Z</time>
      </trkpt>
      <trkpt lat="45.61967" lon="2.81715">
        <ele>1287.34</ele>
        <time>2017-08-13T09:23:20Z</time>
      </trkpt>
      <trkpt lat="45.61969" lon="2.81719">
        <ele>1286.86</ele>
        <time>2017-08-13T09:23:21Z</time>
      </trkpt>
      <trkpt lat="45.61971" lon="2.81723">
        <ele>1286.86</ele>
        <time>2017-08-13T09:23:22Z</time>
      </trkpt>
      <trkpt lat="45.61973" lon="2.81726">
        <ele>1286.86</ele>
        <time>2017-08-13T09:23:23Z</time>
      </trkpt>
      <trkpt lat="45.61976" lon="2.81727">
        <ele>1286.86</ele>
        <time>2017-08-13T09:23:24Z</time>
      </trkpt>
      <trkpt lat="45.61978" lon="2.81726">
        <ele>1286.86</ele>
        <time>2017-08-13T09:23:25Z</time>
      </trkpt>
      <trkpt lat="45.61978" lon="2.81724">
        <ele>1286.86</ele>
        <time>2017-08-13T09:23:26Z</time>
      </trkpt>
      <trkpt lat="45.61979" lon="2.81721">
        <ele>1286.86</ele>
        <time>2017-08-13T09:23:27Z</time>
      </trkpt>
      <trkpt lat="45.61978" lon="2.81718">
        <ele>1286.86</ele>
        <time>2017-08-13T09:23:28Z</time>
      </trkpt>
      <trkpt lat="45.61978" lon="2.81716">
        <ele>1286.86</ele>
        <time>2017-08-13T09:23:29Z</time>
      </trkpt>
      <trkpt lat="45.61976" lon="2.81704">
        <ele>1288.3</ele>
        <time>2017-08-13T09:23:34Z</time>
      </trkpt>
      <trkpt lat="45.61959" lon="2.81676">
        <ele>1291.19</ele>
        <time>2017-08-13T09:23:50Z</time>
      </trkpt>
      <trkpt lat="45.61942" lon="2.81655">
        <ele>1293.59</ele>
        <time>2017-08-13T09:24:05Z</time>
      </trkpt>
      <trkpt lat="45.61922" lon="2.81634">
        <ele>1295.99</ele>
        <time>2017-08-13T09:24:21Z</time>
      </trkpt>
      <trkpt lat="45.61904" lon="2.81617">
        <ele>1298.88</ele>
        <time>2017-08-13T09:24:35Z</time>
      </trkpt>
      <trkpt lat="45.61893" lon="2.81606">
        <ele>1300.32</ele>
        <time>2017-08-13T09:24:44Z</time>
      </trkpt>
      <trkpt lat="45.6189" lon="2.81599">
        <ele>1301.28</ele>
        <time>2017-08-13T09:24:48Z</time>
      </trkpt>
      <trkpt lat="45.61889" lon="2.81598">
        <ele>1301.28</ele>
        <time>2017-08-13T09:24:49Z</time>
      </trkpt>
      <trkpt lat="45.61888" lon="2.81597">
        <ele>1301.28</ele>
        <time>2017-08-13T09:24:50Z</time>
      </trkpt>
      <trkpt lat="45.61887" lon="2.81596">
        <ele>1301.76</ele>
        <time>2017-08-13T09:24:51Z</time>
      </trkpt>
      <trkpt lat="45.61886" lon="2.81595">
        <ele>1301.76</ele>
        <time>2017-08-13T09:24:52Z</time>
      </trkpt>
      <trkpt lat="45.61885" lon="2.81593">
        <ele>1301.76</ele>
        <time>2017-08-13T09:24:53Z</time>
      </trkpt>
      <trkpt lat="45.61885" lon="2.81591">
        <ele>1302.24</ele>
        <time>2017-08-13T09:24:54Z</time>
      </trkpt>
      <trkpt lat="45.61884" lon="2.8159">
        <ele>1302.24</ele>
        <time>2017-08-13T09:24:55Z</time>
      </trkpt>
      <trkpt lat="45.61884" lon="2.81588">
        <ele>1302.24</ele>
        <time>2017-08-13T09:24:56Z</time>
      </trkpt>
      <trkpt lat="45.61883" lon="2.81587">
        <ele>1302.72</ele>
        <time>2017-08-13T09:24:57Z</time>
      </trkpt>
      <trkpt lat="45.61883" lon="2.81585">
        <ele>1302.72</ele>
        <time>2017-08-13T09:24:58Z</time>
      </trkpt>
      <trkpt lat="45.61882" lon="2.81583">
        <ele>1303.2</ele>
        <time>2017-08-13T09:24:59Z</time>
      </trkpt>
      <trkpt lat="45.61882" lon="2.81582">
        <ele>1303.2</ele>
        <time>2017-08-13T09:25:00Z</time>
      </trkpt>
      <trkpt lat="45.61881" lon="2.81581">
        <ele>1303.2</ele>
        <time>2017-08-13T09:25:01Z</time>
      </trkpt>
      <trkpt lat="45.6188" lon="2.81578">
        <ele>1303.69</ele>
        <time>2017-08-13T09:25:03Z</time>
      </trkpt>
      <trkpt lat="45.6188" lon="2.81576">
        <ele>1304.17</ele>
        <time>2017-08-13T09:25:04Z</time>
      </trkpt>
      <trkpt lat="45.6188" lon="2.81574">
        <ele>1304.17</ele>
        <time>2017-08-13T09:25:05Z</time>
      </trkpt>
      <trkpt lat="45.61879" lon="2.81573">
        <ele>1304.17</ele>
        <time>2017-08-13T09:25:06Z</time>
      </trkpt>
      <trkpt lat="45.61878" lon="2.81571">
        <ele>1304.65</ele>
        <time>2017-08-13T09:25:07Z</time>
      </trkpt>
      <trkpt lat="45.61877" lon="2.81569">
        <ele>1304.65</ele>
        <time>2017-08-13T09:25:08Z</time>
      </trkpt>
      <trkpt lat="45.61877" lon="2.81567">
        <ele>1305.13</ele>
        <time>2017-08-13T09:25:09Z</time>
      </trkpt>
      <trkpt lat="45.61877" lon="2.81565">
        <ele>1305.13</ele>
        <time>2017-08-13T09:25:10Z</time>
      </trkpt>
      <trkpt lat="45.61876" lon="2.81564">
        <ele>1305.13</ele>
        <time>2017-08-13T09:25:11Z</time>
      </trkpt>
      <trkpt lat="45.61876" lon="2.81562">
        <ele>1305.13</ele>
        <time>2017-08-13T09:25:12Z</time>
      </trkpt>
      <trkpt lat="45.61876" lon="2.8156">
        <ele>1305.61</ele>
        <time>2017-08-13T09:25:13Z</time>
      </trkpt>
      <trkpt lat="45.61876" lon="2.81558">
        <ele>1305.61</ele>
        <time>2017-08-13T09:25:14Z</time>
      </trkpt>
      <trkpt lat="45.61875" lon="2.81553">
        <ele>1306.57</ele>
        <time>2017-08-13T09:25:17Z</time>
      </trkpt>
      <trkpt lat="45.61875" lon="2.81551">
        <ele>1306.57</ele>
        <time>2017-08-13T09:25:18Z</time>
      </trkpt>
      <trkpt lat="45.61875" lon="2.81549">
        <ele>1306.57</ele>
        <time>2017-08-13T09:25:19Z</time>
      </trkpt>
      <trkpt lat="45.61874" lon="2.81547">
        <ele>1306.57</ele>
        <time>2017-08-13T09:25:20Z</time>
      </trkpt>
      <trkpt lat="45.61874" lon="2.81545">
        <ele>1307.05</ele>
        <time>2017-08-13T09:25:21Z</time>
      </trkpt>
      <trkpt lat="45.61874" lon="2.81543">
        <ele>1307.05</ele>
        <time>2017-08-13T09:25:22Z</time>
      </trkpt>
      <trkpt lat="45.61873" lon="2.81541">
        <ele>1307.53</ele>
        <time>2017-08-13T09:25:23Z</time>
      </trkpt>
      <trkpt lat="45.61872" lon="2.81539">
        <ele>1307.53</ele>
        <time>2017-08-13T09:25:24Z</time>
      </trkpt>
      <trkpt lat="45.61866" lon="2.81515">
        <ele>1309.93</ele>
        <time>2017-08-13T09:25:38Z</time>
      </trkpt>
      <trkpt lat="45.61867" lon="2.81488">
        <ele>1311.86</ele>
        <time>2017-08-13T09:25:51Z</time>
      </trkpt>
      <trkpt lat="45.61877" lon="2.81462">
        <ele>1313.78</ele>
        <time>2017-08-13T09:26:06Z</time>
      </trkpt>
      <trkpt lat="45.6188" lon="2.81455">
        <ele>1314.26</ele>
        <time>2017-08-13T09:26:10Z</time>
      </trkpt>
      <trkpt lat="45.61881" lon="2.81454">
        <ele>1314.26</ele>
        <time>2017-08-13T09:26:11Z</time>
      </trkpt>
      <trkpt lat="45.61888" lon="2.81425">
        <ele>1315.22</ele>
        <time>2017-08-13T09:26:25Z</time>
      </trkpt>
      <trkpt lat="45.61878" lon="2.81391">
        <ele>1317.14</ele>
        <time>2017-08-13T09:26:39Z</time>
      </trkpt>
      <trkpt lat="45.61861" lon="2.8135">
        <ele>1319.07</ele>
        <time>2017-08-13T09:26:53Z</time>
      </trkpt>
      <trkpt lat="45.61842" lon="2.81307">
        <ele>1320.03</ele>
        <time>2017-08-13T09:27:08Z</time>
      </trkpt>
      <trkpt lat="45.61827" lon="2.8127">
        <ele>1322.43</ele>
        <time>2017-08-13T09:27:22Z</time>
      </trkpt>
      <trkpt lat="45.61811" lon="2.81229">
        <ele>1323.87</ele>
        <time>2017-08-13T09:27:38Z</time>
      </trkpt>
      <trkpt lat="45.61804" lon="2.81189">
        <ele>1325.31</ele>
        <time>2017-08-13T09:27:52Z</time>
      </trkpt>
      <trkpt lat="45.61817" lon="2.81146">
        <ele>1327.72</ele>
        <time>2017-08-13T09:28:08Z</time>
      </trkpt>
      <trkpt lat="45.61828" lon="2.81114">
        <ele>1330.6</ele>
        <time>2017-08-13T09:28:22Z</time>
      </trkpt>
      <trkpt lat="45.61837" lon="2.81084">
        <ele>1332.52</ele>
        <time>2017-08-13T09:28:35Z</time>
      </trkpt>
      <trkpt lat="45.6184" lon="2.81069">
        <ele>1333.49</ele>
        <time>2017-08-13T09:28:41Z</time>
      </trkpt>
      <trkpt lat="45.61839" lon="2.81066">
        <ele>1333.49</ele>
        <time>2017-08-13T09:28:42Z</time>
      </trkpt>
      <trkpt lat="45.61839" lon="2.81064">
        <ele>1333.49</ele>
        <time>2017-08-13T09:28:43Z</time>
      </trkpt>
      <trkpt lat="45.61842" lon="2.81031">
        <ele>1334.93</ele>
        <time>2017-08-13T09:28:56Z</time>
      </trkpt>
      <trkpt lat="45.61844" lon="2.80996">
        <ele>1336.85</ele>
        <time>2017-08-13T09:29:10Z</time>
      </trkpt>
      <trkpt lat="45.61846" lon="2.80973">
        <ele>1337.81</ele>
        <time>2017-08-13T09:29:19Z</time>
      </trkpt>
      <trkpt lat="45.61842" lon="2.80936">
        <ele>1340.22</ele>
        <time>2017-08-13T09:29:34Z</time>
      </trkpt>
      <trkpt lat="45.6184" lon="2.80931">
        <ele>1340.22</ele>
        <time>2017-08-13T09:29:36Z</time>
      </trkpt>
      <trkpt lat="45.61839" lon="2.80929">
        <ele>1340.7</ele>
        <time>2017-08-13T09:29:37Z</time>
      </trkpt>
      <trkpt lat="45.61837" lon="2.80928">
        <ele>1340.7</ele>
        <time>2017-08-13T09:29:38Z</time>
      </trkpt>
      <trkpt lat="45.61836" lon="2.80926">
        <ele>1340.7</ele>
        <time>2017-08-13T09:29:39Z</time>
      </trkpt>
      <trkpt lat="45.61835" lon="2.80924">
        <ele>1341.18</ele>
        <time>2017-08-13T09:29:40Z</time>
      </trkpt>
      <trkpt lat="45.61834" lon="2.80922">
        <ele>1341.18</ele>
        <time>2017-08-13T09:29:41Z</time>
      </trkpt>
      <trkpt lat="45.61834" lon="2.8092">
        <ele>1341.18</ele>
        <time>2017-08-13T09:29:42Z</time>
      </trkpt>
      <trkpt lat="45.61833" lon="2.80918">
        <ele>1341.18</ele>
        <time>2017-08-13T09:29:43Z</time>
      </trkpt>
      <trkpt lat="45.61824" lon="2.80883">
        <ele>1343.58</ele>
        <time>2017-08-13T09:29:58Z</time>
      </trkpt>
      <trkpt lat="45.61814" lon="2.80851">
        <ele>1345.02</ele>
        <time>2017-08-13T09:30:11Z</time>
      </trkpt>
      <trkpt lat="45.61808" lon="2.80838">
        <ele>1346.46</ele>
        <time>2017-08-13T09:30:16Z</time>
      </trkpt>
      <trkpt lat="45.61806" lon="2.80837">
        <ele>1346.46</ele>
        <time>2017-08-13T09:30:17Z</time>
      </trkpt>
      <trkpt lat="45.618" lon="2.80826">
        <ele>1346.94</ele>
        <time>2017-08-13T09:30:28Z</time>
      </trkpt>
      <trkpt lat="45.618" lon="2.80825">
        <ele>1346.94</ele>
        <time>2017-08-13T09:31:02Z</time>
      </trkpt>
      <trkpt lat="45.61799" lon="2.80825">
        <ele>1346.94</ele>
        <time>2017-08-13T09:31:08Z</time>
      </trkpt>
      <trkpt lat="45.61798" lon="2.80824">
        <ele>1346.94</ele>
        <time>2017-08-13T09:31:09Z</time>
      </trkpt>
      <trkpt lat="45.61797" lon="2.80822">
        <ele>1346.94</ele>
        <time>2017-08-13T09:31:10Z</time>
      </trkpt>
      <trkpt lat="45.61796" lon="2.8082">
        <ele>1346.94</ele>
        <time>2017-08-13T09:31:11Z</time>
      </trkpt>
      <trkpt lat="45.61794" lon="2.80819">
        <ele>1346.94</ele>
        <time>2017-08-13T09:31:12Z</time>
      </trkpt>
      <trkpt lat="45.61792" lon="2.80819">
        <ele>1347.43</ele>
        <time>2017-08-13T09:31:13Z</time>
      </trkpt>
      <trkpt lat="45.61791" lon="2.80818">
        <ele>1347.43</ele>
        <time>2017-08-13T09:31:14Z</time>
      </trkpt>
      <trkpt lat="45.61789" lon="2.80816">
        <ele>1347.43</ele>
        <time>2017-08-13T09:31:15Z</time>
      </trkpt>
      <trkpt lat="45.61788" lon="2.80815">
        <ele>1347.43</ele>
        <time>2017-08-13T09:31:16Z</time>
      </trkpt>
      <trkpt lat="45.61769" lon="2.80783">
        <ele>1349.83</ele>
        <time>2017-08-13T09:31:32Z</time>
      </trkpt>
      <trkpt lat="45.61769" lon="2.80739">
        <ele>1351.27</ele>
        <time>2017-08-13T09:31:46Z</time>
      </trkpt>
      <trkpt lat="45.61774" lon="2.80693">
        <ele>1351.75</ele>
        <time>2017-08-13T09:31:58Z</time>
      </trkpt>
      <trkpt lat="45.61778" lon="2.8067">
        <ele>1351.75</ele>
        <time>2017-08-13T09:32:02Z</time>
      </trkpt>
      <trkpt lat="45.61778" lon="2.80652">
        <ele>1351.75</ele>
        <time>2017-08-13T09:32:05Z</time>
      </trkpt>
      <trkpt lat="45.61779" lon="2.80645">
        <ele>1351.75</ele>
        <time>2017-08-13T09:32:06Z</time>
      </trkpt>
      <trkpt lat="45.6178" lon="2.80638">
        <ele>1351.75</ele>
        <time>2017-08-13T09:32:07Z</time>
      </trkpt>
      <trkpt lat="45.6178" lon="2.80632">
        <ele>1351.75</ele>
        <time>2017-08-13T09:32:08Z</time>
      </trkpt>
      <trkpt lat="45.6178" lon="2.80627">
        <ele>1351.75</ele>
        <time>2017-08-13T09:32:09Z</time>
      </trkpt>
      <trkpt lat="45.61783" lon="2.80576">
        <ele>1352.71</ele>
        <time>2017-08-13T09:32:22Z</time>
      </trkpt>
      <trkpt lat="45.61788" lon="2.80516">
        <ele>1354.15</ele>
        <time>2017-08-13T09:32:39Z</time>
      </trkpt>
      <trkpt lat="45.61789" lon="2.80453">
        <ele>1355.12</ele>
        <time>2017-08-13T09:32:54Z</time>
      </trkpt>
      <trkpt lat="45.61788" lon="2.80424">
        <ele>1355.12</ele>
        <time>2017-08-13T09:33:00Z</time>
      </trkpt>
      <trkpt lat="45.61789" lon="2.80418">
        <ele>1355.12</ele>
        <time>2017-08-13T09:33:01Z</time>
      </trkpt>
      <trkpt lat="45.61789" lon="2.80413">
        <ele>1355.12</ele>
        <time>2017-08-13T09:33:02Z</time>
      </trkpt>
      <trkpt lat="45.61789" lon="2.80406">
        <ele>1354.15</ele>
        <time>2017-08-13T09:33:03Z</time>
      </trkpt>
      <trkpt lat="45.61789" lon="2.804">
        <ele>1354.15</ele>
        <time>2017-08-13T09:33:04Z</time>
      </trkpt>
      <trkpt lat="45.61789" lon="2.80394">
        <ele>1354.15</ele>
        <time>2017-08-13T09:33:05Z</time>
      </trkpt>
      <trkpt lat="45.61789" lon="2.80387">
        <ele>1354.15</ele>
        <time>2017-08-13T09:33:06Z</time>
      </trkpt>
      <trkpt lat="45.61789" lon="2.8038">
        <ele>1354.15</ele>
        <time>2017-08-13T09:33:07Z</time>
      </trkpt>
      <trkpt lat="45.61789" lon="2.80374">
        <ele>1354.15</ele>
        <time>2017-08-13T09:33:08Z</time>
      </trkpt>
      <trkpt lat="45.6179" lon="2.80367">
        <ele>1354.15</ele>
        <time>2017-08-13T09:33:09Z</time>
      </trkpt>
      <trkpt lat="45.61789" lon="2.8032">
        <ele>1354.15</ele>
        <time>2017-08-13T09:33:15Z</time>
      </trkpt>
      <trkpt lat="45.61787" lon="2.80305">
        <ele>1354.15</ele>
        <time>2017-08-13T09:33:17Z</time>
      </trkpt>
      <trkpt lat="45.61788" lon="2.80299">
        <ele>1354.15</ele>
        <time>2017-08-13T09:33:18Z</time>
      </trkpt>
      <trkpt lat="45.61788" lon="2.80294">
        <ele>1354.15</ele>
        <time>2017-08-13T09:33:19Z</time>
      </trkpt>
      <trkpt lat="45.61788" lon="2.80269">
        <ele>1355.6</ele>
        <time>2017-08-13T09:33:23Z</time>
      </trkpt>
      <trkpt lat="45.61786" lon="2.80218">
        <ele>1357.52</ele>
        <time>2017-08-13T09:33:35Z</time>
      </trkpt>
      <trkpt lat="45.61783" lon="2.80163">
        <ele>1358</ele>
        <time>2017-08-13T09:33:48Z</time>
      </trkpt>
      <trkpt lat="45.6178" lon="2.80107">
        <ele>1358.48</ele>
        <time>2017-08-13T09:34:01Z</time>
      </trkpt>
      <trkpt lat="45.61777" lon="2.80051">
        <ele>1359.92</ele>
        <time>2017-08-13T09:34:14Z</time>
      </trkpt>
      <trkpt lat="45.61772" lon="2.7999">
        <ele>1360.4</ele>
        <time>2017-08-13T09:34:27Z</time>
      </trkpt>
      <trkpt lat="45.61768" lon="2.79926">
        <ele>1360.88</ele>
        <time>2017-08-13T09:34:41Z</time>
      </trkpt>
      <trkpt lat="45.61763" lon="2.7986">
        <ele>1362.33</ele>
        <time>2017-08-13T09:34:57Z</time>
      </trkpt>
      <trkpt lat="45.61759" lon="2.79791">
        <ele>1363.77</ele>
        <time>2017-08-13T09:35:14Z</time>
      </trkpt>
      <trkpt lat="45.61755" lon="2.79724">
        <ele>1365.21</ele>
        <time>2017-08-13T09:35:31Z</time>
      </trkpt>
      <trkpt lat="45.61751" lon="2.79673">
        <ele>1366.65</ele>
        <time>2017-08-13T09:35:46Z</time>
      </trkpt>
      <trkpt lat="45.61747" lon="2.79611">
        <ele>1368.57</ele>
        <time>2017-08-13T09:36:04Z</time>
      </trkpt>
      <trkpt lat="45.61745" lon="2.79564">
        <ele>1370.02</ele>
        <time>2017-08-13T09:36:18Z</time>
      </trkpt>
      <trkpt lat="45.61742" lon="2.79522">
        <ele>1370.98</ele>
        <time>2017-08-13T09:36:31Z</time>
      </trkpt>
      <trkpt lat="45.61741" lon="2.79472">
        <ele>1372.42</ele>
        <time>2017-08-13T09:36:48Z</time>
      </trkpt>
      <trkpt lat="45.61742" lon="2.79417">
        <ele>1374.82</ele>
        <time>2017-08-13T09:37:06Z</time>
      </trkpt>
      <trkpt lat="45.61744" lon="2.79379">
        <ele>1377.23</ele>
        <time>2017-08-13T09:37:20Z</time>
      </trkpt>
      <trkpt lat="45.61745" lon="2.79333">
        <ele>1378.67</ele>
        <time>2017-08-13T09:37:37Z</time>
      </trkpt>
      <trkpt lat="45.61746" lon="2.79283">
        <ele>1380.59</ele>
        <time>2017-08-13T09:37:55Z</time>
      </trkpt>
      <trkpt lat="45.61738" lon="2.79236">
        <ele>1382.51</ele>
        <time>2017-08-13T09:38:13Z</time>
      </trkpt>
      <trkpt lat="45.61738" lon="2.79233">
        <ele>1382.51</ele>
        <time>2017-08-13T09:38:14Z</time>
      </trkpt>
      <trkpt lat="45.61727" lon="2.79197">
        <ele>1384.92</ele>
        <time>2017-08-13T09:38:29Z</time>
      </trkpt>
      <trkpt lat="45.6172" lon="2.79167">
        <ele>1386.84</ele>
        <time>2017-08-13T09:38:43Z</time>
      </trkpt>
      <trkpt lat="45.61713" lon="2.7914">
        <ele>1388.76</ele>
        <time>2017-08-13T09:38:56Z</time>
      </trkpt>
      <trkpt lat="45.61706" lon="2.7911">
        <ele>1389.72</ele>
        <time>2017-08-13T09:39:09Z</time>
      </trkpt>
      <trkpt lat="45.61702" lon="2.79078">
        <ele>1390.2</ele>
        <time>2017-08-13T09:39:20Z</time>
      </trkpt>
      <trkpt lat="45.61699" lon="2.79065">
        <ele>1390.68</ele>
        <time>2017-08-13T09:39:25Z</time>
      </trkpt>
      <trkpt lat="45.61699" lon="2.79061">
        <ele>1391.17</ele>
        <time>2017-08-13T09:39:26Z</time>
      </trkpt>
      <trkpt lat="45.61698" lon="2.79058">
        <ele>1391.17</ele>
        <time>2017-08-13T09:39:27Z</time>
      </trkpt>
      <trkpt lat="45.61698" lon="2.79055">
        <ele>1391.17</ele>
        <time>2017-08-13T09:39:28Z</time>
      </trkpt>
      <trkpt lat="45.61697" lon="2.79052">
        <ele>1391.65</ele>
        <time>2017-08-13T09:39:29Z</time>
      </trkpt>
      <trkpt lat="45.61696" lon="2.79049">
        <ele>1391.65</ele>
        <time>2017-08-13T09:39:30Z</time>
      </trkpt>
      <trkpt lat="45.61695" lon="2.79046">
        <ele>1391.65</ele>
        <time>2017-08-13T09:39:31Z</time>
      </trkpt>
      <trkpt lat="45.61695" lon="2.79043">
        <ele>1391.65</ele>
        <time>2017-08-13T09:39:32Z</time>
      </trkpt>
      <trkpt lat="45.61694" lon="2.7904">
        <ele>1392.61</ele>
        <time>2017-08-13T09:39:33Z</time>
      </trkpt>
      <trkpt lat="45.61694" lon="2.79037">
        <ele>1392.61</ele>
        <time>2017-08-13T09:39:34Z</time>
      </trkpt>
      <trkpt lat="45.61692" lon="2.79015">
        <ele>1393.57</ele>
        <time>2017-08-13T09:39:43Z</time>
      </trkpt>
      <trkpt lat="45.61692" lon="2.79013">
        <ele>1393.57</ele>
        <time>2017-08-13T09:39:44Z</time>
      </trkpt>
      <trkpt lat="45.61692" lon="2.79011">
        <ele>1394.05</ele>
        <time>2017-08-13T09:39:45Z</time>
      </trkpt>
      <trkpt lat="45.61692" lon="2.79008">
        <ele>1394.05</ele>
        <time>2017-08-13T09:39:46Z</time>
      </trkpt>
      <trkpt lat="45.61692" lon="2.79006">
        <ele>1394.53</ele>
        <time>2017-08-13T09:39:47Z</time>
      </trkpt>
      <trkpt lat="45.61692" lon="2.79004">
        <ele>1394.53</ele>
        <time>2017-08-13T09:39:48Z</time>
      </trkpt>
      <trkpt lat="45.61692" lon="2.79002">
        <ele>1394.53</ele>
        <time>2017-08-13T09:39:49Z</time>
      </trkpt>
      <trkpt lat="45.61686" lon="2.78971">
        <ele>1396.45</ele>
        <time>2017-08-13T09:40:03Z</time>
      </trkpt>
      <trkpt lat="45.61673" lon="2.78941">
        <ele>1397.89</ele>
        <time>2017-08-13T09:40:16Z</time>
      </trkpt>
      <trkpt lat="45.61665" lon="2.78922">
        <ele>1397.89</ele>
        <time>2017-08-13T09:40:24Z</time>
      </trkpt>
      <trkpt lat="45.61658" lon="2.78912">
        <ele>1398.37</ele>
        <time>2017-08-13T09:40:29Z</time>
      </trkpt>
      <trkpt lat="45.61657" lon="2.78911">
        <ele>1398.37</ele>
        <time>2017-08-13T09:40:30Z</time>
      </trkpt>
      <trkpt lat="45.61655" lon="2.7891">
        <ele>1398.86</ele>
        <time>2017-08-13T09:40:41Z</time>
      </trkpt>
      <trkpt lat="45.61655" lon="2.78909">
        <ele>1398.86</ele>
        <time>2017-08-13T09:41:06Z</time>
      </trkpt>
      <trkpt lat="45.61654" lon="2.78909">
        <ele>1398.86</ele>
        <time>2017-08-13T09:41:18Z</time>
      </trkpt>
      <trkpt lat="45.61646" lon="2.789">
        <ele>1398.86</ele>
        <time>2017-08-13T09:41:24Z</time>
      </trkpt>
      <trkpt lat="45.61645" lon="2.78898">
        <ele>1398.86</ele>
        <time>2017-08-13T09:41:25Z</time>
      </trkpt>
      <trkpt lat="45.61643" lon="2.78896">
        <ele>1398.86</ele>
        <time>2017-08-13T09:41:26Z</time>
      </trkpt>
      <trkpt lat="45.61624" lon="2.78863">
        <ele>1399.82</ele>
        <time>2017-08-13T09:41:41Z</time>
      </trkpt>
      <trkpt lat="45.61602" lon="2.78828">
        <ele>1399.82</ele>
        <time>2017-08-13T09:41:53Z</time>
      </trkpt>
      <trkpt lat="45.61576" lon="2.78781">
        <ele>1400.78</ele>
        <time>2017-08-13T09:42:08Z</time>
      </trkpt>
      <trkpt lat="45.61576" lon="2.78779">
        <ele>1400.78</ele>
        <time>2017-08-13T09:42:09Z</time>
      </trkpt>
      <trkpt lat="45.61576" lon="2.78777">
        <ele>1400.78</ele>
        <time>2017-08-13T09:42:10Z</time>
      </trkpt>
      <trkpt lat="45.61576" lon="2.78774">
        <ele>1401.26</ele>
        <time>2017-08-13T09:42:11Z</time>
      </trkpt>
      <trkpt lat="45.61576" lon="2.78772">
        <ele>1401.26</ele>
        <time>2017-08-13T09:42:12Z</time>
      </trkpt>
      <trkpt lat="45.61569" lon="2.78736">
        <ele>1404.14</ele>
        <time>2017-08-13T09:42:30Z</time>
      </trkpt>
      <trkpt lat="45.61563" lon="2.78705">
        <ele>1406.07</ele>
        <time>2017-08-13T09:42:44Z</time>
      </trkpt>
      <trkpt lat="45.61551" lon="2.78674">
        <ele>1408.47</ele>
        <time>2017-08-13T09:43:00Z</time>
      </trkpt>
      <trkpt lat="45.61529" lon="2.78637">
        <ele>1409.91</ele>
        <time>2017-08-13T09:43:17Z</time>
      </trkpt>
      <trkpt lat="45.61519" lon="2.78628">
        <ele>1411.35</ele>
        <time>2017-08-13T09:43:30Z</time>
      </trkpt>
      <trkpt lat="45.61517" lon="2.78627">
        <ele>1411.35</ele>
        <time>2017-08-13T09:44:02Z</time>
      </trkpt>
      <trkpt lat="45.61516" lon="2.78626">
        <ele>1411.35</ele>
        <time>2017-08-13T09:44:03Z</time>
      </trkpt>
      <trkpt lat="45.61475" lon="2.78599">
        <ele>1411.35</ele>
        <time>2017-08-13T09:44:18Z</time>
      </trkpt>
      <trkpt lat="45.61452" lon="2.78587">
        <ele>1412.79</ele>
        <time>2017-08-13T09:44:29Z</time>
      </trkpt>
      <trkpt lat="45.61428" lon="2.78579">
        <ele>1414.24</ele>
        <time>2017-08-13T09:44:45Z</time>
      </trkpt>
      <trkpt lat="45.61411" lon="2.78569">
        <ele>1415.68</ele>
        <time>2017-08-13T09:44:57Z</time>
      </trkpt>
      <trkpt lat="45.61392" lon="2.78559">
        <ele>1416.64</ele>
        <time>2017-08-13T09:45:10Z</time>
      </trkpt>
      <trkpt lat="45.61356" lon="2.78528">
        <ele>1417.12</ele>
        <time>2017-08-13T09:45:26Z</time>
      </trkpt>
      <trkpt lat="45.6132" lon="2.78496">
        <ele>1417.12</ele>
        <time>2017-08-13T09:45:39Z</time>
      </trkpt>
      <trkpt lat="45.61298" lon="2.78465">
        <ele>1418.08</ele>
        <time>2017-08-13T09:45:50Z</time>
      </trkpt>
      <trkpt lat="45.61279" lon="2.78439">
        <ele>1419.04</ele>
        <time>2017-08-13T09:46:03Z</time>
      </trkpt>
      <trkpt lat="45.61272" lon="2.78428">
        <ele>1419.04</ele>
        <time>2017-08-13T09:46:15Z</time>
      </trkpt>
      <trkpt lat="45.61271" lon="2.78426">
        <ele>1419.04</ele>
        <time>2017-08-13T09:46:46Z</time>
      </trkpt>
      <trkpt lat="45.61253" lon="2.78398">
        <ele>1420</ele>
        <time>2017-08-13T09:46:59Z</time>
      </trkpt>
      <trkpt lat="45.6123" lon="2.78354">
        <ele>1422.41</ele>
        <time>2017-08-13T09:47:16Z</time>
      </trkpt>
      <trkpt lat="45.61221" lon="2.78324">
        <ele>1424.81</ele>
        <time>2017-08-13T09:47:30Z</time>
      </trkpt>
      <trkpt lat="45.61209" lon="2.78292">
        <ele>1427.21</ele>
        <time>2017-08-13T09:47:46Z</time>
      </trkpt>
      <trkpt lat="45.61199" lon="2.78261">
        <ele>1429.62</ele>
        <time>2017-08-13T09:48:01Z</time>
      </trkpt>
      <trkpt lat="45.61189" lon="2.7823">
        <ele>1431.54</ele>
        <time>2017-08-13T09:48:17Z</time>
      </trkpt>
      <trkpt lat="45.61179" lon="2.78197">
        <ele>1433.94</ele>
        <time>2017-08-13T09:48:33Z</time>
      </trkpt>
      <trkpt lat="45.61178" lon="2.78188">
        <ele>1434.42</ele>
        <time>2017-08-13T09:48:36Z</time>
      </trkpt>
      <trkpt lat="45.61178" lon="2.78186">
        <ele>1434.42</ele>
        <time>2017-08-13T09:48:37Z</time>
      </trkpt>
      <trkpt lat="45.61177" lon="2.78183">
        <ele>1434.91</ele>
        <time>2017-08-13T09:48:38Z</time>
      </trkpt>
      <trkpt lat="45.61176" lon="2.78181">
        <ele>1434.91</ele>
        <time>2017-08-13T09:48:39Z</time>
      </trkpt>
      <trkpt lat="45.61176" lon="2.78178">
        <ele>1434.91</ele>
        <time>2017-08-13T09:48:40Z</time>
      </trkpt>
      <trkpt lat="45.61167" lon="2.78144">
        <ele>1437.31</ele>
        <time>2017-08-13T09:48:56Z</time>
      </trkpt>
      <trkpt lat="45.61159" lon="2.78105">
        <ele>1438.27</ele>
        <time>2017-08-13T09:49:11Z</time>
      </trkpt>
      <trkpt lat="45.61157" lon="2.7808">
        <ele>1438.75</ele>
        <time>2017-08-13T09:49:20Z</time>
      </trkpt>
      <trkpt lat="45.61157" lon="2.78077">
        <ele>1438.75</ele>
        <time>2017-08-13T09:49:21Z</time>
      </trkpt>
      <trkpt lat="45.61158" lon="2.78074">
        <ele>1438.75</ele>
        <time>2017-08-13T09:49:22Z</time>
      </trkpt>
      <trkpt lat="45.61159" lon="2.78071">
        <ele>1438.75</ele>
        <time>2017-08-13T09:49:23Z</time>
      </trkpt>
      <trkpt lat="45.61159" lon="2.78069">
        <ele>1438.75</ele>
        <time>2017-08-13T09:49:24Z</time>
      </trkpt>
      <trkpt lat="45.61171" lon="2.78027">
        <ele>1440.67</ele>
        <time>2017-08-13T09:49:39Z</time>
      </trkpt>
      <trkpt lat="45.61183" lon="2.77982">
        <ele>1442.11</ele>
        <time>2017-08-13T09:49:55Z</time>
      </trkpt>
      <trkpt lat="45.61195" lon="2.77942">
        <ele>1442.6</ele>
        <time>2017-08-13T09:50:08Z</time>
      </trkpt>
      <trkpt lat="45.61196" lon="2.7794">
        <ele>1443.08</ele>
        <time>2017-08-13T09:50:09Z</time>
      </trkpt>
      <trkpt lat="45.61196" lon="2.77938">
        <ele>1443.08</ele>
        <time>2017-08-13T09:50:10Z</time>
      </trkpt>
      <trkpt lat="45.61196" lon="2.77937">
        <ele>1443.08</ele>
        <time>2017-08-13T09:50:11Z</time>
      </trkpt>
      <trkpt lat="45.61197" lon="2.77936">
        <ele>1443.08</ele>
        <time>2017-08-13T09:50:24Z</time>
      </trkpt>
      <trkpt lat="45.61197" lon="2.77936">
        <ele>1443.08</ele>
        <time>2017-08-13T09:50:55Z</time>
      </trkpt>
      <trkpt lat="45.61196" lon="2.77936">
        <ele>1443.08</ele>
        <time>2017-08-13T09:51:24Z</time>
      </trkpt>
      <trkpt lat="45.61195" lon="2.77936">
        <ele>1443.08</ele>
        <time>2017-08-13T09:51:45Z</time>
      </trkpt>
      <trkpt lat="45.612" lon="2.77932">
        <ele>1443.08</ele>
        <time>2017-08-13T09:52:15Z</time>
      </trkpt>
      <trkpt lat="45.6121" lon="2.77905">
        <ele>1444.52</ele>
        <time>2017-08-13T09:52:25Z</time>
      </trkpt>
      <trkpt lat="45.61211" lon="2.77903">
        <ele>1444.04</ele>
        <time>2017-08-13T09:52:26Z</time>
      </trkpt>
      <trkpt lat="45.61212" lon="2.77901">
        <ele>1444.52</ele>
        <time>2017-08-13T09:52:27Z</time>
      </trkpt>
      <trkpt lat="45.61223" lon="2.77871">
        <ele>1445.96</ele>
        <time>2017-08-13T09:52:42Z</time>
      </trkpt>
      <trkpt lat="45.61236" lon="2.77842">
        <ele>1447.4</ele>
        <time>2017-08-13T09:52:56Z</time>
      </trkpt>
      <trkpt lat="45.61255" lon="2.77801">
        <ele>1447.88</ele>
        <time>2017-08-13T09:53:11Z</time>
      </trkpt>
      <trkpt lat="45.61281" lon="2.77741">
        <ele>1447.88</ele>
        <time>2017-08-13T09:53:26Z</time>
      </trkpt>
      <trkpt lat="45.61317" lon="2.77713">
        <ele>1449.32</ele>
        <time>2017-08-13T09:53:39Z</time>
      </trkpt>
      <trkpt lat="45.61322" lon="2.77712">
        <ele>1449.32</ele>
        <time>2017-08-13T09:53:40Z</time>
      </trkpt>
      <trkpt lat="45.61333" lon="2.77707">
        <ele>1447.88</ele>
        <time>2017-08-13T09:53:43Z</time>
      </trkpt>
      <trkpt lat="45.61354" lon="2.77697">
        <ele>1444.52</ele>
        <time>2017-08-13T09:53:51Z</time>
      </trkpt>
      <trkpt lat="45.61357" lon="2.77695">
        <ele>1444.52</ele>
        <time>2017-08-13T09:53:52Z</time>
      </trkpt>
      <trkpt lat="45.61364" lon="2.77691">
        <ele>1443.08</ele>
        <time>2017-08-13T09:53:54Z</time>
      </trkpt>
      <trkpt lat="45.61374" lon="2.77689">
        <ele>1441.63</ele>
        <time>2017-08-13T09:53:56Z</time>
      </trkpt>
      <trkpt lat="45.61379" lon="2.77687">
        <ele>1441.15</ele>
        <time>2017-08-13T09:53:57Z</time>
      </trkpt>
      <trkpt lat="45.6139" lon="2.77682">
        <ele>1439.71</ele>
        <time>2017-08-13T09:53:59Z</time>
      </trkpt>
      <trkpt lat="45.61396" lon="2.7768">
        <ele>1438.75</ele>
        <time>2017-08-13T09:54:00Z</time>
      </trkpt>
      <trkpt lat="45.61417" lon="2.77669">
        <ele>1435.39</ele>
        <time>2017-08-13T09:54:05Z</time>
      </trkpt>
      <trkpt lat="45.61425" lon="2.77666">
        <ele>1433.94</ele>
        <time>2017-08-13T09:54:07Z</time>
      </trkpt>
      <trkpt lat="45.61438" lon="2.77658">
        <ele>1431.54</ele>
        <time>2017-08-13T09:54:10Z</time>
      </trkpt>
      <trkpt lat="45.61456" lon="2.77644">
        <ele>1428.18</ele>
        <time>2017-08-13T09:54:14Z</time>
      </trkpt>
      <trkpt lat="45.61473" lon="2.77632">
        <ele>1423.85</ele>
        <time>2017-08-13T09:54:17Z</time>
      </trkpt>
      <trkpt lat="45.6149" lon="2.77621">
        <ele>1420.49</ele>
        <time>2017-08-13T09:54:20Z</time>
      </trkpt>
      <trkpt lat="45.61497" lon="2.77616">
        <ele>1420</ele>
        <time>2017-08-13T09:54:22Z</time>
      </trkpt>
      <trkpt lat="45.61499" lon="2.77611">
        <ele>1419.04</ele>
        <time>2017-08-13T09:54:23Z</time>
      </trkpt>
      <trkpt lat="45.61499" lon="2.77608">
        <ele>1419.04</ele>
        <time>2017-08-13T09:54:24Z</time>
      </trkpt>
      <trkpt lat="45.61499" lon="2.77603">
        <ele>1418.56</ele>
        <time>2017-08-13T09:54:25Z</time>
      </trkpt>
      <trkpt lat="45.61497" lon="2.77597">
        <ele>1418.08</ele>
        <time>2017-08-13T09:54:26Z</time>
      </trkpt>
      <trkpt lat="45.61495" lon="2.77591">
        <ele>1417.12</ele>
        <time>2017-08-13T09:54:27Z</time>
      </trkpt>
      <trkpt lat="45.61493" lon="2.77583">
        <ele>1416.16</ele>
        <time>2017-08-13T09:54:28Z</time>
      </trkpt>
      <trkpt lat="45.61485" lon="2.77552">
        <ele>1412.31</ele>
        <time>2017-08-13T09:54:31Z</time>
      </trkpt>
      <trkpt lat="45.61474" lon="2.77509">
        <ele>1408.95</ele>
        <time>2017-08-13T09:54:35Z</time>
      </trkpt>
      <trkpt lat="45.61472" lon="2.77501">
        <ele>1408.95</ele>
        <time>2017-08-13T09:54:36Z</time>
      </trkpt>
      <trkpt lat="45.61465" lon="2.77474">
        <ele>1406.07</ele>
        <time>2017-08-13T09:54:40Z</time>
      </trkpt>
      <trkpt lat="45.61465" lon="2.7744">
        <ele>1402.22</ele>
        <time>2017-08-13T09:54:46Z</time>
      </trkpt>
      <trkpt lat="45.61472" lon="2.77423">
        <ele>1399.34</ele>
        <time>2017-08-13T09:54:49Z</time>
      </trkpt>
      <trkpt lat="45.6148" lon="2.77402">
        <ele>1395.97</ele>
        <time>2017-08-13T09:54:52Z</time>
      </trkpt>
      <trkpt lat="45.61486" lon="2.77386">
        <ele>1393.57</ele>
        <time>2017-08-13T09:54:54Z</time>
      </trkpt>
      <trkpt lat="45.61498" lon="2.77358">
        <ele>1390.2</ele>
        <time>2017-08-13T09:54:58Z</time>
      </trkpt>
      <trkpt lat="45.61509" lon="2.77331">
        <ele>1387.32</ele>
        <time>2017-08-13T09:55:01Z</time>
      </trkpt>
      <trkpt lat="45.61522" lon="2.77298">
        <ele>1383.47</ele>
        <time>2017-08-13T09:55:05Z</time>
      </trkpt>
      <trkpt lat="45.61535" lon="2.77264">
        <ele>1379.63</ele>
        <time>2017-08-13T09:55:10Z</time>
      </trkpt>
      <trkpt lat="45.61546" lon="2.77236">
        <ele>1376.75</ele>
        <time>2017-08-13T09:55:14Z</time>
      </trkpt>
      <trkpt lat="45.61549" lon="2.7723">
        <ele>1375.78</ele>
        <time>2017-08-13T09:55:15Z</time>
      </trkpt>
      <trkpt lat="45.61561" lon="2.77199">
        <ele>1372.42</ele>
        <time>2017-08-13T09:55:20Z</time>
      </trkpt>
      <trkpt lat="45.61567" lon="2.77182">
        <ele>1370.98</ele>
        <time>2017-08-13T09:55:23Z</time>
      </trkpt>
      <trkpt lat="45.61582" lon="2.77143">
        <ele>1367.61</ele>
        <time>2017-08-13T09:55:33Z</time>
      </trkpt>
      <trkpt lat="45.61598" lon="2.77105">
        <ele>1364.25</ele>
        <time>2017-08-13T09:55:40Z</time>
      </trkpt>
      <trkpt lat="45.61615" lon="2.77086">
        <ele>1360.88</ele>
        <time>2017-08-13T09:55:46Z</time>
      </trkpt>
      <trkpt lat="45.6163" lon="2.77069">
        <ele>1357.04</ele>
        <time>2017-08-13T09:55:50Z</time>
      </trkpt>
      <trkpt lat="45.61648" lon="2.77051">
        <ele>1353.67</ele>
        <time>2017-08-13T09:55:54Z</time>
      </trkpt>
      <trkpt lat="45.61661" lon="2.77036">
        <ele>1349.83</ele>
        <time>2017-08-13T09:55:57Z</time>
      </trkpt>
      <trkpt lat="45.61678" lon="2.77018">
        <ele>1346.46</ele>
        <time>2017-08-13T09:56:01Z</time>
      </trkpt>
      <trkpt lat="45.61699" lon="2.76995">
        <ele>1342.62</ele>
        <time>2017-08-13T09:56:06Z</time>
      </trkpt>
      <trkpt lat="45.61717" lon="2.76974">
        <ele>1339.25</ele>
        <time>2017-08-13T09:56:10Z</time>
      </trkpt>
      <trkpt lat="45.61738" lon="2.76949">
        <ele>1335.89</ele>
        <time>2017-08-13T09:56:15Z</time>
      </trkpt>
      <trkpt lat="45.61739" lon="2.76948">
        <ele>1335.89</ele>
        <time>2017-08-13T09:56:16Z</time>
      </trkpt>
      <trkpt lat="45.61741" lon="2.76948">
        <ele>1335.41</ele>
        <time>2017-08-13T09:56:17Z</time>
      </trkpt>
      <trkpt lat="45.61742" lon="2.76949">
        <ele>1335.41</ele>
        <time>2017-08-13T09:56:18Z</time>
      </trkpt>
      <trkpt lat="45.61743" lon="2.76949">
        <ele>1334.93</ele>
        <time>2017-08-13T09:56:19Z</time>
      </trkpt>
      <trkpt lat="45.61744" lon="2.7695">
        <ele>1334.93</ele>
        <time>2017-08-13T09:56:20Z</time>
      </trkpt>
      <trkpt lat="45.61746" lon="2.76948">
        <ele>1334.93</ele>
        <time>2017-08-13T09:56:21Z</time>
      </trkpt>
      <trkpt lat="45.61747" lon="2.76946">
        <ele>1334.93</ele>
        <time>2017-08-13T09:56:22Z</time>
      </trkpt>
      <trkpt lat="45.61749" lon="2.76943">
        <ele>1334.93</ele>
        <time>2017-08-13T09:56:23Z</time>
      </trkpt>
      <trkpt lat="45.6175" lon="2.7694">
        <ele>1334.45</ele>
        <time>2017-08-13T09:56:24Z</time>
      </trkpt>
      <trkpt lat="45.61759" lon="2.76895">
        <ele>1332.04</ele>
        <time>2017-08-13T09:56:33Z</time>
      </trkpt>
      <trkpt lat="45.61761" lon="2.76865">
        <ele>1330.6</ele>
        <time>2017-08-13T09:56:40Z</time>
      </trkpt>
      <trkpt lat="45.61763" lon="2.76862">
        <ele>1329.64</ele>
        <time>2017-08-13T09:56:41Z</time>
      </trkpt>
      <trkpt lat="45.61765" lon="2.7686">
        <ele>1329.64</ele>
        <time>2017-08-13T09:56:42Z</time>
      </trkpt>
      <trkpt lat="45.61768" lon="2.76856">
        <ele>1329.64</ele>
        <time>2017-08-13T09:56:43Z</time>
      </trkpt>
      <trkpt lat="45.6177" lon="2.76852">
        <ele>1329.16</ele>
        <time>2017-08-13T09:56:44Z</time>
      </trkpt>
      <trkpt lat="45.61772" lon="2.76846">
        <ele>1329.16</ele>
        <time>2017-08-13T09:56:45Z</time>
      </trkpt>
      <trkpt lat="45.61773" lon="2.7684">
        <ele>1328.2</ele>
        <time>2017-08-13T09:56:46Z</time>
      </trkpt>
      <trkpt lat="45.61773" lon="2.76833">
        <ele>1328.2</ele>
        <time>2017-08-13T09:56:47Z</time>
      </trkpt>
      <trkpt lat="45.61772" lon="2.76827">
        <ele>1327.72</ele>
        <time>2017-08-13T09:56:48Z</time>
      </trkpt>
      <trkpt lat="45.61771" lon="2.76821">
        <ele>1327.72</ele>
        <time>2017-08-13T09:56:49Z</time>
      </trkpt>
      <trkpt lat="45.61769" lon="2.76815">
        <ele>1327.72</ele>
        <time>2017-08-13T09:56:50Z</time>
      </trkpt>
      <trkpt lat="45.61767" lon="2.76808">
        <ele>1326.76</ele>
        <time>2017-08-13T09:56:51Z</time>
      </trkpt>
      <trkpt lat="45.61757" lon="2.76763">
        <ele>1324.83</ele>
        <time>2017-08-13T09:56:57Z</time>
      </trkpt>
      <trkpt lat="45.61754" lon="2.76757">
        <ele>1324.83</ele>
        <time>2017-08-13T09:56:58Z</time>
      </trkpt>
      <trkpt lat="45.6175" lon="2.76752">
        <ele>1324.83</ele>
        <time>2017-08-13T09:56:59Z</time>
      </trkpt>
      <trkpt lat="45.61746" lon="2.76748">
        <ele>1324.83</ele>
        <time>2017-08-13T09:57:00Z</time>
      </trkpt>
      <trkpt lat="45.61743" lon="2.76743">
        <ele>1324.83</ele>
        <time>2017-08-13T09:57:01Z</time>
      </trkpt>
      <trkpt lat="45.61723" lon="2.76716">
        <ele>1326.28</ele>
        <time>2017-08-13T09:57:08Z</time>
      </trkpt>
      <trkpt lat="45.61683" lon="2.7666">
        <ele>1328.2</ele>
        <time>2017-08-13T09:57:25Z</time>
      </trkpt>
      <trkpt lat="45.61646" lon="2.76611">
        <ele>1330.12</ele>
        <time>2017-08-13T09:57:41Z</time>
      </trkpt>
      <trkpt lat="45.61643" lon="2.76607">
        <ele>1330.12</ele>
        <time>2017-08-13T09:57:42Z</time>
      </trkpt>
      <trkpt lat="45.61622" lon="2.76579">
        <ele>1331.08</ele>
        <time>2017-08-13T09:57:50Z</time>
      </trkpt>
      <trkpt lat="45.61608" lon="2.76561">
        <ele>1331.56</ele>
        <time>2017-08-13T09:57:54Z</time>
      </trkpt>
      <trkpt lat="45.61605" lon="2.76557">
        <ele>1331.56</ele>
        <time>2017-08-13T09:57:55Z</time>
      </trkpt>
      <trkpt lat="45.61545" lon="2.76477">
        <ele>1330.12</ele>
        <time>2017-08-13T09:58:11Z</time>
      </trkpt>
      <trkpt lat="45.61486" lon="2.76373">
        <ele>1327.72</ele>
        <time>2017-08-13T09:58:25Z</time>
      </trkpt>
      <trkpt lat="45.6142" lon="2.76252">
        <ele>1327.72</ele>
        <time>2017-08-13T09:58:43Z</time>
      </trkpt>
      <trkpt lat="45.61355" lon="2.76136">
        <ele>1325.31</ele>
        <time>2017-08-13T09:58:58Z</time>
      </trkpt>
      <trkpt lat="45.61305" lon="2.76045">
        <ele>1321.95</ele>
        <time>2017-08-13T09:59:07Z</time>
      </trkpt>
      <trkpt lat="45.61233" lon="2.7595">
        <ele>1319.07</ele>
        <time>2017-08-13T09:59:18Z</time>
      </trkpt>
      <trkpt lat="45.61136" lon="2.75882">
        <ele>1315.7</ele>
        <time>2017-08-13T09:59:30Z</time>
      </trkpt>
      <trkpt lat="45.61028" lon="2.75815">
        <ele>1314.26</ele>
        <time>2017-08-13T09:59:44Z</time>
      </trkpt>
      <trkpt lat="45.60912" lon="2.7574">
        <ele>1314.26</ele>
        <time>2017-08-13T10:00:01Z</time>
      </trkpt>
      <trkpt lat="45.60852" lon="2.75701">
        <ele>1315.7</ele>
        <time>2017-08-13T10:00:11Z</time>
      </trkpt>
      <trkpt lat="45.608" lon="2.75679">
        <ele>1318.59</ele>
        <time>2017-08-13T10:00:24Z</time>
      </trkpt>
      <trkpt lat="45.60764" lon="2.75692">
        <ele>1321.47</ele>
        <time>2017-08-13T10:00:38Z</time>
      </trkpt>
      <trkpt lat="45.60752" lon="2.75705">
        <ele>1321.95</ele>
        <time>2017-08-13T10:00:46Z</time>
      </trkpt>
      <trkpt lat="45.60751" lon="2.75705">
        <ele>1321.95</ele>
        <time>2017-08-13T10:00:47Z</time>
      </trkpt>
      <trkpt lat="45.60748" lon="2.75702">
        <ele>1322.91</ele>
        <time>2017-08-13T10:00:58Z</time>
      </trkpt>
      <trkpt lat="45.60749" lon="2.75702">
        <ele>1322.91</ele>
        <time>2017-08-13T10:01:30Z</time>
      </trkpt>
      <trkpt lat="45.60749" lon="2.75702">
        <ele>1322.91</ele>
        <time>2017-08-13T10:01:48Z</time>
      </trkpt>
      <trkpt lat="45.60748" lon="2.75705">
        <ele>1322.91</ele>
        <time>2017-08-13T10:01:58Z</time>
      </trkpt>
      <trkpt lat="45.60748" lon="2.75712">
        <ele>1322.91</ele>
        <time>2017-08-13T10:02:01Z</time>
      </trkpt>
      <trkpt lat="45.60747" lon="2.75714">
        <ele>1322.91</ele>
        <time>2017-08-13T10:02:02Z</time>
      </trkpt>
      <trkpt lat="45.60746" lon="2.75717">
        <ele>1322.91</ele>
        <time>2017-08-13T10:02:03Z</time>
      </trkpt>
      <trkpt lat="45.60734" lon="2.75763">
        <ele>1324.35</ele>
        <time>2017-08-13T10:02:20Z</time>
      </trkpt>
      <trkpt lat="45.60734" lon="2.75815">
        <ele>1324.83</ele>
        <time>2017-08-13T10:02:36Z</time>
      </trkpt>
      <trkpt lat="45.60732" lon="2.75841">
        <ele>1324.83</ele>
        <time>2017-08-13T10:02:41Z</time>
      </trkpt>
      <trkpt lat="45.60731" lon="2.75886">
        <ele>1321.95</ele>
        <time>2017-08-13T10:02:46Z</time>
      </trkpt>
      <trkpt lat="45.60729" lon="2.75923">
        <ele>1318.59</ele>
        <time>2017-08-13T10:02:49Z</time>
      </trkpt>
      <trkpt lat="45.60727" lon="2.75964">
        <ele>1315.22</ele>
        <time>2017-08-13T10:02:52Z</time>
      </trkpt>
      <trkpt lat="45.60723" lon="2.76012">
        <ele>1311.38</ele>
        <time>2017-08-13T10:02:55Z</time>
      </trkpt>
      <trkpt lat="45.60716" lon="2.76064">
        <ele>1307.05</ele>
        <time>2017-08-13T10:02:58Z</time>
      </trkpt>
      <trkpt lat="45.6071" lon="2.761">
        <ele>1303.69</ele>
        <time>2017-08-13T10:03:00Z</time>
      </trkpt>
      <trkpt lat="45.60706" lon="2.76115">
        <ele>1303.69</ele>
        <time>2017-08-13T10:03:01Z</time>
      </trkpt>
      <trkpt lat="45.60684" lon="2.76177">
        <ele>1299.84</ele>
        <time>2017-08-13T10:03:06Z</time>
      </trkpt>
      <trkpt lat="45.60672" lon="2.76211">
        <ele>1296.96</ele>
        <time>2017-08-13T10:03:09Z</time>
      </trkpt>
      <trkpt lat="45.60664" lon="2.76253">
        <ele>1292.63</ele>
        <time>2017-08-13T10:03:12Z</time>
      </trkpt>
      <trkpt lat="45.60658" lon="2.76285">
        <ele>1289.27</ele>
        <time>2017-08-13T10:03:14Z</time>
      </trkpt>
      <trkpt lat="45.60647" lon="2.76337">
        <ele>1284.94</ele>
        <time>2017-08-13T10:03:17Z</time>
      </trkpt>
      <trkpt lat="45.60638" lon="2.76373">
        <ele>1281.57</ele>
        <time>2017-08-13T10:03:19Z</time>
      </trkpt>
      <trkpt lat="45.60625" lon="2.76423">
        <ele>1277.73</ele>
        <time>2017-08-13T10:03:22Z</time>
      </trkpt>
      <trkpt lat="45.60618" lon="2.76439">
        <ele>1276.29</ele>
        <time>2017-08-13T10:03:23Z</time>
      </trkpt>
      <trkpt lat="45.60611" lon="2.76451">
        <ele>1275.33</ele>
        <time>2017-08-13T10:03:24Z</time>
      </trkpt>
      <trkpt lat="45.60593" lon="2.76477">
        <ele>1271.96</ele>
        <time>2017-08-13T10:03:26Z</time>
      </trkpt>
      <trkpt lat="45.60568" lon="2.76511">
        <ele>1268.12</ele>
        <time>2017-08-13T10:03:29Z</time>
      </trkpt>
      <trkpt lat="45.6056" lon="2.76517">
        <ele>1267.64</ele>
        <time>2017-08-13T10:03:30Z</time>
      </trkpt>
      <trkpt lat="45.60551" lon="2.76521">
        <ele>1266.19</ele>
        <time>2017-08-13T10:03:31Z</time>
      </trkpt>
      <trkpt lat="45.60541" lon="2.76523">
        <ele>1265.23</ele>
        <time>2017-08-13T10:03:32Z</time>
      </trkpt>
      <trkpt lat="45.6053" lon="2.76523">
        <ele>1263.79</ele>
        <time>2017-08-13T10:03:33Z</time>
      </trkpt>
      <trkpt lat="45.60521" lon="2.76521">
        <ele>1263.31</ele>
        <time>2017-08-13T10:03:34Z</time>
      </trkpt>
      <trkpt lat="45.60509" lon="2.76516">
        <ele>1261.39</ele>
        <time>2017-08-13T10:03:35Z</time>
      </trkpt>
      <trkpt lat="45.60477" lon="2.76503">
        <ele>1258.02</ele>
        <time>2017-08-13T10:03:38Z</time>
      </trkpt>
      <trkpt lat="45.60468" lon="2.76498">
        <ele>1257.54</ele>
        <time>2017-08-13T10:03:39Z</time>
      </trkpt>
      <trkpt lat="45.60462" lon="2.76492">
        <ele>1256.58</ele>
        <time>2017-08-13T10:03:40Z</time>
      </trkpt>
      <trkpt lat="45.60457" lon="2.76482">
        <ele>1255.62</ele>
        <time>2017-08-13T10:03:41Z</time>
      </trkpt>
      <trkpt lat="45.60454" lon="2.76472">
        <ele>1255.14</ele>
        <time>2017-08-13T10:03:42Z</time>
      </trkpt>
      <trkpt lat="45.60455" lon="2.7646">
        <ele>1254.18</ele>
        <time>2017-08-13T10:03:43Z</time>
      </trkpt>
      <trkpt lat="45.60458" lon="2.76448">
        <ele>1252.74</ele>
        <time>2017-08-13T10:03:44Z</time>
      </trkpt>
      <trkpt lat="45.60463" lon="2.76437">
        <ele>1252.25</ele>
        <time>2017-08-13T10:03:45Z</time>
      </trkpt>
      <trkpt lat="45.6047" lon="2.76429">
        <ele>1252.25</ele>
        <time>2017-08-13T10:03:46Z</time>
      </trkpt>
      <trkpt lat="45.60478" lon="2.76421">
        <ele>1251.29</ele>
        <time>2017-08-13T10:03:47Z</time>
      </trkpt>
      <trkpt lat="45.60486" lon="2.76416">
        <ele>1250.33</ele>
        <time>2017-08-13T10:03:48Z</time>
      </trkpt>
      <trkpt lat="45.60496" lon="2.76412">
        <ele>1249.85</ele>
        <time>2017-08-13T10:03:49Z</time>
      </trkpt>
      <trkpt lat="45.60505" lon="2.76408">
        <ele>1248.89</ele>
        <time>2017-08-13T10:03:50Z</time>
      </trkpt>
      <trkpt lat="45.60513" lon="2.76403">
        <ele>1248.41</ele>
        <time>2017-08-13T10:03:51Z</time>
      </trkpt>
      <trkpt lat="45.6052" lon="2.76396">
        <ele>1248.41</ele>
        <time>2017-08-13T10:03:52Z</time>
      </trkpt>
      <trkpt lat="45.60523" lon="2.76388">
        <ele>1248.41</ele>
        <time>2017-08-13T10:03:53Z</time>
      </trkpt>
      <trkpt lat="45.60525" lon="2.7638">
        <ele>1248.41</ele>
        <time>2017-08-13T10:03:54Z</time>
      </trkpt>
      <trkpt lat="45.60524" lon="2.76371">
        <ele>1247.93</ele>
        <time>2017-08-13T10:03:55Z</time>
      </trkpt>
      <trkpt lat="45.60521" lon="2.76362">
        <ele>1247.45</ele>
        <time>2017-08-13T10:03:56Z</time>
      </trkpt>
      <trkpt lat="45.60517" lon="2.76356">
        <ele>1246.97</ele>
        <time>2017-08-13T10:03:57Z</time>
      </trkpt>
      <trkpt lat="45.60512" lon="2.76352">
        <ele>1246.97</ele>
        <time>2017-08-13T10:03:58Z</time>
      </trkpt>
      <trkpt lat="45.60509" lon="2.76349">
        <ele>1246.49</ele>
        <time>2017-08-13T10:03:59Z</time>
      </trkpt>
      <trkpt lat="45.60506" lon="2.76348">
        <ele>1246.49</ele>
        <time>2017-08-13T10:04:08Z</time>
      </trkpt>
      <trkpt lat="45.60505" lon="2.7635">
        <ele>1246.49</ele>
        <time>2017-08-13T10:04:29Z</time>
      </trkpt>
      <trkpt lat="45.60504" lon="2.76352">
        <ele>1246.49</ele>
        <time>2017-08-13T10:04:30Z</time>
      </trkpt>
      <trkpt lat="45.60505" lon="2.76355">
        <ele>1246.49</ele>
        <time>2017-08-13T10:04:31Z</time>
      </trkpt>
      <trkpt lat="45.60507" lon="2.76358">
        <ele>1246.01</ele>
        <time>2017-08-13T10:04:32Z</time>
      </trkpt>
      <trkpt lat="45.60509" lon="2.76359">
        <ele>1246.01</ele>
        <time>2017-08-13T10:04:33Z</time>
      </trkpt>
      <trkpt lat="45.60511" lon="2.76359">
        <ele>1246.01</ele>
        <time>2017-08-13T10:04:34Z</time>
      </trkpt>
      <trkpt lat="45.60513" lon="2.76359">
        <ele>1246.01</ele>
        <time>2017-08-13T10:04:35Z</time>
      </trkpt>
      <trkpt lat="45.60516" lon="2.76359">
        <ele>1246.01</ele>
        <time>2017-08-13T10:04:36Z</time>
      </trkpt>
      <trkpt lat="45.6052" lon="2.7636">
        <ele>1246.01</ele>
        <time>2017-08-13T10:04:37Z</time>
      </trkpt>
      <trkpt lat="45.60523" lon="2.76361">
        <ele>1247.45</ele>
        <time>2017-08-13T10:04:38Z</time>
      </trkpt>
      <trkpt lat="45.60526" lon="2.76362">
        <ele>1247.45</ele>
        <time>2017-08-13T10:04:39Z</time>
      </trkpt>
      <trkpt lat="45.60528" lon="2.7636">
        <ele>1247.45</ele>
        <time>2017-08-13T10:04:40Z</time>
      </trkpt>
      <trkpt lat="45.6053" lon="2.76357">
        <ele>1247.45</ele>
        <time>2017-08-13T10:04:41Z</time>
      </trkpt>
      <trkpt lat="45.60531" lon="2.76352">
        <ele>1247.45</ele>
        <time>2017-08-13T10:04:42Z</time>
      </trkpt>
      <trkpt lat="45.60531" lon="2.76346">
        <ele>1247.45</ele>
        <time>2017-08-13T10:04:43Z</time>
      </trkpt>
      <trkpt lat="45.60532" lon="2.7634">
        <ele>1247.45</ele>
        <time>2017-08-13T10:04:44Z</time>
      </trkpt>
      <trkpt lat="45.60535" lon="2.76312">
        <ele>1246.01</ele>
        <time>2017-08-13T10:04:48Z</time>
      </trkpt>
      <trkpt lat="45.60536" lon="2.76288">
        <ele>1244.56</ele>
        <time>2017-08-13T10:04:51Z</time>
      </trkpt>
      <trkpt lat="45.60536" lon="2.76279">
        <ele>1244.08</ele>
        <time>2017-08-13T10:04:52Z</time>
      </trkpt>
      <trkpt lat="45.60535" lon="2.76213">
        <ele>1241.2</ele>
        <time>2017-08-13T10:04:59Z</time>
      </trkpt>
      <trkpt lat="45.60532" lon="2.76155">
        <ele>1237.83</ele>
        <time>2017-08-13T10:05:04Z</time>
      </trkpt>
      <trkpt lat="45.60534" lon="2.76104">
        <ele>1234.95</ele>
        <time>2017-08-13T10:05:09Z</time>
      </trkpt>
      <trkpt lat="45.60534" lon="2.76098">
        <ele>1234.47</ele>
        <time>2017-08-13T10:05:11Z</time>
      </trkpt>
      <trkpt lat="45.60533" lon="2.76097">
        <ele>1234.47</ele>
        <time>2017-08-13T10:05:12Z</time>
      </trkpt>
      <trkpt lat="45.60532" lon="2.76097">
        <ele>1234.47</ele>
        <time>2017-08-13T10:05:13Z</time>
      </trkpt>
      <trkpt lat="45.60531" lon="2.76098">
        <ele>1234.47</ele>
        <time>2017-08-13T10:05:14Z</time>
      </trkpt>
      <trkpt lat="45.6053" lon="2.761">
        <ele>1233.99</ele>
        <time>2017-08-13T10:05:15Z</time>
      </trkpt>
      <trkpt lat="45.60519" lon="2.76136">
        <ele>1230.62</ele>
        <time>2017-08-13T10:05:23Z</time>
      </trkpt>
      <trkpt lat="45.60517" lon="2.76143">
        <ele>1230.14</ele>
        <time>2017-08-13T10:05:24Z</time>
      </trkpt>
      <trkpt lat="45.60505" lon="2.76177">
        <ele>1226.78</ele>
        <time>2017-08-13T10:05:28Z</time>
      </trkpt>
      <trkpt lat="45.60492" lon="2.76213">
        <ele>1222.93</ele>
        <time>2017-08-13T10:05:32Z</time>
      </trkpt>
      <trkpt lat="45.60475" lon="2.76251">
        <ele>1220.05</ele>
        <time>2017-08-13T10:05:36Z</time>
      </trkpt>
      <trkpt lat="45.60469" lon="2.76257">
        <ele>1220.05</ele>
        <time>2017-08-13T10:05:37Z</time>
      </trkpt>
      <trkpt lat="45.60462" lon="2.76263">
        <ele>1219.09</ele>
        <time>2017-08-13T10:05:38Z</time>
      </trkpt>
      <trkpt lat="45.60454" lon="2.76267">
        <ele>1218.61</ele>
        <time>2017-08-13T10:05:39Z</time>
      </trkpt>
      <trkpt lat="45.60447" lon="2.7627">
        <ele>1217.65</ele>
        <time>2017-08-13T10:05:40Z</time>
      </trkpt>
      <trkpt lat="45.60439" lon="2.76274">
        <ele>1217.17</ele>
        <time>2017-08-13T10:05:41Z</time>
      </trkpt>
      <trkpt lat="45.60418" lon="2.76282">
        <ele>1215.72</ele>
        <time>2017-08-13T10:05:44Z</time>
      </trkpt>
      <trkpt lat="45.60388" lon="2.7629">
        <ele>1212.36</ele>
        <time>2017-08-13T10:05:49Z</time>
      </trkpt>
      <trkpt lat="45.60382" lon="2.76292">
        <ele>1211.88</ele>
        <time>2017-08-13T10:05:50Z</time>
      </trkpt>
      <trkpt lat="45.60379" lon="2.76293">
        <ele>1211.4</ele>
        <time>2017-08-13T10:05:51Z</time>
      </trkpt>
      <trkpt lat="45.60363" lon="2.763">
        <ele>1209</ele>
        <time>2017-08-13T10:05:56Z</time>
      </trkpt>
      <trkpt lat="45.60362" lon="2.76299">
        <ele>1208.51</ele>
        <time>2017-08-13T10:05:57Z</time>
      </trkpt>
      <trkpt lat="45.60361" lon="2.76295">
        <ele>1208.03</ele>
        <time>2017-08-13T10:05:58Z</time>
      </trkpt>
      <trkpt lat="45.60362" lon="2.76292">
        <ele>1207.55</ele>
        <time>2017-08-13T10:05:59Z</time>
      </trkpt>
      <trkpt lat="45.60364" lon="2.76288">
        <ele>1207.55</ele>
        <time>2017-08-13T10:06:00Z</time>
      </trkpt>
      <trkpt lat="45.60367" lon="2.76286">
        <ele>1207.07</ele>
        <time>2017-08-13T10:06:01Z</time>
      </trkpt>
      <trkpt lat="45.6037" lon="2.76284">
        <ele>1207.07</ele>
        <time>2017-08-13T10:06:02Z</time>
      </trkpt>
      <trkpt lat="45.60373" lon="2.76282">
        <ele>1207.07</ele>
        <time>2017-08-13T10:06:03Z</time>
      </trkpt>
      <trkpt lat="45.60376" lon="2.76279">
        <ele>1207.07</ele>
        <time>2017-08-13T10:06:04Z</time>
      </trkpt>
      <trkpt lat="45.60379" lon="2.76276">
        <ele>1206.11</ele>
        <time>2017-08-13T10:06:05Z</time>
      </trkpt>
      <trkpt lat="45.60399" lon="2.76257">
        <ele>1204.67</ele>
        <time>2017-08-13T10:06:11Z</time>
      </trkpt>
      <trkpt lat="45.60423" lon="2.76222">
        <ele>1200.82</ele>
        <time>2017-08-13T10:06:17Z</time>
      </trkpt>
      <trkpt lat="45.60427" lon="2.76214">
        <ele>1199.86</ele>
        <time>2017-08-13T10:06:18Z</time>
      </trkpt>
      <trkpt lat="45.6043" lon="2.76206">
        <ele>1199.38</ele>
        <time>2017-08-13T10:06:19Z</time>
      </trkpt>
      <trkpt lat="45.60432" lon="2.76197">
        <ele>1198.42</ele>
        <time>2017-08-13T10:06:20Z</time>
      </trkpt>
      <trkpt lat="45.60434" lon="2.76186">
        <ele>1197.94</ele>
        <time>2017-08-13T10:06:21Z</time>
      </trkpt>
      <trkpt lat="45.60435" lon="2.76176">
        <ele>1197.46</ele>
        <time>2017-08-13T10:06:22Z</time>
      </trkpt>
      <trkpt lat="45.60437" lon="2.76145">
        <ele>1195.54</ele>
        <time>2017-08-13T10:06:26Z</time>
      </trkpt>
      <trkpt lat="45.60437" lon="2.76142">
        <ele>1195.54</ele>
        <time>2017-08-13T10:06:27Z</time>
      </trkpt>
      <trkpt lat="45.60435" lon="2.7614">
        <ele>1195.54</ele>
        <time>2017-08-13T10:06:28Z</time>
      </trkpt>
      <trkpt lat="45.60433" lon="2.76141">
        <ele>1195.06</ele>
        <time>2017-08-13T10:06:29Z</time>
      </trkpt>
      <trkpt lat="45.60432" lon="2.76143">
        <ele>1195.06</ele>
        <time>2017-08-13T10:06:30Z</time>
      </trkpt>
      <trkpt lat="45.60431" lon="2.76146">
        <ele>1195.06</ele>
        <time>2017-08-13T10:06:31Z</time>
      </trkpt>
      <trkpt lat="45.6043" lon="2.76149">
        <ele>1194.58</ele>
        <time>2017-08-13T10:06:32Z</time>
      </trkpt>
      <trkpt lat="45.60429" lon="2.76153">
        <ele>1194.58</ele>
        <time>2017-08-13T10:06:33Z</time>
      </trkpt>
      <trkpt lat="45.60428" lon="2.76158">
        <ele>1194.09</ele>
        <time>2017-08-13T10:06:34Z</time>
      </trkpt>
      <trkpt lat="45.60424" lon="2.76169">
        <ele>1193.61</ele>
        <time>2017-08-13T10:06:36Z</time>
      </trkpt>
      <trkpt lat="45.60419" lon="2.76181">
        <ele>1191.69</ele>
        <time>2017-08-13T10:06:38Z</time>
      </trkpt>
      <trkpt lat="45.60414" lon="2.76187">
        <ele>1191.21</ele>
        <time>2017-08-13T10:06:39Z</time>
      </trkpt>
      <trkpt lat="45.6041" lon="2.76192">
        <ele>1191.21</ele>
        <time>2017-08-13T10:06:40Z</time>
      </trkpt>
      <trkpt lat="45.60406" lon="2.76197">
        <ele>1191.21</ele>
        <time>2017-08-13T10:06:41Z</time>
      </trkpt>
      <trkpt lat="45.604" lon="2.76201">
        <ele>1191.21</ele>
        <time>2017-08-13T10:06:42Z</time>
      </trkpt>
      <trkpt lat="45.60353" lon="2.7623">
        <ele>1189.29</ele>
        <time>2017-08-13T10:06:53Z</time>
      </trkpt>
      <trkpt lat="45.60343" lon="2.76228">
        <ele>1188.81</ele>
        <time>2017-08-13T10:06:57Z</time>
      </trkpt>
      <trkpt lat="45.60341" lon="2.76228">
        <ele>1188.81</ele>
        <time>2017-08-13T10:06:58Z</time>
      </trkpt>
      <trkpt lat="45.60338" lon="2.76229">
        <ele>1188.33</ele>
        <time>2017-08-13T10:06:59Z</time>
      </trkpt>
      <trkpt lat="45.6033" lon="2.76233">
        <ele>1187.37</ele>
        <time>2017-08-13T10:07:01Z</time>
      </trkpt>
      <trkpt lat="45.60308" lon="2.76243">
        <ele>1184.48</ele>
        <time>2017-08-13T10:07:05Z</time>
      </trkpt>
      <trkpt lat="45.60303" lon="2.76247">
        <ele>1183.52</ele>
        <time>2017-08-13T10:07:06Z</time>
      </trkpt>
      <trkpt lat="45.6029" lon="2.76262">
        <ele>1181.6</ele>
        <time>2017-08-13T10:07:09Z</time>
      </trkpt>
      <trkpt lat="45.60282" lon="2.76273">
        <ele>1181.12</ele>
        <time>2017-08-13T10:07:11Z</time>
      </trkpt>
      <trkpt lat="45.60272" lon="2.76294">
        <ele>1180.16</ele>
        <time>2017-08-13T10:07:14Z</time>
      </trkpt>
      <trkpt lat="45.60267" lon="2.76306">
        <ele>1180.16</ele>
        <time>2017-08-13T10:07:16Z</time>
      </trkpt>
      <trkpt lat="45.60243" lon="2.76377">
        <ele>1180.64</ele>
        <time>2017-08-13T10:07:29Z</time>
      </trkpt>
      <trkpt lat="45.60228" lon="2.76433">
        <ele>1181.6</ele>
        <time>2017-08-13T10:07:41Z</time>
      </trkpt>
      <trkpt lat="45.60218" lon="2.76482">
        <ele>1183.04</ele>
        <time>2017-08-13T10:07:55Z</time>
      </trkpt>
      <trkpt lat="45.60208" lon="2.76512">
        <ele>1184</ele>
        <time>2017-08-13T10:08:06Z</time>
      </trkpt>
      <trkpt lat="45.60201" lon="2.76555">
        <ele>1184.96</ele>
        <time>2017-08-13T10:08:20Z</time>
      </trkpt>
      <trkpt lat="45.60202" lon="2.76598">
        <ele>1185.92</ele>
        <time>2017-08-13T10:08:34Z</time>
      </trkpt>
      <trkpt lat="45.60215" lon="2.76635">
        <ele>1184.48</ele>
        <time>2017-08-13T10:08:42Z</time>
      </trkpt>
      <trkpt lat="45.60223" lon="2.76646">
        <ele>1182.08</ele>
        <time>2017-08-13T10:08:44Z</time>
      </trkpt>
      <trkpt lat="45.60228" lon="2.76652">
        <ele>1182.08</ele>
        <time>2017-08-13T10:08:45Z</time>
      </trkpt>
      <trkpt lat="45.60251" lon="2.76668">
        <ele>1180.64</ele>
        <time>2017-08-13T10:08:49Z</time>
      </trkpt>
      <trkpt lat="45.60281" lon="2.7668">
        <ele>1177.75</ele>
        <time>2017-08-13T10:08:54Z</time>
      </trkpt>
      <trkpt lat="45.60287" lon="2.7668">
        <ele>1177.75</ele>
        <time>2017-08-13T10:08:55Z</time>
      </trkpt>
      <trkpt lat="45.60292" lon="2.76679">
        <ele>1177.27</ele>
        <time>2017-08-13T10:08:56Z</time>
      </trkpt>
      <trkpt lat="45.60347" lon="2.76683">
        <ele>1174.39</ele>
        <time>2017-08-13T10:09:07Z</time>
      </trkpt>
      <trkpt lat="45.60348" lon="2.76685">
        <ele>1174.39</ele>
        <time>2017-08-13T10:09:09Z</time>
      </trkpt>
      <trkpt lat="45.60343" lon="2.76688">
        <ele>1172.95</ele>
        <time>2017-08-13T10:09:13Z</time>
      </trkpt>
      <trkpt lat="45.6034" lon="2.76688">
        <ele>1172.47</ele>
        <time>2017-08-13T10:09:14Z</time>
      </trkpt>
      <trkpt lat="45.60337" lon="2.76689">
        <ele>1171.98</ele>
        <time>2017-08-13T10:09:15Z</time>
      </trkpt>
      <trkpt lat="45.60319" lon="2.76694">
        <ele>1169.1</ele>
        <time>2017-08-13T10:09:19Z</time>
      </trkpt>
      <trkpt lat="45.60284" lon="2.767">
        <ele>1166.22</ele>
        <time>2017-08-13T10:09:28Z</time>
      </trkpt>
      <trkpt lat="45.60278" lon="2.76702">
        <ele>1165.26</ele>
        <time>2017-08-13T10:09:30Z</time>
      </trkpt>
      <trkpt lat="45.60259" lon="2.76701">
        <ele>1163.81</ele>
        <time>2017-08-13T10:09:35Z</time>
      </trkpt>
      <trkpt lat="45.60236" lon="2.76697">
        <ele>1160.45</ele>
        <time>2017-08-13T10:09:41Z</time>
      </trkpt>
      <trkpt lat="45.60232" lon="2.76696">
        <ele>1159.97</ele>
        <time>2017-08-13T10:09:42Z</time>
      </trkpt>
      <trkpt lat="45.60227" lon="2.76695">
        <ele>1159.97</ele>
        <time>2017-08-13T10:09:43Z</time>
      </trkpt>
      <trkpt lat="45.60208" lon="2.76695">
        <ele>1156.6</ele>
        <time>2017-08-13T10:09:48Z</time>
      </trkpt>
      <trkpt lat="45.60189" lon="2.76691">
        <ele>1152.76</ele>
        <time>2017-08-13T10:09:53Z</time>
      </trkpt>
      <trkpt lat="45.60175" lon="2.76686">
        <ele>1149.87</ele>
        <time>2017-08-13T10:09:57Z</time>
      </trkpt>
      <trkpt lat="45.60172" lon="2.76684">
        <ele>1148.91</ele>
        <time>2017-08-13T10:09:58Z</time>
      </trkpt>
      <trkpt lat="45.60168" lon="2.76682">
        <ele>1148.43</ele>
        <time>2017-08-13T10:09:59Z</time>
      </trkpt>
      <trkpt lat="45.60164" lon="2.76681">
        <ele>1147.47</ele>
        <time>2017-08-13T10:10:00Z</time>
      </trkpt>
      <trkpt lat="45.60159" lon="2.7668">
        <ele>1146.51</ele>
        <time>2017-08-13T10:10:01Z</time>
      </trkpt>
      <trkpt lat="45.60155" lon="2.76678">
        <ele>1146.03</ele>
        <time>2017-08-13T10:10:02Z</time>
      </trkpt>
      <trkpt lat="45.60146" lon="2.76676">
        <ele>1144.59</ele>
        <time>2017-08-13T10:10:04Z</time>
      </trkpt>
      <trkpt lat="45.6014" lon="2.76675">
        <ele>1143.63</ele>
        <time>2017-08-13T10:10:05Z</time>
      </trkpt>
      <trkpt lat="45.60121" lon="2.76672">
        <ele>1141.7</ele>
        <time>2017-08-13T10:10:08Z</time>
      </trkpt>
      <trkpt lat="45.60104" lon="2.76669">
        <ele>1140.26</ele>
        <time>2017-08-13T10:10:11Z</time>
      </trkpt>
      <trkpt lat="45.60074" lon="2.76666">
        <ele>1137.38</ele>
        <time>2017-08-13T10:10:16Z</time>
      </trkpt>
      <trkpt lat="45.60039" lon="2.76656">
        <ele>1135.94</ele>
        <time>2017-08-13T10:10:25Z</time>
      </trkpt>
      <trkpt lat="45.60022" lon="2.76642">
        <ele>1135.45</ele>
        <time>2017-08-13T10:10:38Z</time>
      </trkpt>
      <trkpt lat="45.60009" lon="2.76628">
        <ele>1133.05</ele>
        <time>2017-08-13T10:10:44Z</time>
      </trkpt>
      <trkpt lat="45.60008" lon="2.76624">
        <ele>1132.09</ele>
        <time>2017-08-13T10:10:45Z</time>
      </trkpt>
      <trkpt lat="45.60006" lon="2.7662">
        <ele>1132.09</ele>
        <time>2017-08-13T10:10:46Z</time>
      </trkpt>
      <trkpt lat="45.59997" lon="2.76601">
        <ele>1129.21</ele>
        <time>2017-08-13T10:10:50Z</time>
      </trkpt>
      <trkpt lat="45.59992" lon="2.76583">
        <ele>1126.8</ele>
        <time>2017-08-13T10:10:53Z</time>
      </trkpt>
      <trkpt lat="45.5999" lon="2.76576">
        <ele>1125.84</ele>
        <time>2017-08-13T10:10:54Z</time>
      </trkpt>
      <trkpt lat="45.59986" lon="2.76556">
        <ele>1123.92</ele>
        <time>2017-08-13T10:10:57Z</time>
      </trkpt>
      <trkpt lat="45.59984" lon="2.76521">
        <ele>1120.07</ele>
        <time>2017-08-13T10:11:04Z</time>
      </trkpt>
      <trkpt lat="45.59985" lon="2.7651">
        <ele>1118.63</ele>
        <time>2017-08-13T10:11:06Z</time>
      </trkpt>
      <trkpt lat="45.59985" lon="2.76504">
        <ele>1117.67</ele>
        <time>2017-08-13T10:11:07Z</time>
      </trkpt>
      <trkpt lat="45.59986" lon="2.76498">
        <ele>1117.19</ele>
        <time>2017-08-13T10:11:08Z</time>
      </trkpt>
      <trkpt lat="45.59988" lon="2.76493">
        <ele>1116.23</ele>
        <time>2017-08-13T10:11:09Z</time>
      </trkpt>
      <trkpt lat="45.59989" lon="2.76487">
        <ele>1115.27</ele>
        <time>2017-08-13T10:11:10Z</time>
      </trkpt>
      <trkpt lat="45.59989" lon="2.76481">
        <ele>1114.79</ele>
        <time>2017-08-13T10:11:11Z</time>
      </trkpt>
      <trkpt lat="45.59988" lon="2.76475">
        <ele>1113.82</ele>
        <time>2017-08-13T10:11:12Z</time>
      </trkpt>
      <trkpt lat="45.59988" lon="2.76468">
        <ele>1113.34</ele>
        <time>2017-08-13T10:11:13Z</time>
      </trkpt>
      <trkpt lat="45.59989" lon="2.76453">
        <ele>1112.86</ele>
        <time>2017-08-13T10:11:15Z</time>
      </trkpt>
      <trkpt lat="45.59989" lon="2.76445">
        <ele>1111.9</ele>
        <time>2017-08-13T10:11:16Z</time>
      </trkpt>
      <trkpt lat="45.59991" lon="2.7642">
        <ele>1109.02</ele>
        <time>2017-08-13T10:11:19Z</time>
      </trkpt>
      <trkpt lat="45.59992" lon="2.76413">
        <ele>1108.06</ele>
        <time>2017-08-13T10:11:20Z</time>
      </trkpt>
      <trkpt lat="45.59994" lon="2.76408">
        <ele>1107.58</ele>
        <time>2017-08-13T10:11:21Z</time>
      </trkpt>
      <trkpt lat="45.59995" lon="2.76401">
        <ele>1107.58</ele>
        <time>2017-08-13T10:11:22Z</time>
      </trkpt>
      <trkpt lat="45.6" lon="2.76381">
        <ele>1106.61</ele>
        <time>2017-08-13T10:11:25Z</time>
      </trkpt>
      <trkpt lat="45.60004" lon="2.76347">
        <ele>1103.25</ele>
        <time>2017-08-13T10:11:31Z</time>
      </trkpt>
      <trkpt lat="45.60009" lon="2.76308">
        <ele>1099.89</ele>
        <time>2017-08-13T10:11:40Z</time>
      </trkpt>
      <trkpt lat="45.60008" lon="2.76286">
        <ele>1097.48</ele>
        <time>2017-08-13T10:11:45Z</time>
      </trkpt>
      <trkpt lat="45.60009" lon="2.7628">
        <ele>1097</ele>
        <time>2017-08-13T10:11:58Z</time>
      </trkpt>
      <trkpt lat="45.60008" lon="2.76275">
        <ele>1096.52</ele>
        <time>2017-08-13T10:12:31Z</time>
      </trkpt>
      <trkpt lat="45.60006" lon="2.76273">
        <ele>1096.04</ele>
        <time>2017-08-13T10:12:53Z</time>
      </trkpt>
      <trkpt lat="45.60008" lon="2.76271">
        <ele>1096.04</ele>
        <time>2017-08-13T10:13:05Z</time>
      </trkpt>
      <trkpt lat="45.60009" lon="2.76269">
        <ele>1096.04</ele>
        <time>2017-08-13T10:13:06Z</time>
      </trkpt>
      <trkpt lat="45.60011" lon="2.76267">
        <ele>1095.56</ele>
        <time>2017-08-13T10:13:07Z</time>
      </trkpt>
      <trkpt lat="45.60014" lon="2.76265">
        <ele>1095.56</ele>
        <time>2017-08-13T10:13:08Z</time>
      </trkpt>
      <trkpt lat="45.60019" lon="2.76262">
        <ele>1094.6</ele>
        <time>2017-08-13T10:13:09Z</time>
      </trkpt>
      <trkpt lat="45.60023" lon="2.76261">
        <ele>1094.12</ele>
        <time>2017-08-13T10:13:10Z</time>
      </trkpt>
      <trkpt lat="45.60034" lon="2.76256">
        <ele>1093.64</ele>
        <time>2017-08-13T10:13:12Z</time>
      </trkpt>
      <trkpt lat="45.60053" lon="2.76248">
        <ele>1091.23</ele>
        <time>2017-08-13T10:13:15Z</time>
      </trkpt>
      <trkpt lat="45.60059" lon="2.76243">
        <ele>1090.75</ele>
        <time>2017-08-13T10:13:16Z</time>
      </trkpt>
      <trkpt lat="45.60063" lon="2.76237">
        <ele>1090.27</ele>
        <time>2017-08-13T10:13:17Z</time>
      </trkpt>
      <trkpt lat="45.60072" lon="2.76225">
        <ele>1088.83</ele>
        <time>2017-08-13T10:13:19Z</time>
      </trkpt>
      <trkpt lat="45.60075" lon="2.76219">
        <ele>1088.83</ele>
        <time>2017-08-13T10:13:20Z</time>
      </trkpt>
      <trkpt lat="45.60076" lon="2.76213">
        <ele>1088.35</ele>
        <time>2017-08-13T10:13:21Z</time>
      </trkpt>
      <trkpt lat="45.60075" lon="2.76207">
        <ele>1087.87</ele>
        <time>2017-08-13T10:13:22Z</time>
      </trkpt>
      <trkpt lat="45.60071" lon="2.76202">
        <ele>1087.39</ele>
        <time>2017-08-13T10:13:23Z</time>
      </trkpt>
      <trkpt lat="45.60067" lon="2.76197">
        <ele>1087.39</ele>
        <time>2017-08-13T10:13:24Z</time>
      </trkpt>
      <trkpt lat="45.60064" lon="2.76195">
        <ele>1086.91</ele>
        <time>2017-08-13T10:13:25Z</time>
      </trkpt>
      <trkpt lat="45.60036" lon="2.76176">
        <ele>1084.5</ele>
        <time>2017-08-13T10:13:30Z</time>
      </trkpt>
      <trkpt lat="45.60007" lon="2.76151">
        <ele>1080.66</ele>
        <time>2017-08-13T10:13:34Z</time>
      </trkpt>
      <trkpt lat="45.59984" lon="2.76128">
        <ele>1077.78</ele>
        <time>2017-08-13T10:13:37Z</time>
      </trkpt>
      <trkpt lat="45.59961" lon="2.76101">
        <ele>1073.93</ele>
        <time>2017-08-13T10:13:40Z</time>
      </trkpt>
      <trkpt lat="45.59945" lon="2.76081">
        <ele>1070.08</ele>
        <time>2017-08-13T10:13:43Z</time>
      </trkpt>
      <trkpt lat="45.5993" lon="2.76061">
        <ele>1067.2</ele>
        <time>2017-08-13T10:13:46Z</time>
      </trkpt>
      <trkpt lat="45.59926" lon="2.76053">
        <ele>1066.24</ele>
        <time>2017-08-13T10:13:47Z</time>
      </trkpt>
      <trkpt lat="45.59922" lon="2.76044">
        <ele>1064.8</ele>
        <time>2017-08-13T10:13:48Z</time>
      </trkpt>
      <trkpt lat="45.59919" lon="2.76033">
        <ele>1063.36</ele>
        <time>2017-08-13T10:13:49Z</time>
      </trkpt>
      <trkpt lat="45.59916" lon="2.76019">
        <ele>1061.91</ele>
        <time>2017-08-13T10:13:50Z</time>
      </trkpt>
      <trkpt lat="45.59914" lon="2.76006">
        <ele>1060.47</ele>
        <time>2017-08-13T10:13:51Z</time>
      </trkpt>
      <trkpt lat="45.59908" lon="2.75963">
        <ele>1056.15</ele>
        <time>2017-08-13T10:13:54Z</time>
      </trkpt>
      <trkpt lat="45.59903" lon="2.7593">
        <ele>1052.78</ele>
        <time>2017-08-13T10:13:56Z</time>
      </trkpt>
      <trkpt lat="45.59896" lon="2.75882">
        <ele>1047.97</ele>
        <time>2017-08-13T10:13:59Z</time>
      </trkpt>
      <trkpt lat="45.59891" lon="2.75849">
        <ele>1044.61</ele>
        <time>2017-08-13T10:14:01Z</time>
      </trkpt>
      <trkpt lat="45.59884" lon="2.75805">
        <ele>1041.25</ele>
        <time>2017-08-13T10:14:05Z</time>
      </trkpt>
      <trkpt lat="45.59879" lon="2.75766">
        <ele>1037.4</ele>
        <time>2017-08-13T10:14:09Z</time>
      </trkpt>
      <trkpt lat="45.5988" lon="2.75731">
        <ele>1032.59</ele>
        <time>2017-08-13T10:14:12Z</time>
      </trkpt>
      <trkpt lat="45.59881" lon="2.75718">
        <ele>1031.15</ele>
        <time>2017-08-13T10:14:13Z</time>
      </trkpt>
      <trkpt lat="45.59884" lon="2.75693">
        <ele>1028.27</ele>
        <time>2017-08-13T10:14:15Z</time>
      </trkpt>
      <trkpt lat="45.59888" lon="2.75666">
        <ele>1025.38</ele>
        <time>2017-08-13T10:14:18Z</time>
      </trkpt>
      <trkpt lat="45.59887" lon="2.75659">
        <ele>1024.9</ele>
        <time>2017-08-13T10:14:19Z</time>
      </trkpt>
      <trkpt lat="45.59884" lon="2.75655">
        <ele>1023.94</ele>
        <time>2017-08-13T10:14:20Z</time>
      </trkpt>
      <trkpt lat="45.59879" lon="2.75653">
        <ele>1022.98</ele>
        <time>2017-08-13T10:14:21Z</time>
      </trkpt>
      <trkpt lat="45.59873" lon="2.75653">
        <ele>1022.02</ele>
        <time>2017-08-13T10:14:22Z</time>
      </trkpt>
      <trkpt lat="45.59866" lon="2.75654">
        <ele>1021.54</ele>
        <time>2017-08-13T10:14:23Z</time>
      </trkpt>
      <trkpt lat="45.59841" lon="2.75653">
        <ele>1018.17</ele>
        <time>2017-08-13T10:14:26Z</time>
      </trkpt>
      <trkpt lat="45.59823" lon="2.75652">
        <ele>1015.77</ele>
        <time>2017-08-13T10:14:28Z</time>
      </trkpt>
      <trkpt lat="45.59816" lon="2.75648">
        <ele>1015.29</ele>
        <time>2017-08-13T10:14:29Z</time>
      </trkpt>
      <trkpt lat="45.59808" lon="2.75642">
        <ele>1013.85</ele>
        <time>2017-08-13T10:14:30Z</time>
      </trkpt>
      <trkpt lat="45.598" lon="2.75634">
        <ele>1012.41</ele>
        <time>2017-08-13T10:14:31Z</time>
      </trkpt>
      <trkpt lat="45.59793" lon="2.75624">
        <ele>1010.96</ele>
        <time>2017-08-13T10:14:32Z</time>
      </trkpt>
      <trkpt lat="45.59771" lon="2.75595">
        <ele>1008.56</ele>
        <time>2017-08-13T10:14:35Z</time>
      </trkpt>
      <trkpt lat="45.59766" lon="2.75587">
        <ele>1007.6</ele>
        <time>2017-08-13T10:14:36Z</time>
      </trkpt>
      <trkpt lat="45.59763" lon="2.75575">
        <ele>1007.6</ele>
        <time>2017-08-13T10:14:37Z</time>
      </trkpt>
      <trkpt lat="45.5976" lon="2.75564">
        <ele>1006.64</ele>
        <time>2017-08-13T10:14:38Z</time>
      </trkpt>
      <trkpt lat="45.59756" lon="2.75515">
        <ele>1002.79</ele>
        <time>2017-08-13T10:14:42Z</time>
      </trkpt>
      <trkpt lat="45.59757" lon="2.75502">
        <ele>1001.83</ele>
        <time>2017-08-13T10:14:43Z</time>
      </trkpt>
      <trkpt lat="45.5976" lon="2.75489">
        <ele>1001.35</ele>
        <time>2017-08-13T10:14:44Z</time>
      </trkpt>
      <trkpt lat="45.59766" lon="2.75466">
        <ele>999.91</ele>
        <time>2017-08-13T10:14:46Z</time>
      </trkpt>
      <trkpt lat="45.59766" lon="2.75455">
        <ele>998.95</ele>
        <time>2017-08-13T10:14:47Z</time>
      </trkpt>
      <trkpt lat="45.59763" lon="2.75446">
        <ele>998.47</ele>
        <time>2017-08-13T10:14:48Z</time>
      </trkpt>
      <trkpt lat="45.59756" lon="2.75437">
        <ele>997.51</ele>
        <time>2017-08-13T10:14:49Z</time>
      </trkpt>
      <trkpt lat="45.5975" lon="2.7543">
        <ele>997.99</ele>
        <time>2017-08-13T10:14:50Z</time>
      </trkpt>
      <trkpt lat="45.59744" lon="2.7542">
        <ele>996.54</ele>
        <time>2017-08-13T10:14:51Z</time>
      </trkpt>
      <trkpt lat="45.5974" lon="2.7541">
        <ele>996.06</ele>
        <time>2017-08-13T10:14:52Z</time>
      </trkpt>
      <trkpt lat="45.59737" lon="2.75397">
        <ele>995.1</ele>
        <time>2017-08-13T10:14:53Z</time>
      </trkpt>
      <trkpt lat="45.59735" lon="2.75387">
        <ele>994.62</ele>
        <time>2017-08-13T10:14:54Z</time>
      </trkpt>
      <trkpt lat="45.59735" lon="2.75374">
        <ele>994.14</ele>
        <time>2017-08-13T10:14:55Z</time>
      </trkpt>
      <trkpt lat="45.59737" lon="2.75363">
        <ele>993.66</ele>
        <time>2017-08-13T10:14:56Z</time>
      </trkpt>
      <trkpt lat="45.5974" lon="2.7535">
        <ele>993.18</ele>
        <time>2017-08-13T10:14:57Z</time>
      </trkpt>
      <trkpt lat="45.59742" lon="2.7534">
        <ele>992.7</ele>
        <time>2017-08-13T10:14:58Z</time>
      </trkpt>
      <trkpt lat="45.59742" lon="2.75328">
        <ele>992.7</ele>
        <time>2017-08-13T10:14:59Z</time>
      </trkpt>
      <trkpt lat="45.59738" lon="2.7532">
        <ele>992.22</ele>
        <time>2017-08-13T10:15:00Z</time>
      </trkpt>
      <trkpt lat="45.59732" lon="2.75312">
        <ele>992.7</ele>
        <time>2017-08-13T10:15:01Z</time>
      </trkpt>
      <trkpt lat="45.59718" lon="2.75294">
        <ele>995.1</ele>
        <time>2017-08-13T10:15:04Z</time>
      </trkpt>
      <trkpt lat="45.59716" lon="2.7529">
        <ele>995.58</ele>
        <time>2017-08-13T10:15:05Z</time>
      </trkpt>
      <trkpt lat="45.59703" lon="2.75251">
        <ele>997.99</ele>
        <time>2017-08-13T10:15:17Z</time>
      </trkpt>
      <trkpt lat="45.59692" lon="2.75211">
        <ele>998.95</ele>
        <time>2017-08-13T10:15:31Z</time>
      </trkpt>
      <trkpt lat="45.59673" lon="2.75148">
        <ele>999.91</ele>
        <time>2017-08-13T10:15:47Z</time>
      </trkpt>
      <trkpt lat="45.59665" lon="2.75096">
        <ele>998.95</ele>
        <time>2017-08-13T10:16:00Z</time>
      </trkpt>
      <trkpt lat="45.59653" lon="2.75026">
        <ele>996.06</ele>
        <time>2017-08-13T10:16:08Z</time>
      </trkpt>
      <trkpt lat="45.59652" lon="2.75016">
        <ele>995.58</ele>
        <time>2017-08-13T10:16:09Z</time>
      </trkpt>
      <trkpt lat="45.59652" lon="2.75005">
        <ele>995.1</ele>
        <time>2017-08-13T10:16:10Z</time>
      </trkpt>
      <trkpt lat="45.59652" lon="2.74981">
        <ele>993.18</ele>
        <time>2017-08-13T10:16:12Z</time>
      </trkpt>
      <trkpt lat="45.59651" lon="2.74967">
        <ele>992.7</ele>
        <time>2017-08-13T10:16:13Z</time>
      </trkpt>
      <trkpt lat="45.59649" lon="2.74956">
        <ele>991.74</ele>
        <time>2017-08-13T10:16:14Z</time>
      </trkpt>
      <trkpt lat="45.59647" lon="2.74945">
        <ele>991.74</ele>
        <time>2017-08-13T10:16:15Z</time>
      </trkpt>
      <trkpt lat="45.59644" lon="2.74933">
        <ele>991.74</ele>
        <time>2017-08-13T10:16:16Z</time>
      </trkpt>
      <trkpt lat="45.59643" lon="2.74923">
        <ele>991.74</ele>
        <time>2017-08-13T10:16:17Z</time>
      </trkpt>
      <trkpt lat="45.59642" lon="2.74912">
        <ele>991.26</ele>
        <time>2017-08-13T10:16:18Z</time>
      </trkpt>
      <trkpt lat="45.59642" lon="2.74902">
        <ele>991.26</ele>
        <time>2017-08-13T10:16:19Z</time>
      </trkpt>
      <trkpt lat="45.59643" lon="2.74878">
        <ele>991.26</ele>
        <time>2017-08-13T10:16:22Z</time>
      </trkpt>
      <trkpt lat="45.59642" lon="2.74856">
        <ele>990.78</ele>
        <time>2017-08-13T10:16:25Z</time>
      </trkpt>
      <trkpt lat="45.59643" lon="2.74849">
        <ele>989.81</ele>
        <time>2017-08-13T10:16:26Z</time>
      </trkpt>
      <trkpt lat="45.59644" lon="2.74839">
        <ele>989.81</ele>
        <time>2017-08-13T10:16:27Z</time>
      </trkpt>
      <trkpt lat="45.59644" lon="2.74824">
        <ele>989.33</ele>
        <time>2017-08-13T10:16:29Z</time>
      </trkpt>
      <trkpt lat="45.59643" lon="2.74814">
        <ele>989.33</ele>
        <time>2017-08-13T10:16:30Z</time>
      </trkpt>
      <trkpt lat="45.59639" lon="2.74777">
        <ele>986.45</ele>
        <time>2017-08-13T10:16:34Z</time>
      </trkpt>
      <trkpt lat="45.59633" lon="2.74749">
        <ele>984.05</ele>
        <time>2017-08-13T10:16:37Z</time>
      </trkpt>
      <trkpt lat="45.5963" lon="2.7474">
        <ele>983.57</ele>
        <time>2017-08-13T10:16:38Z</time>
      </trkpt>
      <trkpt lat="45.59627" lon="2.74734">
        <ele>983.57</ele>
        <time>2017-08-13T10:16:39Z</time>
      </trkpt>
      <trkpt lat="45.59624" lon="2.74729">
        <ele>983.09</ele>
        <time>2017-08-13T10:16:40Z</time>
      </trkpt>
      <trkpt lat="45.59621" lon="2.74726">
        <ele>983.09</ele>
        <time>2017-08-13T10:16:41Z</time>
      </trkpt>
      <trkpt lat="45.59619" lon="2.74723">
        <ele>983.09</ele>
        <time>2017-08-13T10:16:42Z</time>
      </trkpt>
      <trkpt lat="45.59617" lon="2.74722">
        <ele>983.09</ele>
        <time>2017-08-13T10:16:43Z</time>
      </trkpt>
      <trkpt lat="45.59615" lon="2.74722">
        <ele>982.6</ele>
        <time>2017-08-13T10:16:44Z</time>
      </trkpt>
      <trkpt lat="45.59612" lon="2.74724">
        <ele>982.12</ele>
        <time>2017-08-13T10:16:45Z</time>
      </trkpt>
      <trkpt lat="45.5961" lon="2.74727">
        <ele>982.12</ele>
        <time>2017-08-13T10:16:46Z</time>
      </trkpt>
      <trkpt lat="45.59609" lon="2.7473">
        <ele>982.6</ele>
        <time>2017-08-13T10:16:47Z</time>
      </trkpt>
      <trkpt lat="45.59607" lon="2.74735">
        <ele>982.6</ele>
        <time>2017-08-13T10:16:48Z</time>
      </trkpt>
      <trkpt lat="45.59606" lon="2.7474">
        <ele>982.6</ele>
        <time>2017-08-13T10:16:49Z</time>
      </trkpt>
      <trkpt lat="45.59606" lon="2.74746">
        <ele>982.6</ele>
        <time>2017-08-13T10:16:50Z</time>
      </trkpt>
      <trkpt lat="45.59605" lon="2.74753">
        <ele>982.6</ele>
        <time>2017-08-13T10:16:51Z</time>
      </trkpt>
      <trkpt lat="45.59593" lon="2.74846">
        <ele>982.12</ele>
        <time>2017-08-13T10:17:05Z</time>
      </trkpt>
      <trkpt lat="45.59591" lon="2.7485">
        <ele>982.12</ele>
        <time>2017-08-13T10:17:06Z</time>
      </trkpt>
      <trkpt lat="45.59586" lon="2.74854">
        <ele>982.12</ele>
        <time>2017-08-13T10:17:07Z</time>
      </trkpt>
      <trkpt lat="45.59582" lon="2.74855">
        <ele>982.12</ele>
        <time>2017-08-13T10:17:08Z</time>
      </trkpt>
      <trkpt lat="45.59576" lon="2.74855">
        <ele>982.12</ele>
        <time>2017-08-13T10:17:09Z</time>
      </trkpt>
      <trkpt lat="45.59572" lon="2.74855">
        <ele>982.12</ele>
        <time>2017-08-13T10:17:10Z</time>
      </trkpt>
      <trkpt lat="45.59567" lon="2.74853">
        <ele>982.12</ele>
        <time>2017-08-13T10:17:11Z</time>
      </trkpt>
      <trkpt lat="45.59562" lon="2.74849">
        <ele>982.12</ele>
        <time>2017-08-13T10:17:12Z</time>
      </trkpt>
      <trkpt lat="45.59557" lon="2.74845">
        <ele>982.12</ele>
        <time>2017-08-13T10:17:13Z</time>
      </trkpt>
      <trkpt lat="45.5953" lon="2.7482">
        <ele>979.72</ele>
        <time>2017-08-13T10:17:18Z</time>
      </trkpt>
      <trkpt lat="45.59522" lon="2.74815">
        <ele>979.24</ele>
        <time>2017-08-13T10:17:19Z</time>
      </trkpt>
      <trkpt lat="45.59494" lon="2.74792">
        <ele>975.88</ele>
        <time>2017-08-13T10:17:23Z</time>
      </trkpt>
      <trkpt lat="45.59463" lon="2.74767">
        <ele>972.51</ele>
        <time>2017-08-13T10:17:27Z</time>
      </trkpt>
      <trkpt lat="45.59419" lon="2.74733">
        <ele>969.63</ele>
        <time>2017-08-13T10:17:33Z</time>
      </trkpt>
      <trkpt lat="45.59384" lon="2.74709">
        <ele>966.26</ele>
        <time>2017-08-13T10:17:37Z</time>
      </trkpt>
      <trkpt lat="45.59373" lon="2.74704">
        <ele>964.82</ele>
        <time>2017-08-13T10:17:38Z</time>
      </trkpt>
      <trkpt lat="45.59334" lon="2.74692">
        <ele>961.94</ele>
        <time>2017-08-13T10:17:42Z</time>
      </trkpt>
      <trkpt lat="45.59322" lon="2.74688">
        <ele>960.98</ele>
        <time>2017-08-13T10:17:46Z</time>
      </trkpt>
      <trkpt lat="45.59321" lon="2.74689">
        <ele>960.98</ele>
        <time>2017-08-13T10:17:47Z</time>
      </trkpt>
      <trkpt lat="45.59323" lon="2.74693">
        <ele>960.98</ele>
        <time>2017-08-13T10:17:49Z</time>
      </trkpt>
      <trkpt lat="45.59325" lon="2.74693">
        <ele>960.98</ele>
        <time>2017-08-13T10:17:50Z</time>
      </trkpt>
      <trkpt lat="45.59326" lon="2.74694">
        <ele>960.98</ele>
        <time>2017-08-13T10:17:51Z</time>
      </trkpt>
      <trkpt lat="45.59328" lon="2.74695">
        <ele>960.98</ele>
        <time>2017-08-13T10:17:52Z</time>
      </trkpt>
      <trkpt lat="45.59329" lon="2.74696">
        <ele>960.98</ele>
        <time>2017-08-13T10:17:53Z</time>
      </trkpt>
      <trkpt lat="45.59329" lon="2.74699">
        <ele>960.98</ele>
        <time>2017-08-13T10:17:54Z</time>
      </trkpt>
      <trkpt lat="45.59326" lon="2.74702">
        <ele>960.49</ele>
        <time>2017-08-13T10:17:56Z</time>
      </trkpt>
      <trkpt lat="45.59323" lon="2.74703">
        <ele>960.49</ele>
        <time>2017-08-13T10:17:57Z</time>
      </trkpt>
      <trkpt lat="45.59319" lon="2.74703">
        <ele>958.57</ele>
        <time>2017-08-13T10:17:58Z</time>
      </trkpt>
      <trkpt lat="45.59314" lon="2.74704">
        <ele>957.61</ele>
        <time>2017-08-13T10:17:59Z</time>
      </trkpt>
      <trkpt lat="45.5931" lon="2.74704">
        <ele>956.65</ele>
        <time>2017-08-13T10:18:00Z</time>
      </trkpt>
      <trkpt lat="45.59304" lon="2.74706">
        <ele>955.69</ele>
        <time>2017-08-13T10:18:01Z</time>
      </trkpt>
      <trkpt lat="45.593" lon="2.74709">
        <ele>954.25</ele>
        <time>2017-08-13T10:18:02Z</time>
      </trkpt>
      <trkpt lat="45.59295" lon="2.74713">
        <ele>953.77</ele>
        <time>2017-08-13T10:18:03Z</time>
      </trkpt>
      <trkpt lat="45.5929" lon="2.74718">
        <ele>952.8</ele>
        <time>2017-08-13T10:18:04Z</time>
      </trkpt>
      <trkpt lat="45.59285" lon="2.74724">
        <ele>951.84</ele>
        <time>2017-08-13T10:18:05Z</time>
      </trkpt>
      <trkpt lat="45.59282" lon="2.74728">
        <ele>951.36</ele>
        <time>2017-08-13T10:18:06Z</time>
      </trkpt>
      <trkpt lat="45.5928" lon="2.74734">
        <ele>951.36</ele>
        <time>2017-08-13T10:18:07Z</time>
      </trkpt>
      <trkpt lat="45.59279" lon="2.74739">
        <ele>950.4</ele>
        <time>2017-08-13T10:18:08Z</time>
      </trkpt>
      <trkpt lat="45.59278" lon="2.74743">
        <ele>950.4</ele>
        <time>2017-08-13T10:18:09Z</time>
      </trkpt>
      <trkpt lat="45.59272" lon="2.7477">
        <ele>947.04</ele>
        <time>2017-08-13T10:18:15Z</time>
      </trkpt>
      <trkpt lat="45.59264" lon="2.74789">
        <ele>944.63</ele>
        <time>2017-08-13T10:18:19Z</time>
      </trkpt>
      <trkpt lat="45.59261" lon="2.74792">
        <ele>943.67</ele>
        <time>2017-08-13T10:18:20Z</time>
      </trkpt>
      <trkpt lat="45.59258" lon="2.74794">
        <ele>942.71</ele>
        <time>2017-08-13T10:18:21Z</time>
      </trkpt>
      <trkpt lat="45.59255" lon="2.74794">
        <ele>943.19</ele>
        <time>2017-08-13T10:18:22Z</time>
      </trkpt>
      <trkpt lat="45.59252" lon="2.74793">
        <ele>942.23</ele>
        <time>2017-08-13T10:18:23Z</time>
      </trkpt>
      <trkpt lat="45.59249" lon="2.7479">
        <ele>941.75</ele>
        <time>2017-08-13T10:18:24Z</time>
      </trkpt>
      <trkpt lat="45.59246" lon="2.74788">
        <ele>941.27</ele>
        <time>2017-08-13T10:18:25Z</time>
      </trkpt>
      <trkpt lat="45.59239" lon="2.74781">
        <ele>940.31</ele>
        <time>2017-08-13T10:18:27Z</time>
      </trkpt>
      <trkpt lat="45.59236" lon="2.74776">
        <ele>939.35</ele>
        <time>2017-08-13T10:18:28Z</time>
      </trkpt>
      <trkpt lat="45.59233" lon="2.74769">
        <ele>938.38</ele>
        <time>2017-08-13T10:18:29Z</time>
      </trkpt>
      <trkpt lat="45.59231" lon="2.74765">
        <ele>938.38</ele>
        <time>2017-08-13T10:18:30Z</time>
      </trkpt>
      <trkpt lat="45.5922" lon="2.74749">
        <ele>935.02</ele>
        <time>2017-08-13T10:18:34Z</time>
      </trkpt>
      <trkpt lat="45.59214" lon="2.74744">
        <ele>933.58</ele>
        <time>2017-08-13T10:18:36Z</time>
      </trkpt>
      <trkpt lat="45.59211" lon="2.74744">
        <ele>933.1</ele>
        <time>2017-08-13T10:18:37Z</time>
      </trkpt>
      <trkpt lat="45.59208" lon="2.74746">
        <ele>932.62</ele>
        <time>2017-08-13T10:18:38Z</time>
      </trkpt>
      <trkpt lat="45.59206" lon="2.74749">
        <ele>931.65</ele>
        <time>2017-08-13T10:18:39Z</time>
      </trkpt>
      <trkpt lat="45.59202" lon="2.74756">
        <ele>930.69</ele>
        <time>2017-08-13T10:18:41Z</time>
      </trkpt>
      <trkpt lat="45.592" lon="2.74762">
        <ele>930.21</ele>
        <time>2017-08-13T10:18:43Z</time>
      </trkpt>
      <trkpt lat="45.592" lon="2.74767">
        <ele>929.25</ele>
        <time>2017-08-13T10:18:44Z</time>
      </trkpt>
      <trkpt lat="45.592" lon="2.74771">
        <ele>928.77</ele>
        <time>2017-08-13T10:18:45Z</time>
      </trkpt>
      <trkpt lat="45.592" lon="2.74774">
        <ele>928.77</ele>
        <time>2017-08-13T10:18:46Z</time>
      </trkpt>
      <trkpt lat="45.592" lon="2.74776">
        <ele>928.29</ele>
        <time>2017-08-13T10:18:47Z</time>
      </trkpt>
      <trkpt lat="45.592" lon="2.74779">
        <ele>927.33</ele>
        <time>2017-08-13T10:18:48Z</time>
      </trkpt>
      <trkpt lat="45.592" lon="2.74782">
        <ele>926.85</ele>
        <time>2017-08-13T10:18:49Z</time>
      </trkpt>
      <trkpt lat="45.592" lon="2.74786">
        <ele>925.89</ele>
        <time>2017-08-13T10:18:50Z</time>
      </trkpt>
      <trkpt lat="45.59201" lon="2.7479">
        <ele>925.41</ele>
        <time>2017-08-13T10:18:51Z</time>
      </trkpt>
      <trkpt lat="45.592" lon="2.74792">
        <ele>925.41</ele>
        <time>2017-08-13T10:18:52Z</time>
      </trkpt>
      <trkpt lat="45.59196" lon="2.74795">
        <ele>923</ele>
        <time>2017-08-13T10:18:56Z</time>
      </trkpt>
      <trkpt lat="45.59195" lon="2.74795">
        <ele>922.04</ele>
        <time>2017-08-13T10:18:57Z</time>
      </trkpt>
      <trkpt lat="45.59193" lon="2.74795">
        <ele>921.08</ele>
        <time>2017-08-13T10:18:58Z</time>
      </trkpt>
      <trkpt lat="45.59191" lon="2.74794">
        <ele>920.12</ele>
        <time>2017-08-13T10:18:59Z</time>
      </trkpt>
      <trkpt lat="45.59182" lon="2.74791">
        <ele>918.68</ele>
        <time>2017-08-13T10:19:02Z</time>
      </trkpt>
      <trkpt lat="45.59179" lon="2.74784">
        <ele>916.75</ele>
        <time>2017-08-13T10:19:04Z</time>
      </trkpt>
      <trkpt lat="45.59177" lon="2.7478">
        <ele>915.79</ele>
        <time>2017-08-13T10:19:06Z</time>
      </trkpt>
      <trkpt lat="45.59171" lon="2.74765">
        <ele>912.91</ele>
        <time>2017-08-13T10:19:09Z</time>
      </trkpt>
      <trkpt lat="45.59167" lon="2.74759">
        <ele>911.95</ele>
        <time>2017-08-13T10:19:10Z</time>
      </trkpt>
      <trkpt lat="45.59166" lon="2.74753">
        <ele>911.47</ele>
        <time>2017-08-13T10:19:11Z</time>
      </trkpt>
      <trkpt lat="45.59164" lon="2.74747">
        <ele>910.51</ele>
        <time>2017-08-13T10:19:12Z</time>
      </trkpt>
      <trkpt lat="45.59163" lon="2.74742">
        <ele>910.03</ele>
        <time>2017-08-13T10:19:13Z</time>
      </trkpt>
      <trkpt lat="45.5916" lon="2.74738">
        <ele>909.54</ele>
        <time>2017-08-13T10:19:14Z</time>
      </trkpt>
      <trkpt lat="45.59151" lon="2.74711">
        <ele>905.7</ele>
        <time>2017-08-13T10:19:19Z</time>
      </trkpt>
      <trkpt lat="45.59142" lon="2.74696">
        <ele>903.78</ele>
        <time>2017-08-13T10:19:22Z</time>
      </trkpt>
      <trkpt lat="45.59138" lon="2.74691">
        <ele>902.82</ele>
        <time>2017-08-13T10:19:23Z</time>
      </trkpt>
      <trkpt lat="45.59127" lon="2.74671">
        <ele>898.49</ele>
        <time>2017-08-13T10:19:26Z</time>
      </trkpt>
      <trkpt lat="45.59118" lon="2.74657">
        <ele>898.01</ele>
        <time>2017-08-13T10:19:28Z</time>
      </trkpt>
      <trkpt lat="45.59115" lon="2.74653">
        <ele>897.53</ele>
        <time>2017-08-13T10:19:29Z</time>
      </trkpt>
      <trkpt lat="45.5911" lon="2.74638">
        <ele>896.57</ele>
        <time>2017-08-13T10:19:31Z</time>
      </trkpt>
      <trkpt lat="45.59085" lon="2.74558">
        <ele>893.2</ele>
        <time>2017-08-13T10:19:40Z</time>
      </trkpt>
      <trkpt lat="45.59075" lon="2.74497">
        <ele>890.32</ele>
        <time>2017-08-13T10:19:46Z</time>
      </trkpt>
      <trkpt lat="45.59075" lon="2.74488">
        <ele>889.84</ele>
        <time>2017-08-13T10:19:47Z</time>
      </trkpt>
      <trkpt lat="45.59075" lon="2.74477">
        <ele>889.36</ele>
        <time>2017-08-13T10:19:48Z</time>
      </trkpt>
      <trkpt lat="45.59078" lon="2.74469">
        <ele>888.88</ele>
        <time>2017-08-13T10:19:49Z</time>
      </trkpt>
      <trkpt lat="45.59082" lon="2.74463">
        <ele>888.88</ele>
        <time>2017-08-13T10:19:50Z</time>
      </trkpt>
      <trkpt lat="45.59087" lon="2.74456">
        <ele>888.4</ele>
        <time>2017-08-13T10:19:51Z</time>
      </trkpt>
      <trkpt lat="45.59092" lon="2.7445">
        <ele>888.4</ele>
        <time>2017-08-13T10:19:52Z</time>
      </trkpt>
      <trkpt lat="45.59095" lon="2.74446">
        <ele>888.4</ele>
        <time>2017-08-13T10:19:53Z</time>
      </trkpt>
      <trkpt lat="45.59099" lon="2.7444">
        <ele>888.4</ele>
        <time>2017-08-13T10:19:54Z</time>
      </trkpt>
      <trkpt lat="45.59101" lon="2.74433">
        <ele>887.91</ele>
        <time>2017-08-13T10:19:55Z</time>
      </trkpt>
      <trkpt lat="45.59104" lon="2.74426">
        <ele>887.91</ele>
        <time>2017-08-13T10:19:56Z</time>
      </trkpt>
      <trkpt lat="45.59106" lon="2.74419">
        <ele>887.91</ele>
        <time>2017-08-13T10:19:57Z</time>
      </trkpt>
      <trkpt lat="45.59108" lon="2.7441">
        <ele>887.43</ele>
        <time>2017-08-13T10:19:58Z</time>
      </trkpt>
      <trkpt lat="45.59108" lon="2.74403">
        <ele>887.43</ele>
        <time>2017-08-13T10:19:59Z</time>
      </trkpt>
      <trkpt lat="45.59108" lon="2.74364">
        <ele>884.55</ele>
        <time>2017-08-13T10:20:03Z</time>
      </trkpt>
      <trkpt lat="45.59107" lon="2.74354">
        <ele>883.59</ele>
        <time>2017-08-13T10:20:04Z</time>
      </trkpt>
      <trkpt lat="45.59105" lon="2.74343">
        <ele>881.67</ele>
        <time>2017-08-13T10:20:05Z</time>
      </trkpt>
      <trkpt lat="45.59097" lon="2.74318">
        <ele>880.22</ele>
        <time>2017-08-13T10:20:08Z</time>
      </trkpt>
      <trkpt lat="45.59094" lon="2.74314">
        <ele>879.74</ele>
        <time>2017-08-13T10:20:09Z</time>
      </trkpt>
      <trkpt lat="45.59091" lon="2.74312">
        <ele>879.74</ele>
        <time>2017-08-13T10:20:10Z</time>
      </trkpt>
      <trkpt lat="45.59088" lon="2.74311">
        <ele>878.78</ele>
        <time>2017-08-13T10:20:11Z</time>
      </trkpt>
      <trkpt lat="45.59076" lon="2.74316">
        <ele>876.86</ele>
        <time>2017-08-13T10:20:14Z</time>
      </trkpt>
      <trkpt lat="45.59073" lon="2.74322">
        <ele>875.9</ele>
        <time>2017-08-13T10:20:15Z</time>
      </trkpt>
      <trkpt lat="45.5907" lon="2.74327">
        <ele>875.9</ele>
        <time>2017-08-13T10:20:16Z</time>
      </trkpt>
      <trkpt lat="45.59068" lon="2.74337">
        <ele>874.94</ele>
        <time>2017-08-13T10:20:17Z</time>
      </trkpt>
      <trkpt lat="45.59067" lon="2.74344">
        <ele>874.46</ele>
        <time>2017-08-13T10:20:18Z</time>
      </trkpt>
      <trkpt lat="45.59066" lon="2.74352">
        <ele>873.98</ele>
        <time>2017-08-13T10:20:19Z</time>
      </trkpt>
      <trkpt lat="45.59066" lon="2.74364">
        <ele>873.5</ele>
        <time>2017-08-13T10:20:20Z</time>
      </trkpt>
      <trkpt lat="45.59054" lon="2.74421">
        <ele>871.57</ele>
        <time>2017-08-13T10:20:28Z</time>
      </trkpt>
      <trkpt lat="45.5905" lon="2.74423">
        <ele>871.57</ele>
        <time>2017-08-13T10:20:29Z</time>
      </trkpt>
      <trkpt lat="45.59047" lon="2.74423">
        <ele>871.09</ele>
        <time>2017-08-13T10:20:30Z</time>
      </trkpt>
      <trkpt lat="45.59032" lon="2.7442">
        <ele>870.61</ele>
        <time>2017-08-13T10:20:33Z</time>
      </trkpt>
      <trkpt lat="45.59028" lon="2.74418">
        <ele>870.13</ele>
        <time>2017-08-13T10:20:34Z</time>
      </trkpt>
      <trkpt lat="45.59025" lon="2.74415">
        <ele>870.13</ele>
        <time>2017-08-13T10:20:35Z</time>
      </trkpt>
      <trkpt lat="45.59023" lon="2.7441">
        <ele>870.13</ele>
        <time>2017-08-13T10:20:36Z</time>
      </trkpt>
      <trkpt lat="45.59023" lon="2.74407">
        <ele>869.65</ele>
        <time>2017-08-13T10:20:37Z</time>
      </trkpt>
      <trkpt lat="45.59023" lon="2.74401">
        <ele>869.65</ele>
        <time>2017-08-13T10:20:38Z</time>
      </trkpt>
      <trkpt lat="45.59024" lon="2.7439">
        <ele>869.65</ele>
        <time>2017-08-13T10:20:40Z</time>
      </trkpt>
      <trkpt lat="45.59017" lon="2.74331">
        <ele>867.73</ele>
        <time>2017-08-13T10:20:49Z</time>
      </trkpt>
      <trkpt lat="45.59016" lon="2.74324">
        <ele>867.73</ele>
        <time>2017-08-13T10:20:50Z</time>
      </trkpt>
      <trkpt lat="45.58998" lon="2.74288">
        <ele>867.25</ele>
        <time>2017-08-13T10:20:59Z</time>
      </trkpt>
      <trkpt lat="45.58971" lon="2.74293">
        <ele>866.29</ele>
        <time>2017-08-13T10:21:08Z</time>
      </trkpt>
      <trkpt lat="45.58947" lon="2.74298">
        <ele>865.8</ele>
        <time>2017-08-13T10:21:20Z</time>
      </trkpt>
      <trkpt lat="45.58944" lon="2.74294">
        <ele>865.8</ele>
        <time>2017-08-13T10:21:31Z</time>
      </trkpt>
      <trkpt lat="45.58942" lon="2.74293">
        <ele>865.8</ele>
        <time>2017-08-13T10:21:50Z</time>
      </trkpt>
      <trkpt lat="45.5894" lon="2.74294">
        <ele>865.8</ele>
        <time>2017-08-13T10:21:55Z</time>
      </trkpt>
      <trkpt lat="45.58935" lon="2.74295">
        <ele>865.8</ele>
        <time>2017-08-13T10:21:59Z</time>
      </trkpt>
      <trkpt lat="45.58914" lon="2.7431">
        <ele>865.8</ele>
        <time>2017-08-13T10:22:08Z</time>
      </trkpt>
      <trkpt lat="45.58892" lon="2.74328">
        <ele>867.25</ele>
        <time>2017-08-13T10:22:19Z</time>
      </trkpt>
      <trkpt lat="45.58888" lon="2.74328">
        <ele>867.25</ele>
        <time>2017-08-13T10:22:21Z</time>
      </trkpt>
      <trkpt lat="45.58882" lon="2.74308">
        <ele>867.25</ele>
        <time>2017-08-13T10:22:33Z</time>
      </trkpt>
      <trkpt lat="45.58881" lon="2.74308">
        <ele>866.77</ele>
        <time>2017-08-13T10:22:37Z</time>
      </trkpt>
      <trkpt lat="45.58874" lon="2.74305">
        <ele>866.77</ele>
        <time>2017-08-13T10:22:42Z</time>
      </trkpt>
      <trkpt lat="45.5887" lon="2.74311">
        <ele>866.77</ele>
        <time>2017-08-13T10:22:53Z</time>
      </trkpt>
      <trkpt lat="45.58869" lon="2.74308">
        <ele>866.77</ele>
        <time>2017-08-13T10:23:02Z</time>
      </trkpt>
      <trkpt lat="45.58856" lon="2.74305">
        <ele>866.77</ele>
        <time>2017-08-13T10:23:21Z</time>
      </trkpt>
      <trkpt lat="45.58859" lon="2.74302">
        <ele>866.77</ele>
        <time>2017-08-13T10:23:27Z</time>
      </trkpt>
      <trkpt lat="45.58843" lon="2.74302">
        <ele>866.77</ele>
        <time>2017-08-13T10:26:04Z</time>
      </trkpt>
      <trkpt lat="45.58861" lon="2.743">
        <ele>866.77</ele>
        <time>2017-08-13T10:26:33Z</time>
      </trkpt>
      <trkpt lat="45.58878" lon="2.74292">
        <ele>866.77</ele>
        <time>2017-08-13T10:26:53Z</time>
      </trkpt>
      <trkpt lat="45.58868" lon="2.74299">
        <ele>866.77</ele>
        <time>2017-08-13T10:27:11Z</time>
      </trkpt>
      <trkpt lat="45.58877" lon="2.74301">
        <ele>866.77</ele>
        <time>2017-08-13T10:27:28Z</time>
      </trkpt>
      <trkpt lat="45.58883" lon="2.743">
        <ele>866.29</ele>
        <time>2017-08-13T10:27:42Z</time>
      </trkpt>
      <trkpt lat="45.58886" lon="2.74301">
        <ele>866.29</ele>
        <time>2017-08-13T10:27:52Z</time>
      </trkpt>
      <trkpt lat="45.58893" lon="2.74324">
        <ele>866.29</ele>
        <time>2017-08-13T10:28:06Z</time>
      </trkpt>
      <trkpt lat="45.5891" lon="2.74314">
        <ele>866.29</ele>
        <time>2017-08-13T10:28:21Z</time>
      </trkpt>
      <trkpt lat="45.58911" lon="2.74306">
        <ele>866.29</ele>
        <time>2017-08-13T10:28:26Z</time>
      </trkpt>
      <trkpt lat="45.58904" lon="2.74294">
        <ele>865.8</ele>
        <time>2017-08-13T10:28:42Z</time>
      </trkpt>
      <trkpt lat="45.58902" lon="2.74298">
        <ele>865.32</ele>
        <time>2017-08-13T10:29:08Z</time>
      </trkpt>
      <trkpt lat="45.58901" lon="2.74296">
        <ele>865.32</ele>
        <time>2017-08-13T10:29:32Z</time>
      </trkpt>
      <trkpt lat="45.58902" lon="2.74294">
        <ele>865.32</ele>
        <time>2017-08-13T10:30:02Z</time>
      </trkpt>
      <trkpt lat="45.58903" lon="2.74293">
        <ele>865.32</ele>
        <time>2017-08-13T10:30:37Z</time>
      </trkpt>
      <trkpt lat="45.58904" lon="2.74293">
        <ele>864.84</ele>
        <time>2017-08-13T10:31:09Z</time>
      </trkpt>
      <trkpt lat="45.58906" lon="2.74293">
        <ele>864.84</ele>
        <time>2017-08-13T10:31:48Z</time>
      </trkpt>
      <trkpt lat="45.58903" lon="2.74294">
        <ele>864.84</ele>
        <time>2017-08-13T10:32:21Z</time>
      </trkpt>
      <trkpt lat="45.58903" lon="2.74296">
        <ele>864.84</ele>
        <time>2017-08-13T10:32:54Z</time>
      </trkpt>
      <trkpt lat="45.58902" lon="2.74297">
        <ele>864.36</ele>
        <time>2017-08-13T10:33:26Z</time>
      </trkpt>
      <trkpt lat="45.58902" lon="2.74295">
        <ele>865.32</ele>
        <time>2017-08-13T10:34:02Z</time>
      </trkpt>
      <trkpt lat="45.58904" lon="2.74296">
        <ele>865.32</ele>
        <time>2017-08-13T10:34:37Z</time>
      </trkpt>
      <trkpt lat="45.58902" lon="2.74295">
        <ele>865.32</ele>
        <time>2017-08-13T10:35:12Z</time>
      </trkpt>
      <trkpt lat="45.58905" lon="2.74293">
        <ele>865.8</ele>
        <time>2017-08-13T10:35:45Z</time>
      </trkpt>
      <trkpt lat="45.58902" lon="2.74294">
        <ele>865.32</ele>
        <time>2017-08-13T10:36:19Z</time>
      </trkpt>
      <trkpt lat="45.58904" lon="2.74293">
        <ele>865.32</ele>
        <time>2017-08-13T10:36:55Z</time>
      </trkpt>
      <trkpt lat="45.58904" lon="2.74294">
        <ele>865.32</ele>
        <time>2017-08-13T10:37:27Z</time>
      </trkpt>
      <trkpt lat="45.589" lon="2.74296">
        <ele>865.32</ele>
        <time>2017-08-13T10:37:53Z</time>
      </trkpt>
      <trkpt lat="45.589" lon="2.74296">
        <ele>864.84</ele>
        <time>2017-08-13T10:38:29Z</time>
      </trkpt>
      <trkpt lat="45.58902" lon="2.74295">
        <ele>864.84</ele>
        <time>2017-08-13T10:39:06Z</time>
      </trkpt>
      <trkpt lat="45.58902" lon="2.74295">
        <ele>864.84</ele>
        <time>2017-08-13T10:39:46Z</time>
      </trkpt>
      <trkpt lat="45.58902" lon="2.74293">
        <ele>864.84</ele>
        <time>2017-08-13T10:40:33Z</time>
      </trkpt>
      <trkpt lat="45.58903" lon="2.74295">
        <ele>864.84</ele>
        <time>2017-08-13T10:41:06Z</time>
      </trkpt>
      <trkpt lat="45.58902" lon="2.74297">
        <ele>864.84</ele>
        <time>2017-08-13T10:41:43Z</time>
      </trkpt>
      <trkpt lat="45.589" lon="2.74296">
        <ele>864.84</ele>
        <time>2017-08-13T10:42:43Z</time>
      </trkpt>
      <trkpt lat="45.58903" lon="2.74294">
        <ele>864.84</ele>
        <time>2017-08-13T10:43:33Z</time>
      </trkpt>
      <trkpt lat="45.58906" lon="2.74292">
        <ele>864.36</ele>
        <time>2017-08-13T10:44:21Z</time>
      </trkpt>
      <trkpt lat="45.58904" lon="2.74294">
        <ele>864.36</ele>
        <time>2017-08-13T10:45:01Z</time>
      </trkpt>
      <trkpt lat="45.58903" lon="2.74293">
        <ele>864.36</ele>
        <time>2017-08-13T10:45:37Z</time>
      </trkpt>
      <trkpt lat="45.58904" lon="2.74295">
        <ele>864.36</ele>
        <time>2017-08-13T10:46:10Z</time>
      </trkpt>
      <trkpt lat="45.58905" lon="2.74293">
        <ele>863.88</ele>
        <time>2017-08-13T10:46:50Z</time>
      </trkpt>
      <trkpt lat="45.58905" lon="2.74293">
        <ele>863.88</ele>
        <time>2017-08-13T10:47:28Z</time>
      </trkpt>
      <trkpt lat="45.58903" lon="2.74294">
        <ele>863.88</ele>
        <time>2017-08-13T10:47:54Z</time>
      </trkpt>
      <trkpt lat="45.58903" lon="2.74295">
        <ele>863.88</ele>
        <time>2017-08-13T10:48:24Z</time>
      </trkpt>
      <trkpt lat="45.58902" lon="2.74294">
        <ele>863.88</ele>
        <time>2017-08-13T10:48:44Z</time>
      </trkpt>
      <trkpt lat="45.58901" lon="2.74294">
        <ele>863.88</ele>
        <time>2017-08-13T10:49:10Z</time>
      </trkpt>
      <trkpt lat="45.58904" lon="2.74296">
        <ele>863.4</ele>
        <time>2017-08-13T10:49:47Z</time>
      </trkpt>
      <trkpt lat="45.58903" lon="2.74296">
        <ele>863.4</ele>
        <time>2017-08-13T10:50:23Z</time>
      </trkpt>
      <trkpt lat="45.58903" lon="2.74295">
        <ele>863.4</ele>
        <time>2017-08-13T10:51:00Z</time>
      </trkpt>
      <trkpt lat="45.58905" lon="2.74295">
        <ele>863.4</ele>
        <time>2017-08-13T10:51:36Z</time>
      </trkpt>
      <trkpt lat="45.58906" lon="2.74295">
        <ele>863.4</ele>
        <time>2017-08-13T10:52:07Z</time>
      </trkpt>
      <trkpt lat="45.58908" lon="2.7429">
        <ele>863.4</ele>
        <time>2017-08-13T10:52:36Z</time>
      </trkpt>
      <trkpt lat="45.58908" lon="2.74294">
        <ele>863.4</ele>
        <time>2017-08-13T10:53:16Z</time>
      </trkpt>
      <trkpt lat="45.58906" lon="2.74295">
        <ele>863.4</ele>
        <time>2017-08-13T10:53:54Z</time>
      </trkpt>
      <trkpt lat="45.58904" lon="2.74295">
        <ele>863.4</ele>
        <time>2017-08-13T10:54:35Z</time>
      </trkpt>
      <trkpt lat="45.58902" lon="2.74298">
        <ele>863.4</ele>
        <time>2017-08-13T10:55:11Z</time>
      </trkpt>
      <trkpt lat="45.58905" lon="2.74294">
        <ele>863.4</ele>
        <time>2017-08-13T10:55:42Z</time>
      </trkpt>
      <trkpt lat="45.58909" lon="2.74291">
        <ele>863.4</ele>
        <time>2017-08-13T10:56:14Z</time>
      </trkpt>
      <trkpt lat="45.58907" lon="2.74297">
        <ele>863.4</ele>
        <time>2017-08-13T10:56:59Z</time>
      </trkpt>
      <trkpt lat="45.58906" lon="2.74296">
        <ele>863.4</ele>
        <time>2017-08-13T10:57:40Z</time>
      </trkpt>
      <trkpt lat="45.58908" lon="2.74293">
        <ele>863.4</ele>
        <time>2017-08-13T10:58:26Z</time>
      </trkpt>
      <trkpt lat="45.58908" lon="2.74292">
        <ele>862.92</ele>
        <time>2017-08-13T10:59:11Z</time>
      </trkpt>
      <trkpt lat="45.58904" lon="2.74297">
        <ele>862.92</ele>
        <time>2017-08-13T10:59:55Z</time>
      </trkpt>
      <trkpt lat="45.58904" lon="2.74297">
        <ele>862.92</ele>
        <time>2017-08-13T11:00:36Z</time>
      </trkpt>
      <trkpt lat="45.58906" lon="2.74295">
        <ele>862.92</ele>
        <time>2017-08-13T11:01:02Z</time>
      </trkpt>
      <trkpt lat="45.58904" lon="2.743">
        <ele>862.92</ele>
        <time>2017-08-13T11:01:38Z</time>
      </trkpt>
      <trkpt lat="45.58905" lon="2.74295">
        <ele>862.44</ele>
        <time>2017-08-13T11:02:16Z</time>
      </trkpt>
      <trkpt lat="45.58903" lon="2.74297">
        <ele>862.92</ele>
        <time>2017-08-13T11:02:50Z</time>
      </trkpt>
      <trkpt lat="45.58904" lon="2.74293">
        <ele>862.92</ele>
        <time>2017-08-13T11:03:21Z</time>
      </trkpt>
      <trkpt lat="45.58903" lon="2.74298">
        <ele>862.92</ele>
        <time>2017-08-13T11:03:55Z</time>
      </trkpt>
      <trkpt lat="45.58904" lon="2.74294">
        <ele>862.44</ele>
        <time>2017-08-13T11:04:24Z</time>
      </trkpt>
      <trkpt lat="45.58904" lon="2.74292">
        <ele>862.92</ele>
        <time>2017-08-13T11:05:00Z</time>
      </trkpt>
      <trkpt lat="45.58905" lon="2.74298">
        <ele>862.92</ele>
        <time>2017-08-13T11:05:39Z</time>
      </trkpt>
      <trkpt lat="45.58902" lon="2.74293">
        <ele>862.92</ele>
        <time>2017-08-13T11:06:14Z</time>
      </trkpt>
      <trkpt lat="45.58904" lon="2.74293">
        <ele>862.44</ele>
        <time>2017-08-13T11:06:57Z</time>
      </trkpt>
      <trkpt lat="45.58904" lon="2.74295">
        <ele>862.44</ele>
        <time>2017-08-13T11:07:23Z</time>
      </trkpt>
      <trkpt lat="45.58906" lon="2.74298">
        <ele>862.92</ele>
        <time>2017-08-13T11:08:03Z</time>
      </trkpt>
      <trkpt lat="45.58905" lon="2.74296">
        <ele>862.92</ele>
        <time>2017-08-13T11:08:42Z</time>
      </trkpt>
      <trkpt lat="45.58908" lon="2.74294">
        <ele>862.44</ele>
        <time>2017-08-13T11:09:19Z</time>
      </trkpt>
      <trkpt lat="45.58907" lon="2.74295">
        <ele>862.44</ele>
        <time>2017-08-13T11:09:52Z</time>
      </trkpt>
      <trkpt lat="45.58905" lon="2.74297">
        <ele>862.44</ele>
        <time>2017-08-13T11:10:34Z</time>
      </trkpt>
      <trkpt lat="45.58905" lon="2.74293">
        <ele>862.44</ele>
        <time>2017-08-13T11:11:14Z</time>
      </trkpt>
      <trkpt lat="45.58905" lon="2.74293">
        <ele>861.96</ele>
        <time>2017-08-13T11:11:53Z</time>
      </trkpt>
      <trkpt lat="45.58905" lon="2.74296">
        <ele>861.96</ele>
        <time>2017-08-13T11:12:30Z</time>
      </trkpt>
      <trkpt lat="45.58903" lon="2.74295">
        <ele>861.96</ele>
        <time>2017-08-13T11:13:03Z</time>
      </trkpt>
      <trkpt lat="45.58903" lon="2.74298">
        <ele>861.96</ele>
        <time>2017-08-13T11:13:31Z</time>
      </trkpt>
      <trkpt lat="45.58904" lon="2.74295">
        <ele>861.48</ele>
        <time>2017-08-13T11:14:02Z</time>
      </trkpt>
      <trkpt lat="45.58902" lon="2.74294">
        <ele>861.48</ele>
        <time>2017-08-13T11:14:31Z</time>
      </trkpt>
      <trkpt lat="45.58903" lon="2.74296">
        <ele>861.48</ele>
        <time>2017-08-13T11:15:05Z</time>
      </trkpt>
      <trkpt lat="45.58905" lon="2.74297">
        <ele>862.44</ele>
        <time>2017-08-13T11:15:39Z</time>
      </trkpt>
      <trkpt lat="45.58905" lon="2.74295">
        <ele>862.44</ele>
        <time>2017-08-13T11:16:22Z</time>
      </trkpt>
      <trkpt lat="45.58905" lon="2.74294">
        <ele>861.96</ele>
        <time>2017-08-13T11:16:50Z</time>
      </trkpt>
      <trkpt lat="45.58905" lon="2.74295">
        <ele>861</ele>
        <time>2017-08-13T11:17:30Z</time>
      </trkpt>
      <trkpt lat="45.58905" lon="2.74292">
        <ele>861</ele>
        <time>2017-08-13T11:17:57Z</time>
      </trkpt>
      <trkpt lat="45.58905" lon="2.74291">
        <ele>861</ele>
        <time>2017-08-13T11:18:32Z</time>
      </trkpt>
      <trkpt lat="45.58906" lon="2.74291">
        <ele>861</ele>
        <time>2017-08-13T11:19:11Z</time>
      </trkpt>
      <trkpt lat="45.58903" lon="2.74289">
        <ele>861</ele>
        <time>2017-08-13T11:19:38Z</time>
      </trkpt>
      <trkpt lat="45.58904" lon="2.7429">
        <ele>860.52</ele>
        <time>2017-08-13T11:20:13Z</time>
      </trkpt>
      <trkpt lat="45.58905" lon="2.74291">
        <ele>860.52</ele>
        <time>2017-08-13T11:20:35Z</time>
      </trkpt>
      <trkpt lat="45.58902" lon="2.7429">
        <ele>860.52</ele>
        <time>2017-08-13T11:21:09Z</time>
      </trkpt>
      <trkpt lat="45.58903" lon="2.7429">
        <ele>860.52</ele>
        <time>2017-08-13T11:21:12Z</time>
      </trkpt>
      <trkpt lat="45.58908" lon="2.74286">
        <ele>860.52</ele>
        <time>2017-08-13T11:21:17Z</time>
      </trkpt>
      <trkpt lat="45.58926" lon="2.74277">
        <ele>860.52</ele>
        <time>2017-08-13T11:21:28Z</time>
      </trkpt>
      <trkpt lat="45.58927" lon="2.74274">
        <ele>860.52</ele>
        <time>2017-08-13T11:21:29Z</time>
      </trkpt>
      <trkpt lat="45.58927" lon="2.7427">
        <ele>860.52</ele>
        <time>2017-08-13T11:21:30Z</time>
      </trkpt>
      <trkpt lat="45.58913" lon="2.74203">
        <ele>859.56</ele>
        <time>2017-08-13T11:21:42Z</time>
      </trkpt>
      <trkpt lat="45.58912" lon="2.74197">
        <ele>859.08</ele>
        <time>2017-08-13T11:21:43Z</time>
      </trkpt>
      <trkpt lat="45.58908" lon="2.74162">
        <ele>859.08</ele>
        <time>2017-08-13T11:21:48Z</time>
      </trkpt>
      <trkpt lat="45.58906" lon="2.74136">
        <ele>858.59</ele>
        <time>2017-08-13T11:21:52Z</time>
      </trkpt>
      <trkpt lat="45.58904" lon="2.7413">
        <ele>858.59</ele>
        <time>2017-08-13T11:21:53Z</time>
      </trkpt>
      <trkpt lat="45.58902" lon="2.74124">
        <ele>858.11</ele>
        <time>2017-08-13T11:21:54Z</time>
      </trkpt>
      <trkpt lat="45.58899" lon="2.74119">
        <ele>858.11</ele>
        <time>2017-08-13T11:21:55Z</time>
      </trkpt>
      <trkpt lat="45.58895" lon="2.74115">
        <ele>858.11</ele>
        <time>2017-08-13T11:21:56Z</time>
      </trkpt>
      <trkpt lat="45.58891" lon="2.74112">
        <ele>858.11</ele>
        <time>2017-08-13T11:21:57Z</time>
      </trkpt>
      <trkpt lat="45.58887" lon="2.74111">
        <ele>858.11</ele>
        <time>2017-08-13T11:21:58Z</time>
      </trkpt>
      <trkpt lat="45.58884" lon="2.74111">
        <ele>858.11</ele>
        <time>2017-08-13T11:21:59Z</time>
      </trkpt>
      <trkpt lat="45.58881" lon="2.74112">
        <ele>858.11</ele>
        <time>2017-08-13T11:22:00Z</time>
      </trkpt>
      <trkpt lat="45.58878" lon="2.74112">
        <ele>858.11</ele>
        <time>2017-08-13T11:22:01Z</time>
      </trkpt>
      <trkpt lat="45.58865" lon="2.74116">
        <ele>859.56</ele>
        <time>2017-08-13T11:22:06Z</time>
      </trkpt>
      <trkpt lat="45.58836" lon="2.74122">
        <ele>861</ele>
        <time>2017-08-13T11:22:21Z</time>
      </trkpt>
      <trkpt lat="45.58806" lon="2.7413">
        <ele>862.92</ele>
        <time>2017-08-13T11:22:37Z</time>
      </trkpt>
      <trkpt lat="45.58782" lon="2.7414">
        <ele>864.84</ele>
        <time>2017-08-13T11:22:52Z</time>
      </trkpt>
      <trkpt lat="45.5878" lon="2.7414">
        <ele>865.32</ele>
        <time>2017-08-13T11:22:53Z</time>
      </trkpt>
      <trkpt lat="45.58779" lon="2.74141">
        <ele>865.32</ele>
        <time>2017-08-13T11:22:54Z</time>
      </trkpt>
      <trkpt lat="45.58777" lon="2.74142">
        <ele>865.32</ele>
        <time>2017-08-13T11:22:55Z</time>
      </trkpt>
      <trkpt lat="45.58776" lon="2.74143">
        <ele>865.32</ele>
        <time>2017-08-13T11:22:56Z</time>
      </trkpt>
      <trkpt lat="45.58776" lon="2.74146">
        <ele>865.32</ele>
        <time>2017-08-13T11:22:57Z</time>
      </trkpt>
      <trkpt lat="45.58776" lon="2.74151">
        <ele>865.32</ele>
        <time>2017-08-13T11:22:59Z</time>
      </trkpt>
      <trkpt lat="45.58782" lon="2.74197">
        <ele>867.25</ele>
        <time>2017-08-13T11:23:15Z</time>
      </trkpt>
      <trkpt lat="45.58781" lon="2.74239">
        <ele>868.21</ele>
        <time>2017-08-13T11:23:28Z</time>
      </trkpt>
      <trkpt lat="45.5878" lon="2.74241">
        <ele>868.21</ele>
        <time>2017-08-13T11:23:29Z</time>
      </trkpt>
      <trkpt lat="45.58779" lon="2.74242">
        <ele>868.69</ele>
        <time>2017-08-13T11:23:30Z</time>
      </trkpt>
      <trkpt lat="45.58777" lon="2.74243">
        <ele>868.69</ele>
        <time>2017-08-13T11:23:31Z</time>
      </trkpt>
      <trkpt lat="45.58776" lon="2.74244">
        <ele>868.69</ele>
        <time>2017-08-13T11:23:32Z</time>
      </trkpt>
      <trkpt lat="45.58775" lon="2.74245">
        <ele>869.17</ele>
        <time>2017-08-13T11:23:33Z</time>
      </trkpt>
      <trkpt lat="45.58774" lon="2.74245">
        <ele>869.17</ele>
        <time>2017-08-13T11:23:34Z</time>
      </trkpt>
      <trkpt lat="45.58773" lon="2.74246">
        <ele>869.17</ele>
        <time>2017-08-13T11:23:35Z</time>
      </trkpt>
      <trkpt lat="45.58771" lon="2.74246">
        <ele>869.17</ele>
        <time>2017-08-13T11:23:36Z</time>
      </trkpt>
      <trkpt lat="45.5877" lon="2.74247">
        <ele>869.65</ele>
        <time>2017-08-13T11:23:37Z</time>
      </trkpt>
      <trkpt lat="45.58749" lon="2.74254">
        <ele>871.09</ele>
        <time>2017-08-13T11:23:52Z</time>
      </trkpt>
      <trkpt lat="45.58723" lon="2.74265">
        <ele>872.53</ele>
        <time>2017-08-13T11:24:07Z</time>
      </trkpt>
      <trkpt lat="45.58699" lon="2.74273">
        <ele>873.98</ele>
        <time>2017-08-13T11:24:20Z</time>
      </trkpt>
      <trkpt lat="45.58689" lon="2.74276">
        <ele>874.46</ele>
        <time>2017-08-13T11:24:26Z</time>
      </trkpt>
      <trkpt lat="45.58687" lon="2.74275">
        <ele>874.94</ele>
        <time>2017-08-13T11:24:27Z</time>
      </trkpt>
      <trkpt lat="45.58686" lon="2.74273">
        <ele>874.94</ele>
        <time>2017-08-13T11:24:28Z</time>
      </trkpt>
      <trkpt lat="45.58685" lon="2.74271">
        <ele>874.94</ele>
        <time>2017-08-13T11:24:29Z</time>
      </trkpt>
      <trkpt lat="45.58685" lon="2.74269">
        <ele>874.94</ele>
        <time>2017-08-13T11:24:30Z</time>
      </trkpt>
      <trkpt lat="45.58681" lon="2.74252">
        <ele>875.42</ele>
        <time>2017-08-13T11:24:36Z</time>
      </trkpt>
      <trkpt lat="45.58681" lon="2.7425">
        <ele>875.42</ele>
        <time>2017-08-13T11:24:37Z</time>
      </trkpt>
      <trkpt lat="45.5868" lon="2.74247">
        <ele>875.42</ele>
        <time>2017-08-13T11:24:38Z</time>
      </trkpt>
      <trkpt lat="45.5868" lon="2.74243">
        <ele>875.42</ele>
        <time>2017-08-13T11:24:39Z</time>
      </trkpt>
      <trkpt lat="45.5868" lon="2.7424">
        <ele>875.42</ele>
        <time>2017-08-13T11:24:40Z</time>
      </trkpt>
      <trkpt lat="45.58679" lon="2.74237">
        <ele>875.42</ele>
        <time>2017-08-13T11:24:41Z</time>
      </trkpt>
      <trkpt lat="45.58679" lon="2.74234">
        <ele>875.42</ele>
        <time>2017-08-13T11:24:42Z</time>
      </trkpt>
      <trkpt lat="45.58678" lon="2.7423">
        <ele>875.42</ele>
        <time>2017-08-13T11:24:43Z</time>
      </trkpt>
      <trkpt lat="45.58678" lon="2.74227">
        <ele>875.42</ele>
        <time>2017-08-13T11:24:44Z</time>
      </trkpt>
      <trkpt lat="45.58677" lon="2.74223">
        <ele>875.42</ele>
        <time>2017-08-13T11:24:45Z</time>
      </trkpt>
      <trkpt lat="45.58677" lon="2.7422">
        <ele>875.42</ele>
        <time>2017-08-13T11:24:46Z</time>
      </trkpt>
      <trkpt lat="45.58676" lon="2.74216">
        <ele>875.42</ele>
        <time>2017-08-13T11:24:47Z</time>
      </trkpt>
      <trkpt lat="45.58676" lon="2.74213">
        <ele>875.42</ele>
        <time>2017-08-13T11:24:48Z</time>
      </trkpt>
      <trkpt lat="45.58663" lon="2.74168">
        <ele>874.46</ele>
        <time>2017-08-13T11:25:01Z</time>
      </trkpt>
      <trkpt lat="45.58661" lon="2.74168">
        <ele>874.46</ele>
        <time>2017-08-13T11:25:02Z</time>
      </trkpt>
      <trkpt lat="45.5866" lon="2.74168">
        <ele>874.46</ele>
        <time>2017-08-13T11:25:03Z</time>
      </trkpt>
      <trkpt lat="45.58633" lon="2.74169">
        <ele>876.38</ele>
        <time>2017-08-13T11:25:18Z</time>
      </trkpt>
      <trkpt lat="45.5861" lon="2.74154">
        <ele>877.82</ele>
        <time>2017-08-13T11:25:32Z</time>
      </trkpt>
      <trkpt lat="45.58589" lon="2.74133">
        <ele>880.22</ele>
        <time>2017-08-13T11:25:48Z</time>
      </trkpt>
      <trkpt lat="45.58586" lon="2.7413">
        <ele>880.71</ele>
        <time>2017-08-13T11:25:50Z</time>
      </trkpt>
      <trkpt lat="45.58565" lon="2.74112">
        <ele>882.63</ele>
        <time>2017-08-13T11:26:05Z</time>
      </trkpt>
      <trkpt lat="45.58542" lon="2.74127">
        <ele>884.07</ele>
        <time>2017-08-13T11:26:20Z</time>
      </trkpt>
      <trkpt lat="45.58527" lon="2.74159">
        <ele>886.47</ele>
        <time>2017-08-13T11:26:36Z</time>
      </trkpt>
      <trkpt lat="45.5851" lon="2.74193">
        <ele>888.88</ele>
        <time>2017-08-13T11:26:54Z</time>
      </trkpt>
      <trkpt lat="45.58494" lon="2.74227">
        <ele>891.28</ele>
        <time>2017-08-13T11:27:11Z</time>
      </trkpt>
      <trkpt lat="45.58478" lon="2.74247">
        <ele>893.2</ele>
        <time>2017-08-13T11:27:24Z</time>
      </trkpt>
      <trkpt lat="45.58459" lon="2.74268">
        <ele>894.64</ele>
        <time>2017-08-13T11:27:38Z</time>
      </trkpt>
      <trkpt lat="45.58449" lon="2.74294">
        <ele>896.09</ele>
        <time>2017-08-13T11:27:51Z</time>
      </trkpt>
      <trkpt lat="45.58442" lon="2.74327">
        <ele>898.49</ele>
        <time>2017-08-13T11:28:06Z</time>
      </trkpt>
      <trkpt lat="45.58434" lon="2.74364">
        <ele>900.41</ele>
        <time>2017-08-13T11:28:21Z</time>
      </trkpt>
      <trkpt lat="45.58424" lon="2.74401">
        <ele>902.33</ele>
        <time>2017-08-13T11:28:37Z</time>
      </trkpt>
      <trkpt lat="45.58412" lon="2.74442">
        <ele>905.22</ele>
        <time>2017-08-13T11:28:55Z</time>
      </trkpt>
      <trkpt lat="45.58401" lon="2.74476">
        <ele>907.14</ele>
        <time>2017-08-13T11:29:10Z</time>
      </trkpt>
      <trkpt lat="45.58392" lon="2.74489">
        <ele>908.1</ele>
        <time>2017-08-13T11:29:22Z</time>
      </trkpt>
      <trkpt lat="45.58391" lon="2.7449">
        <ele>908.1</ele>
        <time>2017-08-13T11:29:42Z</time>
      </trkpt>
      <trkpt lat="45.58391" lon="2.74491">
        <ele>908.1</ele>
        <time>2017-08-13T11:29:52Z</time>
      </trkpt>
      <trkpt lat="45.58377" lon="2.74509">
        <ele>909.06</ele>
        <time>2017-08-13T11:30:04Z</time>
      </trkpt>
      <trkpt lat="45.58364" lon="2.74529">
        <ele>910.51</ele>
        <time>2017-08-13T11:30:17Z</time>
      </trkpt>
      <trkpt lat="45.5835" lon="2.74544">
        <ele>911.95</ele>
        <time>2017-08-13T11:30:29Z</time>
      </trkpt>
      <trkpt lat="45.58349" lon="2.74546">
        <ele>911.95</ele>
        <time>2017-08-13T11:30:30Z</time>
      </trkpt>
      <trkpt lat="45.58348" lon="2.74548">
        <ele>912.43</ele>
        <time>2017-08-13T11:30:31Z</time>
      </trkpt>
      <trkpt lat="45.58347" lon="2.7455">
        <ele>912.43</ele>
        <time>2017-08-13T11:30:32Z</time>
      </trkpt>
      <trkpt lat="45.58346" lon="2.74551">
        <ele>912.43</ele>
        <time>2017-08-13T11:30:33Z</time>
      </trkpt>
      <trkpt lat="45.58324" lon="2.74577">
        <ele>914.83</ele>
        <time>2017-08-13T11:30:49Z</time>
      </trkpt>
      <trkpt lat="45.58306" lon="2.746">
        <ele>916.75</ele>
        <time>2017-08-13T11:31:03Z</time>
      </trkpt>
      <trkpt lat="45.58286" lon="2.74618">
        <ele>918.2</ele>
        <time>2017-08-13T11:31:17Z</time>
      </trkpt>
      <trkpt lat="45.58266" lon="2.74637">
        <ele>920.6</ele>
        <time>2017-08-13T11:31:32Z</time>
      </trkpt>
      <trkpt lat="45.58254" lon="2.74665">
        <ele>922.04</ele>
        <time>2017-08-13T11:31:46Z</time>
      </trkpt>
      <trkpt lat="45.58235" lon="2.74692">
        <ele>924.45</ele>
        <time>2017-08-13T11:32:02Z</time>
      </trkpt>
      <trkpt lat="45.58212" lon="2.74704">
        <ele>926.37</ele>
        <time>2017-08-13T11:32:16Z</time>
      </trkpt>
      <trkpt lat="45.58183" lon="2.74719">
        <ele>928.29</ele>
        <time>2017-08-13T11:32:34Z</time>
      </trkpt>
      <trkpt lat="45.5817" lon="2.74729">
        <ele>929.73</ele>
        <time>2017-08-13T11:32:43Z</time>
      </trkpt>
      <trkpt lat="45.58167" lon="2.74728">
        <ele>929.73</ele>
        <time>2017-08-13T11:32:44Z</time>
      </trkpt>
      <trkpt lat="45.58165" lon="2.74728">
        <ele>929.73</ele>
        <time>2017-08-13T11:32:45Z</time>
      </trkpt>
      <trkpt lat="45.58161" lon="2.74729">
        <ele>929.73</ele>
        <time>2017-08-13T11:32:46Z</time>
      </trkpt>
      <trkpt lat="45.58157" lon="2.7473">
        <ele>929.73</ele>
        <time>2017-08-13T11:32:47Z</time>
      </trkpt>
      <trkpt lat="45.58147" lon="2.74734">
        <ele>928.29</ele>
        <time>2017-08-13T11:32:49Z</time>
      </trkpt>
      <trkpt lat="45.58115" lon="2.74742">
        <ele>925.41</ele>
        <time>2017-08-13T11:32:54Z</time>
      </trkpt>
      <trkpt lat="45.58033" lon="2.74765">
        <ele>923</ele>
        <time>2017-08-13T11:33:05Z</time>
      </trkpt>
      <trkpt lat="45.58009" lon="2.74779">
        <ele>926.37</ele>
        <time>2017-08-13T11:33:12Z</time>
      </trkpt>
      <trkpt lat="45.57982" lon="2.74806">
        <ele>928.77</ele>
        <time>2017-08-13T11:33:25Z</time>
      </trkpt>
      <trkpt lat="45.57957" lon="2.74821">
        <ele>931.65</ele>
        <time>2017-08-13T11:33:39Z</time>
      </trkpt>
      <trkpt lat="45.57929" lon="2.74806">
        <ele>934.06</ele>
        <time>2017-08-13T11:33:57Z</time>
      </trkpt>
      <trkpt lat="45.57906" lon="2.74796">
        <ele>935.5</ele>
        <time>2017-08-13T11:34:12Z</time>
      </trkpt>
      <trkpt lat="45.57883" lon="2.7481">
        <ele>937.9</ele>
        <time>2017-08-13T11:34:27Z</time>
      </trkpt>
      <trkpt lat="45.57859" lon="2.74835">
        <ele>939.35</ele>
        <time>2017-08-13T11:34:42Z</time>
      </trkpt>
      <trkpt lat="45.57836" lon="2.7485">
        <ele>941.27</ele>
        <time>2017-08-13T11:34:58Z</time>
      </trkpt>
      <trkpt lat="45.57817" lon="2.74857">
        <ele>944.15</ele>
        <time>2017-08-13T11:35:12Z</time>
      </trkpt>
      <trkpt lat="45.578" lon="2.74858">
        <ele>945.59</ele>
        <time>2017-08-13T11:35:25Z</time>
      </trkpt>
      <trkpt lat="45.57772" lon="2.74852">
        <ele>948</ele>
        <time>2017-08-13T11:35:42Z</time>
      </trkpt>
      <trkpt lat="45.57734" lon="2.74849">
        <ele>947.52</ele>
        <time>2017-08-13T11:35:56Z</time>
      </trkpt>
      <trkpt lat="45.57654" lon="2.74852">
        <ele>945.11</ele>
        <time>2017-08-13T11:36:09Z</time>
      </trkpt>
      <trkpt lat="45.57648" lon="2.74854">
        <ele>944.63</ele>
        <time>2017-08-13T11:36:10Z</time>
      </trkpt>
      <trkpt lat="45.5759" lon="2.74878">
        <ele>941.27</ele>
        <time>2017-08-13T11:36:19Z</time>
      </trkpt>
      <trkpt lat="45.57552" lon="2.74887">
        <ele>937.9</ele>
        <time>2017-08-13T11:36:23Z</time>
      </trkpt>
      <trkpt lat="45.57528" lon="2.74891">
        <ele>939.83</ele>
        <time>2017-08-13T11:36:26Z</time>
      </trkpt>
      <trkpt lat="45.57522" lon="2.74895">
        <ele>939.83</ele>
        <time>2017-08-13T11:36:27Z</time>
      </trkpt>
      <trkpt lat="45.57504" lon="2.74904">
        <ele>939.83</ele>
        <time>2017-08-13T11:36:30Z</time>
      </trkpt>
      <trkpt lat="45.57499" lon="2.74906">
        <ele>940.31</ele>
        <time>2017-08-13T11:36:31Z</time>
      </trkpt>
      <trkpt lat="45.57495" lon="2.74906">
        <ele>940.79</ele>
        <time>2017-08-13T11:36:32Z</time>
      </trkpt>
      <trkpt lat="45.57492" lon="2.74906">
        <ele>941.27</ele>
        <time>2017-08-13T11:36:33Z</time>
      </trkpt>
      <trkpt lat="45.57489" lon="2.74905">
        <ele>941.75</ele>
        <time>2017-08-13T11:36:34Z</time>
      </trkpt>
      <trkpt lat="45.57487" lon="2.74904">
        <ele>942.23</ele>
        <time>2017-08-13T11:36:35Z</time>
      </trkpt>
      <trkpt lat="45.57475" lon="2.749">
        <ele>943.19</ele>
        <time>2017-08-13T11:36:42Z</time>
      </trkpt>
      <trkpt lat="45.57455" lon="2.74896">
        <ele>946.07</ele>
        <time>2017-08-13T11:36:56Z</time>
      </trkpt>
      <trkpt lat="45.57452" lon="2.74896">
        <ele>946.07</ele>
        <time>2017-08-13T11:36:58Z</time>
      </trkpt>
      <trkpt lat="45.57451" lon="2.74896">
        <ele>946.07</ele>
        <time>2017-08-13T11:36:59Z</time>
      </trkpt>
      <trkpt lat="45.57446" lon="2.74896">
        <ele>946.56</ele>
        <time>2017-08-13T11:37:02Z</time>
      </trkpt>
      <trkpt lat="45.57445" lon="2.74896">
        <ele>947.04</ele>
        <time>2017-08-13T11:37:03Z</time>
      </trkpt>
      <trkpt lat="45.57444" lon="2.74897">
        <ele>947.04</ele>
        <time>2017-08-13T11:37:04Z</time>
      </trkpt>
      <trkpt lat="45.57442" lon="2.74897">
        <ele>947.04</ele>
        <time>2017-08-13T11:37:05Z</time>
      </trkpt>
      <trkpt lat="45.57441" lon="2.74898">
        <ele>947.04</ele>
        <time>2017-08-13T11:37:06Z</time>
      </trkpt>
      <trkpt lat="45.5744" lon="2.74898">
        <ele>947.52</ele>
        <time>2017-08-13T11:37:07Z</time>
      </trkpt>
      <trkpt lat="45.57438" lon="2.74899">
        <ele>947.52</ele>
        <time>2017-08-13T11:37:08Z</time>
      </trkpt>
      <trkpt lat="45.57437" lon="2.74899">
        <ele>947.52</ele>
        <time>2017-08-13T11:37:09Z</time>
      </trkpt>
      <trkpt lat="45.5742" lon="2.74914">
        <ele>949.44</ele>
        <time>2017-08-13T11:37:23Z</time>
      </trkpt>
      <trkpt lat="45.57397" lon="2.74942">
        <ele>951.36</ele>
        <time>2017-08-13T11:37:38Z</time>
      </trkpt>
      <trkpt lat="45.5737" lon="2.74981">
        <ele>952.32</ele>
        <time>2017-08-13T11:37:56Z</time>
      </trkpt>
      <trkpt lat="45.57358" lon="2.75008">
        <ele>954.73</ele>
        <time>2017-08-13T11:38:09Z</time>
      </trkpt>
      <trkpt lat="45.57345" lon="2.75037">
        <ele>958.09</ele>
        <time>2017-08-13T11:38:25Z</time>
      </trkpt>
      <trkpt lat="45.57322" lon="2.75062">
        <ele>959.53</ele>
        <time>2017-08-13T11:38:42Z</time>
      </trkpt>
      <trkpt lat="45.57317" lon="2.75067">
        <ele>960.01</ele>
        <time>2017-08-13T11:38:47Z</time>
      </trkpt>
      <trkpt lat="45.57314" lon="2.75068">
        <ele>960.01</ele>
        <time>2017-08-13T11:38:48Z</time>
      </trkpt>
      <trkpt lat="45.57313" lon="2.75069">
        <ele>960.01</ele>
        <time>2017-08-13T11:38:49Z</time>
      </trkpt>
      <trkpt lat="45.57311" lon="2.75071">
        <ele>960.01</ele>
        <time>2017-08-13T11:38:50Z</time>
      </trkpt>
      <trkpt lat="45.5731" lon="2.75073">
        <ele>960.01</ele>
        <time>2017-08-13T11:38:51Z</time>
      </trkpt>
      <trkpt lat="45.57309" lon="2.75075">
        <ele>960.01</ele>
        <time>2017-08-13T11:38:52Z</time>
      </trkpt>
      <trkpt lat="45.57308" lon="2.75078">
        <ele>960.01</ele>
        <time>2017-08-13T11:38:53Z</time>
      </trkpt>
      <trkpt lat="45.57306" lon="2.7508">
        <ele>959.05</ele>
        <time>2017-08-13T11:38:54Z</time>
      </trkpt>
      <trkpt lat="45.57305" lon="2.75083">
        <ele>959.05</ele>
        <time>2017-08-13T11:38:55Z</time>
      </trkpt>
      <trkpt lat="45.57304" lon="2.75086">
        <ele>959.05</ele>
        <time>2017-08-13T11:38:56Z</time>
      </trkpt>
      <trkpt lat="45.57303" lon="2.75089">
        <ele>959.05</ele>
        <time>2017-08-13T11:38:57Z</time>
      </trkpt>
      <trkpt lat="45.57301" lon="2.75092">
        <ele>959.05</ele>
        <time>2017-08-13T11:38:58Z</time>
      </trkpt>
      <trkpt lat="45.57299" lon="2.75096">
        <ele>959.05</ele>
        <time>2017-08-13T11:38:59Z</time>
      </trkpt>
      <trkpt lat="45.57298" lon="2.75101">
        <ele>958.09</ele>
        <time>2017-08-13T11:39:00Z</time>
      </trkpt>
      <trkpt lat="45.57296" lon="2.75106">
        <ele>958.09</ele>
        <time>2017-08-13T11:39:01Z</time>
      </trkpt>
      <trkpt lat="45.57284" lon="2.75127">
        <ele>956.17</ele>
        <time>2017-08-13T11:39:05Z</time>
      </trkpt>
      <trkpt lat="45.5728" lon="2.75131">
        <ele>955.69</ele>
        <time>2017-08-13T11:39:06Z</time>
      </trkpt>
      <trkpt lat="45.57273" lon="2.75137">
        <ele>955.21</ele>
        <time>2017-08-13T11:39:07Z</time>
      </trkpt>
      <trkpt lat="45.57261" lon="2.75145">
        <ele>954.25</ele>
        <time>2017-08-13T11:39:09Z</time>
      </trkpt>
      <trkpt lat="45.57245" lon="2.75158">
        <ele>954.25</ele>
        <time>2017-08-13T11:39:12Z</time>
      </trkpt>
      <trkpt lat="45.5724" lon="2.75158">
        <ele>954.25</ele>
        <time>2017-08-13T11:39:13Z</time>
      </trkpt>
      <trkpt lat="45.57212" lon="2.75169">
        <ele>956.65</ele>
        <time>2017-08-13T11:39:24Z</time>
      </trkpt>
      <trkpt lat="45.57206" lon="2.75172">
        <ele>957.13</ele>
        <time>2017-08-13T11:39:28Z</time>
      </trkpt>
      <trkpt lat="45.57205" lon="2.75172">
        <ele>957.13</ele>
        <time>2017-08-13T11:39:29Z</time>
      </trkpt>
      <trkpt lat="45.57203" lon="2.75172">
        <ele>957.61</ele>
        <time>2017-08-13T11:39:30Z</time>
      </trkpt>
      <trkpt lat="45.57201" lon="2.75173">
        <ele>957.61</ele>
        <time>2017-08-13T11:39:31Z</time>
      </trkpt>
      <trkpt lat="45.572" lon="2.75173">
        <ele>957.61</ele>
        <time>2017-08-13T11:39:32Z</time>
      </trkpt>
      <trkpt lat="45.57198" lon="2.75174">
        <ele>957.61</ele>
        <time>2017-08-13T11:39:33Z</time>
      </trkpt>
      <trkpt lat="45.57196" lon="2.75174">
        <ele>958.09</ele>
        <time>2017-08-13T11:39:34Z</time>
      </trkpt>
      <trkpt lat="45.57185" lon="2.75178">
        <ele>959.53</ele>
        <time>2017-08-13T11:39:46Z</time>
      </trkpt>
      <trkpt lat="45.57174" lon="2.75177">
        <ele>960.98</ele>
        <time>2017-08-13T11:39:59Z</time>
      </trkpt>
      <trkpt lat="45.57161" lon="2.75175">
        <ele>962.9</ele>
        <time>2017-08-13T11:40:12Z</time>
      </trkpt>
      <trkpt lat="45.5716" lon="2.75175">
        <ele>962.9</ele>
        <time>2017-08-13T11:40:13Z</time>
      </trkpt>
      <trkpt lat="45.57159" lon="2.75175">
        <ele>963.38</ele>
        <time>2017-08-13T11:40:14Z</time>
      </trkpt>
      <trkpt lat="45.57158" lon="2.75175">
        <ele>963.38</ele>
        <time>2017-08-13T11:40:15Z</time>
      </trkpt>
      <trkpt lat="45.57136" lon="2.75169">
        <ele>964.34</ele>
        <time>2017-08-13T11:40:32Z</time>
      </trkpt>
      <trkpt lat="45.57121" lon="2.75161">
        <ele>966.26</ele>
        <time>2017-08-13T11:40:47Z</time>
      </trkpt>
      <trkpt lat="45.57108" lon="2.75154">
        <ele>967.7</ele>
        <time>2017-08-13T11:41:03Z</time>
      </trkpt>
      <trkpt lat="45.57102" lon="2.75158">
        <ele>968.18</ele>
        <time>2017-08-13T11:41:18Z</time>
      </trkpt>
      <trkpt lat="45.57097" lon="2.75159">
        <ele>968.18</ele>
        <time>2017-08-13T11:41:39Z</time>
      </trkpt>
      <trkpt lat="45.57095" lon="2.75158">
        <ele>968.18</ele>
        <time>2017-08-13T11:41:40Z</time>
      </trkpt>
      <trkpt lat="45.57092" lon="2.75157">
        <ele>968.18</ele>
        <time>2017-08-13T11:41:43Z</time>
      </trkpt>
      <trkpt lat="45.57079" lon="2.75159">
        <ele>971.07</ele>
        <time>2017-08-13T11:41:56Z</time>
      </trkpt>
      <trkpt lat="45.57067" lon="2.75159">
        <ele>972.99</ele>
        <time>2017-08-13T11:42:11Z</time>
      </trkpt>
      <trkpt lat="45.57058" lon="2.75157">
        <ele>974.43</ele>
        <time>2017-08-13T11:42:21Z</time>
      </trkpt>
      <trkpt lat="45.57053" lon="2.75159">
        <ele>974.91</ele>
        <time>2017-08-13T11:42:37Z</time>
      </trkpt>
      <trkpt lat="45.57052" lon="2.75151">
        <ele>975.88</ele>
        <time>2017-08-13T11:43:04Z</time>
      </trkpt>
      <trkpt lat="45.57046" lon="2.75155">
        <ele>975.88</ele>
        <time>2017-08-13T11:43:15Z</time>
      </trkpt>
      <trkpt lat="45.57029" lon="2.75151">
        <ele>975.88</ele>
        <time>2017-08-13T11:43:26Z</time>
      </trkpt>
      <trkpt lat="45.57015" lon="2.75147">
        <ele>976.36</ele>
        <time>2017-08-13T11:43:32Z</time>
      </trkpt>
      <trkpt lat="45.5699" lon="2.75149">
        <ele>976.36</ele>
        <time>2017-08-13T11:43:44Z</time>
      </trkpt>
      <trkpt lat="45.56982" lon="2.75144">
        <ele>976.84</ele>
        <time>2017-08-13T11:44:00Z</time>
      </trkpt>
      <trkpt lat="45.5698" lon="2.75144">
        <ele>977.32</ele>
        <time>2017-08-13T11:44:27Z</time>
      </trkpt>
      <trkpt lat="45.56966" lon="2.75145">
        <ele>977.8</ele>
        <time>2017-08-13T11:44:40Z</time>
      </trkpt>
      <trkpt lat="45.56952" lon="2.7514">
        <ele>978.76</ele>
        <time>2017-08-13T11:44:54Z</time>
      </trkpt>
      <trkpt lat="45.56936" lon="2.75134">
        <ele>980.2</ele>
        <time>2017-08-13T11:45:07Z</time>
      </trkpt>
      <trkpt lat="45.56917" lon="2.75137">
        <ele>981.64</ele>
        <time>2017-08-13T11:45:22Z</time>
      </trkpt>
      <trkpt lat="45.56901" lon="2.75138">
        <ele>984.05</ele>
        <time>2017-08-13T11:45:37Z</time>
      </trkpt>
      <trkpt lat="45.569" lon="2.75139">
        <ele>984.05</ele>
        <time>2017-08-13T11:45:38Z</time>
      </trkpt>
      <trkpt lat="45.56891" lon="2.75139">
        <ele>985.97</ele>
        <time>2017-08-13T11:45:51Z</time>
      </trkpt>
      <trkpt lat="45.56888" lon="2.7514">
        <ele>986.45</ele>
        <time>2017-08-13T11:46:09Z</time>
      </trkpt>
      <trkpt lat="45.56884" lon="2.75137">
        <ele>986.45</ele>
        <time>2017-08-13T11:46:28Z</time>
      </trkpt>
      <trkpt lat="45.56873" lon="2.75135">
        <ele>989.33</ele>
        <time>2017-08-13T11:46:44Z</time>
      </trkpt>
      <trkpt lat="45.56859" lon="2.75135">
        <ele>992.22</ele>
        <time>2017-08-13T11:46:59Z</time>
      </trkpt>
      <trkpt lat="45.5685" lon="2.75134">
        <ele>993.66</ele>
        <time>2017-08-13T11:47:12Z</time>
      </trkpt>
      <trkpt lat="45.56849" lon="2.75134">
        <ele>993.66</ele>
        <time>2017-08-13T11:47:13Z</time>
      </trkpt>
      <trkpt lat="45.56837" lon="2.75133">
        <ele>995.1</ele>
        <time>2017-08-13T11:47:24Z</time>
      </trkpt>
      <trkpt lat="45.56836" lon="2.75132">
        <ele>995.58</ele>
        <time>2017-08-13T11:47:25Z</time>
      </trkpt>
      <trkpt lat="45.56828" lon="2.75133">
        <ele>997.02</ele>
        <time>2017-08-13T11:47:36Z</time>
      </trkpt>
      <trkpt lat="45.5681" lon="2.75134">
        <ele>997.99</ele>
        <time>2017-08-13T11:47:51Z</time>
      </trkpt>
      <trkpt lat="45.56792" lon="2.7514">
        <ele>999.91</ele>
        <time>2017-08-13T11:48:07Z</time>
      </trkpt>
      <trkpt lat="45.5678" lon="2.75149">
        <ele>1000.39</ele>
        <time>2017-08-13T11:48:19Z</time>
      </trkpt>
      <trkpt lat="45.56758" lon="2.75158">
        <ele>997.99</ele>
        <time>2017-08-13T11:48:26Z</time>
      </trkpt>
      <trkpt lat="45.56753" lon="2.75158">
        <ele>997.99</ele>
        <time>2017-08-13T11:48:27Z</time>
      </trkpt>
      <trkpt lat="45.56733" lon="2.7516">
        <ele>1000.39</ele>
        <time>2017-08-13T11:48:36Z</time>
      </trkpt>
      <trkpt lat="45.56728" lon="2.75162">
        <ele>1000.87</ele>
        <time>2017-08-13T11:48:39Z</time>
      </trkpt>
      <trkpt lat="45.56726" lon="2.75164">
        <ele>1001.35</ele>
        <time>2017-08-13T11:48:40Z</time>
      </trkpt>
      <trkpt lat="45.56725" lon="2.75165">
        <ele>1001.35</ele>
        <time>2017-08-13T11:48:41Z</time>
      </trkpt>
      <trkpt lat="45.56721" lon="2.75172">
        <ele>1002.79</ele>
        <time>2017-08-13T11:48:46Z</time>
      </trkpt>
      <trkpt lat="45.5672" lon="2.75175">
        <ele>1003.27</ele>
        <time>2017-08-13T11:48:48Z</time>
      </trkpt>
      <trkpt lat="45.56719" lon="2.75176">
        <ele>1003.27</ele>
        <time>2017-08-13T11:48:49Z</time>
      </trkpt>
      <trkpt lat="45.56701" lon="2.75198">
        <ele>1004.23</ele>
        <time>2017-08-13T11:49:02Z</time>
      </trkpt>
      <trkpt lat="45.56672" lon="2.75219">
        <ele>1004.23</ele>
        <time>2017-08-13T11:49:15Z</time>
      </trkpt>
      <trkpt lat="45.56648" lon="2.75206">
        <ele>1006.64</ele>
        <time>2017-08-13T11:49:28Z</time>
      </trkpt>
      <trkpt lat="45.56635" lon="2.75187">
        <ele>1010</ele>
        <time>2017-08-13T11:49:42Z</time>
      </trkpt>
      <trkpt lat="45.56627" lon="2.75173">
        <ele>1011.93</ele>
        <time>2017-08-13T11:49:51Z</time>
      </trkpt>
      <trkpt lat="45.56626" lon="2.75174">
        <ele>1012.41</ele>
        <time>2017-08-13T11:49:52Z</time>
      </trkpt>
      <trkpt lat="45.56624" lon="2.75174">
        <ele>1011.93</ele>
        <time>2017-08-13T11:49:53Z</time>
      </trkpt>
      <trkpt lat="45.56615" lon="2.75177">
        <ele>1013.37</ele>
        <time>2017-08-13T11:50:05Z</time>
      </trkpt>
      <trkpt lat="45.56604" lon="2.75176">
        <ele>1015.77</ele>
        <time>2017-08-13T11:50:22Z</time>
      </trkpt>
      <trkpt lat="45.56593" lon="2.75174">
        <ele>1017.69</ele>
        <time>2017-08-13T11:50:37Z</time>
      </trkpt>
      <trkpt lat="45.56583" lon="2.75169">
        <ele>1020.1</ele>
        <time>2017-08-13T11:50:51Z</time>
      </trkpt>
      <trkpt lat="45.5657" lon="2.75162">
        <ele>1022.02</ele>
        <time>2017-08-13T11:51:05Z</time>
      </trkpt>
      <trkpt lat="45.56556" lon="2.75155">
        <ele>1023.46</ele>
        <time>2017-08-13T11:51:19Z</time>
      </trkpt>
      <trkpt lat="45.56541" lon="2.75152">
        <ele>1026.34</ele>
        <time>2017-08-13T11:51:35Z</time>
      </trkpt>
      <trkpt lat="45.56526" lon="2.75154">
        <ele>1028.75</ele>
        <time>2017-08-13T11:51:51Z</time>
      </trkpt>
      <trkpt lat="45.56516" lon="2.75156">
        <ele>1031.15</ele>
        <time>2017-08-13T11:52:06Z</time>
      </trkpt>
      <trkpt lat="45.56505" lon="2.75152">
        <ele>1033.55</ele>
        <time>2017-08-13T11:52:22Z</time>
      </trkpt>
      <trkpt lat="45.56503" lon="2.75152">
        <ele>1034.04</ele>
        <time>2017-08-13T11:52:41Z</time>
      </trkpt>
      <trkpt lat="45.56498" lon="2.75151">
        <ele>1034.52</ele>
        <time>2017-08-13T11:53:04Z</time>
      </trkpt>
      <trkpt lat="45.56487" lon="2.75149">
        <ele>1036.92</ele>
        <time>2017-08-13T11:53:18Z</time>
      </trkpt>
      <trkpt lat="45.56486" lon="2.75148">
        <ele>1036.92</ele>
        <time>2017-08-13T11:53:19Z</time>
      </trkpt>
      <trkpt lat="45.56469" lon="2.75143">
        <ele>1039.8</ele>
        <time>2017-08-13T11:53:36Z</time>
      </trkpt>
      <trkpt lat="45.56457" lon="2.7514">
        <ele>1042.21</ele>
        <time>2017-08-13T11:53:51Z</time>
      </trkpt>
      <trkpt lat="45.56447" lon="2.75131">
        <ele>1045.09</ele>
        <time>2017-08-13T11:54:09Z</time>
      </trkpt>
      <trkpt lat="45.56437" lon="2.75126">
        <ele>1048.45</ele>
        <time>2017-08-13T11:54:27Z</time>
      </trkpt>
      <trkpt lat="45.56428" lon="2.75111">
        <ele>1051.34</ele>
        <time>2017-08-13T11:54:43Z</time>
      </trkpt>
      <trkpt lat="45.56427" lon="2.7511">
        <ele>1051.82</ele>
        <time>2017-08-13T11:54:58Z</time>
      </trkpt>
      <trkpt lat="45.56429" lon="2.75106">
        <ele>1053.26</ele>
        <time>2017-08-13T11:55:18Z</time>
      </trkpt>
      <trkpt lat="45.56436" lon="2.751">
        <ele>1055.67</ele>
        <time>2017-08-13T11:55:32Z</time>
      </trkpt>
      <trkpt lat="45.56442" lon="2.75095">
        <ele>1058.07</ele>
        <time>2017-08-13T11:55:46Z</time>
      </trkpt>
      <trkpt lat="45.56449" lon="2.75094">
        <ele>1059.99</ele>
        <time>2017-08-13T11:56:00Z</time>
      </trkpt>
      <trkpt lat="45.56449" lon="2.75093">
        <ele>1060.95</ele>
        <time>2017-08-13T11:56:15Z</time>
      </trkpt>
      <trkpt lat="45.56454" lon="2.7509">
        <ele>1062.39</ele>
        <time>2017-08-13T11:56:34Z</time>
      </trkpt>
      <trkpt lat="45.56467" lon="2.75075">
        <ele>1065.28</ele>
        <time>2017-08-13T11:56:51Z</time>
      </trkpt>
      <trkpt lat="45.56478" lon="2.75076">
        <ele>1067.2</ele>
        <time>2017-08-13T11:57:06Z</time>
      </trkpt>
      <trkpt lat="45.56491" lon="2.75082">
        <ele>1069.6</ele>
        <time>2017-08-13T11:57:22Z</time>
      </trkpt>
      <trkpt lat="45.56498" lon="2.75082">
        <ele>1071.05</ele>
        <time>2017-08-13T11:57:38Z</time>
      </trkpt>
      <trkpt lat="45.56498" lon="2.75079">
        <ele>1071.05</ele>
        <time>2017-08-13T11:58:07Z</time>
      </trkpt>
      <trkpt lat="45.56499" lon="2.75078">
        <ele>1071.53</ele>
        <time>2017-08-13T11:58:43Z</time>
      </trkpt>
      <trkpt lat="45.56505" lon="2.75076">
        <ele>1072.97</ele>
        <time>2017-08-13T11:59:06Z</time>
      </trkpt>
      <trkpt lat="45.56512" lon="2.75068">
        <ele>1075.37</ele>
        <time>2017-08-13T11:59:20Z</time>
      </trkpt>
      <trkpt lat="45.56518" lon="2.75062">
        <ele>1076.81</ele>
        <time>2017-08-13T11:59:35Z</time>
      </trkpt>
      <trkpt lat="45.56523" lon="2.75059">
        <ele>1078.26</ele>
        <time>2017-08-13T12:00:01Z</time>
      </trkpt>
      <trkpt lat="45.56529" lon="2.75048">
        <ele>1080.66</ele>
        <time>2017-08-13T12:00:16Z</time>
      </trkpt>
      <trkpt lat="45.56535" lon="2.75037">
        <ele>1082.58</ele>
        <time>2017-08-13T12:00:30Z</time>
      </trkpt>
      <trkpt lat="45.56542" lon="2.75027">
        <ele>1084.5</ele>
        <time>2017-08-13T12:00:44Z</time>
      </trkpt>
      <trkpt lat="45.56546" lon="2.75015">
        <ele>1087.39</ele>
        <time>2017-08-13T12:01:03Z</time>
      </trkpt>
      <trkpt lat="45.56554" lon="2.75">
        <ele>1089.79</ele>
        <time>2017-08-13T12:01:18Z</time>
      </trkpt>
      <trkpt lat="45.5656" lon="2.74992">
        <ele>1092.2</ele>
        <time>2017-08-13T12:01:34Z</time>
      </trkpt>
      <trkpt lat="45.56562" lon="2.74986">
        <ele>1093.16</ele>
        <time>2017-08-13T12:01:47Z</time>
      </trkpt>
      <trkpt lat="45.56568" lon="2.74977">
        <ele>1094.6</ele>
        <time>2017-08-13T12:02:02Z</time>
      </trkpt>
      <trkpt lat="45.56573" lon="2.74962">
        <ele>1097.96</ele>
        <time>2017-08-13T12:02:19Z</time>
      </trkpt>
      <trkpt lat="45.56581" lon="2.74951">
        <ele>1099.89</ele>
        <time>2017-08-13T12:02:35Z</time>
      </trkpt>
      <trkpt lat="45.56586" lon="2.74951">
        <ele>1101.81</ele>
        <time>2017-08-13T12:02:51Z</time>
      </trkpt>
      <trkpt lat="45.56591" lon="2.74951">
        <ele>1102.77</ele>
        <time>2017-08-13T12:03:07Z</time>
      </trkpt>
      <trkpt lat="45.566" lon="2.74945">
        <ele>1105.17</ele>
        <time>2017-08-13T12:03:22Z</time>
      </trkpt>
      <trkpt lat="45.56606" lon="2.7494">
        <ele>1106.61</ele>
        <time>2017-08-13T12:03:33Z</time>
      </trkpt>
      <trkpt lat="45.56614" lon="2.74929">
        <ele>1109.02</ele>
        <time>2017-08-13T12:03:49Z</time>
      </trkpt>
      <trkpt lat="45.56619" lon="2.74924">
        <ele>1110.94</ele>
        <time>2017-08-13T12:04:05Z</time>
      </trkpt>
      <trkpt lat="45.56625" lon="2.74915">
        <ele>1112.86</ele>
        <time>2017-08-13T12:04:24Z</time>
      </trkpt>
      <trkpt lat="45.56633" lon="2.74897">
        <ele>1115.27</ele>
        <time>2017-08-13T12:04:41Z</time>
      </trkpt>
      <trkpt lat="45.56642" lon="2.74886">
        <ele>1117.19</ele>
        <time>2017-08-13T12:04:56Z</time>
      </trkpt>
      <trkpt lat="45.56647" lon="2.74887">
        <ele>1117.19</ele>
        <time>2017-08-13T12:05:14Z</time>
      </trkpt>
      <trkpt lat="45.56652" lon="2.74879">
        <ele>1117.67</ele>
        <time>2017-08-13T12:05:25Z</time>
      </trkpt>
      <trkpt lat="45.56665" lon="2.74862">
        <ele>1119.11</ele>
        <time>2017-08-13T12:05:40Z</time>
      </trkpt>
      <trkpt lat="45.56675" lon="2.74846">
        <ele>1121.52</ele>
        <time>2017-08-13T12:05:55Z</time>
      </trkpt>
      <trkpt lat="45.56684" lon="2.74832">
        <ele>1123.92</ele>
        <time>2017-08-13T12:06:12Z</time>
      </trkpt>
      <trkpt lat="45.56693" lon="2.74821">
        <ele>1125.84</ele>
        <time>2017-08-13T12:06:27Z</time>
      </trkpt>
      <trkpt lat="45.56698" lon="2.74814">
        <ele>1126.8</ele>
        <time>2017-08-13T12:06:40Z</time>
      </trkpt>
      <trkpt lat="45.56709" lon="2.74801">
        <ele>1128.73</ele>
        <time>2017-08-13T12:06:56Z</time>
      </trkpt>
      <trkpt lat="45.56719" lon="2.74787">
        <ele>1131.13</ele>
        <time>2017-08-13T12:07:13Z</time>
      </trkpt>
      <trkpt lat="45.56724" lon="2.74778">
        <ele>1132.09</ele>
        <time>2017-08-13T12:07:29Z</time>
      </trkpt>
      <trkpt lat="45.56729" lon="2.74776">
        <ele>1132.09</ele>
        <time>2017-08-13T12:08:08Z</time>
      </trkpt>
      <trkpt lat="45.5673" lon="2.74778">
        <ele>1132.09</ele>
        <time>2017-08-13T12:08:49Z</time>
      </trkpt>
      <trkpt lat="45.56734" lon="2.74774">
        <ele>1132.09</ele>
        <time>2017-08-13T12:09:33Z</time>
      </trkpt>
      <trkpt lat="45.56737" lon="2.7477">
        <ele>1132.09</ele>
        <time>2017-08-13T12:10:03Z</time>
      </trkpt>
      <trkpt lat="45.56728" lon="2.74773">
        <ele>1132.09</ele>
        <time>2017-08-13T12:10:42Z</time>
      </trkpt>
      <trkpt lat="45.56729" lon="2.74765">
        <ele>1134.49</ele>
        <time>2017-08-13T12:11:01Z</time>
      </trkpt>
      <trkpt lat="45.56732" lon="2.74753">
        <ele>1137.38</ele>
        <time>2017-08-13T12:11:17Z</time>
      </trkpt>
      <trkpt lat="45.5673" lon="2.74748">
        <ele>1138.82</ele>
        <time>2017-08-13T12:11:33Z</time>
      </trkpt>
      <trkpt lat="45.56725" lon="2.74735">
        <ele>1141.7</ele>
        <time>2017-08-13T12:11:49Z</time>
      </trkpt>
      <trkpt lat="45.56723" lon="2.74724">
        <ele>1142.18</ele>
        <time>2017-08-13T12:12:03Z</time>
      </trkpt>
      <trkpt lat="45.56719" lon="2.74717">
        <ele>1142.66</ele>
        <time>2017-08-13T12:12:37Z</time>
      </trkpt>
      <trkpt lat="45.5672" lon="2.74714">
        <ele>1144.59</ele>
        <time>2017-08-13T12:12:52Z</time>
      </trkpt>
      <trkpt lat="45.56719" lon="2.74705">
        <ele>1146.99</ele>
        <time>2017-08-13T12:13:09Z</time>
      </trkpt>
      <trkpt lat="45.56716" lon="2.74699">
        <ele>1148.91</ele>
        <time>2017-08-13T12:13:25Z</time>
      </trkpt>
      <trkpt lat="45.56716" lon="2.74692">
        <ele>1151.32</ele>
        <time>2017-08-13T12:13:44Z</time>
      </trkpt>
      <trkpt lat="45.56717" lon="2.74687">
        <ele>1152.76</ele>
        <time>2017-08-13T12:14:05Z</time>
      </trkpt>
      <trkpt lat="45.56716" lon="2.74685">
        <ele>1153.72</ele>
        <time>2017-08-13T12:14:28Z</time>
      </trkpt>
      <trkpt lat="45.56712" lon="2.74682">
        <ele>1155.64</ele>
        <time>2017-08-13T12:14:41Z</time>
      </trkpt>
      <trkpt lat="45.56709" lon="2.74682">
        <ele>1155.64</ele>
        <time>2017-08-13T12:15:03Z</time>
      </trkpt>
      <trkpt lat="45.56706" lon="2.74676">
        <ele>1157.56</ele>
        <time>2017-08-13T12:15:29Z</time>
      </trkpt>
      <trkpt lat="45.56701" lon="2.7467">
        <ele>1159.97</ele>
        <time>2017-08-13T12:15:45Z</time>
      </trkpt>
      <trkpt lat="45.56696" lon="2.74662">
        <ele>1161.89</ele>
        <time>2017-08-13T12:16:03Z</time>
      </trkpt>
      <trkpt lat="45.56694" lon="2.74654">
        <ele>1163.81</ele>
        <time>2017-08-13T12:16:19Z</time>
      </trkpt>
      <trkpt lat="45.56694" lon="2.7465">
        <ele>1164.77</ele>
        <time>2017-08-13T12:16:34Z</time>
      </trkpt>
      <trkpt lat="45.56693" lon="2.74654">
        <ele>1164.77</ele>
        <time>2017-08-13T12:17:04Z</time>
      </trkpt>
      <trkpt lat="45.56696" lon="2.7465">
        <ele>1164.77</ele>
        <time>2017-08-13T12:17:18Z</time>
      </trkpt>
      <trkpt lat="45.56696" lon="2.7465">
        <ele>1164.77</ele>
        <time>2017-08-13T12:17:20Z</time>
      </trkpt>
      <trkpt lat="45.56702" lon="2.74646">
        <ele>1164.77</ele>
        <time>2017-08-13T12:17:25Z</time>
      </trkpt>
      <trkpt lat="45.56721" lon="2.74624">
        <ele>1166.22</ele>
        <time>2017-08-13T12:17:38Z</time>
      </trkpt>
      <trkpt lat="45.56738" lon="2.74603">
        <ele>1167.66</ele>
        <time>2017-08-13T12:17:51Z</time>
      </trkpt>
      <trkpt lat="45.56755" lon="2.74589">
        <ele>1168.62</ele>
        <time>2017-08-13T12:18:03Z</time>
      </trkpt>
      <trkpt lat="45.5678" lon="2.74585">
        <ele>1169.1</ele>
        <time>2017-08-13T12:18:17Z</time>
      </trkpt>
      <trkpt lat="45.56802" lon="2.74582">
        <ele>1170.54</ele>
        <time>2017-08-13T12:18:30Z</time>
      </trkpt>
      <trkpt lat="45.56834" lon="2.74575">
        <ele>1171.98</ele>
        <time>2017-08-13T12:18:46Z</time>
      </trkpt>
      <trkpt lat="45.56847" lon="2.74568">
        <ele>1173.43</ele>
        <time>2017-08-13T12:18:56Z</time>
      </trkpt>
      <trkpt lat="45.56859" lon="2.74558">
        <ele>1175.35</ele>
        <time>2017-08-13T12:19:10Z</time>
      </trkpt>
      <trkpt lat="45.5687" lon="2.74539">
        <ele>1177.75</ele>
        <time>2017-08-13T12:19:26Z</time>
      </trkpt>
      <trkpt lat="45.56873" lon="2.74525">
        <ele>1178.71</ele>
        <time>2017-08-13T12:19:39Z</time>
      </trkpt>
      <trkpt lat="45.56876" lon="2.74515">
        <ele>1179.19</ele>
        <time>2017-08-13T12:19:44Z</time>
      </trkpt>
      <trkpt lat="45.56877" lon="2.74513">
        <ele>1179.19</ele>
        <time>2017-08-13T12:19:45Z</time>
      </trkpt>
      <trkpt lat="45.56878" lon="2.74511">
        <ele>1179.67</ele>
        <time>2017-08-13T12:19:46Z</time>
      </trkpt>
      <trkpt lat="45.56889" lon="2.74475">
        <ele>1180.16</ele>
        <time>2017-08-13T12:19:59Z</time>
      </trkpt>
      <trkpt lat="45.56895" lon="2.74451">
        <ele>1177.75</ele>
        <time>2017-08-13T12:20:04Z</time>
      </trkpt>
      <trkpt lat="45.56895" lon="2.74443">
        <ele>1177.27</ele>
        <time>2017-08-13T12:20:05Z</time>
      </trkpt>
      <trkpt lat="45.56896" lon="2.74434">
        <ele>1176.79</ele>
        <time>2017-08-13T12:20:06Z</time>
      </trkpt>
      <trkpt lat="45.569" lon="2.74403">
        <ele>1175.83</ele>
        <time>2017-08-13T12:20:10Z</time>
      </trkpt>
      <trkpt lat="45.569" lon="2.7435">
        <ele>1175.83</ele>
        <time>2017-08-13T12:20:20Z</time>
      </trkpt>
      <trkpt lat="45.56902" lon="2.74338">
        <ele>1177.27</ele>
        <time>2017-08-13T12:20:25Z</time>
      </trkpt>
      <trkpt lat="45.56902" lon="2.74333">
        <ele>1177.27</ele>
        <time>2017-08-13T12:20:27Z</time>
      </trkpt>
      <trkpt lat="45.56902" lon="2.7433">
        <ele>1177.75</ele>
        <time>2017-08-13T12:20:28Z</time>
      </trkpt>
      <trkpt lat="45.56902" lon="2.74328">
        <ele>1177.75</ele>
        <time>2017-08-13T12:20:29Z</time>
      </trkpt>
      <trkpt lat="45.56902" lon="2.74325">
        <ele>1177.75</ele>
        <time>2017-08-13T12:20:30Z</time>
      </trkpt>
      <trkpt lat="45.56902" lon="2.74323">
        <ele>1178.23</ele>
        <time>2017-08-13T12:20:31Z</time>
      </trkpt>
      <trkpt lat="45.56901" lon="2.74321">
        <ele>1178.23</ele>
        <time>2017-08-13T12:20:32Z</time>
      </trkpt>
      <trkpt lat="45.569" lon="2.74312">
        <ele>1178.71</ele>
        <time>2017-08-13T12:20:36Z</time>
      </trkpt>
      <trkpt lat="45.569" lon="2.7431">
        <ele>1178.71</ele>
        <time>2017-08-13T12:20:37Z</time>
      </trkpt>
      <trkpt lat="45.56899" lon="2.74307">
        <ele>1178.71</ele>
        <time>2017-08-13T12:20:38Z</time>
      </trkpt>
      <trkpt lat="45.56888" lon="2.74275">
        <ele>1179.19</ele>
        <time>2017-08-13T12:20:52Z</time>
      </trkpt>
      <trkpt lat="45.56883" lon="2.74262">
        <ele>1180.64</ele>
        <time>2017-08-13T12:21:04Z</time>
      </trkpt>
      <trkpt lat="45.5688" lon="2.74247">
        <ele>1183.04</ele>
        <time>2017-08-13T12:21:21Z</time>
      </trkpt>
      <trkpt lat="45.5688" lon="2.74242">
        <ele>1184.48</ele>
        <time>2017-08-13T12:21:38Z</time>
      </trkpt>
      <trkpt lat="45.56877" lon="2.74227">
        <ele>1185.92</ele>
        <time>2017-08-13T12:21:53Z</time>
      </trkpt>
      <trkpt lat="45.56874" lon="2.74203">
        <ele>1185.92</ele>
        <time>2017-08-13T12:22:08Z</time>
      </trkpt>
      <trkpt lat="45.56876" lon="2.74188">
        <ele>1187.37</ele>
        <time>2017-08-13T12:22:21Z</time>
      </trkpt>
      <trkpt lat="45.56881" lon="2.74173">
        <ele>1189.29</ele>
        <time>2017-08-13T12:22:33Z</time>
      </trkpt>
      <trkpt lat="45.56882" lon="2.74172">
        <ele>1189.29</ele>
        <time>2017-08-13T12:22:34Z</time>
      </trkpt>
      <trkpt lat="45.56886" lon="2.74149">
        <ele>1190.25</ele>
        <time>2017-08-13T12:22:48Z</time>
      </trkpt>
      <trkpt lat="45.56888" lon="2.74144">
        <ele>1190.73</ele>
        <time>2017-08-13T12:23:04Z</time>
      </trkpt>
      <trkpt lat="45.56889" lon="2.74139">
        <ele>1190.73</ele>
        <time>2017-08-13T12:23:11Z</time>
      </trkpt>
      <trkpt lat="45.56901" lon="2.7412">
        <ele>1191.69</ele>
        <time>2017-08-13T12:23:25Z</time>
      </trkpt>
      <trkpt lat="45.56902" lon="2.7412">
        <ele>1191.69</ele>
        <time>2017-08-13T12:23:26Z</time>
      </trkpt>
      <trkpt lat="45.56904" lon="2.74119">
        <ele>1191.69</ele>
        <time>2017-08-13T12:23:27Z</time>
      </trkpt>
      <trkpt lat="45.56905" lon="2.74117">
        <ele>1191.69</ele>
        <time>2017-08-13T12:23:28Z</time>
      </trkpt>
      <trkpt lat="45.56922" lon="2.74111">
        <ele>1193.61</ele>
        <time>2017-08-13T12:23:46Z</time>
      </trkpt>
      <trkpt lat="45.56931" lon="2.74099">
        <ele>1195.54</ele>
        <time>2017-08-13T12:24:02Z</time>
      </trkpt>
      <trkpt lat="45.56933" lon="2.74091">
        <ele>1196.02</ele>
        <time>2017-08-13T12:24:06Z</time>
      </trkpt>
      <trkpt lat="45.56934" lon="2.7409">
        <ele>1196.02</ele>
        <time>2017-08-13T12:24:07Z</time>
      </trkpt>
      <trkpt lat="45.5694" lon="2.74073">
        <ele>1197.46</ele>
        <time>2017-08-13T12:24:21Z</time>
      </trkpt>
      <trkpt lat="45.56946" lon="2.74073">
        <ele>1198.9</ele>
        <time>2017-08-13T12:24:36Z</time>
      </trkpt>
      <trkpt lat="45.56947" lon="2.74075">
        <ele>1198.9</ele>
        <time>2017-08-13T12:24:57Z</time>
      </trkpt>
      <trkpt lat="45.56949" lon="2.74071">
        <ele>1199.38</ele>
        <time>2017-08-13T12:25:21Z</time>
      </trkpt>
      <trkpt lat="45.56949" lon="2.74064">
        <ele>1201.3</ele>
        <time>2017-08-13T12:25:35Z</time>
      </trkpt>
      <trkpt lat="45.56947" lon="2.74056">
        <ele>1202.75</ele>
        <time>2017-08-13T12:25:50Z</time>
      </trkpt>
      <trkpt lat="45.56939" lon="2.7405">
        <ele>1204.67</ele>
        <time>2017-08-13T12:26:04Z</time>
      </trkpt>
      <trkpt lat="45.56941" lon="2.74047">
        <ele>1206.11</ele>
        <time>2017-08-13T12:26:17Z</time>
      </trkpt>
      <trkpt lat="45.56941" lon="2.74041">
        <ele>1207.55</ele>
        <time>2017-08-13T12:26:32Z</time>
      </trkpt>
      <trkpt lat="45.56938" lon="2.74038">
        <ele>1209</ele>
        <time>2017-08-13T12:26:45Z</time>
      </trkpt>
      <trkpt lat="45.56936" lon="2.74035">
        <ele>1209.96</ele>
        <time>2017-08-13T12:26:57Z</time>
      </trkpt>
      <trkpt lat="45.56936" lon="2.74032">
        <ele>1210.92</ele>
        <time>2017-08-13T12:27:20Z</time>
      </trkpt>
      <trkpt lat="45.56936" lon="2.7403">
        <ele>1211.88</ele>
        <time>2017-08-13T12:27:24Z</time>
      </trkpt>
      <trkpt lat="45.56939" lon="2.74022">
        <ele>1213.32</ele>
        <time>2017-08-13T12:27:33Z</time>
      </trkpt>
      <trkpt lat="45.56939" lon="2.74021">
        <ele>1214.28</ele>
        <time>2017-08-13T12:27:48Z</time>
      </trkpt>
      <trkpt lat="45.56941" lon="2.74017">
        <ele>1215.24</ele>
        <time>2017-08-13T12:28:01Z</time>
      </trkpt>
      <trkpt lat="45.56938" lon="2.74011">
        <ele>1217.65</ele>
        <time>2017-08-13T12:28:15Z</time>
      </trkpt>
      <trkpt lat="45.56936" lon="2.74008">
        <ele>1219.09</ele>
        <time>2017-08-13T12:28:32Z</time>
      </trkpt>
      <trkpt lat="45.56931" lon="2.74003">
        <ele>1220.53</ele>
        <time>2017-08-13T12:28:47Z</time>
      </trkpt>
      <trkpt lat="45.56925" lon="2.73998">
        <ele>1222.45</ele>
        <time>2017-08-13T12:29:01Z</time>
      </trkpt>
      <trkpt lat="45.5692" lon="2.73993">
        <ele>1224.86</ele>
        <time>2017-08-13T12:29:14Z</time>
      </trkpt>
      <trkpt lat="45.56919" lon="2.73993">
        <ele>1224.38</ele>
        <time>2017-08-13T12:29:28Z</time>
      </trkpt>
      <trkpt lat="45.56919" lon="2.73991">
        <ele>1225.34</ele>
        <time>2017-08-13T12:29:43Z</time>
      </trkpt>
      <trkpt lat="45.56918" lon="2.7399">
        <ele>1225.34</ele>
        <time>2017-08-13T12:30:03Z</time>
      </trkpt>
      <trkpt lat="45.56921" lon="2.73989">
        <ele>1225.34</ele>
        <time>2017-08-13T12:30:18Z</time>
      </trkpt>
      <trkpt lat="45.56922" lon="2.73986">
        <ele>1226.3</ele>
        <time>2017-08-13T12:30:28Z</time>
      </trkpt>
      <trkpt lat="45.56924" lon="2.73981">
        <ele>1227.74</ele>
        <time>2017-08-13T12:30:39Z</time>
      </trkpt>
      <trkpt lat="45.56926" lon="2.73977">
        <ele>1228.7</ele>
        <time>2017-08-13T12:30:55Z</time>
      </trkpt>
      <trkpt lat="45.5693" lon="2.73969">
        <ele>1230.62</ele>
        <time>2017-08-13T12:31:13Z</time>
      </trkpt>
      <trkpt lat="45.56935" lon="2.73962">
        <ele>1233.03</ele>
        <time>2017-08-13T12:31:27Z</time>
      </trkpt>
      <trkpt lat="45.56937" lon="2.7396">
        <ele>1233.99</ele>
        <time>2017-08-13T12:31:41Z</time>
      </trkpt>
      <trkpt lat="45.56938" lon="2.73959">
        <ele>1233.99</ele>
        <time>2017-08-13T12:32:01Z</time>
      </trkpt>
      <trkpt lat="45.5694" lon="2.73955">
        <ele>1234.47</ele>
        <time>2017-08-13T12:32:19Z</time>
      </trkpt>
      <trkpt lat="45.56946" lon="2.73947">
        <ele>1237.35</ele>
        <time>2017-08-13T12:32:34Z</time>
      </trkpt>
      <trkpt lat="45.56955" lon="2.73937">
        <ele>1239.28</ele>
        <time>2017-08-13T12:32:49Z</time>
      </trkpt>
      <trkpt lat="45.56959" lon="2.73929">
        <ele>1240.72</ele>
        <time>2017-08-13T12:33:05Z</time>
      </trkpt>
      <trkpt lat="45.56962" lon="2.73925">
        <ele>1241.2</ele>
        <time>2017-08-13T12:33:21Z</time>
      </trkpt>
      <trkpt lat="45.56965" lon="2.73921">
        <ele>1241.68</ele>
        <time>2017-08-13T12:33:50Z</time>
      </trkpt>
      <trkpt lat="45.56972" lon="2.73911">
        <ele>1243.6</ele>
        <time>2017-08-13T12:34:05Z</time>
      </trkpt>
      <trkpt lat="45.56979" lon="2.73903">
        <ele>1244.56</ele>
        <time>2017-08-13T12:34:27Z</time>
      </trkpt>
      <trkpt lat="45.56985" lon="2.73888">
        <ele>1246.97</ele>
        <time>2017-08-13T12:34:41Z</time>
      </trkpt>
      <trkpt lat="45.56992" lon="2.73873">
        <ele>1248.89</ele>
        <time>2017-08-13T12:34:56Z</time>
      </trkpt>
      <trkpt lat="45.57" lon="2.73853">
        <ele>1250.81</ele>
        <time>2017-08-13T12:35:12Z</time>
      </trkpt>
      <trkpt lat="45.57003" lon="2.73843">
        <ele>1251.29</ele>
        <time>2017-08-13T12:35:22Z</time>
      </trkpt>
      <trkpt lat="45.57017" lon="2.73814">
        <ele>1251.29</ele>
        <time>2017-08-13T12:35:35Z</time>
      </trkpt>
      <trkpt lat="45.5702" lon="2.73804">
        <ele>1251.29</ele>
        <time>2017-08-13T12:35:40Z</time>
      </trkpt>
      <trkpt lat="45.57025" lon="2.73795">
        <ele>1251.29</ele>
        <time>2017-08-13T12:35:53Z</time>
      </trkpt>
      <trkpt lat="45.57025" lon="2.73794">
        <ele>1251.29</ele>
        <time>2017-08-13T12:35:54Z</time>
      </trkpt>
      <trkpt lat="45.57014" lon="2.73785">
        <ele>1253.22</ele>
        <time>2017-08-13T12:36:08Z</time>
      </trkpt>
      <trkpt lat="45.57007" lon="2.73781">
        <ele>1254.66</ele>
        <time>2017-08-13T12:36:22Z</time>
      </trkpt>
      <trkpt lat="45.57" lon="2.73775">
        <ele>1256.1</ele>
        <time>2017-08-13T12:36:34Z</time>
      </trkpt>
      <trkpt lat="45.56993" lon="2.73766">
        <ele>1257.06</ele>
        <time>2017-08-13T12:36:47Z</time>
      </trkpt>
      <trkpt lat="45.56982" lon="2.73747">
        <ele>1258.02</ele>
        <time>2017-08-13T12:37:01Z</time>
      </trkpt>
      <trkpt lat="45.56964" lon="2.73728">
        <ele>1259.46</ele>
        <time>2017-08-13T12:37:15Z</time>
      </trkpt>
      <trkpt lat="45.56942" lon="2.73715">
        <ele>1260.43</ele>
        <time>2017-08-13T12:37:30Z</time>
      </trkpt>
      <trkpt lat="45.56918" lon="2.73721">
        <ele>1261.87</ele>
        <time>2017-08-13T12:37:44Z</time>
      </trkpt>
      <trkpt lat="45.56917" lon="2.73723">
        <ele>1261.87</ele>
        <time>2017-08-13T12:37:58Z</time>
      </trkpt>
      <trkpt lat="45.56908" lon="2.73727">
        <ele>1262.35</ele>
        <time>2017-08-13T12:38:15Z</time>
      </trkpt>
      <trkpt lat="45.56897" lon="2.73733">
        <ele>1265.71</ele>
        <time>2017-08-13T12:38:30Z</time>
      </trkpt>
      <trkpt lat="45.56882" lon="2.73743">
        <ele>1267.16</ele>
        <time>2017-08-13T12:38:46Z</time>
      </trkpt>
      <trkpt lat="45.56868" lon="2.73748">
        <ele>1269.08</ele>
        <time>2017-08-13T12:39:01Z</time>
      </trkpt>
      <trkpt lat="45.56855" lon="2.73755">
        <ele>1270.04</ele>
        <time>2017-08-13T12:39:13Z</time>
      </trkpt>
      <trkpt lat="45.56847" lon="2.73763">
        <ele>1271.96</ele>
        <time>2017-08-13T12:39:24Z</time>
      </trkpt>
      <trkpt lat="45.56834" lon="2.73775">
        <ele>1273.88</ele>
        <time>2017-08-13T12:39:41Z</time>
      </trkpt>
      <trkpt lat="45.56832" lon="2.73778">
        <ele>1274.85</ele>
        <time>2017-08-13T12:39:45Z</time>
      </trkpt>
      <trkpt lat="45.56827" lon="2.73794">
        <ele>1277.73</ele>
        <time>2017-08-13T12:40:01Z</time>
      </trkpt>
      <trkpt lat="45.56826" lon="2.7381">
        <ele>1279.17</ele>
        <time>2017-08-13T12:40:16Z</time>
      </trkpt>
      <trkpt lat="45.56824" lon="2.7383">
        <ele>1281.57</ele>
        <time>2017-08-13T12:40:33Z</time>
      </trkpt>
      <trkpt lat="45.56818" lon="2.73847">
        <ele>1283.5</ele>
        <time>2017-08-13T12:40:49Z</time>
      </trkpt>
      <trkpt lat="45.56814" lon="2.73848">
        <ele>1283.98</ele>
        <time>2017-08-13T12:41:07Z</time>
      </trkpt>
      <trkpt lat="45.56817" lon="2.7385">
        <ele>1283.98</ele>
        <time>2017-08-13T12:41:34Z</time>
      </trkpt>
      <trkpt lat="45.56817" lon="2.73846">
        <ele>1284.46</ele>
        <time>2017-08-13T12:42:03Z</time>
      </trkpt>
      <trkpt lat="45.56815" lon="2.73845">
        <ele>1284.46</ele>
        <time>2017-08-13T12:42:33Z</time>
      </trkpt>
      <trkpt lat="45.56814" lon="2.73847">
        <ele>1284.46</ele>
        <time>2017-08-13T12:42:45Z</time>
      </trkpt>
      <trkpt lat="45.56811" lon="2.7385">
        <ele>1284.46</ele>
        <time>2017-08-13T12:42:59Z</time>
      </trkpt>
      <trkpt lat="45.5681" lon="2.73853">
        <ele>1284.46</ele>
        <time>2017-08-13T12:43:11Z</time>
      </trkpt>
      <trkpt lat="45.56788" lon="2.73883">
        <ele>1284.94</ele>
        <time>2017-08-13T12:43:25Z</time>
      </trkpt>
      <trkpt lat="45.56769" lon="2.73912">
        <ele>1285.42</ele>
        <time>2017-08-13T12:43:38Z</time>
      </trkpt>
      <trkpt lat="45.56766" lon="2.73916">
        <ele>1285.9</ele>
        <time>2017-08-13T12:43:40Z</time>
      </trkpt>
      <trkpt lat="45.56765" lon="2.73917">
        <ele>1285.9</ele>
        <time>2017-08-13T12:43:41Z</time>
      </trkpt>
      <trkpt lat="45.56764" lon="2.73918">
        <ele>1285.9</ele>
        <time>2017-08-13T12:43:42Z</time>
      </trkpt>
      <trkpt lat="45.56763" lon="2.7392">
        <ele>1285.9</ele>
        <time>2017-08-13T12:43:43Z</time>
      </trkpt>
      <trkpt lat="45.56761" lon="2.73921">
        <ele>1286.38</ele>
        <time>2017-08-13T12:43:44Z</time>
      </trkpt>
      <trkpt lat="45.5676" lon="2.73921">
        <ele>1286.38</ele>
        <time>2017-08-13T12:43:45Z</time>
      </trkpt>
      <trkpt lat="45.56758" lon="2.73922">
        <ele>1286.38</ele>
        <time>2017-08-13T12:43:46Z</time>
      </trkpt>
      <trkpt lat="45.56756" lon="2.73923">
        <ele>1286.38</ele>
        <time>2017-08-13T12:43:47Z</time>
      </trkpt>
      <trkpt lat="45.56735" lon="2.73936">
        <ele>1287.34</ele>
        <time>2017-08-13T12:44:00Z</time>
      </trkpt>
      <trkpt lat="45.56732" lon="2.73937">
        <ele>1287.34</ele>
        <time>2017-08-13T12:44:01Z</time>
      </trkpt>
      <trkpt lat="45.56697" lon="2.73933">
        <ele>1285.9</ele>
        <time>2017-08-13T12:44:12Z</time>
      </trkpt>
      <trkpt lat="45.56682" lon="2.73926">
        <ele>1285.42</ele>
        <time>2017-08-13T12:44:16Z</time>
      </trkpt>
      <trkpt lat="45.56672" lon="2.73923">
        <ele>1283.98</ele>
        <time>2017-08-13T12:44:18Z</time>
      </trkpt>
      <trkpt lat="45.56653" lon="2.73921">
        <ele>1283.5</ele>
        <time>2017-08-13T12:44:22Z</time>
      </trkpt>
      <trkpt lat="45.56649" lon="2.7392">
        <ele>1283.5</ele>
        <time>2017-08-13T12:44:23Z</time>
      </trkpt>
      <trkpt lat="45.56645" lon="2.73919">
        <ele>1283.5</ele>
        <time>2017-08-13T12:44:24Z</time>
      </trkpt>
      <trkpt lat="45.56642" lon="2.73918">
        <ele>1283.5</ele>
        <time>2017-08-13T12:44:25Z</time>
      </trkpt>
      <trkpt lat="45.5664" lon="2.73917">
        <ele>1283.5</ele>
        <time>2017-08-13T12:44:26Z</time>
      </trkpt>
      <trkpt lat="45.56637" lon="2.73916">
        <ele>1283.5</ele>
        <time>2017-08-13T12:44:27Z</time>
      </trkpt>
      <trkpt lat="45.56634" lon="2.73915">
        <ele>1283.5</ele>
        <time>2017-08-13T12:44:28Z</time>
      </trkpt>
      <trkpt lat="45.56631" lon="2.73913">
        <ele>1283.5</ele>
        <time>2017-08-13T12:44:29Z</time>
      </trkpt>
      <trkpt lat="45.5663" lon="2.73912">
        <ele>1283.5</ele>
        <time>2017-08-13T12:44:30Z</time>
      </trkpt>
      <trkpt lat="45.56628" lon="2.73911">
        <ele>1283.5</ele>
        <time>2017-08-13T12:44:31Z</time>
      </trkpt>
      <trkpt lat="45.56607" lon="2.7389">
        <ele>1283.02</ele>
        <time>2017-08-13T12:44:42Z</time>
      </trkpt>
      <trkpt lat="45.56588" lon="2.73875">
        <ele>1283.02</ele>
        <time>2017-08-13T12:44:52Z</time>
      </trkpt>
      <trkpt lat="45.56565" lon="2.73853">
        <ele>1283.02</ele>
        <time>2017-08-13T12:45:04Z</time>
      </trkpt>
      <trkpt lat="45.56531" lon="2.7384">
        <ele>1279.65</ele>
        <time>2017-08-13T12:45:14Z</time>
      </trkpt>
      <trkpt lat="45.56504" lon="2.73823">
        <ele>1276.29</ele>
        <time>2017-08-13T12:45:23Z</time>
      </trkpt>
      <trkpt lat="45.56485" lon="2.73791">
        <ele>1274.36</ele>
        <time>2017-08-13T12:45:33Z</time>
      </trkpt>
      <trkpt lat="45.56472" lon="2.73778">
        <ele>1271</ele>
        <time>2017-08-13T12:45:38Z</time>
      </trkpt>
      <trkpt lat="45.5646" lon="2.73767">
        <ele>1268.12</ele>
        <time>2017-08-13T12:45:42Z</time>
      </trkpt>
      <trkpt lat="45.56455" lon="2.73765">
        <ele>1267.16</ele>
        <time>2017-08-13T12:45:43Z</time>
      </trkpt>
      <trkpt lat="45.56449" lon="2.7376">
        <ele>1266.19</ele>
        <time>2017-08-13T12:45:45Z</time>
      </trkpt>
      <trkpt lat="45.56439" lon="2.73749">
        <ele>1263.31</ele>
        <time>2017-08-13T12:45:48Z</time>
      </trkpt>
      <trkpt lat="45.56432" lon="2.73741">
        <ele>1261.39</ele>
        <time>2017-08-13T12:45:50Z</time>
      </trkpt>
      <trkpt lat="45.5642" lon="2.73726">
        <ele>1258.98</ele>
        <time>2017-08-13T12:45:53Z</time>
      </trkpt>
      <trkpt lat="45.56414" lon="2.73722">
        <ele>1258.5</ele>
        <time>2017-08-13T12:45:54Z</time>
      </trkpt>
      <trkpt lat="45.56408" lon="2.73718">
        <ele>1257.54</ele>
        <time>2017-08-13T12:45:55Z</time>
      </trkpt>
      <trkpt lat="45.56403" lon="2.73712">
        <ele>1257.06</ele>
        <time>2017-08-13T12:45:56Z</time>
      </trkpt>
      <trkpt lat="45.56397" lon="2.73705">
        <ele>1257.06</ele>
        <time>2017-08-13T12:45:57Z</time>
      </trkpt>
      <trkpt lat="45.56393" lon="2.73698">
        <ele>1256.58</ele>
        <time>2017-08-13T12:45:58Z</time>
      </trkpt>
      <trkpt lat="45.56366" lon="2.73654">
        <ele>1254.66</ele>
        <time>2017-08-13T12:46:04Z</time>
      </trkpt>
      <trkpt lat="45.56361" lon="2.73647">
        <ele>1254.66</ele>
        <time>2017-08-13T12:46:05Z</time>
      </trkpt>
      <trkpt lat="45.56355" lon="2.73642">
        <ele>1254.18</ele>
        <time>2017-08-13T12:46:06Z</time>
      </trkpt>
      <trkpt lat="45.56349" lon="2.73638">
        <ele>1254.18</ele>
        <time>2017-08-13T12:46:07Z</time>
      </trkpt>
      <trkpt lat="45.56343" lon="2.73635">
        <ele>1254.18</ele>
        <time>2017-08-13T12:46:08Z</time>
      </trkpt>
      <trkpt lat="45.56336" lon="2.73633">
        <ele>1253.7</ele>
        <time>2017-08-13T12:46:09Z</time>
      </trkpt>
      <trkpt lat="45.56316" lon="2.73622">
        <ele>1252.25</ele>
        <time>2017-08-13T12:46:12Z</time>
      </trkpt>
      <trkpt lat="45.56311" lon="2.73617">
        <ele>1252.25</ele>
        <time>2017-08-13T12:46:13Z</time>
      </trkpt>
      <trkpt lat="45.56306" lon="2.73612">
        <ele>1252.25</ele>
        <time>2017-08-13T12:46:14Z</time>
      </trkpt>
      <trkpt lat="45.56296" lon="2.73599">
        <ele>1251.77</ele>
        <time>2017-08-13T12:46:16Z</time>
      </trkpt>
      <trkpt lat="45.56292" lon="2.73595">
        <ele>1251.77</ele>
        <time>2017-08-13T12:46:17Z</time>
      </trkpt>
      <trkpt lat="45.56256" lon="2.73558">
        <ele>1249.85</ele>
        <time>2017-08-13T12:46:25Z</time>
      </trkpt>
      <trkpt lat="45.56252" lon="2.73553">
        <ele>1249.85</ele>
        <time>2017-08-13T12:46:26Z</time>
      </trkpt>
      <trkpt lat="45.56248" lon="2.73547">
        <ele>1249.37</ele>
        <time>2017-08-13T12:46:27Z</time>
      </trkpt>
      <trkpt lat="45.5624" lon="2.73537">
        <ele>1248.89</ele>
        <time>2017-08-13T12:46:29Z</time>
      </trkpt>
      <trkpt lat="45.56234" lon="2.73532">
        <ele>1248.89</ele>
        <time>2017-08-13T12:46:30Z</time>
      </trkpt>
      <trkpt lat="45.56221" lon="2.73522">
        <ele>1248.41</ele>
        <time>2017-08-13T12:46:33Z</time>
      </trkpt>
      <trkpt lat="45.56198" lon="2.73497">
        <ele>1247.93</ele>
        <time>2017-08-13T12:46:39Z</time>
      </trkpt>
      <trkpt lat="45.56189" lon="2.73489">
        <ele>1247.45</ele>
        <time>2017-08-13T12:46:41Z</time>
      </trkpt>
      <trkpt lat="45.56184" lon="2.73486">
        <ele>1247.45</ele>
        <time>2017-08-13T12:46:42Z</time>
      </trkpt>
      <trkpt lat="45.56178" lon="2.73484">
        <ele>1246.49</ele>
        <time>2017-08-13T12:46:43Z</time>
      </trkpt>
      <trkpt lat="45.56172" lon="2.73484">
        <ele>1245.53</ele>
        <time>2017-08-13T12:46:44Z</time>
      </trkpt>
      <trkpt lat="45.56166" lon="2.73485">
        <ele>1244.56</ele>
        <time>2017-08-13T12:46:45Z</time>
      </trkpt>
      <trkpt lat="45.5615" lon="2.73483">
        <ele>1242.16</ele>
        <time>2017-08-13T12:46:49Z</time>
      </trkpt>
      <trkpt lat="45.56148" lon="2.73481">
        <ele>1242.16</ele>
        <time>2017-08-13T12:46:50Z</time>
      </trkpt>
      <trkpt lat="45.56147" lon="2.73478">
        <ele>1242.16</ele>
        <time>2017-08-13T12:46:51Z</time>
      </trkpt>
      <trkpt lat="45.56146" lon="2.73473">
        <ele>1242.16</ele>
        <time>2017-08-13T12:46:52Z</time>
      </trkpt>
      <trkpt lat="45.56145" lon="2.73471">
        <ele>1242.16</ele>
        <time>2017-08-13T12:46:53Z</time>
      </trkpt>
      <trkpt lat="45.56139" lon="2.73422">
        <ele>1239.28</ele>
        <time>2017-08-13T12:47:03Z</time>
      </trkpt>
      <trkpt lat="45.56137" lon="2.73415">
        <ele>1239.28</ele>
        <time>2017-08-13T12:47:04Z</time>
      </trkpt>
      <trkpt lat="45.56135" lon="2.7341">
        <ele>1239.28</ele>
        <time>2017-08-13T12:47:05Z</time>
      </trkpt>
      <trkpt lat="45.56133" lon="2.73405">
        <ele>1239.28</ele>
        <time>2017-08-13T12:47:06Z</time>
      </trkpt>
      <trkpt lat="45.56132" lon="2.734">
        <ele>1238.8</ele>
        <time>2017-08-13T12:47:07Z</time>
      </trkpt>
      <trkpt lat="45.56131" lon="2.73394">
        <ele>1238.8</ele>
        <time>2017-08-13T12:47:08Z</time>
      </trkpt>
      <trkpt lat="45.56126" lon="2.73347">
        <ele>1239.28</ele>
        <time>2017-08-13T12:47:18Z</time>
      </trkpt>
      <trkpt lat="45.56123" lon="2.73329">
        <ele>1238.32</ele>
        <time>2017-08-13T12:47:21Z</time>
      </trkpt>
      <trkpt lat="45.56119" lon="2.73302">
        <ele>1237.83</ele>
        <time>2017-08-13T12:47:25Z</time>
      </trkpt>
      <trkpt lat="45.56118" lon="2.73295">
        <ele>1237.35</ele>
        <time>2017-08-13T12:47:26Z</time>
      </trkpt>
      <trkpt lat="45.56112" lon="2.73266">
        <ele>1235.91</ele>
        <time>2017-08-13T12:47:30Z</time>
      </trkpt>
      <trkpt lat="45.56109" lon="2.73258">
        <ele>1234.95</ele>
        <time>2017-08-13T12:47:31Z</time>
      </trkpt>
      <trkpt lat="45.56107" lon="2.73252">
        <ele>1234.47</ele>
        <time>2017-08-13T12:47:32Z</time>
      </trkpt>
      <trkpt lat="45.56099" lon="2.73219">
        <ele>1231.11</ele>
        <time>2017-08-13T12:47:36Z</time>
      </trkpt>
      <trkpt lat="45.56098" lon="2.73209">
        <ele>1230.62</ele>
        <time>2017-08-13T12:47:37Z</time>
      </trkpt>
      <trkpt lat="45.56096" lon="2.73152">
        <ele>1228.22</ele>
        <time>2017-08-13T12:47:43Z</time>
      </trkpt>
      <trkpt lat="45.56094" lon="2.73143">
        <ele>1227.74</ele>
        <time>2017-08-13T12:47:44Z</time>
      </trkpt>
      <trkpt lat="45.5609" lon="2.73131">
        <ele>1226.3</ele>
        <time>2017-08-13T12:47:45Z</time>
      </trkpt>
      <trkpt lat="45.56085" lon="2.73113">
        <ele>1225.82</ele>
        <time>2017-08-13T12:47:47Z</time>
      </trkpt>
      <trkpt lat="45.56083" lon="2.73103">
        <ele>1225.82</ele>
        <time>2017-08-13T12:47:48Z</time>
      </trkpt>
      <trkpt lat="45.56082" lon="2.73094">
        <ele>1225.82</ele>
        <time>2017-08-13T12:47:49Z</time>
      </trkpt>
      <trkpt lat="45.56081" lon="2.73085">
        <ele>1225.82</ele>
        <time>2017-08-13T12:47:50Z</time>
      </trkpt>
      <trkpt lat="45.56081" lon="2.73077">
        <ele>1225.82</ele>
        <time>2017-08-13T12:47:51Z</time>
      </trkpt>
      <trkpt lat="45.56082" lon="2.73062">
        <ele>1225.82</ele>
        <time>2017-08-13T12:47:53Z</time>
      </trkpt>
      <trkpt lat="45.56082" lon="2.73056">
        <ele>1225.82</ele>
        <time>2017-08-13T12:47:54Z</time>
      </trkpt>
      <trkpt lat="45.56084" lon="2.73029">
        <ele>1225.82</ele>
        <time>2017-08-13T12:47:58Z</time>
      </trkpt>
      <trkpt lat="45.56085" lon="2.73022">
        <ele>1225.82</ele>
        <time>2017-08-13T12:47:59Z</time>
      </trkpt>
      <trkpt lat="45.56085" lon="2.73014">
        <ele>1225.34</ele>
        <time>2017-08-13T12:48:00Z</time>
      </trkpt>
      <trkpt lat="45.56087" lon="2.73007">
        <ele>1225.34</ele>
        <time>2017-08-13T12:48:01Z</time>
      </trkpt>
      <trkpt lat="45.56088" lon="2.73001">
        <ele>1225.34</ele>
        <time>2017-08-13T12:48:02Z</time>
      </trkpt>
      <trkpt lat="45.5609" lon="2.72994">
        <ele>1225.82</ele>
        <time>2017-08-13T12:48:03Z</time>
      </trkpt>
      <trkpt lat="45.56099" lon="2.7297">
        <ele>1224.86</ele>
        <time>2017-08-13T12:48:07Z</time>
      </trkpt>
      <trkpt lat="45.56101" lon="2.72965">
        <ele>1224.38</ele>
        <time>2017-08-13T12:48:08Z</time>
      </trkpt>
      <trkpt lat="45.5611" lon="2.72943">
        <ele>1222.93</ele>
        <time>2017-08-13T12:48:11Z</time>
      </trkpt>
      <trkpt lat="45.56134" lon="2.72893">
        <ele>1219.09</ele>
        <time>2017-08-13T12:48:17Z</time>
      </trkpt>
      <trkpt lat="45.56151" lon="2.72856">
        <ele>1216.21</ele>
        <time>2017-08-13T12:48:21Z</time>
      </trkpt>
      <trkpt lat="45.56176" lon="2.72815">
        <ele>1212.84</ele>
        <time>2017-08-13T12:48:26Z</time>
      </trkpt>
      <trkpt lat="45.5619" lon="2.72789">
        <ele>1209.48</ele>
        <time>2017-08-13T12:48:29Z</time>
      </trkpt>
      <trkpt lat="45.56199" lon="2.72769">
        <ele>1207.55</ele>
        <time>2017-08-13T12:48:31Z</time>
      </trkpt>
      <trkpt lat="45.56203" lon="2.72759">
        <ele>1206.11</ele>
        <time>2017-08-13T12:48:32Z</time>
      </trkpt>
      <trkpt lat="45.56207" lon="2.72748">
        <ele>1205.15</ele>
        <time>2017-08-13T12:48:33Z</time>
      </trkpt>
      <trkpt lat="45.56222" lon="2.72701">
        <ele>1202.27</ele>
        <time>2017-08-13T12:48:37Z</time>
      </trkpt>
      <trkpt lat="45.56224" lon="2.7269">
        <ele>1202.27</ele>
        <time>2017-08-13T12:48:38Z</time>
      </trkpt>
      <trkpt lat="45.56225" lon="2.72679">
        <ele>1201.3</ele>
        <time>2017-08-13T12:48:39Z</time>
      </trkpt>
      <trkpt lat="45.56225" lon="2.72667">
        <ele>1200.82</ele>
        <time>2017-08-13T12:48:40Z</time>
      </trkpt>
      <trkpt lat="45.56223" lon="2.72606">
        <ele>1200.82</ele>
        <time>2017-08-13T12:48:47Z</time>
      </trkpt>
      <trkpt lat="45.56213" lon="2.72559">
        <ele>1200.82</ele>
        <time>2017-08-13T12:48:53Z</time>
      </trkpt>
      <trkpt lat="45.56212" lon="2.7255">
        <ele>1200.82</ele>
        <time>2017-08-13T12:48:54Z</time>
      </trkpt>
      <trkpt lat="45.56209" lon="2.72525">
        <ele>1200.82</ele>
        <time>2017-08-13T12:48:57Z</time>
      </trkpt>
      <trkpt lat="45.56209" lon="2.72516">
        <ele>1200.82</ele>
        <time>2017-08-13T12:48:58Z</time>
      </trkpt>
      <trkpt lat="45.56209" lon="2.72509">
        <ele>1200.82</ele>
        <time>2017-08-13T12:48:59Z</time>
      </trkpt>
      <trkpt lat="45.56211" lon="2.72502">
        <ele>1200.34</ele>
        <time>2017-08-13T12:49:00Z</time>
      </trkpt>
      <trkpt lat="45.56213" lon="2.72497">
        <ele>1200.34</ele>
        <time>2017-08-13T12:49:01Z</time>
      </trkpt>
      <trkpt lat="45.56216" lon="2.72492">
        <ele>1199.38</ele>
        <time>2017-08-13T12:49:02Z</time>
      </trkpt>
      <trkpt lat="45.56219" lon="2.72488">
        <ele>1198.9</ele>
        <time>2017-08-13T12:49:03Z</time>
      </trkpt>
      <trkpt lat="45.56222" lon="2.72485">
        <ele>1198.42</ele>
        <time>2017-08-13T12:49:04Z</time>
      </trkpt>
      <trkpt lat="45.56226" lon="2.72482">
        <ele>1197.46</ele>
        <time>2017-08-13T12:49:05Z</time>
      </trkpt>
      <trkpt lat="45.5623" lon="2.72481">
        <ele>1196.5</ele>
        <time>2017-08-13T12:49:06Z</time>
      </trkpt>
      <trkpt lat="45.56234" lon="2.7248">
        <ele>1196.02</ele>
        <time>2017-08-13T12:49:07Z</time>
      </trkpt>
      <trkpt lat="45.56237" lon="2.72482">
        <ele>1196.02</ele>
        <time>2017-08-13T12:49:08Z</time>
      </trkpt>
      <trkpt lat="45.5624" lon="2.72484">
        <ele>1195.54</ele>
        <time>2017-08-13T12:49:09Z</time>
      </trkpt>
      <trkpt lat="45.56243" lon="2.72488">
        <ele>1195.54</ele>
        <time>2017-08-13T12:49:10Z</time>
      </trkpt>
      <trkpt lat="45.56244" lon="2.72491">
        <ele>1195.54</ele>
        <time>2017-08-13T12:49:11Z</time>
      </trkpt>
      <trkpt lat="45.56245" lon="2.72494">
        <ele>1195.54</ele>
        <time>2017-08-13T12:49:12Z</time>
      </trkpt>
      <trkpt lat="45.5625" lon="2.72511">
        <ele>1196.98</ele>
        <time>2017-08-13T12:49:17Z</time>
      </trkpt>
      <trkpt lat="45.56272" lon="2.72549">
        <ele>1196.98</ele>
        <time>2017-08-13T12:49:29Z</time>
      </trkpt>
      <trkpt lat="45.56298" lon="2.72576">
        <ele>1195.54</ele>
        <time>2017-08-13T12:49:39Z</time>
      </trkpt>
      <trkpt lat="45.56301" lon="2.72581">
        <ele>1195.54</ele>
        <time>2017-08-13T12:49:40Z</time>
      </trkpt>
      <trkpt lat="45.56304" lon="2.72587">
        <ele>1195.06</ele>
        <time>2017-08-13T12:49:41Z</time>
      </trkpt>
      <trkpt lat="45.56307" lon="2.72593">
        <ele>1194.09</ele>
        <time>2017-08-13T12:49:42Z</time>
      </trkpt>
      <trkpt lat="45.56309" lon="2.72599">
        <ele>1193.13</ele>
        <time>2017-08-13T12:49:43Z</time>
      </trkpt>
      <trkpt lat="45.5631" lon="2.72607">
        <ele>1193.13</ele>
        <time>2017-08-13T12:49:44Z</time>
      </trkpt>
      <trkpt lat="45.56311" lon="2.72615">
        <ele>1192.17</ele>
        <time>2017-08-13T12:49:45Z</time>
      </trkpt>
      <trkpt lat="45.56312" lon="2.72625">
        <ele>1191.69</ele>
        <time>2017-08-13T12:49:46Z</time>
      </trkpt>
      <trkpt lat="45.56312" lon="2.72634">
        <ele>1191.21</ele>
        <time>2017-08-13T12:49:47Z</time>
      </trkpt>
      <trkpt lat="45.56312" lon="2.72644">
        <ele>1191.21</ele>
        <time>2017-08-13T12:49:48Z</time>
      </trkpt>
      <trkpt lat="45.56313" lon="2.72653">
        <ele>1191.21</ele>
        <time>2017-08-13T12:49:49Z</time>
      </trkpt>
      <trkpt lat="45.56314" lon="2.72662">
        <ele>1191.21</ele>
        <time>2017-08-13T12:49:50Z</time>
      </trkpt>
      <trkpt lat="45.56315" lon="2.72669">
        <ele>1191.21</ele>
        <time>2017-08-13T12:49:51Z</time>
      </trkpt>
      <trkpt lat="45.56315" lon="2.72676">
        <ele>1191.21</ele>
        <time>2017-08-13T12:49:52Z</time>
      </trkpt>
      <trkpt lat="45.56315" lon="2.72682">
        <ele>1192.17</ele>
        <time>2017-08-13T12:49:53Z</time>
      </trkpt>
      <trkpt lat="45.56315" lon="2.72686">
        <ele>1192.65</ele>
        <time>2017-08-13T12:49:54Z</time>
      </trkpt>
      <trkpt lat="45.56315" lon="2.72691">
        <ele>1192.65</ele>
        <time>2017-08-13T12:49:55Z</time>
      </trkpt>
      <trkpt lat="45.56317" lon="2.72707">
        <ele>1193.61</ele>
        <time>2017-08-13T12:49:59Z</time>
      </trkpt>
      <trkpt lat="45.56319" lon="2.72708">
        <ele>1194.09</ele>
        <time>2017-08-13T12:50:10Z</time>
      </trkpt>
      <trkpt lat="45.56319" lon="2.72711">
        <ele>1194.09</ele>
        <time>2017-08-13T12:50:33Z</time>
      </trkpt>
      <trkpt lat="45.56326" lon="2.72718">
        <ele>1194.09</ele>
        <time>2017-08-13T12:50:49Z</time>
      </trkpt>
      <trkpt lat="45.5635" lon="2.72717">
        <ele>1192.65</ele>
        <time>2017-08-13T12:50:55Z</time>
      </trkpt>
      <trkpt lat="45.56364" lon="2.72717">
        <ele>1191.21</ele>
        <time>2017-08-13T12:50:58Z</time>
      </trkpt>
      <trkpt lat="45.56371" lon="2.72715">
        <ele>1190.25</ele>
        <time>2017-08-13T12:51:03Z</time>
      </trkpt>
      <trkpt lat="45.56374" lon="2.72715">
        <ele>1190.25</ele>
        <time>2017-08-13T12:51:04Z</time>
      </trkpt>
      <trkpt lat="45.56377" lon="2.72715">
        <ele>1189.77</ele>
        <time>2017-08-13T12:51:05Z</time>
      </trkpt>
      <trkpt lat="45.56404" lon="2.7272">
        <ele>1187.37</ele>
        <time>2017-08-13T12:51:18Z</time>
      </trkpt>
      <trkpt lat="45.56405" lon="2.7272">
        <ele>1187.85</ele>
        <time>2017-08-13T12:51:33Z</time>
      </trkpt>
      <trkpt lat="45.56404" lon="2.72719">
        <ele>1187.85</ele>
        <time>2017-08-13T12:51:34Z</time>
      </trkpt>
      <trkpt lat="45.56391" lon="2.72716">
        <ele>1189.29</ele>
        <time>2017-08-13T12:51:46Z</time>
      </trkpt>
      <trkpt lat="45.56375" lon="2.72716">
        <ele>1190.73</ele>
        <time>2017-08-13T12:51:57Z</time>
      </trkpt>
      <trkpt lat="45.56354" lon="2.72717">
        <ele>1192.17</ele>
        <time>2017-08-13T12:52:10Z</time>
      </trkpt>
      <trkpt lat="45.56334" lon="2.72716">
        <ele>1194.09</ele>
        <time>2017-08-13T12:52:26Z</time>
      </trkpt>
      <trkpt lat="45.56332" lon="2.72716">
        <ele>1194.09</ele>
        <time>2017-08-13T12:52:27Z</time>
      </trkpt>
      <trkpt lat="45.56323" lon="2.72711">
        <ele>1194.58</ele>
        <time>2017-08-13T12:52:34Z</time>
      </trkpt>
      <trkpt lat="45.56322" lon="2.7271">
        <ele>1195.06</ele>
        <time>2017-08-13T12:52:35Z</time>
      </trkpt>
      <trkpt lat="45.5632" lon="2.72708">
        <ele>1194.58</ele>
        <time>2017-08-13T12:52:36Z</time>
      </trkpt>
      <trkpt lat="45.56319" lon="2.72707">
        <ele>1194.58</ele>
        <time>2017-08-13T12:52:37Z</time>
      </trkpt>
      <trkpt lat="45.56318" lon="2.72705">
        <ele>1194.58</ele>
        <time>2017-08-13T12:52:38Z</time>
      </trkpt>
      <trkpt lat="45.56318" lon="2.72703">
        <ele>1194.58</ele>
        <time>2017-08-13T12:52:39Z</time>
      </trkpt>
      <trkpt lat="45.56317" lon="2.727">
        <ele>1194.58</ele>
        <time>2017-08-13T12:52:40Z</time>
      </trkpt>
      <trkpt lat="45.56314" lon="2.72658">
        <ele>1192.65</ele>
        <time>2017-08-13T12:52:50Z</time>
      </trkpt>
      <trkpt lat="45.56315" lon="2.72656">
        <ele>1192.65</ele>
        <time>2017-08-13T12:52:51Z</time>
      </trkpt>
      <trkpt lat="45.56317" lon="2.72655">
        <ele>1192.65</ele>
        <time>2017-08-13T12:53:01Z</time>
      </trkpt>
      <trkpt lat="45.56319" lon="2.72656">
        <ele>1192.17</ele>
        <time>2017-08-13T12:53:03Z</time>
      </trkpt>
      <trkpt lat="45.5632" lon="2.72656">
        <ele>1192.17</ele>
        <time>2017-08-13T12:53:04Z</time>
      </trkpt>
      <trkpt lat="45.56321" lon="2.72655">
        <ele>1191.69</ele>
        <time>2017-08-13T12:53:05Z</time>
      </trkpt>
      <trkpt lat="45.56326" lon="2.72655">
        <ele>1191.69</ele>
        <time>2017-08-13T12:53:19Z</time>
      </trkpt>
      <trkpt lat="45.56329" lon="2.72649">
        <ele>1191.21</ele>
        <time>2017-08-13T12:53:37Z</time>
      </trkpt>
      <trkpt lat="45.56332" lon="2.72648">
        <ele>1191.21</ele>
        <time>2017-08-13T12:53:40Z</time>
      </trkpt>
      <trkpt lat="45.56334" lon="2.72647">
        <ele>1191.21</ele>
        <time>2017-08-13T12:53:42Z</time>
      </trkpt>
      <trkpt lat="45.56335" lon="2.72646">
        <ele>1190.73</ele>
        <time>2017-08-13T12:53:43Z</time>
      </trkpt>
      <trkpt lat="45.56341" lon="2.72641">
        <ele>1190.25</ele>
        <time>2017-08-13T12:53:55Z</time>
      </trkpt>
      <trkpt lat="45.56338" lon="2.72634">
        <ele>1190.25</ele>
        <time>2017-08-13T12:54:17Z</time>
      </trkpt>
      <trkpt lat="45.56337" lon="2.72625">
        <ele>1190.25</ele>
        <time>2017-08-13T12:54:30Z</time>
      </trkpt>
      <trkpt lat="45.56333" lon="2.72624">
        <ele>1190.25</ele>
        <time>2017-08-13T12:54:52Z</time>
      </trkpt>
      <trkpt lat="45.56332" lon="2.72635">
        <ele>1190.25</ele>
        <time>2017-08-13T12:55:08Z</time>
      </trkpt>
      <trkpt lat="45.56331" lon="2.72639">
        <ele>1190.25</ele>
        <time>2017-08-13T12:55:24Z</time>
      </trkpt>
      <trkpt lat="45.5633" lon="2.72642">
        <ele>1190.25</ele>
        <time>2017-08-13T12:55:27Z</time>
      </trkpt>
      <trkpt lat="45.56326" lon="2.72652">
        <ele>1191.21</ele>
        <time>2017-08-13T12:55:39Z</time>
      </trkpt>
      <trkpt lat="45.56321" lon="2.72653">
        <ele>1191.69</ele>
        <time>2017-08-13T12:55:52Z</time>
      </trkpt>
      <trkpt lat="45.56319" lon="2.72655">
        <ele>1191.69</ele>
        <time>2017-08-13T12:55:54Z</time>
      </trkpt>
      <trkpt lat="45.56315" lon="2.72648">
        <ele>1192.17</ele>
        <time>2017-08-13T12:56:05Z</time>
      </trkpt>
      <trkpt lat="45.56315" lon="2.72646">
        <ele>1192.17</ele>
        <time>2017-08-13T12:56:08Z</time>
      </trkpt>
      <trkpt lat="45.56315" lon="2.72638">
        <ele>1192.17</ele>
        <time>2017-08-13T12:56:12Z</time>
      </trkpt>
      <trkpt lat="45.56311" lon="2.726">
        <ele>1194.09</ele>
        <time>2017-08-13T12:56:29Z</time>
      </trkpt>
      <trkpt lat="45.56307" lon="2.72587">
        <ele>1195.54</ele>
        <time>2017-08-13T12:56:37Z</time>
      </trkpt>
      <trkpt lat="45.563" lon="2.72578">
        <ele>1196.5</ele>
        <time>2017-08-13T12:56:43Z</time>
      </trkpt>
      <trkpt lat="45.56282" lon="2.72559">
        <ele>1197.94</ele>
        <time>2017-08-13T12:56:57Z</time>
      </trkpt>
      <trkpt lat="45.56257" lon="2.72529">
        <ele>1197.94</ele>
        <time>2017-08-13T12:57:10Z</time>
      </trkpt>
      <trkpt lat="45.56235" lon="2.72478">
        <ele>1196.5</ele>
        <time>2017-08-13T12:57:24Z</time>
      </trkpt>
      <trkpt lat="45.56234" lon="2.72476">
        <ele>1196.5</ele>
        <time>2017-08-13T12:57:25Z</time>
      </trkpt>
      <trkpt lat="45.56242" lon="2.72449">
        <ele>1195.06</ele>
        <time>2017-08-13T12:57:34Z</time>
      </trkpt>
      <trkpt lat="45.56244" lon="2.72442">
        <ele>1195.06</ele>
        <time>2017-08-13T12:57:43Z</time>
      </trkpt>
      <trkpt lat="45.56245" lon="2.72438">
        <ele>1194.58</ele>
        <time>2017-08-13T12:57:58Z</time>
      </trkpt>
      <trkpt lat="45.56244" lon="2.72438">
        <ele>1194.09</ele>
        <time>2017-08-13T12:58:21Z</time>
      </trkpt>
      <trkpt lat="45.56248" lon="2.72435">
        <ele>1194.09</ele>
        <time>2017-08-13T12:58:55Z</time>
      </trkpt>
      <trkpt lat="45.56255" lon="2.72428">
        <ele>1193.13</ele>
        <time>2017-08-13T12:58:58Z</time>
      </trkpt>
      <trkpt lat="45.56264" lon="2.72408">
        <ele>1190.73</ele>
        <time>2017-08-13T12:59:02Z</time>
      </trkpt>
      <trkpt lat="45.56271" lon="2.72405">
        <ele>1189.77</ele>
        <time>2017-08-13T12:59:04Z</time>
      </trkpt>
      <trkpt lat="45.56279" lon="2.72401">
        <ele>1188.81</ele>
        <time>2017-08-13T12:59:06Z</time>
      </trkpt>
      <trkpt lat="45.56281" lon="2.72398">
        <ele>1187.85</ele>
        <time>2017-08-13T12:59:07Z</time>
      </trkpt>
      <trkpt lat="45.56282" lon="2.72394">
        <ele>1187.85</ele>
        <time>2017-08-13T12:59:08Z</time>
      </trkpt>
      <trkpt lat="45.56283" lon="2.72393">
        <ele>1187.85</ele>
        <time>2017-08-13T12:59:09Z</time>
      </trkpt>
      <trkpt lat="45.56283" lon="2.72398">
        <ele>1188.33</ele>
        <time>2017-08-13T12:59:19Z</time>
      </trkpt>
      <trkpt lat="45.56283" lon="2.72401">
        <ele>1188.33</ele>
        <time>2017-08-13T12:59:20Z</time>
      </trkpt>
      <trkpt lat="45.56283" lon="2.72404">
        <ele>1188.33</ele>
        <time>2017-08-13T12:59:21Z</time>
      </trkpt>
      <trkpt lat="45.56283" lon="2.72407">
        <ele>1188.33</ele>
        <time>2017-08-13T12:59:22Z</time>
      </trkpt>
      <trkpt lat="45.56284" lon="2.7241">
        <ele>1188.33</ele>
        <time>2017-08-13T12:59:23Z</time>
      </trkpt>
      <trkpt lat="45.56286" lon="2.72414">
        <ele>1188.33</ele>
        <time>2017-08-13T12:59:24Z</time>
      </trkpt>
      <trkpt lat="45.56297" lon="2.72432">
        <ele>1189.29</ele>
        <time>2017-08-13T12:59:32Z</time>
      </trkpt>
      <trkpt lat="45.56315" lon="2.72448">
        <ele>1190.25</ele>
        <time>2017-08-13T12:59:46Z</time>
      </trkpt>
      <trkpt lat="45.56334" lon="2.72466">
        <ele>1189.77</ele>
        <time>2017-08-13T12:59:59Z</time>
      </trkpt>
      <trkpt lat="45.5634" lon="2.72465">
        <ele>1188.81</ele>
        <time>2017-08-13T13:00:03Z</time>
      </trkpt>
      <trkpt lat="45.56348" lon="2.72464">
        <ele>1187.85</ele>
        <time>2017-08-13T13:00:14Z</time>
      </trkpt>
      <trkpt lat="45.56347" lon="2.72465">
        <ele>1187.85</ele>
        <time>2017-08-13T13:00:46Z</time>
      </trkpt>
      <trkpt lat="45.56347" lon="2.72465">
        <ele>1187.85</ele>
        <time>2017-08-13T13:01:05Z</time>
      </trkpt>
      <trkpt lat="45.56336" lon="2.72462">
        <ele>1187.85</ele>
        <time>2017-08-13T13:01:16Z</time>
      </trkpt>
      <trkpt lat="45.56329" lon="2.72461">
        <ele>1189.29</ele>
        <time>2017-08-13T13:01:22Z</time>
      </trkpt>
      <trkpt lat="45.56324" lon="2.72459">
        <ele>1189.29</ele>
        <time>2017-08-13T13:01:27Z</time>
      </trkpt>
      <trkpt lat="45.56306" lon="2.72439">
        <ele>1188.81</ele>
        <time>2017-08-13T13:01:47Z</time>
      </trkpt>
      <trkpt lat="45.56307" lon="2.72438">
        <ele>1189.29</ele>
        <time>2017-08-13T13:02:06Z</time>
      </trkpt>
      <trkpt lat="45.56297" lon="2.72429">
        <ele>1189.29</ele>
        <time>2017-08-13T13:02:20Z</time>
      </trkpt>
      <trkpt lat="45.56287" lon="2.72418">
        <ele>1188.33</ele>
        <time>2017-08-13T13:02:29Z</time>
      </trkpt>
      <trkpt lat="45.56284" lon="2.72388">
        <ele>1187.37</ele>
        <time>2017-08-13T13:02:47Z</time>
      </trkpt>
      <trkpt lat="45.5629" lon="2.72344">
        <ele>1187.37</ele>
        <time>2017-08-13T13:03:01Z</time>
      </trkpt>
      <trkpt lat="45.56279" lon="2.7229">
        <ele>1186.88</ele>
        <time>2017-08-13T13:03:13Z</time>
      </trkpt>
      <trkpt lat="45.56275" lon="2.72276">
        <ele>1186.4</ele>
        <time>2017-08-13T13:03:16Z</time>
      </trkpt>
      <trkpt lat="45.56274" lon="2.7227">
        <ele>1186.4</ele>
        <time>2017-08-13T13:03:17Z</time>
      </trkpt>
      <trkpt lat="45.5627" lon="2.7221">
        <ele>1184.48</ele>
        <time>2017-08-13T13:03:27Z</time>
      </trkpt>
      <trkpt lat="45.5627" lon="2.72205">
        <ele>1184.48</ele>
        <time>2017-08-13T13:03:28Z</time>
      </trkpt>
      <trkpt lat="45.56271" lon="2.72199">
        <ele>1184</ele>
        <time>2017-08-13T13:03:29Z</time>
      </trkpt>
      <trkpt lat="45.56276" lon="2.72177">
        <ele>1183.52</ele>
        <time>2017-08-13T13:03:33Z</time>
      </trkpt>
      <trkpt lat="45.56305" lon="2.72099">
        <ele>1181.12</ele>
        <time>2017-08-13T13:03:46Z</time>
      </trkpt>
      <trkpt lat="45.56326" lon="2.72046">
        <ele>1180.64</ele>
        <time>2017-08-13T13:03:58Z</time>
      </trkpt>
      <trkpt lat="45.56331" lon="2.72038">
        <ele>1180.64</ele>
        <time>2017-08-13T13:04:00Z</time>
      </trkpt>
      <trkpt lat="45.56334" lon="2.72033">
        <ele>1180.64</ele>
        <time>2017-08-13T13:04:01Z</time>
      </trkpt>
      <trkpt lat="45.56337" lon="2.72029">
        <ele>1180.64</ele>
        <time>2017-08-13T13:04:02Z</time>
      </trkpt>
      <trkpt lat="45.5634" lon="2.72025">
        <ele>1180.16</ele>
        <time>2017-08-13T13:04:03Z</time>
      </trkpt>
      <trkpt lat="45.56343" lon="2.72021">
        <ele>1180.16</ele>
        <time>2017-08-13T13:04:04Z</time>
      </trkpt>
      <trkpt lat="45.56363" lon="2.71993">
        <ele>1179.19</ele>
        <time>2017-08-13T13:04:11Z</time>
      </trkpt>
      <trkpt lat="45.56391" lon="2.71951">
        <ele>1178.23</ele>
        <time>2017-08-13T13:04:23Z</time>
      </trkpt>
      <trkpt lat="45.56391" lon="2.71951">
        <ele>1178.23</ele>
        <time>2017-08-13T13:04:44Z</time>
      </trkpt>
      <trkpt lat="45.564" lon="2.71935">
        <ele>1177.75</ele>
        <time>2017-08-13T13:05:00Z</time>
      </trkpt>
      <trkpt lat="45.5644" lon="2.71853">
        <ele>1174.39</ele>
        <time>2017-08-13T13:05:14Z</time>
      </trkpt>
      <trkpt lat="45.56447" lon="2.71831">
        <ele>1172.95</ele>
        <time>2017-08-13T13:05:17Z</time>
      </trkpt>
      <trkpt lat="45.56454" lon="2.71799">
        <ele>1171.5</ele>
        <time>2017-08-13T13:05:21Z</time>
      </trkpt>
      <trkpt lat="45.56455" lon="2.71791">
        <ele>1171.5</ele>
        <time>2017-08-13T13:05:22Z</time>
      </trkpt>
      <trkpt lat="45.56459" lon="2.71769">
        <ele>1171.02</ele>
        <time>2017-08-13T13:05:25Z</time>
      </trkpt>
      <trkpt lat="45.5646" lon="2.71761">
        <ele>1171.02</ele>
        <time>2017-08-13T13:05:26Z</time>
      </trkpt>
      <trkpt lat="45.5646" lon="2.71754">
        <ele>1171.02</ele>
        <time>2017-08-13T13:05:27Z</time>
      </trkpt>
      <trkpt lat="45.5646" lon="2.71747">
        <ele>1171.02</ele>
        <time>2017-08-13T13:05:28Z</time>
      </trkpt>
      <trkpt lat="45.56461" lon="2.7174">
        <ele>1170.54</ele>
        <time>2017-08-13T13:05:29Z</time>
      </trkpt>
      <trkpt lat="45.56468" lon="2.71669">
        <ele>1168.62</ele>
        <time>2017-08-13T13:05:38Z</time>
      </trkpt>
      <trkpt lat="45.5647" lon="2.71662">
        <ele>1168.62</ele>
        <time>2017-08-13T13:05:39Z</time>
      </trkpt>
      <trkpt lat="45.56474" lon="2.71649">
        <ele>1168.62</ele>
        <time>2017-08-13T13:05:41Z</time>
      </trkpt>
      <trkpt lat="45.56477" lon="2.71643">
        <ele>1168.62</ele>
        <time>2017-08-13T13:05:42Z</time>
      </trkpt>
      <trkpt lat="45.56481" lon="2.71637">
        <ele>1168.14</ele>
        <time>2017-08-13T13:05:48Z</time>
      </trkpt>
      <trkpt lat="45.56482" lon="2.71637">
        <ele>1168.14</ele>
        <time>2017-08-13T13:06:13Z</time>
      </trkpt>
      <trkpt lat="45.56482" lon="2.71629">
        <ele>1168.14</ele>
        <time>2017-08-13T13:06:27Z</time>
      </trkpt>
      <trkpt lat="45.56482" lon="2.71628">
        <ele>1168.14</ele>
        <time>2017-08-13T13:06:28Z</time>
      </trkpt>
      <trkpt lat="45.56483" lon="2.71622">
        <ele>1168.14</ele>
        <time>2017-08-13T13:06:39Z</time>
      </trkpt>
      <trkpt lat="45.56483" lon="2.71619">
        <ele>1168.14</ele>
        <time>2017-08-13T13:06:40Z</time>
      </trkpt>
      <trkpt lat="45.56484" lon="2.71616">
        <ele>1168.14</ele>
        <time>2017-08-13T13:06:41Z</time>
      </trkpt>
      <trkpt lat="45.56488" lon="2.71564">
        <ele>1165.74</ele>
        <time>2017-08-13T13:06:51Z</time>
      </trkpt>
      <trkpt lat="45.56487" lon="2.71531">
        <ele>1163.33</ele>
        <time>2017-08-13T13:06:56Z</time>
      </trkpt>
      <trkpt lat="45.56487" lon="2.71523">
        <ele>1163.33</ele>
        <time>2017-08-13T13:06:57Z</time>
      </trkpt>
      <trkpt lat="45.56482" lon="2.7149">
        <ele>1161.89</ele>
        <time>2017-08-13T13:07:01Z</time>
      </trkpt>
      <trkpt lat="45.5648" lon="2.7148">
        <ele>1161.89</ele>
        <time>2017-08-13T13:07:02Z</time>
      </trkpt>
      <trkpt lat="45.56474" lon="2.71446">
        <ele>1160.93</ele>
        <time>2017-08-13T13:07:06Z</time>
      </trkpt>
      <trkpt lat="45.56465" lon="2.71406">
        <ele>1158.05</ele>
        <time>2017-08-13T13:07:12Z</time>
      </trkpt>
      <trkpt lat="45.56465" lon="2.71401">
        <ele>1158.05</ele>
        <time>2017-08-13T13:07:13Z</time>
      </trkpt>
      <trkpt lat="45.56465" lon="2.71394">
        <ele>1158.05</ele>
        <time>2017-08-13T13:07:14Z</time>
      </trkpt>
      <trkpt lat="45.56465" lon="2.71364">
        <ele>1158.05</ele>
        <time>2017-08-13T13:07:19Z</time>
      </trkpt>
      <trkpt lat="45.56466" lon="2.71357">
        <ele>1158.05</ele>
        <time>2017-08-13T13:07:20Z</time>
      </trkpt>
      <trkpt lat="45.56466" lon="2.7135">
        <ele>1157.56</ele>
        <time>2017-08-13T13:07:21Z</time>
      </trkpt>
      <trkpt lat="45.56466" lon="2.71343">
        <ele>1157.56</ele>
        <time>2017-08-13T13:07:22Z</time>
      </trkpt>
      <trkpt lat="45.56467" lon="2.71336">
        <ele>1157.56</ele>
        <time>2017-08-13T13:07:23Z</time>
      </trkpt>
      <trkpt lat="45.56467" lon="2.7133">
        <ele>1157.56</ele>
        <time>2017-08-13T13:07:24Z</time>
      </trkpt>
      <trkpt lat="45.56467" lon="2.71323">
        <ele>1157.56</ele>
        <time>2017-08-13T13:07:25Z</time>
      </trkpt>
      <trkpt lat="45.56467" lon="2.71316">
        <ele>1157.08</ele>
        <time>2017-08-13T13:07:26Z</time>
      </trkpt>
      <trkpt lat="45.56467" lon="2.71309">
        <ele>1157.08</ele>
        <time>2017-08-13T13:07:27Z</time>
      </trkpt>
      <trkpt lat="45.56469" lon="2.71291">
        <ele>1156.6</ele>
        <time>2017-08-13T13:07:34Z</time>
      </trkpt>
      <trkpt lat="45.5647" lon="2.71273">
        <ele>1156.6</ele>
        <time>2017-08-13T13:07:46Z</time>
      </trkpt>
      <trkpt lat="45.56471" lon="2.71258">
        <ele>1156.6</ele>
        <time>2017-08-13T13:08:00Z</time>
      </trkpt>
      <trkpt lat="45.56469" lon="2.71242">
        <ele>1156.6</ele>
        <time>2017-08-13T13:08:11Z</time>
      </trkpt>
      <trkpt lat="45.5647" lon="2.71222">
        <ele>1156.6</ele>
        <time>2017-08-13T13:08:23Z</time>
      </trkpt>
      <trkpt lat="45.56471" lon="2.71221">
        <ele>1156.6</ele>
        <time>2017-08-13T13:08:24Z</time>
      </trkpt>
      <trkpt lat="45.56471" lon="2.71216">
        <ele>1156.6</ele>
        <time>2017-08-13T13:08:27Z</time>
      </trkpt>
      <trkpt lat="45.56471" lon="2.71215">
        <ele>1156.6</ele>
        <time>2017-08-13T13:08:28Z</time>
      </trkpt>
      <trkpt lat="45.56471" lon="2.7121">
        <ele>1156.6</ele>
        <time>2017-08-13T13:08:31Z</time>
      </trkpt>
      <trkpt lat="45.56472" lon="2.71209">
        <ele>1156.6</ele>
        <time>2017-08-13T13:08:32Z</time>
      </trkpt>
      <trkpt lat="45.56471" lon="2.71198">
        <ele>1156.6</ele>
        <time>2017-08-13T13:08:43Z</time>
      </trkpt>
      <trkpt lat="45.56471" lon="2.71195">
        <ele>1156.6</ele>
        <time>2017-08-13T13:08:44Z</time>
      </trkpt>
      <trkpt lat="45.56471" lon="2.71191">
        <ele>1156.6</ele>
        <time>2017-08-13T13:08:45Z</time>
      </trkpt>
      <trkpt lat="45.56471" lon="2.71187">
        <ele>1156.6</ele>
        <time>2017-08-13T13:08:46Z</time>
      </trkpt>
      <trkpt lat="45.56471" lon="2.71183">
        <ele>1156.6</ele>
        <time>2017-08-13T13:08:47Z</time>
      </trkpt>
      <trkpt lat="45.5647" lon="2.71179">
        <ele>1156.6</ele>
        <time>2017-08-13T13:08:48Z</time>
      </trkpt>
      <trkpt lat="45.56469" lon="2.7114">
        <ele>1155.64</ele>
        <time>2017-08-13T13:08:58Z</time>
      </trkpt>
      <trkpt lat="45.5647" lon="2.71137">
        <ele>1155.64</ele>
        <time>2017-08-13T13:08:59Z</time>
      </trkpt>
      <trkpt lat="45.5647" lon="2.71095">
        <ele>1155.64</ele>
        <time>2017-08-13T13:09:08Z</time>
      </trkpt>
      <trkpt lat="45.56472" lon="2.71054">
        <ele>1155.16</ele>
        <time>2017-08-13T13:09:17Z</time>
      </trkpt>
      <trkpt lat="45.56473" lon="2.71033">
        <ele>1155.16</ele>
        <time>2017-08-13T13:09:22Z</time>
      </trkpt>
      <trkpt lat="45.56474" lon="2.71005">
        <ele>1154.68</ele>
        <time>2017-08-13T13:09:29Z</time>
      </trkpt>
      <trkpt lat="45.56475" lon="2.71001">
        <ele>1154.68</ele>
        <time>2017-08-13T13:09:30Z</time>
      </trkpt>
      <trkpt lat="45.56476" lon="2.70997">
        <ele>1154.68</ele>
        <time>2017-08-13T13:09:31Z</time>
      </trkpt>
      <trkpt lat="45.56476" lon="2.70993">
        <ele>1154.68</ele>
        <time>2017-08-13T13:09:32Z</time>
      </trkpt>
      <trkpt lat="45.5648" lon="2.70983">
        <ele>1154.2</ele>
        <time>2017-08-13T13:09:39Z</time>
      </trkpt>
      <trkpt lat="45.5648" lon="2.7098">
        <ele>1154.2</ele>
        <time>2017-08-13T13:09:40Z</time>
      </trkpt>
      <trkpt lat="45.56483" lon="2.70952">
        <ele>1154.2</ele>
        <time>2017-08-13T13:09:52Z</time>
      </trkpt>
      <trkpt lat="45.56485" lon="2.70942">
        <ele>1154.2</ele>
        <time>2017-08-13T13:10:28Z</time>
      </trkpt>
      <trkpt lat="45.56485" lon="2.70929">
        <ele>1154.2</ele>
        <time>2017-08-13T13:10:42Z</time>
      </trkpt>
      <trkpt lat="45.56484" lon="2.70914">
        <ele>1154.2</ele>
        <time>2017-08-13T13:10:57Z</time>
      </trkpt>
      <trkpt lat="45.56481" lon="2.7091">
        <ele>1154.2</ele>
        <time>2017-08-13T13:11:25Z</time>
      </trkpt>
      <trkpt lat="45.56483" lon="2.70888">
        <ele>1153.72</ele>
        <time>2017-08-13T13:11:39Z</time>
      </trkpt>
      <trkpt lat="45.56485" lon="2.70866">
        <ele>1153.72</ele>
        <time>2017-08-13T13:11:53Z</time>
      </trkpt>
      <trkpt lat="45.56483" lon="2.70855">
        <ele>1153.72</ele>
        <time>2017-08-13T13:12:08Z</time>
      </trkpt>
      <trkpt lat="45.56478" lon="2.70854">
        <ele>1154.2</ele>
        <time>2017-08-13T13:12:19Z</time>
      </trkpt>
      <trkpt lat="45.56481" lon="2.70845">
        <ele>1153.72</ele>
        <time>2017-08-13T13:12:32Z</time>
      </trkpt>
      <trkpt lat="45.56482" lon="2.70844">
        <ele>1153.72</ele>
        <time>2017-08-13T13:12:33Z</time>
      </trkpt>
      <trkpt lat="45.56487" lon="2.7084">
        <ele>1154.2</ele>
        <time>2017-08-13T13:12:43Z</time>
      </trkpt>
      <trkpt lat="45.56487" lon="2.70839">
        <ele>1154.2</ele>
        <time>2017-08-13T13:12:44Z</time>
      </trkpt>
      <trkpt lat="45.56487" lon="2.70837">
        <ele>1154.2</ele>
        <time>2017-08-13T13:12:45Z</time>
      </trkpt>
      <trkpt lat="45.56487" lon="2.70836">
        <ele>1154.2</ele>
        <time>2017-08-13T13:12:46Z</time>
      </trkpt>
      <trkpt lat="45.56486" lon="2.70823">
        <ele>1154.2</ele>
        <time>2017-08-13T13:12:54Z</time>
      </trkpt>
      <trkpt lat="45.56486" lon="2.7082">
        <ele>1154.2</ele>
        <time>2017-08-13T13:12:55Z</time>
      </trkpt>
      <trkpt lat="45.56487" lon="2.70776">
        <ele>1154.2</ele>
        <time>2017-08-13T13:13:07Z</time>
      </trkpt>
      <trkpt lat="45.56494" lon="2.70715">
        <ele>1154.2</ele>
        <time>2017-08-13T13:13:20Z</time>
      </trkpt>
      <trkpt lat="45.56497" lon="2.70678">
        <ele>1154.2</ele>
        <time>2017-08-13T13:13:31Z</time>
      </trkpt>
      <trkpt lat="45.56496" lon="2.70675">
        <ele>1154.2</ele>
        <time>2017-08-13T13:13:32Z</time>
      </trkpt>
      <trkpt lat="45.56496" lon="2.70672">
        <ele>1154.2</ele>
        <time>2017-08-13T13:13:33Z</time>
      </trkpt>
      <trkpt lat="45.56497" lon="2.7067">
        <ele>1154.2</ele>
        <time>2017-08-13T13:13:34Z</time>
      </trkpt>
      <trkpt lat="45.56497" lon="2.70666">
        <ele>1154.2</ele>
        <time>2017-08-13T13:13:35Z</time>
      </trkpt>
      <trkpt lat="45.56497" lon="2.70664">
        <ele>1154.2</ele>
        <time>2017-08-13T13:13:36Z</time>
      </trkpt>
      <trkpt lat="45.56496" lon="2.70625">
        <ele>1154.2</ele>
        <time>2017-08-13T13:13:46Z</time>
      </trkpt>
      <trkpt lat="45.56484" lon="2.70567">
        <ele>1153.72</ele>
        <time>2017-08-13T13:13:57Z</time>
      </trkpt>
      <trkpt lat="45.56471" lon="2.70517">
        <ele>1153.72</ele>
        <time>2017-08-13T13:14:08Z</time>
      </trkpt>
      <trkpt lat="45.56449" lon="2.70444">
        <ele>1152.76</ele>
        <time>2017-08-13T13:14:21Z</time>
      </trkpt>
      <trkpt lat="45.5644" lon="2.70413">
        <ele>1152.28</ele>
        <time>2017-08-13T13:14:26Z</time>
      </trkpt>
      <trkpt lat="45.56439" lon="2.70407">
        <ele>1151.32</ele>
        <time>2017-08-13T13:14:27Z</time>
      </trkpt>
      <trkpt lat="45.5642" lon="2.70342">
        <ele>1148.43</ele>
        <time>2017-08-13T13:14:35Z</time>
      </trkpt>
      <trkpt lat="45.56404" lon="2.70284">
        <ele>1146.51</ele>
        <time>2017-08-13T13:14:41Z</time>
      </trkpt>
      <trkpt lat="45.56401" lon="2.70272">
        <ele>1146.03</ele>
        <time>2017-08-13T13:14:42Z</time>
      </trkpt>
      <trkpt lat="45.56398" lon="2.70262">
        <ele>1145.55</ele>
        <time>2017-08-13T13:14:43Z</time>
      </trkpt>
      <trkpt lat="45.56378" lon="2.70188">
        <ele>1142.18</ele>
        <time>2017-08-13T13:14:50Z</time>
      </trkpt>
      <trkpt lat="45.56359" lon="2.70115">
        <ele>1139.3</ele>
        <time>2017-08-13T13:14:57Z</time>
      </trkpt>
      <trkpt lat="45.56337" lon="2.70003">
        <ele>1136.9</ele>
        <time>2017-08-13T13:15:08Z</time>
      </trkpt>
      <trkpt lat="45.56335" lon="2.69995">
        <ele>1136.42</ele>
        <time>2017-08-13T13:15:09Z</time>
      </trkpt>
      <trkpt lat="45.56333" lon="2.69985">
        <ele>1136.9</ele>
        <time>2017-08-13T13:15:10Z</time>
      </trkpt>
      <trkpt lat="45.56309" lon="2.69852">
        <ele>1135.45</ele>
        <time>2017-08-13T13:15:26Z</time>
      </trkpt>
      <trkpt lat="45.56301" lon="2.69796">
        <ele>1134.01</ele>
        <time>2017-08-13T13:15:37Z</time>
      </trkpt>
      <trkpt lat="45.56301" lon="2.69796">
        <ele>1133.53</ele>
        <time>2017-08-13T13:16:11Z</time>
      </trkpt>
      <trkpt lat="45.56301" lon="2.69796">
        <ele>1133.53</ele>
        <time>2017-08-13T13:16:39Z</time>
      </trkpt>
      <trkpt lat="45.56299" lon="2.69783">
        <ele>1133.53</ele>
        <time>2017-08-13T13:17:05Z</time>
      </trkpt>
      <trkpt lat="45.56297" lon="2.6972">
        <ele>1131.61</ele>
        <time>2017-08-13T13:17:19Z</time>
      </trkpt>
      <trkpt lat="45.56308" lon="2.69664">
        <ele>1128.24</ele>
        <time>2017-08-13T13:17:30Z</time>
      </trkpt>
      <trkpt lat="45.56309" lon="2.69656">
        <ele>1128.24</ele>
        <time>2017-08-13T13:17:31Z</time>
      </trkpt>
      <trkpt lat="45.56318" lon="2.696">
        <ele>1124.88</ele>
        <time>2017-08-13T13:17:38Z</time>
      </trkpt>
      <trkpt lat="45.56318" lon="2.69594">
        <ele>1124.88</ele>
        <time>2017-08-13T13:17:39Z</time>
      </trkpt>
      <trkpt lat="45.56322" lon="2.69558">
        <ele>1121.03</ele>
        <time>2017-08-13T13:17:43Z</time>
      </trkpt>
      <trkpt lat="45.56327" lon="2.69513">
        <ele>1118.15</ele>
        <time>2017-08-13T13:17:48Z</time>
      </trkpt>
      <trkpt lat="45.56331" lon="2.69475">
        <ele>1115.75</ele>
        <time>2017-08-13T13:17:52Z</time>
      </trkpt>
      <trkpt lat="45.56333" lon="2.69449">
        <ele>1113.34</ele>
        <time>2017-08-13T13:17:55Z</time>
      </trkpt>
      <trkpt lat="45.56334" lon="2.6944">
        <ele>1113.82</ele>
        <time>2017-08-13T13:17:56Z</time>
      </trkpt>
      <trkpt lat="45.56338" lon="2.69402">
        <ele>1110.46</ele>
        <time>2017-08-13T13:18:00Z</time>
      </trkpt>
      <trkpt lat="45.56342" lon="2.69367">
        <ele>1108.06</ele>
        <time>2017-08-13T13:18:04Z</time>
      </trkpt>
      <trkpt lat="45.56344" lon="2.69346">
        <ele>1106.61</ele>
        <time>2017-08-13T13:18:07Z</time>
      </trkpt>
      <trkpt lat="45.56347" lon="2.6933">
        <ele>1105.65</ele>
        <time>2017-08-13T13:18:09Z</time>
      </trkpt>
      <trkpt lat="45.56347" lon="2.69322">
        <ele>1105.17</ele>
        <time>2017-08-13T13:18:10Z</time>
      </trkpt>
      <trkpt lat="45.56351" lon="2.69289">
        <ele>1102.77</ele>
        <time>2017-08-13T13:18:14Z</time>
      </trkpt>
      <trkpt lat="45.56352" lon="2.69279">
        <ele>1102.29</ele>
        <time>2017-08-13T13:18:15Z</time>
      </trkpt>
      <trkpt lat="45.56353" lon="2.69274">
        <ele>1102.29</ele>
        <time>2017-08-13T13:18:16Z</time>
      </trkpt>
      <trkpt lat="45.56354" lon="2.69266">
        <ele>1101.33</ele>
        <time>2017-08-13T13:18:17Z</time>
      </trkpt>
      <trkpt lat="45.56354" lon="2.69258">
        <ele>1100.85</ele>
        <time>2017-08-13T13:18:18Z</time>
      </trkpt>
      <trkpt lat="45.56355" lon="2.69252">
        <ele>1100.37</ele>
        <time>2017-08-13T13:18:19Z</time>
      </trkpt>
      <trkpt lat="45.56356" lon="2.69248">
        <ele>1100.37</ele>
        <time>2017-08-13T13:18:20Z</time>
      </trkpt>
      <trkpt lat="45.56356" lon="2.69243">
        <ele>1099.89</ele>
        <time>2017-08-13T13:18:21Z</time>
      </trkpt>
      <trkpt lat="45.56356" lon="2.69238">
        <ele>1099.89</ele>
        <time>2017-08-13T13:18:22Z</time>
      </trkpt>
      <trkpt lat="45.56357" lon="2.69231">
        <ele>1098.92</ele>
        <time>2017-08-13T13:18:23Z</time>
      </trkpt>
      <trkpt lat="45.56358" lon="2.69217">
        <ele>1098.92</ele>
        <time>2017-08-13T13:18:25Z</time>
      </trkpt>
      <trkpt lat="45.56358" lon="2.69209">
        <ele>1097.96</ele>
        <time>2017-08-13T13:18:26Z</time>
      </trkpt>
      <trkpt lat="45.5635" lon="2.69154">
        <ele>1094.6</ele>
        <time>2017-08-13T13:18:32Z</time>
      </trkpt>
      <trkpt lat="45.5634" lon="2.6908">
        <ele>1091.23</ele>
        <time>2017-08-13T13:18:39Z</time>
      </trkpt>
      <trkpt lat="45.56337" lon="2.69057">
        <ele>1090.27</ele>
        <time>2017-08-13T13:18:41Z</time>
      </trkpt>
      <trkpt lat="45.56332" lon="2.68999">
        <ele>1088.83</ele>
        <time>2017-08-13T13:18:46Z</time>
      </trkpt>
      <trkpt lat="45.56325" lon="2.68952">
        <ele>1086.91</ele>
        <time>2017-08-13T13:18:50Z</time>
      </trkpt>
      <trkpt lat="45.56316" lon="2.68888">
        <ele>1084.02</ele>
        <time>2017-08-13T13:18:55Z</time>
      </trkpt>
      <trkpt lat="45.5631" lon="2.6884">
        <ele>1082.1</ele>
        <time>2017-08-13T13:18:59Z</time>
      </trkpt>
      <trkpt lat="45.56299" lon="2.68756">
        <ele>1078.74</ele>
        <time>2017-08-13T13:19:06Z</time>
      </trkpt>
      <trkpt lat="45.56286" lon="2.68663">
        <ele>1075.37</ele>
        <time>2017-08-13T13:19:14Z</time>
      </trkpt>
      <trkpt lat="45.56285" lon="2.68652">
        <ele>1075.37</ele>
        <time>2017-08-13T13:19:15Z</time>
      </trkpt>
      <trkpt lat="45.56272" lon="2.68553">
        <ele>1071.53</ele>
        <time>2017-08-13T13:19:24Z</time>
      </trkpt>
      <trkpt lat="45.56266" lon="2.68487">
        <ele>1070.08</ele>
        <time>2017-08-13T13:19:30Z</time>
      </trkpt>
      <trkpt lat="45.56265" lon="2.68476">
        <ele>1070.08</ele>
        <time>2017-08-13T13:19:31Z</time>
      </trkpt>
      <trkpt lat="45.56264" lon="2.68467">
        <ele>1070.08</ele>
        <time>2017-08-13T13:19:32Z</time>
      </trkpt>
      <trkpt lat="45.56262" lon="2.68457">
        <ele>1070.08</ele>
        <time>2017-08-13T13:19:33Z</time>
      </trkpt>
      <trkpt lat="45.56259" lon="2.68448">
        <ele>1069.6</ele>
        <time>2017-08-13T13:19:34Z</time>
      </trkpt>
      <trkpt lat="45.56256" lon="2.6844">
        <ele>1069.12</ele>
        <time>2017-08-13T13:19:35Z</time>
      </trkpt>
      <trkpt lat="45.56222" lon="2.6833">
        <ele>1066.72</ele>
        <time>2017-08-13T13:19:48Z</time>
      </trkpt>
      <trkpt lat="45.56185" lon="2.68217">
        <ele>1063.36</ele>
        <time>2017-08-13T13:20:01Z</time>
      </trkpt>
      <trkpt lat="45.56166" lon="2.68159">
        <ele>1059.99</ele>
        <time>2017-08-13T13:20:07Z</time>
      </trkpt>
      <trkpt lat="45.56163" lon="2.68152">
        <ele>1059.99</ele>
        <time>2017-08-13T13:20:08Z</time>
      </trkpt>
      <trkpt lat="45.5615" lon="2.68107">
        <ele>1057.11</ele>
        <time>2017-08-13T13:20:12Z</time>
      </trkpt>
      <trkpt lat="45.56141" lon="2.68073">
        <ele>1055.18</ele>
        <time>2017-08-13T13:20:15Z</time>
      </trkpt>
      <trkpt lat="45.56136" lon="2.68052">
        <ele>1053.74</ele>
        <time>2017-08-13T13:20:17Z</time>
      </trkpt>
      <trkpt lat="45.5613" lon="2.68006">
        <ele>1050.86</ele>
        <time>2017-08-13T13:20:22Z</time>
      </trkpt>
      <trkpt lat="45.56129" lon="2.67977">
        <ele>1048.94</ele>
        <time>2017-08-13T13:20:25Z</time>
      </trkpt>
      <trkpt lat="45.56127" lon="2.67937">
        <ele>1046.05</ele>
        <time>2017-08-13T13:20:29Z</time>
      </trkpt>
      <trkpt lat="45.56121" lon="2.67898">
        <ele>1043.65</ele>
        <time>2017-08-13T13:20:33Z</time>
      </trkpt>
      <trkpt lat="45.5611" lon="2.67834">
        <ele>1040.28</ele>
        <time>2017-08-13T13:20:39Z</time>
      </trkpt>
      <trkpt lat="45.56099" lon="2.67764">
        <ele>1036.92</ele>
        <time>2017-08-13T13:20:45Z</time>
      </trkpt>
      <trkpt lat="45.56097" lon="2.67741">
        <ele>1035.96</ele>
        <time>2017-08-13T13:20:47Z</time>
      </trkpt>
      <trkpt lat="45.56097" lon="2.67729">
        <ele>1035</ele>
        <time>2017-08-13T13:20:48Z</time>
      </trkpt>
      <trkpt lat="45.56097" lon="2.67665">
        <ele>1031.63</ele>
        <time>2017-08-13T13:20:53Z</time>
      </trkpt>
      <trkpt lat="45.56095" lon="2.67595">
        <ele>1027.79</ele>
        <time>2017-08-13T13:20:58Z</time>
      </trkpt>
      <trkpt lat="45.56093" lon="2.6758">
        <ele>1025.86</ele>
        <time>2017-08-13T13:20:59Z</time>
      </trkpt>
      <trkpt lat="45.5609" lon="2.67566">
        <ele>1025.38</ele>
        <time>2017-08-13T13:21:00Z</time>
      </trkpt>
      <trkpt lat="45.56086" lon="2.67551">
        <ele>1024.42</ele>
        <time>2017-08-13T13:21:01Z</time>
      </trkpt>
      <trkpt lat="45.56066" lon="2.67465">
        <ele>1021.06</ele>
        <time>2017-08-13T13:21:08Z</time>
      </trkpt>
      <trkpt lat="45.56054" lon="2.67366">
        <ele>1018.17</ele>
        <time>2017-08-13T13:21:16Z</time>
      </trkpt>
      <trkpt lat="45.56053" lon="2.67334">
        <ele>1016.73</ele>
        <time>2017-08-13T13:21:19Z</time>
      </trkpt>
      <trkpt lat="45.56052" lon="2.67311">
        <ele>1016.25</ele>
        <time>2017-08-13T13:21:21Z</time>
      </trkpt>
      <trkpt lat="45.56052" lon="2.67292">
        <ele>1015.77</ele>
        <time>2017-08-13T13:21:23Z</time>
      </trkpt>
      <trkpt lat="45.5605" lon="2.67282">
        <ele>1014.81</ele>
        <time>2017-08-13T13:21:24Z</time>
      </trkpt>
      <trkpt lat="45.56022" lon="2.67158">
        <ele>1011.44</ele>
        <time>2017-08-13T13:21:37Z</time>
      </trkpt>
      <trkpt lat="45.56018" lon="2.67141">
        <ele>1010.96</ele>
        <time>2017-08-13T13:21:39Z</time>
      </trkpt>
      <trkpt lat="45.56005" lon="2.67085">
        <ele>1009.52</ele>
        <time>2017-08-13T13:21:45Z</time>
      </trkpt>
      <trkpt lat="45.56002" lon="2.67061">
        <ele>1009.04</ele>
        <time>2017-08-13T13:21:49Z</time>
      </trkpt>
      <trkpt lat="45.56" lon="2.67058">
        <ele>1009.04</ele>
        <time>2017-08-13T13:21:50Z</time>
      </trkpt>
      <trkpt lat="45.55998" lon="2.67056">
        <ele>1009.04</ele>
        <time>2017-08-13T13:21:51Z</time>
      </trkpt>
      <trkpt lat="45.55994" lon="2.67054">
        <ele>1009.04</ele>
        <time>2017-08-13T13:21:52Z</time>
      </trkpt>
      <trkpt lat="45.55991" lon="2.67054">
        <ele>1009.04</ele>
        <time>2017-08-13T13:21:53Z</time>
      </trkpt>
      <trkpt lat="45.55988" lon="2.67053">
        <ele>1009.04</ele>
        <time>2017-08-13T13:21:54Z</time>
      </trkpt>
      <trkpt lat="45.55971" lon="2.67053">
        <ele>1009.04</ele>
        <time>2017-08-13T13:21:58Z</time>
      </trkpt>
      <trkpt lat="45.5595" lon="2.67059">
        <ele>1009.04</ele>
        <time>2017-08-13T13:22:03Z</time>
      </trkpt>
      <trkpt lat="45.55945" lon="2.67061">
        <ele>1009.04</ele>
        <time>2017-08-13T13:22:04Z</time>
      </trkpt>
      <trkpt lat="45.55889" lon="2.67107">
        <ele>1009.04</ele>
        <time>2017-08-13T13:22:17Z</time>
      </trkpt>
      <trkpt lat="45.55839" lon="2.67179">
        <ele>1007.6</ele>
        <time>2017-08-13T13:22:29Z</time>
      </trkpt>
      <trkpt lat="45.55807" lon="2.67207">
        <ele>1006.16</ele>
        <time>2017-08-13T13:22:35Z</time>
      </trkpt>
      <trkpt lat="45.558" lon="2.67211">
        <ele>1006.16</ele>
        <time>2017-08-13T13:22:36Z</time>
      </trkpt>
      <trkpt lat="45.55697" lon="2.67263">
        <ele>1004.23</ele>
        <time>2017-08-13T13:22:52Z</time>
      </trkpt>
      <trkpt lat="45.55662" lon="2.67276">
        <ele>1002.79</ele>
        <time>2017-08-13T13:22:57Z</time>
      </trkpt>
      <trkpt lat="45.55655" lon="2.67277">
        <ele>1002.31</ele>
        <time>2017-08-13T13:22:58Z</time>
      </trkpt>
      <trkpt lat="45.55625" lon="2.67276">
        <ele>1001.35</ele>
        <time>2017-08-13T13:23:02Z</time>
      </trkpt>
      <trkpt lat="45.55603" lon="2.67269">
        <ele>999.91</ele>
        <time>2017-08-13T13:23:05Z</time>
      </trkpt>
      <trkpt lat="45.55584" lon="2.6726">
        <ele>998.95</ele>
        <time>2017-08-13T13:23:08Z</time>
      </trkpt>
      <trkpt lat="45.55578" lon="2.67258">
        <ele>998.95</ele>
        <time>2017-08-13T13:23:09Z</time>
      </trkpt>
      <trkpt lat="45.55564" lon="2.67257">
        <ele>997.99</ele>
        <time>2017-08-13T13:23:13Z</time>
      </trkpt>
      <trkpt lat="45.55565" lon="2.67257">
        <ele>997.99</ele>
        <time>2017-08-13T13:23:23Z</time>
      </trkpt>
      <trkpt lat="45.55565" lon="2.67257">
        <ele>997.99</ele>
        <time>2017-08-13T13:23:33Z</time>
      </trkpt>
      <trkpt lat="45.55564" lon="2.67249">
        <ele>997.99</ele>
        <time>2017-08-13T13:23:36Z</time>
      </trkpt>
      <trkpt lat="45.55561" lon="2.67235">
        <ele>997.99</ele>
        <time>2017-08-13T13:23:39Z</time>
      </trkpt>
      <trkpt lat="45.55558" lon="2.67229">
        <ele>997.99</ele>
        <time>2017-08-13T13:23:40Z</time>
      </trkpt>
      <trkpt lat="45.55555" lon="2.67225">
        <ele>997.02</ele>
        <time>2017-08-13T13:23:41Z</time>
      </trkpt>
      <trkpt lat="45.55535" lon="2.67199">
        <ele>996.06</ele>
        <time>2017-08-13T13:23:46Z</time>
      </trkpt>
      <trkpt lat="45.55514" lon="2.67178">
        <ele>994.62</ele>
        <time>2017-08-13T13:23:50Z</time>
      </trkpt>
      <trkpt lat="45.55501" lon="2.67169">
        <ele>994.14</ele>
        <time>2017-08-13T13:23:52Z</time>
      </trkpt>
      <trkpt lat="45.55488" lon="2.67161">
        <ele>993.18</ele>
        <time>2017-08-13T13:23:54Z</time>
      </trkpt>
      <trkpt lat="45.55458" lon="2.67154">
        <ele>991.74</ele>
        <time>2017-08-13T13:23:58Z</time>
      </trkpt>
      <trkpt lat="45.55417" lon="2.67161">
        <ele>989.81</ele>
        <time>2017-08-13T13:24:03Z</time>
      </trkpt>
      <trkpt lat="45.55408" lon="2.67166">
        <ele>989.33</ele>
        <time>2017-08-13T13:24:04Z</time>
      </trkpt>
      <trkpt lat="45.554" lon="2.6717">
        <ele>988.85</ele>
        <time>2017-08-13T13:24:05Z</time>
      </trkpt>
      <trkpt lat="45.55339" lon="2.67215">
        <ele>985.49</ele>
        <time>2017-08-13T13:24:12Z</time>
      </trkpt>
      <trkpt lat="45.5533" lon="2.67221">
        <ele>985.01</ele>
        <time>2017-08-13T13:24:13Z</time>
      </trkpt>
      <trkpt lat="45.55301" lon="2.67237">
        <ele>983.57</ele>
        <time>2017-08-13T13:24:16Z</time>
      </trkpt>
      <trkpt lat="45.55292" lon="2.67241">
        <ele>983.09</ele>
        <time>2017-08-13T13:24:17Z</time>
      </trkpt>
      <trkpt lat="45.55206" lon="2.67245">
        <ele>979.72</ele>
        <time>2017-08-13T13:24:25Z</time>
      </trkpt>
      <trkpt lat="45.55107" lon="2.67248">
        <ele>976.36</ele>
        <time>2017-08-13T13:24:34Z</time>
      </trkpt>
      <trkpt lat="45.55098" lon="2.67251">
        <ele>976.36</ele>
        <time>2017-08-13T13:24:35Z</time>
      </trkpt>
      <trkpt lat="45.54988" lon="2.67309">
        <ele>975.88</ele>
        <time>2017-08-13T13:24:48Z</time>
      </trkpt>
      <trkpt lat="45.54898" lon="2.67407">
        <ele>974.91</ele>
        <time>2017-08-13T13:25:02Z</time>
      </trkpt>
      <trkpt lat="45.54808" lon="2.67511">
        <ele>973.95</ele>
        <time>2017-08-13T13:25:17Z</time>
      </trkpt>
      <trkpt lat="45.54722" lon="2.67612">
        <ele>971.07</ele>
        <time>2017-08-13T13:25:31Z</time>
      </trkpt>
      <trkpt lat="45.54668" lon="2.67674">
        <ele>968.18</ele>
        <time>2017-08-13T13:25:39Z</time>
      </trkpt>
      <trkpt lat="45.54569" lon="2.67787">
        <ele>967.7</ele>
        <time>2017-08-13T13:25:55Z</time>
      </trkpt>
      <trkpt lat="45.54519" lon="2.67825">
        <ele>970.59</ele>
        <time>2017-08-13T13:26:07Z</time>
      </trkpt>
      <trkpt lat="45.54475" lon="2.67853">
        <ele>972.99</ele>
        <time>2017-08-13T13:26:25Z</time>
      </trkpt>
      <trkpt lat="45.54435" lon="2.67877">
        <ele>974.43</ele>
        <time>2017-08-13T13:26:42Z</time>
      </trkpt>
      <trkpt lat="45.54391" lon="2.67905">
        <ele>975.88</ele>
        <time>2017-08-13T13:27:00Z</time>
      </trkpt>
      <trkpt lat="45.54338" lon="2.67939">
        <ele>976.36</ele>
        <time>2017-08-13T13:27:18Z</time>
      </trkpt>
      <trkpt lat="45.54289" lon="2.67992">
        <ele>976.36</ele>
        <time>2017-08-13T13:27:33Z</time>
      </trkpt>
      <trkpt lat="45.54285" lon="2.67997">
        <ele>976.36</ele>
        <time>2017-08-13T13:27:34Z</time>
      </trkpt>
      <trkpt lat="45.54228" lon="2.68095">
        <ele>974.43</ele>
        <time>2017-08-13T13:27:49Z</time>
      </trkpt>
      <trkpt lat="45.5416" lon="2.68171">
        <ele>972.51</ele>
        <time>2017-08-13T13:28:02Z</time>
      </trkpt>
      <trkpt lat="45.54132" lon="2.68185">
        <ele>972.99</ele>
        <time>2017-08-13T13:28:07Z</time>
      </trkpt>
      <trkpt lat="45.54087" lon="2.68192">
        <ele>973.95</ele>
        <time>2017-08-13T13:28:17Z</time>
      </trkpt>
      <trkpt lat="45.54032" lon="2.68197">
        <ele>976.84</ele>
        <time>2017-08-13T13:28:35Z</time>
      </trkpt>
      <trkpt lat="45.53992" lon="2.68201">
        <ele>978.28</ele>
        <time>2017-08-13T13:28:51Z</time>
      </trkpt>
      <trkpt lat="45.53961" lon="2.68203">
        <ele>979.24</ele>
        <time>2017-08-13T13:29:05Z</time>
      </trkpt>
      <trkpt lat="45.53942" lon="2.68222">
        <ele>979.24</ele>
        <time>2017-08-13T13:29:17Z</time>
      </trkpt>
      <trkpt lat="45.5394" lon="2.68224">
        <ele>979.24</ele>
        <time>2017-08-13T13:29:20Z</time>
      </trkpt>
      <trkpt lat="45.53933" lon="2.68227">
        <ele>979.24</ele>
        <time>2017-08-13T13:29:26Z</time>
      </trkpt>
      <trkpt lat="45.5393" lon="2.6823">
        <ele>979.24</ele>
        <time>2017-08-13T13:29:28Z</time>
      </trkpt>
      <trkpt lat="45.53911" lon="2.68258">
        <ele>977.8</ele>
        <time>2017-08-13T13:29:38Z</time>
      </trkpt>
      <trkpt lat="45.53895" lon="2.68279">
        <ele>976.84</ele>
        <time>2017-08-13T13:29:48Z</time>
      </trkpt>
      <trkpt lat="45.53866" lon="2.68304">
        <ele>975.39</ele>
        <time>2017-08-13T13:29:58Z</time>
      </trkpt>
      <trkpt lat="45.53814" lon="2.68315">
        <ele>971.55</ele>
        <time>2017-08-13T13:30:06Z</time>
      </trkpt>
      <trkpt lat="45.53761" lon="2.6831">
        <ele>968.67</ele>
        <time>2017-08-13T13:30:12Z</time>
      </trkpt>
      <trkpt lat="45.53755" lon="2.68309">
        <ele>968.67</ele>
        <time>2017-08-13T13:30:13Z</time>
      </trkpt>
      <trkpt lat="45.53719" lon="2.68311">
        <ele>966.74</ele>
        <time>2017-08-13T13:30:17Z</time>
      </trkpt>
      <trkpt lat="45.53709" lon="2.68315">
        <ele>966.26</ele>
        <time>2017-08-13T13:30:18Z</time>
      </trkpt>
      <trkpt lat="45.53701" lon="2.68319">
        <ele>966.26</ele>
        <time>2017-08-13T13:30:19Z</time>
      </trkpt>
      <trkpt lat="45.53692" lon="2.68325">
        <ele>965.3</ele>
        <time>2017-08-13T13:30:20Z</time>
      </trkpt>
      <trkpt lat="45.53684" lon="2.68333">
        <ele>964.34</ele>
        <time>2017-08-13T13:30:21Z</time>
      </trkpt>
      <trkpt lat="45.53677" lon="2.68341">
        <ele>964.34</ele>
        <time>2017-08-13T13:30:22Z</time>
      </trkpt>
      <trkpt lat="45.53669" lon="2.68351">
        <ele>963.86</ele>
        <time>2017-08-13T13:30:23Z</time>
      </trkpt>
      <trkpt lat="45.53663" lon="2.68361">
        <ele>962.9</ele>
        <time>2017-08-13T13:30:24Z</time>
      </trkpt>
      <trkpt lat="45.53657" lon="2.68373">
        <ele>962.42</ele>
        <time>2017-08-13T13:30:25Z</time>
      </trkpt>
      <trkpt lat="45.53652" lon="2.68386">
        <ele>961.94</ele>
        <time>2017-08-13T13:30:26Z</time>
      </trkpt>
      <trkpt lat="45.53646" lon="2.68401">
        <ele>961.46</ele>
        <time>2017-08-13T13:30:27Z</time>
      </trkpt>
      <trkpt lat="45.53631" lon="2.68441">
        <ele>960.01</ele>
        <time>2017-08-13T13:30:30Z</time>
      </trkpt>
      <trkpt lat="45.53619" lon="2.68468">
        <ele>958.57</ele>
        <time>2017-08-13T13:30:32Z</time>
      </trkpt>
      <trkpt lat="45.53612" lon="2.6848">
        <ele>958.09</ele>
        <time>2017-08-13T13:30:33Z</time>
      </trkpt>
      <trkpt lat="45.53604" lon="2.6849">
        <ele>957.13</ele>
        <time>2017-08-13T13:30:34Z</time>
      </trkpt>
      <trkpt lat="45.53596" lon="2.685">
        <ele>956.65</ele>
        <time>2017-08-13T13:30:35Z</time>
      </trkpt>
      <trkpt lat="45.53586" lon="2.6851">
        <ele>956.17</ele>
        <time>2017-08-13T13:30:36Z</time>
      </trkpt>
      <trkpt lat="45.5356" lon="2.6855">
        <ele>954.73</ele>
        <time>2017-08-13T13:30:40Z</time>
      </trkpt>
      <trkpt lat="45.53541" lon="2.68601">
        <ele>952.8</ele>
        <time>2017-08-13T13:30:44Z</time>
      </trkpt>
      <trkpt lat="45.53539" lon="2.68614">
        <ele>952.8</ele>
        <time>2017-08-13T13:30:45Z</time>
      </trkpt>
      <trkpt lat="45.53537" lon="2.68626">
        <ele>952.8</ele>
        <time>2017-08-13T13:30:46Z</time>
      </trkpt>
      <trkpt lat="45.53536" lon="2.68639">
        <ele>952.8</ele>
        <time>2017-08-13T13:30:47Z</time>
      </trkpt>
      <trkpt lat="45.53536" lon="2.6865">
        <ele>952.8</ele>
        <time>2017-08-13T13:30:48Z</time>
      </trkpt>
      <trkpt lat="45.53537" lon="2.68662">
        <ele>952.8</ele>
        <time>2017-08-13T13:30:49Z</time>
      </trkpt>
      <trkpt lat="45.53539" lon="2.68671">
        <ele>952.8</ele>
        <time>2017-08-13T13:30:50Z</time>
      </trkpt>
      <trkpt lat="45.53541" lon="2.68681">
        <ele>954.25</ele>
        <time>2017-08-13T13:30:51Z</time>
      </trkpt>
      <trkpt lat="45.53544" lon="2.68688">
        <ele>954.73</ele>
        <time>2017-08-13T13:30:52Z</time>
      </trkpt>
      <trkpt lat="45.53547" lon="2.68695">
        <ele>955.21</ele>
        <time>2017-08-13T13:30:53Z</time>
      </trkpt>
      <trkpt lat="45.53561" lon="2.68748">
        <ele>957.61</ele>
        <time>2017-08-13T13:31:04Z</time>
      </trkpt>
      <trkpt lat="45.53567" lon="2.68802">
        <ele>959.53</ele>
        <time>2017-08-13T13:31:22Z</time>
      </trkpt>
      <trkpt lat="45.53573" lon="2.68839">
        <ele>960.49</ele>
        <time>2017-08-13T13:31:36Z</time>
      </trkpt>
      <trkpt lat="45.53577" lon="2.68882">
        <ele>961.94</ele>
        <time>2017-08-13T13:31:51Z</time>
      </trkpt>
      <trkpt lat="45.53578" lon="2.68891">
        <ele>962.42</ele>
        <time>2017-08-13T13:31:54Z</time>
      </trkpt>
      <trkpt lat="45.5358" lon="2.68893">
        <ele>962.42</ele>
        <time>2017-08-13T13:31:55Z</time>
      </trkpt>
      <trkpt lat="45.53581" lon="2.68895">
        <ele>962.42</ele>
        <time>2017-08-13T13:31:56Z</time>
      </trkpt>
      <trkpt lat="45.53582" lon="2.68897">
        <ele>962.42</ele>
        <time>2017-08-13T13:31:57Z</time>
      </trkpt>
      <trkpt lat="45.53583" lon="2.68898">
        <ele>962.9</ele>
        <time>2017-08-13T13:31:58Z</time>
      </trkpt>
      <trkpt lat="45.53584" lon="2.689">
        <ele>962.9</ele>
        <time>2017-08-13T13:31:59Z</time>
      </trkpt>
      <trkpt lat="45.53584" lon="2.68902">
        <ele>962.9</ele>
        <time>2017-08-13T13:32:00Z</time>
      </trkpt>
      <trkpt lat="45.53584" lon="2.68905">
        <ele>962.9</ele>
        <time>2017-08-13T13:32:01Z</time>
      </trkpt>
      <trkpt lat="45.53584" lon="2.68907">
        <ele>962.9</ele>
        <time>2017-08-13T13:32:02Z</time>
      </trkpt>
      <trkpt lat="45.53584" lon="2.68923">
        <ele>963.38</ele>
        <time>2017-08-13T13:32:08Z</time>
      </trkpt>
      <trkpt lat="45.53584" lon="2.68924">
        <ele>963.38</ele>
        <time>2017-08-13T13:32:09Z</time>
      </trkpt>
      <trkpt lat="45.53585" lon="2.68926">
        <ele>963.86</ele>
        <time>2017-08-13T13:32:10Z</time>
      </trkpt>
      <trkpt lat="45.53588" lon="2.68926">
        <ele>964.34</ele>
        <time>2017-08-13T13:32:18Z</time>
      </trkpt>
      <trkpt lat="45.53594" lon="2.68909">
        <ele>965.78</ele>
        <time>2017-08-13T13:32:31Z</time>
      </trkpt>
      <trkpt lat="45.53596" lon="2.68893">
        <ele>967.7</ele>
        <time>2017-08-13T13:32:48Z</time>
      </trkpt>
      <trkpt lat="45.53596" lon="2.68897">
        <ele>967.7</ele>
        <time>2017-08-13T13:33:12Z</time>
      </trkpt>
      <trkpt lat="45.53599" lon="2.68895">
        <ele>967.7</ele>
        <time>2017-08-13T13:33:44Z</time>
      </trkpt>
      <trkpt lat="45.53596" lon="2.68894">
        <ele>967.7</ele>
        <time>2017-08-13T13:34:18Z</time>
      </trkpt>
      <trkpt lat="45.53599" lon="2.68893">
        <ele>967.7</ele>
        <time>2017-08-13T13:34:50Z</time>
      </trkpt>
      <trkpt lat="45.53598" lon="2.68893">
        <ele>967.22</ele>
        <time>2017-08-13T13:35:23Z</time>
      </trkpt>
      <trkpt lat="45.53599" lon="2.68895">
        <ele>967.22</ele>
        <time>2017-08-13T13:35:48Z</time>
      </trkpt>
      <trkpt lat="45.53599" lon="2.68895">
        <ele>967.22</ele>
        <time>2017-08-13T13:36:19Z</time>
      </trkpt>
      <trkpt lat="45.53599" lon="2.68893">
        <ele>967.22</ele>
        <time>2017-08-13T13:36:46Z</time>
      </trkpt>
      <trkpt lat="45.53599" lon="2.68895">
        <ele>967.22</ele>
        <time>2017-08-13T13:37:11Z</time>
      </trkpt>
      <trkpt lat="45.53598" lon="2.68894">
        <ele>966.74</ele>
        <time>2017-08-13T13:37:31Z</time>
      </trkpt>
      <trkpt lat="45.53598" lon="2.68894">
        <ele>966.74</ele>
        <time>2017-08-13T13:37:48Z</time>
      </trkpt>
      <trkpt lat="45.536" lon="2.68896">
        <ele>965.78</ele>
        <time>2017-08-13T13:38:07Z</time>
      </trkpt>
      <trkpt lat="45.53598" lon="2.689">
        <ele>965.78</ele>
        <time>2017-08-13T13:38:11Z</time>
      </trkpt>
      <trkpt lat="45.53597" lon="2.68902">
        <ele>965.78</ele>
        <time>2017-08-13T13:38:12Z</time>
      </trkpt>
      <trkpt lat="45.53595" lon="2.68906">
        <ele>965.78</ele>
        <time>2017-08-13T13:38:13Z</time>
      </trkpt>
      <trkpt lat="45.53591" lon="2.68928">
        <ele>963.38</ele>
        <time>2017-08-13T13:38:17Z</time>
      </trkpt>
      <trkpt lat="45.53586" lon="2.68941">
        <ele>962.42</ele>
        <time>2017-08-13T13:38:19Z</time>
      </trkpt>
      <trkpt lat="45.53583" lon="2.68946">
        <ele>962.42</ele>
        <time>2017-08-13T13:38:20Z</time>
      </trkpt>
      <trkpt lat="45.5358" lon="2.68947">
        <ele>962.42</ele>
        <time>2017-08-13T13:38:21Z</time>
      </trkpt>
      <trkpt lat="45.53577" lon="2.68945">
        <ele>961.94</ele>
        <time>2017-08-13T13:38:22Z</time>
      </trkpt>
      <trkpt lat="45.53576" lon="2.68941">
        <ele>961.94</ele>
        <time>2017-08-13T13:38:23Z</time>
      </trkpt>
      <trkpt lat="45.53576" lon="2.68936">
        <ele>961.94</ele>
        <time>2017-08-13T13:38:24Z</time>
      </trkpt>
      <trkpt lat="45.53577" lon="2.68932">
        <ele>961.94</ele>
        <time>2017-08-13T13:38:25Z</time>
      </trkpt>
      <trkpt lat="45.53578" lon="2.68928">
        <ele>961.94</ele>
        <time>2017-08-13T13:38:26Z</time>
      </trkpt>
      <trkpt lat="45.53579" lon="2.68924">
        <ele>962.42</ele>
        <time>2017-08-13T13:38:27Z</time>
      </trkpt>
      <trkpt lat="45.53576" lon="2.68859">
        <ele>960.49</ele>
        <time>2017-08-13T13:38:37Z</time>
      </trkpt>
      <trkpt lat="45.5357" lon="2.68829">
        <ele>959.05</ele>
        <time>2017-08-13T13:38:42Z</time>
      </trkpt>
      <trkpt lat="45.53567" lon="2.68827">
        <ele>959.05</ele>
        <time>2017-08-13T13:38:43Z</time>
      </trkpt>
      <trkpt lat="45.53563" lon="2.68827">
        <ele>958.57</ele>
        <time>2017-08-13T13:38:44Z</time>
      </trkpt>
      <trkpt lat="45.5356" lon="2.68828">
        <ele>958.57</ele>
        <time>2017-08-13T13:38:45Z</time>
      </trkpt>
      <trkpt lat="45.53555" lon="2.68828">
        <ele>958.57</ele>
        <time>2017-08-13T13:38:46Z</time>
      </trkpt>
      <trkpt lat="45.53552" lon="2.68828">
        <ele>958.57</ele>
        <time>2017-08-13T13:38:47Z</time>
      </trkpt>
      <trkpt lat="45.53548" lon="2.68829">
        <ele>958.57</ele>
        <time>2017-08-13T13:38:48Z</time>
      </trkpt>
      <trkpt lat="45.53542" lon="2.68827">
        <ele>958.09</ele>
        <time>2017-08-13T13:38:50Z</time>
      </trkpt>
      <trkpt lat="45.5354" lon="2.68824">
        <ele>958.09</ele>
        <time>2017-08-13T13:38:51Z</time>
      </trkpt>
      <trkpt lat="45.53532" lon="2.68806">
        <ele>954.73</ele>
        <time>2017-08-13T13:38:55Z</time>
      </trkpt>
      <trkpt lat="45.53526" lon="2.68794">
        <ele>953.77</ele>
        <time>2017-08-13T13:38:57Z</time>
      </trkpt>
      <trkpt lat="45.53524" lon="2.68788">
        <ele>953.28</ele>
        <time>2017-08-13T13:38:58Z</time>
      </trkpt>
      <trkpt lat="45.53523" lon="2.6878">
        <ele>952.32</ele>
        <time>2017-08-13T13:38:59Z</time>
      </trkpt>
      <trkpt lat="45.53522" lon="2.68773">
        <ele>951.84</ele>
        <time>2017-08-13T13:39:00Z</time>
      </trkpt>
      <trkpt lat="45.53521" lon="2.68763">
        <ele>951.84</ele>
        <time>2017-08-13T13:39:01Z</time>
      </trkpt>
      <trkpt lat="45.53517" lon="2.68718">
        <ele>949.44</ele>
        <time>2017-08-13T13:39:06Z</time>
      </trkpt>
      <trkpt lat="45.53511" lon="2.68704">
        <ele>948.96</ele>
        <time>2017-08-13T13:39:09Z</time>
      </trkpt>
      <trkpt lat="45.53507" lon="2.68701">
        <ele>948.48</ele>
        <time>2017-08-13T13:39:10Z</time>
      </trkpt>
      <trkpt lat="45.53504" lon="2.687">
        <ele>948.48</ele>
        <time>2017-08-13T13:39:11Z</time>
      </trkpt>
      <trkpt lat="45.535" lon="2.687">
        <ele>947.52</ele>
        <time>2017-08-13T13:39:12Z</time>
      </trkpt>
      <trkpt lat="45.53496" lon="2.68701">
        <ele>948</ele>
        <time>2017-08-13T13:39:13Z</time>
      </trkpt>
      <trkpt lat="45.53491" lon="2.68703">
        <ele>947.52</ele>
        <time>2017-08-13T13:39:14Z</time>
      </trkpt>
      <trkpt lat="45.53486" lon="2.68706">
        <ele>947.04</ele>
        <time>2017-08-13T13:39:15Z</time>
      </trkpt>
      <trkpt lat="45.53483" lon="2.68709">
        <ele>947.04</ele>
        <time>2017-08-13T13:39:16Z</time>
      </trkpt>
      <trkpt lat="45.5348" lon="2.68713">
        <ele>947.52</ele>
        <time>2017-08-13T13:39:17Z</time>
      </trkpt>
      <trkpt lat="45.53478" lon="2.68717">
        <ele>947.04</ele>
        <time>2017-08-13T13:39:18Z</time>
      </trkpt>
      <trkpt lat="45.53449" lon="2.68764">
        <ele>948.96</ele>
        <time>2017-08-13T13:39:32Z</time>
      </trkpt>
      <trkpt lat="45.53433" lon="2.68789">
        <ele>950.4</ele>
        <time>2017-08-13T13:39:45Z</time>
      </trkpt>
      <trkpt lat="45.53429" lon="2.68794">
        <ele>950.88</ele>
        <time>2017-08-13T13:39:49Z</time>
      </trkpt>
      <trkpt lat="45.53428" lon="2.68797">
        <ele>950.88</ele>
        <time>2017-08-13T13:39:50Z</time>
      </trkpt>
      <trkpt lat="45.53427" lon="2.68798">
        <ele>950.88</ele>
        <time>2017-08-13T13:39:51Z</time>
      </trkpt>
      <trkpt lat="45.53413" lon="2.68819">
        <ele>952.8</ele>
        <time>2017-08-13T13:40:05Z</time>
      </trkpt>
      <trkpt lat="45.53408" lon="2.68824">
        <ele>953.28</ele>
        <time>2017-08-13T13:40:11Z</time>
      </trkpt>
      <trkpt lat="45.53407" lon="2.68826">
        <ele>953.28</ele>
        <time>2017-08-13T13:40:12Z</time>
      </trkpt>
      <trkpt lat="45.53403" lon="2.68839">
        <ele>954.25</ele>
        <time>2017-08-13T13:40:19Z</time>
      </trkpt>
      <trkpt lat="45.53402" lon="2.68841">
        <ele>954.25</ele>
        <time>2017-08-13T13:40:20Z</time>
      </trkpt>
      <trkpt lat="45.53401" lon="2.68842">
        <ele>954.25</ele>
        <time>2017-08-13T13:40:21Z</time>
      </trkpt>
      <trkpt lat="45.53399" lon="2.68843">
        <ele>954.73</ele>
        <time>2017-08-13T13:40:22Z</time>
      </trkpt>
      <trkpt lat="45.53398" lon="2.68843">
        <ele>954.73</ele>
        <time>2017-08-13T13:40:23Z</time>
      </trkpt>
      <trkpt lat="45.53391" lon="2.68848">
        <ele>955.21</ele>
        <time>2017-08-13T13:40:29Z</time>
      </trkpt>
      <trkpt lat="45.5339" lon="2.68848">
        <ele>955.69</ele>
        <time>2017-08-13T13:40:30Z</time>
      </trkpt>
      <trkpt lat="45.53388" lon="2.68849">
        <ele>956.17</ele>
        <time>2017-08-13T13:40:31Z</time>
      </trkpt>
      <trkpt lat="45.53387" lon="2.68849">
        <ele>956.17</ele>
        <time>2017-08-13T13:40:32Z</time>
      </trkpt>
      <trkpt lat="45.53385" lon="2.68849">
        <ele>956.65</ele>
        <time>2017-08-13T13:40:33Z</time>
      </trkpt>
      <trkpt lat="45.53384" lon="2.6885">
        <ele>956.17</ele>
        <time>2017-08-13T13:40:34Z</time>
      </trkpt>
      <trkpt lat="45.53383" lon="2.68851">
        <ele>956.65</ele>
        <time>2017-08-13T13:40:35Z</time>
      </trkpt>
      <trkpt lat="45.53382" lon="2.68852">
        <ele>956.65</ele>
        <time>2017-08-13T13:40:36Z</time>
      </trkpt>
      <trkpt lat="45.5338" lon="2.68852">
        <ele>956.65</ele>
        <time>2017-08-13T13:40:37Z</time>
      </trkpt>
      <trkpt lat="45.53379" lon="2.68852">
        <ele>956.65</ele>
        <time>2017-08-13T13:40:38Z</time>
      </trkpt>
      <trkpt lat="45.53378" lon="2.68853">
        <ele>957.61</ele>
        <time>2017-08-13T13:40:39Z</time>
      </trkpt>
      <trkpt lat="45.53376" lon="2.68854">
        <ele>957.61</ele>
        <time>2017-08-13T13:40:40Z</time>
      </trkpt>
      <trkpt lat="45.53372" lon="2.68855">
        <ele>957.61</ele>
        <time>2017-08-13T13:40:43Z</time>
      </trkpt>
      <trkpt lat="45.53371" lon="2.68855">
        <ele>957.61</ele>
        <time>2017-08-13T13:40:44Z</time>
      </trkpt>
      <trkpt lat="45.5337" lon="2.68856">
        <ele>957.61</ele>
        <time>2017-08-13T13:40:45Z</time>
      </trkpt>
      <trkpt lat="45.53368" lon="2.68857">
        <ele>958.57</ele>
        <time>2017-08-13T13:40:46Z</time>
      </trkpt>
      <trkpt lat="45.53367" lon="2.68857">
        <ele>958.57</ele>
        <time>2017-08-13T13:40:47Z</time>
      </trkpt>
      <trkpt lat="45.53366" lon="2.68858">
        <ele>958.57</ele>
        <time>2017-08-13T13:40:48Z</time>
      </trkpt>
      <trkpt lat="45.53363" lon="2.6886">
        <ele>959.05</ele>
        <time>2017-08-13T13:40:51Z</time>
      </trkpt>
      <trkpt lat="45.53361" lon="2.68861">
        <ele>959.05</ele>
        <time>2017-08-13T13:40:52Z</time>
      </trkpt>
      <trkpt lat="45.5336" lon="2.68862">
        <ele>959.05</ele>
        <time>2017-08-13T13:40:53Z</time>
      </trkpt>
      <trkpt lat="45.53359" lon="2.68863">
        <ele>959.05</ele>
        <time>2017-08-13T13:40:54Z</time>
      </trkpt>
      <trkpt lat="45.53358" lon="2.68864">
        <ele>959.05</ele>
        <time>2017-08-13T13:40:55Z</time>
      </trkpt>
      <trkpt lat="45.5335" lon="2.68876">
        <ele>960.01</ele>
        <time>2017-08-13T13:41:04Z</time>
      </trkpt>
      <trkpt lat="45.53349" lon="2.68878">
        <ele>960.49</ele>
        <time>2017-08-13T13:41:05Z</time>
      </trkpt>
      <trkpt lat="45.53348" lon="2.6888">
        <ele>960.49</ele>
        <time>2017-08-13T13:41:06Z</time>
      </trkpt>
      <trkpt lat="45.53348" lon="2.68881">
        <ele>960.49</ele>
        <time>2017-08-13T13:41:07Z</time>
      </trkpt>
      <trkpt lat="45.53347" lon="2.68882">
        <ele>960.98</ele>
        <time>2017-08-13T13:41:08Z</time>
      </trkpt>
      <trkpt lat="45.53346" lon="2.68883">
        <ele>960.98</ele>
        <time>2017-08-13T13:41:09Z</time>
      </trkpt>
      <trkpt lat="45.53345" lon="2.68884">
        <ele>960.98</ele>
        <time>2017-08-13T13:41:10Z</time>
      </trkpt>
      <trkpt lat="45.53344" lon="2.68885">
        <ele>960.98</ele>
        <time>2017-08-13T13:41:11Z</time>
      </trkpt>
      <trkpt lat="45.53343" lon="2.68886">
        <ele>961.46</ele>
        <time>2017-08-13T13:41:12Z</time>
      </trkpt>
      <trkpt lat="45.53342" lon="2.68887">
        <ele>961.46</ele>
        <time>2017-08-13T13:41:13Z</time>
      </trkpt>
      <trkpt lat="45.5334" lon="2.68888">
        <ele>961.94</ele>
        <time>2017-08-13T13:41:14Z</time>
      </trkpt>
      <trkpt lat="45.53339" lon="2.68889">
        <ele>961.94</ele>
        <time>2017-08-13T13:41:15Z</time>
      </trkpt>
      <trkpt lat="45.53338" lon="2.68891">
        <ele>961.94</ele>
        <time>2017-08-13T13:41:16Z</time>
      </trkpt>
      <trkpt lat="45.53337" lon="2.68891">
        <ele>961.94</ele>
        <time>2017-08-13T13:41:17Z</time>
      </trkpt>
      <trkpt lat="45.53321" lon="2.68898">
        <ele>963.86</ele>
        <time>2017-08-13T13:41:30Z</time>
      </trkpt>
      <trkpt lat="45.53309" lon="2.6887">
        <ele>962.42</ele>
        <time>2017-08-13T13:41:42Z</time>
      </trkpt>
      <trkpt lat="45.53306" lon="2.68838">
        <ele>959.05</ele>
        <time>2017-08-13T13:41:49Z</time>
      </trkpt>
      <trkpt lat="45.53297" lon="2.68808">
        <ele>956.17</ele>
        <time>2017-08-13T13:41:55Z</time>
      </trkpt>
      <trkpt lat="45.53294" lon="2.68798">
        <ele>954.73</ele>
        <time>2017-08-13T13:41:57Z</time>
      </trkpt>
      <trkpt lat="45.53291" lon="2.68793">
        <ele>954.73</ele>
        <time>2017-08-13T13:41:58Z</time>
      </trkpt>
      <trkpt lat="45.53283" lon="2.68769">
        <ele>952.32</ele>
        <time>2017-08-13T13:42:02Z</time>
      </trkpt>
      <trkpt lat="45.53281" lon="2.68756">
        <ele>950.4</ele>
        <time>2017-08-13T13:42:07Z</time>
      </trkpt>
      <trkpt lat="45.53279" lon="2.68754">
        <ele>950.4</ele>
        <time>2017-08-13T13:42:08Z</time>
      </trkpt>
      <trkpt lat="45.53278" lon="2.68752">
        <ele>949.44</ele>
        <time>2017-08-13T13:42:09Z</time>
      </trkpt>
      <trkpt lat="45.53277" lon="2.68749">
        <ele>949.92</ele>
        <time>2017-08-13T13:42:10Z</time>
      </trkpt>
      <trkpt lat="45.53276" lon="2.68748">
        <ele>949.92</ele>
        <time>2017-08-13T13:42:11Z</time>
      </trkpt>
      <trkpt lat="45.53274" lon="2.68746">
        <ele>949.92</ele>
        <time>2017-08-13T13:42:12Z</time>
      </trkpt>
      <trkpt lat="45.5325" lon="2.68742">
        <ele>949.44</ele>
        <time>2017-08-13T13:42:24Z</time>
      </trkpt>
      <trkpt lat="45.53226" lon="2.68725">
        <ele>948.96</ele>
        <time>2017-08-13T13:42:36Z</time>
      </trkpt>
      <trkpt lat="45.53219" lon="2.68711">
        <ele>947.52</ele>
        <time>2017-08-13T13:42:45Z</time>
      </trkpt>
      <trkpt lat="45.53216" lon="2.6871">
        <ele>947.52</ele>
        <time>2017-08-13T13:42:47Z</time>
      </trkpt>
      <trkpt lat="45.53215" lon="2.68715">
        <ele>947.52</ele>
        <time>2017-08-13T13:42:49Z</time>
      </trkpt>
      <trkpt lat="45.53215" lon="2.68718">
        <ele>947.52</ele>
        <time>2017-08-13T13:42:50Z</time>
      </trkpt>
      <trkpt lat="45.53217" lon="2.6872">
        <ele>947.52</ele>
        <time>2017-08-13T13:42:51Z</time>
      </trkpt>
      <trkpt lat="45.53218" lon="2.68722">
        <ele>947.52</ele>
        <time>2017-08-13T13:42:52Z</time>
      </trkpt>
      <trkpt lat="45.53219" lon="2.68724">
        <ele>947.52</ele>
        <time>2017-08-13T13:42:53Z</time>
      </trkpt>
      <trkpt lat="45.5322" lon="2.68726">
        <ele>947.52</ele>
        <time>2017-08-13T13:42:54Z</time>
      </trkpt>
      <trkpt lat="45.53221" lon="2.68728">
        <ele>947.52</ele>
        <time>2017-08-13T13:42:55Z</time>
      </trkpt>
      <trkpt lat="45.5322" lon="2.68763">
        <ele>947.52</ele>
        <time>2017-08-13T13:43:06Z</time>
      </trkpt>
      <trkpt lat="45.53173" lon="2.68828">
        <ele>946.56</ele>
        <time>2017-08-13T13:43:19Z</time>
      </trkpt>
      <trkpt lat="45.53142" lon="2.68876">
        <ele>945.11</ele>
        <time>2017-08-13T13:43:26Z</time>
      </trkpt>
      <trkpt lat="45.53119" lon="2.68964">
        <ele>941.75</ele>
        <time>2017-08-13T13:43:34Z</time>
      </trkpt>
      <trkpt lat="45.53109" lon="2.69066">
        <ele>938.38</ele>
        <time>2017-08-13T13:43:42Z</time>
      </trkpt>
      <trkpt lat="45.53115" lon="2.69207">
        <ele>936.94</ele>
        <time>2017-08-13T13:43:54Z</time>
      </trkpt>
      <trkpt lat="45.53137" lon="2.69328">
        <ele>938.38</ele>
        <time>2017-08-13T13:44:09Z</time>
      </trkpt>
      <trkpt lat="45.53144" lon="2.69412">
        <ele>939.83</ele>
        <time>2017-08-13T13:44:25Z</time>
      </trkpt>
      <trkpt lat="45.53138" lon="2.69489">
        <ele>941.75</ele>
        <time>2017-08-13T13:44:44Z</time>
      </trkpt>
      <trkpt lat="45.5313" lon="2.69567">
        <ele>943.67</ele>
        <time>2017-08-13T13:45:03Z</time>
      </trkpt>
      <trkpt lat="45.5312" lon="2.69669">
        <ele>945.11</ele>
        <time>2017-08-13T13:45:27Z</time>
      </trkpt>
      <trkpt lat="45.53108" lon="2.69755">
        <ele>946.56</ele>
        <time>2017-08-13T13:45:49Z</time>
      </trkpt>
      <trkpt lat="45.53076" lon="2.69836">
        <ele>946.56</ele>
        <time>2017-08-13T13:46:05Z</time>
      </trkpt>
      <trkpt lat="45.53062" lon="2.69857">
        <ele>945.11</ele>
        <time>2017-08-13T13:46:09Z</time>
      </trkpt>
      <trkpt lat="45.53043" lon="2.69879">
        <ele>943.67</ele>
        <time>2017-08-13T13:46:13Z</time>
      </trkpt>
      <trkpt lat="45.52983" lon="2.69919">
        <ele>940.31</ele>
        <time>2017-08-13T13:46:22Z</time>
      </trkpt>
      <trkpt lat="45.52933" lon="2.69942">
        <ele>936.94</ele>
        <time>2017-08-13T13:46:28Z</time>
      </trkpt>
      <trkpt lat="45.52924" lon="2.69947">
        <ele>936.94</ele>
        <time>2017-08-13T13:46:29Z</time>
      </trkpt>
      <trkpt lat="45.52874" lon="2.69962">
        <ele>933.58</ele>
        <time>2017-08-13T13:46:34Z</time>
      </trkpt>
      <trkpt lat="45.52787" lon="2.69973">
        <ele>934.06</ele>
        <time>2017-08-13T13:46:44Z</time>
      </trkpt>
      <trkpt lat="45.52782" lon="2.6997">
        <ele>935.02</ele>
        <time>2017-08-13T13:46:45Z</time>
      </trkpt>
      <trkpt lat="45.52778" lon="2.69963">
        <ele>935.02</ele>
        <time>2017-08-13T13:46:47Z</time>
      </trkpt>
      <trkpt lat="45.52778" lon="2.6996">
        <ele>935.02</ele>
        <time>2017-08-13T13:46:48Z</time>
      </trkpt>
      <trkpt lat="45.52778" lon="2.69953">
        <ele>935.02</ele>
        <time>2017-08-13T13:46:49Z</time>
      </trkpt>
      <trkpt lat="45.52779" lon="2.69949">
        <ele>935.02</ele>
        <time>2017-08-13T13:46:50Z</time>
      </trkpt>
      <trkpt lat="45.5278" lon="2.6994">
        <ele>936.46</ele>
        <time>2017-08-13T13:46:53Z</time>
      </trkpt>
      <trkpt lat="45.52783" lon="2.6993">
        <ele>936.46</ele>
        <time>2017-08-13T13:46:58Z</time>
      </trkpt>
      <trkpt lat="45.52783" lon="2.69929">
        <ele>936.46</ele>
        <time>2017-08-13T13:46:59Z</time>
      </trkpt>
      <trkpt lat="45.52784" lon="2.69927">
        <ele>936.46</ele>
        <time>2017-08-13T13:47:00Z</time>
      </trkpt>
      <trkpt lat="45.52787" lon="2.69905">
        <ele>936.94</ele>
        <time>2017-08-13T13:47:15Z</time>
      </trkpt>
      <trkpt lat="45.52786" lon="2.69905">
        <ele>936.94</ele>
        <time>2017-08-13T13:47:31Z</time>
      </trkpt>
      <trkpt lat="45.52788" lon="2.69905">
        <ele>936.94</ele>
        <time>2017-08-13T13:48:11Z</time>
      </trkpt>
      <trkpt lat="45.52789" lon="2.69905">
        <ele>936.94</ele>
        <time>2017-08-13T13:48:47Z</time>
      </trkpt>
      <trkpt lat="45.52788" lon="2.69907">
        <ele>937.42</ele>
        <time>2017-08-13T13:49:16Z</time>
      </trkpt>
      <trkpt lat="45.52788" lon="2.69906">
        <ele>937.42</ele>
        <time>2017-08-13T13:49:40Z</time>
      </trkpt>
      <trkpt lat="45.52789" lon="2.69906">
        <ele>937.9</ele>
        <time>2017-08-13T13:50:08Z</time>
      </trkpt>
      <trkpt lat="45.52788" lon="2.69905">
        <ele>937.9</ele>
        <time>2017-08-13T13:50:32Z</time>
      </trkpt>
      <trkpt lat="45.52787" lon="2.69906">
        <ele>937.9</ele>
        <time>2017-08-13T13:50:56Z</time>
      </trkpt>
      <trkpt lat="45.52788" lon="2.69906">
        <ele>937.9</ele>
        <time>2017-08-13T13:51:24Z</time>
      </trkpt>
      <trkpt lat="45.52787" lon="2.69906">
        <ele>937.9</ele>
        <time>2017-08-13T13:51:48Z</time>
      </trkpt>
      <trkpt lat="45.52788" lon="2.69906">
        <ele>937.9</ele>
        <time>2017-08-13T13:52:14Z</time>
      </trkpt>
      <trkpt lat="45.5279" lon="2.69906">
        <ele>937.9</ele>
        <time>2017-08-13T13:52:48Z</time>
      </trkpt>
      <trkpt lat="45.52789" lon="2.69907">
        <ele>937.9</ele>
        <time>2017-08-13T13:53:16Z</time>
      </trkpt>
      <trkpt lat="45.5279" lon="2.69907">
        <ele>937.9</ele>
        <time>2017-08-13T13:53:48Z</time>
      </trkpt>
      <trkpt lat="45.52789" lon="2.69907">
        <ele>938.38</ele>
        <time>2017-08-13T13:54:24Z</time>
      </trkpt>
      <trkpt lat="45.5279" lon="2.69907">
        <ele>938.86</ele>
        <time>2017-08-13T13:54:46Z</time>
      </trkpt>
      <trkpt lat="45.52791" lon="2.69907">
        <ele>938.86</ele>
        <time>2017-08-13T13:55:08Z</time>
      </trkpt>
      <trkpt lat="45.52792" lon="2.69906">
        <ele>938.86</ele>
        <time>2017-08-13T13:55:38Z</time>
      </trkpt>
      <trkpt lat="45.5279" lon="2.69905">
        <ele>938.86</ele>
        <time>2017-08-13T13:56:02Z</time>
      </trkpt>
      <trkpt lat="45.52788" lon="2.69906">
        <ele>938.86</ele>
        <time>2017-08-13T13:56:30Z</time>
      </trkpt>
      <trkpt lat="45.52788" lon="2.69907">
        <ele>938.86</ele>
        <time>2017-08-13T13:56:50Z</time>
      </trkpt>
      <trkpt lat="45.52789" lon="2.69907">
        <ele>938.86</ele>
        <time>2017-08-13T13:57:21Z</time>
      </trkpt>
      <trkpt lat="45.52788" lon="2.69908">
        <ele>938.86</ele>
        <time>2017-08-13T13:57:47Z</time>
      </trkpt>
      <trkpt lat="45.52789" lon="2.69907">
        <ele>938.86</ele>
        <time>2017-08-13T13:58:14Z</time>
      </trkpt>
      <trkpt lat="45.52787" lon="2.69906">
        <ele>938.86</ele>
        <time>2017-08-13T13:58:38Z</time>
      </trkpt>
      <trkpt lat="45.52786" lon="2.69904">
        <ele>938.86</ele>
        <time>2017-08-13T13:59:05Z</time>
      </trkpt>
      <trkpt lat="45.52785" lon="2.69905">
        <ele>938.86</ele>
        <time>2017-08-13T13:59:06Z</time>
      </trkpt>
      <trkpt lat="45.52783" lon="2.69907">
        <ele>938.86</ele>
        <time>2017-08-13T13:59:08Z</time>
      </trkpt>
      <trkpt lat="45.52782" lon="2.69912">
        <ele>938.86</ele>
        <time>2017-08-13T13:59:09Z</time>
      </trkpt>
      <trkpt lat="45.52782" lon="2.69915">
        <ele>938.86</ele>
        <time>2017-08-13T13:59:10Z</time>
      </trkpt>
      <trkpt lat="45.52782" lon="2.69919">
        <ele>938.86</ele>
        <time>2017-08-13T13:59:11Z</time>
      </trkpt>
      <trkpt lat="45.52782" lon="2.69923">
        <ele>938.86</ele>
        <time>2017-08-13T13:59:12Z</time>
      </trkpt>
      <trkpt lat="45.52782" lon="2.69927">
        <ele>938.86</ele>
        <time>2017-08-13T13:59:13Z</time>
      </trkpt>
      <trkpt lat="45.52779" lon="2.6994">
        <ele>937.9</ele>
        <time>2017-08-13T13:59:17Z</time>
      </trkpt>
      <trkpt lat="45.52776" lon="2.69959">
        <ele>936.94</ele>
        <time>2017-08-13T13:59:24Z</time>
      </trkpt>
      <trkpt lat="45.52777" lon="2.69964">
        <ele>936.94</ele>
        <time>2017-08-13T13:59:26Z</time>
      </trkpt>
      <trkpt lat="45.52776" lon="2.69977">
        <ele>936.94</ele>
        <time>2017-08-13T13:59:35Z</time>
      </trkpt>
      <trkpt lat="45.52776" lon="2.69979">
        <ele>936.94</ele>
        <time>2017-08-13T13:59:36Z</time>
      </trkpt>
      <trkpt lat="45.52777" lon="2.69981">
        <ele>936.94</ele>
        <time>2017-08-13T13:59:37Z</time>
      </trkpt>
      <trkpt lat="45.52777" lon="2.69984">
        <ele>936.94</ele>
        <time>2017-08-13T13:59:38Z</time>
      </trkpt>
      <trkpt lat="45.52778" lon="2.69986">
        <ele>936.46</ele>
        <time>2017-08-13T13:59:39Z</time>
      </trkpt>
      <trkpt lat="45.52779" lon="2.69989">
        <ele>936.46</ele>
        <time>2017-08-13T13:59:40Z</time>
      </trkpt>
      <trkpt lat="45.5278" lon="2.69992">
        <ele>936.46</ele>
        <time>2017-08-13T13:59:41Z</time>
      </trkpt>
      <trkpt lat="45.52781" lon="2.69996">
        <ele>936.94</ele>
        <time>2017-08-13T13:59:42Z</time>
      </trkpt>
      <trkpt lat="45.52782" lon="2.69999">
        <ele>936.94</ele>
        <time>2017-08-13T13:59:43Z</time>
      </trkpt>
      <trkpt lat="45.52783" lon="2.70003">
        <ele>935.98</ele>
        <time>2017-08-13T13:59:44Z</time>
      </trkpt>
      <trkpt lat="45.52784" lon="2.70007">
        <ele>935.98</ele>
        <time>2017-08-13T13:59:45Z</time>
      </trkpt>
      <trkpt lat="45.52788" lon="2.70018">
        <ele>935.98</ele>
        <time>2017-08-13T13:59:48Z</time>
      </trkpt>
      <trkpt lat="45.52798" lon="2.70027">
        <ele>935.5</ele>
        <time>2017-08-13T13:59:59Z</time>
      </trkpt>
      <trkpt lat="45.52797" lon="2.70027">
        <ele>935.5</ele>
        <time>2017-08-13T14:00:21Z</time>
      </trkpt>
      <trkpt lat="45.52797" lon="2.70025">
        <ele>935.5</ele>
        <time>2017-08-13T14:00:22Z</time>
      </trkpt>
      <trkpt lat="45.52795" lon="2.70023">
        <ele>935.5</ele>
        <time>2017-08-13T14:00:24Z</time>
      </trkpt>
      <trkpt lat="45.5279" lon="2.70036">
        <ele>935.5</ele>
        <time>2017-08-13T14:00:31Z</time>
      </trkpt>
      <trkpt lat="45.52791" lon="2.70039">
        <ele>935.5</ele>
        <time>2017-08-13T14:00:32Z</time>
      </trkpt>
      <trkpt lat="45.52791" lon="2.70041">
        <ele>935.5</ele>
        <time>2017-08-13T14:00:33Z</time>
      </trkpt>
      <trkpt lat="45.52792" lon="2.70045">
        <ele>935.5</ele>
        <time>2017-08-13T14:00:34Z</time>
      </trkpt>
      <trkpt lat="45.52791" lon="2.70065">
        <ele>935.02</ele>
        <time>2017-08-13T14:00:41Z</time>
      </trkpt>
      <trkpt lat="45.5279" lon="2.70067">
        <ele>935.02</ele>
        <time>2017-08-13T14:00:42Z</time>
      </trkpt>
      <trkpt lat="45.52788" lon="2.70069">
        <ele>935.02</ele>
        <time>2017-08-13T14:00:43Z</time>
      </trkpt>
      <trkpt lat="45.52787" lon="2.70071">
        <ele>935.02</ele>
        <time>2017-08-13T14:00:44Z</time>
      </trkpt>
      <trkpt lat="45.52786" lon="2.70073">
        <ele>936.46</ele>
        <time>2017-08-13T14:00:45Z</time>
      </trkpt>
      <trkpt lat="45.52785" lon="2.70075">
        <ele>936.46</ele>
        <time>2017-08-13T14:00:46Z</time>
      </trkpt>
      <trkpt lat="45.52781" lon="2.70083">
        <ele>936.94</ele>
        <time>2017-08-13T14:00:58Z</time>
      </trkpt>
      <trkpt lat="45.52779" lon="2.70082">
        <ele>936.94</ele>
        <time>2017-08-13T14:01:21Z</time>
      </trkpt>
      <trkpt lat="45.5278" lon="2.70087">
        <ele>936.94</ele>
        <time>2017-08-13T14:01:35Z</time>
      </trkpt>
      <trkpt lat="45.5278" lon="2.70089">
        <ele>936.94</ele>
        <time>2017-08-13T14:01:36Z</time>
      </trkpt>
      <trkpt lat="45.52782" lon="2.70095">
        <ele>937.9</ele>
        <time>2017-08-13T14:01:55Z</time>
      </trkpt>
      <trkpt lat="45.5278" lon="2.70093">
        <ele>937.9</ele>
        <time>2017-08-13T14:02:27Z</time>
      </trkpt>
      <trkpt lat="45.5278" lon="2.70094">
        <ele>937.9</ele>
        <time>2017-08-13T14:02:49Z</time>
      </trkpt>
      <trkpt lat="45.52782" lon="2.70092">
        <ele>937.9</ele>
        <time>2017-08-13T14:03:14Z</time>
      </trkpt>
      <trkpt lat="45.52782" lon="2.70094">
        <ele>937.9</ele>
        <time>2017-08-13T14:03:41Z</time>
      </trkpt>
      <trkpt lat="45.52782" lon="2.70096">
        <ele>937.9</ele>
        <time>2017-08-13T14:04:06Z</time>
      </trkpt>
      <trkpt lat="45.52781" lon="2.70093">
        <ele>938.38</ele>
        <time>2017-08-13T14:04:31Z</time>
      </trkpt>
      <trkpt lat="45.52781" lon="2.70093">
        <ele>938.38</ele>
        <time>2017-08-13T14:05:04Z</time>
      </trkpt>
      <trkpt lat="45.52783" lon="2.70095">
        <ele>938.38</ele>
        <time>2017-08-13T14:05:35Z</time>
      </trkpt>
      <trkpt lat="45.52782" lon="2.70095">
        <ele>938.38</ele>
        <time>2017-08-13T14:06:07Z</time>
      </trkpt>
      <trkpt lat="45.52782" lon="2.70095">
        <ele>938.38</ele>
        <time>2017-08-13T14:06:39Z</time>
      </trkpt>
      <trkpt lat="45.52781" lon="2.70093">
        <ele>938.38</ele>
        <time>2017-08-13T14:07:03Z</time>
      </trkpt>
      <trkpt lat="45.52779" lon="2.70085">
        <ele>938.38</ele>
        <time>2017-08-13T14:07:11Z</time>
      </trkpt>
      <trkpt lat="45.52778" lon="2.70084">
        <ele>938.38</ele>
        <time>2017-08-13T14:07:12Z</time>
      </trkpt>
      <trkpt lat="45.52776" lon="2.70084">
        <ele>938.38</ele>
        <time>2017-08-13T14:07:14Z</time>
      </trkpt>
      <trkpt lat="45.52775" lon="2.70084">
        <ele>938.38</ele>
        <time>2017-08-13T14:07:15Z</time>
      </trkpt>
      <trkpt lat="45.52766" lon="2.70091">
        <ele>938.86</ele>
        <time>2017-08-13T14:07:26Z</time>
      </trkpt>
      <trkpt lat="45.52749" lon="2.70106">
        <ele>941.27</ele>
        <time>2017-08-13T14:07:40Z</time>
      </trkpt>
      <trkpt lat="45.52745" lon="2.70112">
        <ele>941.75</ele>
        <time>2017-08-13T14:07:45Z</time>
      </trkpt>
      <trkpt lat="45.52744" lon="2.70113">
        <ele>941.75</ele>
        <time>2017-08-13T14:07:46Z</time>
      </trkpt>
      <trkpt lat="45.52743" lon="2.70115">
        <ele>941.75</ele>
        <time>2017-08-13T14:07:47Z</time>
      </trkpt>
      <trkpt lat="45.52742" lon="2.70116">
        <ele>941.75</ele>
        <time>2017-08-13T14:07:48Z</time>
      </trkpt>
      <trkpt lat="45.52741" lon="2.70117">
        <ele>941.75</ele>
        <time>2017-08-13T14:07:49Z</time>
      </trkpt>
      <trkpt lat="45.52739" lon="2.70119">
        <ele>942.23</ele>
        <time>2017-08-13T14:07:50Z</time>
      </trkpt>
      <trkpt lat="45.52738" lon="2.70121">
        <ele>942.23</ele>
        <time>2017-08-13T14:07:51Z</time>
      </trkpt>
      <trkpt lat="45.52737" lon="2.70123">
        <ele>942.23</ele>
        <time>2017-08-13T14:07:52Z</time>
      </trkpt>
      <trkpt lat="45.52736" lon="2.70125">
        <ele>942.23</ele>
        <time>2017-08-13T14:07:53Z</time>
      </trkpt>
      <trkpt lat="45.52735" lon="2.70127">
        <ele>942.23</ele>
        <time>2017-08-13T14:07:54Z</time>
      </trkpt>
      <trkpt lat="45.52734" lon="2.70129">
        <ele>942.71</ele>
        <time>2017-08-13T14:07:55Z</time>
      </trkpt>
      <trkpt lat="45.52734" lon="2.70131">
        <ele>942.71</ele>
        <time>2017-08-13T14:07:56Z</time>
      </trkpt>
      <trkpt lat="45.52733" lon="2.70133">
        <ele>942.71</ele>
        <time>2017-08-13T14:07:57Z</time>
      </trkpt>
      <trkpt lat="45.52724" lon="2.70157">
        <ele>943.19</ele>
        <time>2017-08-13T14:08:09Z</time>
      </trkpt>
      <trkpt lat="45.52713" lon="2.70186">
        <ele>944.63</ele>
        <time>2017-08-13T14:08:23Z</time>
      </trkpt>
      <trkpt lat="45.52701" lon="2.7021">
        <ele>946.07</ele>
        <time>2017-08-13T14:08:37Z</time>
      </trkpt>
      <trkpt lat="45.52685" lon="2.70224">
        <ele>946.07</ele>
        <time>2017-08-13T14:08:49Z</time>
      </trkpt>
      <trkpt lat="45.52675" lon="2.70242">
        <ele>947.04</ele>
        <time>2017-08-13T14:09:01Z</time>
      </trkpt>
      <trkpt lat="45.52673" lon="2.70246">
        <ele>947.52</ele>
        <time>2017-08-13T14:09:05Z</time>
      </trkpt>
      <trkpt lat="45.52671" lon="2.70248">
        <ele>947.52</ele>
        <time>2017-08-13T14:09:07Z</time>
      </trkpt>
      <trkpt lat="45.52669" lon="2.70253">
        <ele>947.52</ele>
        <time>2017-08-13T14:09:17Z</time>
      </trkpt>
      <trkpt lat="45.52668" lon="2.70252">
        <ele>948</ele>
        <time>2017-08-13T14:09:44Z</time>
      </trkpt>
    </trkseg>
  </trk>
</gpx>